# Wetter Temperatur Luftdruck Luftfeuchtigkeit Sichtweite Windgeschwindigkeit Windrichtung Zeit
1 Clouds 26 1011 89 10000 2.48 121 12:45 22.04.2021
2 Clouds 26 1011 88 10000 2.23 123 12:22 22.04.2021
3 Clouds 26 1011 88 10000 2.23 123 11:47 22.04.2021
4 Rain 27 1010 88 10000 1.79 120 11:23 22.04.2021
5 Rain 27 1010 88 10000 1.79 120 10:46 22.04.2021
6 Clouds 27 1009 87 10000 1.4 116 10:24 22.04.2021
7 Clouds 27 1009 87 10000 1.4 116 09:47 22.04.2021
8 Clouds 28 1009 85 10000 0.95 105 09:24 22.04.2021
9 Clouds 28 1009 85 10000 0.95 105 08:39 22.04.2021
10 Clouds 29 1008 80 10000 2.1 81 08:21 22.04.2021
11 Clouds 28 1008 82 10000 0.81 97 07:45 22.04.2021
12 Clouds 29 1008 77 10000 2.28 76 07:24 22.04.2021
13 Clouds 29 1008 77 10000 1.88 81 06:27 22.04.2021
14 Clouds 29 1008 78 10000 1.94 73 05:26 22.04.2021
15 Clouds 29 1008 78 10000 1.94 73 04:30 22.04.2021
16 Clouds 30 1012 70 10000 1.22 65 00:57 22.04.2021
17 Clouds 29 1012 74 10000 1.02 98 23:48 21.04.2021
18 Clouds 27 1012 81 10000 1.24 141 23:28 21.04.2021
19 Clouds 27 1012 81 10000 1.24 141 22:44 21.04.2021
20 Clouds 26 1011 85 10000 1.56 150 22:24 21.04.2021
21 Clouds 26 1011 85 10000 1.56 150 21:49 21.04.2021
22 Rain 25 1011 86 10000 1.54 154 21:24 21.04.2021
23 Clouds 25 1011 86 10000 1.54 154 20:58 21.04.2021
24 Clouds 25 1010 86 10000 1.59 162 20:21 21.04.2021
25 Clouds 25 1010 86 10000 1.56 159 19:43 21.04.2021
26 Clouds 25 1010 86 10000 1.56 159 19:43 21.04.2021
27 Clouds 25 1010 86 10000 1.78 164 19:23 21.04.2021
28 Rain 25 1010 86 10000 1.78 164 18:46 21.04.2021
29 Rain 26 1010 87 10000 1.92 167 18:26 21.04.2021
30 Clouds 26 1010 87 10000 1.92 167 17:48 21.04.2021
31 Clouds 26 1010 87 10000 1.73 157 17:24 21.04.2021
32 Clouds 26 1010 87 10000 1.73 157 16:49 21.04.2021
33 Clouds 26 1011 86 10000 1.42 149 15:59 21.04.2021
34 Clouds 26 1011 86 10000 1.42 149 15:40 21.04.2021
35 Clouds 26 1012 86 10000 1.37 151 14:55 21.04.2021
36 Clouds 26 1012 86 10000 1.37 151 14:36 21.04.2021
37 Clouds 26 1012 87 10000 1.68 155 14:18 21.04.2021
38 Clouds 26 1012 87 10000 1.73 152 13:40 21.04.2021
39 Clouds 26 1013 87 10000 1.89 158 13:19 21.04.2021
40 Clouds 26 1013 87 10000 1.89 158 12:30 21.04.2021
41 Rain 26 1013 86 10000 1.94 152 11:49 21.04.2021
42 Clouds 27 1012 86 10000 1.66 148 11:29 21.04.2021
43 Clouds 27 1012 86 10000 1.66 148 10:49 21.04.2021
44 Clouds 27 1011 85 10000 1.36 126 10:20 21.04.2021
45 Rain 27 1011 85 10000 1.36 126 09:42 21.04.2021
46 Rain 28 1010 84 10000 1.03 113 08:56 21.04.2021
47 Rain 28 1010 84 10000 1.03 113 08:37 21.04.2021
48 Clouds 29 1009 80 10000 1.18 65 08:18 21.04.2021
49 Clouds 29 1009 80 10000 1.18 65 07:31 21.04.2021
50 Clouds 30 1009 77 10000 1.51 52 06:28 21.04.2021
51 Clouds 30 1009 74 10000 2.03 51 04:46 21.04.2021
52 Rain 30 1012 67 10000 2.01 74 00:51 21.04.2021
53 Clouds 29 1012 72 10000 1.7 105 23:48 20.04.2021
54 Clouds 28 1012 80 10000 1.64 134 22:59 20.04.2021
55 Clouds 28 1012 80 10000 1.64 134 22:38 20.04.2021
56 Clouds 26 1012 85 10000 1.73 141 22:18 20.04.2021
57 Clouds 26 1012 85 10000 1.73 141 21:45 20.04.2021
58 Clouds 25 1011 86 10000 1.8 137 21:24 20.04.2021
59 Clouds 25 1011 86 10000 1.8 137 20:42 20.04.2021
60 Clouds 26 1010 87 10000 1.87 138 20:22 20.04.2021
61 Clouds 26 1010 87 10000 1.87 138 19:52 20.04.2021
62 Clouds 25 1010 86 10000 2.04 141 19:33 20.04.2021
63 Clouds 26 1010 86 10000 2.17 140 18:54 20.04.2021
64 Clouds 26 1010 86 10000 2.17 140 18:35 20.04.2021
65 Clouds 26 1010 87 10000 2.16 139 17:43 20.04.2021
66 Clouds 26 1010 87 10000 2.01 135 16:57 20.04.2021
67 Clouds 26 1010 87 10000 2.01 135 16:36 20.04.2021
68 Clouds 26 1011 86 10000 1.93 127 15:42 20.04.2021
69 Clouds 26 1012 86 10000 1.93 121 15:23 20.04.2021
70 Clouds 26 1012 86 10000 1.93 121 14:49 20.04.2021
71 Clouds 26 1012 86 10000 1.84 125 14:24 20.04.2021
72 Clouds 26 1012 87 10000 1.95 136 13:29 20.04.2021
73 Clouds 26 1012 87 10000 1.95 136 12:55 20.04.2021
74 Clouds 26 1012 87 10000 1.95 136 12:30 20.04.2021
75 Rain 27 1012 86 10000 2.09 134 11:47 20.04.2021
76 Clouds 27 1012 86 10000 1.81 125 11:28 20.04.2021
77 Clouds 27 1012 86 10000 1.81 125 10:55 20.04.2021
78 Rain 27 1012 86 10000 1.81 125 10:36 20.04.2021
79 Rain 27 1011 85 10000 1.65 118 10:18 20.04.2021
80 Clouds 28 1010 83 10000 1.64 96 09:19 20.04.2021
81 Rain 28 1010 83 10000 1.64 96 08:46 20.04.2021
82 Clouds 30 1010 75 10000 2.09 68 07:59 20.04.2021
83 Clouds 30 1009 79 10000 1.73 76 07:33 20.04.2021
84 Clouds 30 1009 71 10000 2.65 70 05:48 20.04.2021
85 Clouds 30 1009 71 10000 2.65 70 05:30 20.04.2021
86 Clouds 31 1010 68 10000 3.33 69 04:24 20.04.2021
87 Clouds 30 1012 68 10000 3.51 94 00:51 20.04.2021
88 Clouds 29 1012 76 10000 3.06 103 23:54 19.04.2021
89 Clouds 29 1012 76 10000 3.06 103 23:31 19.04.2021
90 Clouds 27 1012 82 10000 2.38 119 22:43 19.04.2021
91 Clouds 26 1011 86 10000 2.37 131 22:22 19.04.2021
92 Clouds 26 1011 86 10000 2.37 131 21:42 19.04.2021
93 Clouds 25 1010 86 10000 2.24 127 21:20 19.04.2021
94 Clouds 25 1010 86 10000 2.24 127 21:20 19.04.2021
95 Clouds 25 1010 86 10000 2.24 127 20:41 19.04.2021
96 Clouds 25 1010 86 10000 2.19 127 20:20 19.04.2021
97 Clouds 25 1010 87 10000 2.3 124 19:46 19.04.2021
98 Clouds 25 1009 87 10000 2.52 129 19:25 19.04.2021
99 Clouds 25 1009 87 10000 2.52 129 18:49 19.04.2021
100 Clouds 26 1009 87 10000 2.5 134 18:24 19.04.2021
101 Clouds 26 1009 87 10000 2.5 134 17:58 19.04.2021
102 Clouds 26 1009 87 10000 2.5 134 17:39 19.04.2021
103 Clouds 26 1010 87 10000 2.6 131 17:20 19.04.2021
104 Clouds 26 1010 87 10000 2.6 131 16:41 19.04.2021
105 Clouds 26 1011 88 10000 2.95 127 16:21 19.04.2021
106 Clouds 26 1011 88 10000 2.95 127 15:40 19.04.2021
107 Clouds 26 1011 88 10000 2.97 118 15:22 19.04.2021
108 Clouds 26 1011 88 10000 2.97 118 14:38 19.04.2021
109 Clouds 26 1012 87 10000 2.79 117 14:19 19.04.2021
110 Clouds 26 1012 87 10000 2.79 117 13:44 19.04.2021
111 Clouds 26 1012 87 10000 2.43 119 13:24 19.04.2021
112 Clouds 26 1012 87 10000 2.43 119 12:42 19.04.2021
113 Clouds 27 1011 86 10000 2.09 121 12:23 19.04.2021
114 Clouds 27 1011 86 10000 2.09 121 11:54 19.04.2021
115 Clouds 27 1011 86 10000 1.84 126 11:25 19.04.2021
116 Clouds 27 1011 86 10000 1.84 126 10:46 19.04.2021
117 Clouds 27 1010 85 10000 1.49 129 10:25 19.04.2021
118 Clouds 27 1010 85 10000 1.49 129 09:49 19.04.2021
119 Clouds 27 1009 84 10000 1.47 111 09:28 19.04.2021
120 Clouds 27 1009 84 10000 1.47 111 08:58 19.04.2021
121 Clouds 28 1009 83 10000 1.05 87 08:26 19.04.2021
122 Clouds 28 1009 83 10000 1.58 76 07:48 19.04.2021
123 Clouds 29 1008 79 10000 1.52 71 07:19 19.04.2021
124 Clouds 29 1008 79 10000 1.52 71 07:19 19.04.2021
125 Clouds 29 1008 79 10000 1.81 67 06:28 19.04.2021
126 Clouds 31 1010 69 10000 2.12 61 02:35 19.04.2021
127 Clouds 30 1011 71 10000 2.02 93 00:47 19.04.2021
128 Clouds 29 1011 76 10000 1.78 102 23:49 18.04.2021
129 Clouds 27 1011 82 10000 1.5 118 23:18 18.04.2021
130 Clouds 27 1011 82 10000 1.5 118 22:46 18.04.2021
131 Clouds 26 1010 86 10000 1.45 140 22:24 18.04.2021
132 Clouds 26 1009 87 10000 1.55 165 21:29 18.04.2021
133 Clouds 25 1009 87 10000 1.53 148 20:57 18.04.2021
134 Clouds 25 1009 87 10000 1.53 148 20:38 18.04.2021
135 Clouds 25 1009 87 10000 1.53 148 20:38 18.04.2021
136 Clouds 25 1009 88 10000 1.63 148 20:20 18.04.2021
137 Clouds 25 1009 88 10000 1.63 148 19:44 18.04.2021
138 Clouds 25 1008 87 10000 1.63 149 19:23 18.04.2021
139 Clouds 25 1008 87 10000 1.63 149 18:50 18.04.2021
140 Clouds 25 1008 87 10000 1.63 149 18:30 18.04.2021
141 Clouds 25 1008 87 10000 1.64 149 17:50 18.04.2021
142 Clouds 25 1008 87 10000 1.64 149 17:30 18.04.2021
143 Clouds 26 1009 87 10000 1.64 153 16:54 18.04.2021
144 Clouds 26 1009 87 10000 1.64 153 16:35 18.04.2021
145 Clouds 26 1009 87 10000 1.93 150 15:51 18.04.2021
146 Rain 26 1009 87 10000 1.93 150 15:30 18.04.2021
147 Clouds 26 1010 88 10000 2.04 149 14:58 18.04.2021
148 Rain 26 1010 88 10000 2.04 149 14:39 18.04.2021
149 Rain 26 1010 88 10000 2.05 147 14:18 18.04.2021
150 Rain 26 1010 88 10000 2.05 147 13:44 18.04.2021
151 Rain 26 1010 87 10000 2.07 138 13:24 18.04.2021
152 Clouds 26 1010 87 10000 2.07 138 12:35 18.04.2021
153 Clouds 26 1010 87 10000 2.19 135 11:51 18.04.2021
154 Clouds 27 1010 87 10000 2.09 130 11:26 18.04.2021
155 Clouds 27 1010 87 10000 2.09 130 10:51 18.04.2021
156 Clouds 27 1010 87 10000 2.09 130 10:32 18.04.2021
157 Clouds 27 1009 87 10000 1.93 127 09:57 18.04.2021
158 Clouds 27 1009 87 10000 1.93 127 09:38 18.04.2021
159 Clouds 27 1008 85 10000 1.39 99 09:19 18.04.2021
160 Clouds 27 1008 85 10000 1.39 99 08:39 18.04.2021
161 Clouds 28 1008 84 10000 1.59 78 08:18 18.04.2021
162 Rain 28 1008 84 10000 1.59 78 07:39 18.04.2021
163 Clouds 29 1007 80 10000 2.46 70 05:45 18.04.2021
164 Clouds 29 1007 80 10000 2.46 70 05:45 18.04.2021
165 Clouds 29 1007 79 10000 2.6 73 05:24 18.04.2021
166 Clouds 30 1009 71 10000 2.64 67 03:26 18.04.2021
167 Clouds 30 1010 74 10000 2.34 79 02:22 18.04.2021
168 Clouds 29 1010 75 10000 1.93 94 00:40 18.04.2021
169 Clouds 29 1011 78 10000 1.74 109 23:39 17.04.2021
170 Clouds 27 1010 83 10000 1.58 123 22:52 17.04.2021
171 Clouds 27 1010 83 10000 1.58 123 22:31 17.04.2021
172 Clouds 26 1010 87 10000 1.56 143 21:50 17.04.2021
173 Clouds 26 1010 87 10000 1.56 143 21:31 17.04.2021
174 Clouds 25 1009 88 10000 1.58 149 20:51 17.04.2021
175 Clouds 25 1008 88 10000 1.54 156 20:28 17.04.2021
176 Clouds 25 1008 88 10000 1.54 156 19:45 17.04.2021
177 Clouds 25 1008 89 10000 1.72 153 19:21 17.04.2021
178 Clouds 25 1008 89 10000 1.72 153 18:55 17.04.2021
179 Clouds 25 1008 89 10000 1.72 153 18:35 17.04.2021
180 Clouds 25 1009 88 10000 1.54 142 17:56 17.04.2021
181 Clouds 25 1009 88 10000 1.54 142 17:56 17.04.2021
182 Clouds 25 1009 88 10000 1.54 142 17:38 17.04.2021
183 Clouds 26 1009 88 10000 1.82 141 16:52 17.04.2021
184 Clouds 26 1010 88 10000 1.76 146 16:27 17.04.2021
185 Clouds 26 1010 88 10000 1.76 146 15:39 17.04.2021
186 Clouds 26 1010 88 10000 1.56 151 14:50 17.04.2021
187 Clouds 26 1011 88 10000 1.72 147 14:29 17.04.2021
188 Clouds 26 1010 88 10000 1.73 139 13:46 17.04.2021
189 Clouds 26 1010 88 10000 1.96 141 13:19 17.04.2021
190 Clouds 26 1010 88 10000 1.96 141 12:36 17.04.2021
191 Clouds 26 1010 88 10000 2.08 142 11:59 17.04.2021
192 Clouds 26 1010 88 10000 2.08 142 11:39 17.04.2021
193 Clouds 26 1010 88 10000 2.08 142 11:39 17.04.2021
194 Clouds 27 1010 87 10000 1.94 133 11:20 17.04.2021
195 Clouds 27 1010 87 10000 1.94 133 10:41 17.04.2021
196 Rain 27 1009 86 10000 1.69 125 10:18 17.04.2021
197 Clouds 28 1009 85 10000 1.72 103 09:19 17.04.2021
198 Clouds 27 1008 85 10000 1.57 103 08:33 17.04.2021
199 Clouds 28 1008 84 10000 1.78 92 07:54 17.04.2021
200 Clouds 28 1007 83 10000 1.93 84 06:34 17.04.2021
201 Clouds 30 1008 76 10000 2.65 66 03:48 17.04.2021
202 Clouds 31 1010 67 10000 2.14 67 01:35 17.04.2021
203 Clouds 30 1011 70 10000 1.78 80 00:40 17.04.2021
204 Clouds 29 1011 76 10000 1.46 87 00:19 17.04.2021
205 Clouds 29 1011 76 10000 1.46 87 23:43 16.04.2021
206 Clouds 27 1011 82 10000 1.36 120 22:52 16.04.2021
207 Clouds 26 1011 86 10000 1.59 145 22:25 16.04.2021
208 Clouds 26 1011 86 10000 1.59 145 21:57 16.04.2021
209 Clouds 26 1011 86 10000 1.59 145 21:39 16.04.2021
210 Clouds 25 1010 87 10000 1.79 153 20:57 16.04.2021
211 Clouds 25 1010 87 10000 1.79 153 20:38 16.04.2021
212 Clouds 26 1010 88 10000 1.76 150 20:18 16.04.2021
213 Clouds 26 1010 88 10000 1.76 150 19:47 16.04.2021
214 Clouds 26 1009 88 10000 1.83 150 19:20 16.04.2021
215 Clouds 26 1009 88 10000 1.61 153 18:28 16.04.2021
216 Clouds 26 1009 88 10000 1.61 153 17:51 16.04.2021
217 Clouds 26 1010 87 10000 1.55 162 17:20 16.04.2021
218 Clouds 26 1010 87 10000 1.55 162 16:45 16.04.2021
219 Clouds 26 1010 87 10000 1.42 166 16:26 16.04.2021
220 Clouds 26 1010 87 10000 1.42 166 15:56 16.04.2021
221 Clouds 26 1010 87 10000 1.42 166 15:36 16.04.2021
222 Clouds 26 1011 87 10000 1.36 161 14:46 16.04.2021
223 Clouds 26 1011 87 10000 1.42 158 14:28 16.04.2021
224 Clouds 26 1011 87 10000 1.42 158 13:56 16.04.2021
225 Clouds 26 1012 86 10000 1.36 145 13:23 16.04.2021
226 Clouds 26 1012 86 10000 1.36 145 12:54 16.04.2021
227 Clouds 26 1012 86 10000 1.36 145 12:34 16.04.2021
228 Clouds 27 1011 86 10000 1.46 133 11:59 16.04.2021
229 Clouds 27 1011 86 10000 1.46 133 11:39 16.04.2021
230 Clouds 27 1011 85 10000 1.46 118 11:20 16.04.2021
231 Clouds 27 1011 85 10000 1.46 118 10:41 16.04.2021
232 Clouds 27 1010 85 10000 1.29 118 10:20 16.04.2021
233 Clouds 27 1010 85 10000 1.29 118 09:44 16.04.2021
234 Clouds 27 1009 84 10000 0.73 119 09:21 16.04.2021
235 Clouds 27 1009 84 10000 0.73 119 08:42 16.04.2021
236 Clouds 28 1008 82 10000 0.7 66 08:18 16.04.2021
237 Clouds 28 1008 82 10000 0.7 66 07:37 16.04.2021
238 Clouds 29 1008 79 10000 0.83 41 06:59 16.04.2021
239 Clouds 29 1008 75 10000 1.48 50 06:24 16.04.2021
240 Clouds 31 1009 68 10000 2.25 42 04:23 16.04.2021
241 Clear 31 1011 65 10000 1.5 31 01:38 16.04.2021
242 Clear 30 1011 65 10000 1.07 52 00:42 16.04.2021
243 Clear 29 1011 70 10000 0.86 94 00:20 16.04.2021
244 Clear 29 1011 70 10000 0.86 94 23:42 15.04.2021
245 Clear 29 1011 70 10000 0.86 94 23:42 15.04.2021
246 Clear 27 1011 78 10000 0.87 140 23:23 15.04.2021
247 Clear 27 1011 78 10000 0.87 140 22:46 15.04.2021
248 Clear 25 1011 83 10000 1.33 161 22:22 15.04.2021
249 Clear 25 1011 83 10000 1.33 161 21:43 15.04.2021
250 Clouds 25 1010 84 10000 1.53 161 21:24 15.04.2021
251 Clouds 25 1010 86 10000 1.96 147 20:45 15.04.2021
252 Clouds 25 1009 87 10000 1.93 147 20:24 15.04.2021
253 Clouds 25 1009 87 10000 1.93 147 19:46 15.04.2021
254 Clouds 25 1009 87 10000 1.68 148 19:27 15.04.2021
255 Clouds 25 1009 87 10000 1.68 148 18:44 15.04.2021
256 Clouds 25 1009 87 10000 1.32 150 18:21 15.04.2021
257 Clouds 25 1009 87 10000 1.32 150 17:55 15.04.2021
258 Clouds 25 1009 87 10000 1.32 150 17:36 15.04.2021
259 Clouds 25 1010 88 10000 1.39 144 16:59 15.04.2021
260 Clouds 25 1010 88 10000 1.39 144 16:40 15.04.2021
261 Clouds 25 1010 88 10000 1.52 137 16:22 15.04.2021
262 Clouds 25 1010 88 10000 1.52 137 15:45 15.04.2021
263 Clouds 26 1011 88 10000 1.55 130 15:25 15.04.2021
264 Clouds 26 1011 88 10000 1.55 130 14:41 15.04.2021
265 Clouds 26 1011 88 10000 1.55 130 14:41 15.04.2021
266 Clouds 26 1011 88 10000 1.42 123 14:22 15.04.2021
267 Clouds 26 1011 88 10000 1.47 131 13:42 15.04.2021
268 Clouds 26 1011 88 10000 1.2 120 13:18 15.04.2021
269 Clouds 26 1011 88 10000 1.2 120 12:41 15.04.2021
270 Clouds 26 1011 88 10000 1.28 121 12:21 15.04.2021
271 Clouds 26 1011 88 10000 1.28 121 11:45 15.04.2021
272 Clouds 26 1010 87 10000 1.25 126 11:23 15.04.2021
273 Clouds 26 1010 87 10000 1.25 126 10:50 15.04.2021
274 Clouds 26 1010 87 10000 1.12 112 10:28 15.04.2021
275 Clouds 26 1010 87 10000 1.12 112 09:48 15.04.2021
276 Clouds 27 1009 85 10000 0.95 81 09:23 15.04.2021
277 Clouds 27 1009 85 10000 0.95 81 08:47 15.04.2021
278 Clouds 28 1008 82 10000 0.65 69 07:53 15.04.2021
279 Clouds 28 1007 80 10000 0.99 60 07:24 15.04.2021
280 Clouds 28 1007 80 10000 0.99 60 06:39 15.04.2021
281 Clouds 29 1007 79 10000 1.21 44 06:20 15.04.2021
282 Clouds 29 1008 79 10000 1.4 33 04:51 15.04.2021
283 Clouds 29 1011 71 10000 1.62 52 00:54 15.04.2021
284 Clouds 28 1010 75 10000 1.38 89 23:41 14.04.2021
285 Clouds 27 1010 80 10000 1.37 119 23:19 14.04.2021
286 Clouds 27 1010 80 10000 1.37 119 22:43 14.04.2021
287 Clouds 25 1010 84 10000 1.33 134 22:25 14.04.2021
288 Clouds 25 1010 84 10000 1.33 134 21:44 14.04.2021
289 Clouds 25 1009 85 10000 1.46 140 21:26 14.04.2021
290 Clouds 25 1009 85 10000 1.46 140 20:56 14.04.2021
291 Clouds 25 1009 85 10000 1.16 132 20:33 14.04.2021
292 Clouds 25 1008 84 10000 1.02 142 19:51 14.04.2021
293 Clouds 25 1008 84 10000 0.88 146 19:20 14.04.2021
294 Clouds 25 1008 84 10000 0.88 146 18:56 14.04.2021
295 Clouds 25 1008 84 10000 0.88 146 18:56 14.04.2021
296 Clouds 25 1008 83 10000 0.91 155 18:21 14.04.2021
297 Clouds 25 1008 83 10000 0.91 155 17:58 14.04.2021
298 Clouds 25 1008 83 10000 1.02 152 17:25 14.04.2021
299 Clouds 25 1008 83 10000 1.02 152 16:54 14.04.2021
300 Clouds 25 1009 83 10000 1.36 136 16:25 14.04.2021
301 Clouds 25 1009 83 10000 1.36 136 15:42 14.04.2021
302 Clouds 26 1010 84 10000 1.67 136 15:23 14.04.2021
303 Clouds 26 1010 84 10000 1.67 136 14:48 14.04.2021
304 Clouds 26 1010 84 10000 1.81 134 14:25 14.04.2021
305 Clouds 26 1010 84 10000 1.81 134 14:25 14.04.2021
306 Clouds 26 1010 85 10000 1.99 138 13:57 14.04.2021
307 Clouds 26 1010 85 10000 1.99 138 13:36 14.04.2021
308 Clouds 26 1010 84 10000 1.57 133 12:38 14.04.2021
309 Clouds 26 1010 84 10000 1.42 120 11:43 14.04.2021
310 Clouds 26 1010 84 10000 1.37 95 11:25 14.04.2021
311 Clouds 26 1010 84 10000 1.37 95 10:50 14.04.2021
312 Clouds 26 1010 84 10000 1.37 95 10:31 14.04.2021
313 Clouds 27 1009 83 10000 1.07 75 09:42 14.04.2021
314 Clouds 27 1008 81 10000 1.32 46 09:21 14.04.2021
315 Clouds 27 1008 81 10000 1.32 46 08:45 14.04.2021
316 Clouds 28 1007 77 10000 1.64 34 08:21 14.04.2021
317 Clouds 29 1007 73 10000 1.94 37 07:20 14.04.2021
318 Clouds 29 1007 71 10000 2.21 36 06:25 14.04.2021
319 Clouds 30 1007 67 10000 2.3 36 04:45 14.04.2021
320 Clouds 30 1010 67 10000 1.37 68 01:49 14.04.2021
321 Clouds 29 1011 70 10000 1.31 95 00:39 14.04.2021
322 Clouds 28 1011 77 10000 1.47 109 23:47 13.04.2021
323 Clouds 26 1010 83 10000 1.36 127 23:27 13.04.2021
324 Clouds 26 1010 83 10000 1.36 127 22:42 13.04.2021
325 Clouds 25 1010 86 10000 1.55 140 22:19 13.04.2021
326 Clouds 25 1010 86 10000 1.55 140 21:46 13.04.2021
327 Clouds 25 1009 87 10000 1.41 140 21:27 13.04.2021
328 Clouds 24 1009 87 10000 1.83 142 20:42 13.04.2021
329 Clouds 25 1008 87 10000 1.91 133 20:21 13.04.2021
330 Clouds 25 1008 87 10000 1.91 133 19:48 13.04.2021
331 Clouds 25 1008 87 10000 2 137 19:24 13.04.2021
332 Clouds 25 1008 87 10000 2 137 18:41 13.04.2021
333 Clouds 25 1008 87 10000 2.12 143 17:56 13.04.2021
334 Clouds 25 1008 87 10000 2.12 143 17:36 13.04.2021
335 Clouds 25 1008 88 10000 2.01 142 17:18 13.04.2021
336 Clouds 25 1008 88 10000 2.01 142 16:43 13.04.2021
337 Clouds 25 1009 88 10000 1.9 141 16:20 13.04.2021
338 Clouds 25 1009 88 10000 1.9 141 15:44 13.04.2021
339 Clouds 25 1010 87 10000 1.92 142 15:21 13.04.2021
340 Clouds 25 1010 88 10000 2.38 136 14:46 13.04.2021
341 Clouds 25 1010 88 10000 2.08 130 14:19 13.04.2021
342 Clouds 25 1010 88 10000 2.08 130 13:45 13.04.2021
343 Clouds 26 1010 87 10000 1.6 133 13:24 13.04.2021
344 Clouds 26 1010 87 10000 1.6 133 12:55 13.04.2021
345 Clouds 26 1010 87 10000 1.4 120 12:27 13.04.2021
346 Clouds 26 1010 87 10000 1.4 120 11:52 13.04.2021
347 Clouds 26 1010 87 10000 1.08 101 11:29 13.04.2021
348 Clouds 26 1010 87 10000 1.08 101 10:45 13.04.2021
349 Rain 26 1009 86 10000 1.08 85 10:21 13.04.2021
350 Clouds 26 1009 86 10000 1.08 85 09:53 13.04.2021
351 Clouds 26 1009 86 10000 1.08 85 09:34 13.04.2021
352 Clouds 27 1008 84 10000 1.41 89 08:52 13.04.2021
353 Clouds 28 1007 82 10000 1.82 78 08:26 13.04.2021
354 Clouds 28 1007 82 10000 1.82 78 07:59 13.04.2021
355 Clouds 28 1007 82 10000 1.82 78 07:35 13.04.2021
356 Clouds 28 1007 81 10000 1.75 55 06:29 13.04.2021
357 Clouds 29 1007 80 10000 2.14 54 04:45 13.04.2021
358 Clouds 30 1009 65 10000 2.46 79 01:37 13.04.2021
359 Clouds 28 1010 75 10000 1.93 108 23:59 12.04.2021
360 Clouds 28 1010 75 10000 1.93 108 23:39 12.04.2021
361 Clouds 27 1010 82 10000 1.27 133 23:18 12.04.2021
362 Clouds 27 1010 82 10000 1.27 133 22:38 12.04.2021
363 Clouds 25 1010 86 10000 1.62 152 21:56 12.04.2021
364 Clouds 25 1010 86 10000 1.62 152 21:36 12.04.2021
365 Clouds 25 1009 87 10000 1.58 171 21:18 12.04.2021
366 Clouds 25 1009 86 10000 2.37 133 20:37 12.04.2021
367 Clouds 25 1008 87 10000 2.27 137 20:19 12.04.2021
368 Clouds 25 1008 87 10000 2.27 137 19:42 12.04.2021
369 Clouds 25 1008 87 10000 2.15 133 19:21 12.04.2021
370 Clouds 25 1008 87 10000 2.15 133 18:52 12.04.2021
371 Clouds 25 1008 87 10000 2.15 133 18:34 12.04.2021
372 Clouds 25 1009 86 10000 1.72 139 17:59 12.04.2021
373 Clouds 25 1009 86 10000 1.72 139 17:59 12.04.2021
374 Clouds 25 1009 86 10000 1.72 139 17:41 12.04.2021
375 Clouds 25 1009 87 10000 1.34 153 17:19 12.04.2021
376 Clouds 25 1009 87 10000 1.34 153 16:41 12.04.2021
377 Clouds 25 1010 88 10000 1.19 159 16:23 12.04.2021
378 Clouds 25 1010 88 10000 1.19 159 15:45 12.04.2021
379 Clouds 25 1011 89 10000 1.34 154 14:59 12.04.2021
380 Clouds 25 1011 89 10000 1.34 154 14:40 12.04.2021
381 Clouds 26 1011 87 10000 1.63 138 14:22 12.04.2021
382 Clouds 26 1011 87 10000 1.63 138 13:41 12.04.2021
383 Clouds 26 1011 86 10000 1.74 131 13:20 12.04.2021
384 Clouds 26 1011 86 10000 1.74 131 12:44 12.04.2021
385 Clouds 26 1011 86 10000 1.53 121 12:23 12.04.2021
386 Clouds 26 1011 86 10000 1.53 121 11:43 12.04.2021
387 Rain 26 1010 86 10000 1.21 117 10:51 12.04.2021
388 Clouds 26 1010 86 10000 1.42 103 10:28 12.04.2021
389 Clouds 26 1010 86 10000 1.42 103 09:53 12.04.2021
390 Clouds 27 1009 85 10000 1.47 92 09:25 12.04.2021
391 Rain 27 1009 85 10000 1.47 92 08:54 12.04.2021
392 Clouds 28 1009 80 10000 1.28 101 07:58 12.04.2021
393 Clouds 28 1009 80 10000 1.28 101 07:30 12.04.2021
394 Clouds 28 1008 78 10000 1.26 80 06:40 12.04.2021
395 Clouds 28 1008 79 10000 1.65 60 05:47 12.04.2021
396 Clouds 30 1010 69 10000 1.62 42 03:19 12.04.2021
397 Clouds 26 1012 87 10000 1.45 123 00:29 12.04.2021
398 Clouds 26 1012 87 10000 1.45 123 23:55 11.04.2021
399 Clouds 26 1012 87 10000 1.45 123 23:36 11.04.2021
400 Clouds 26 1011 86 10000 1.37 159 23:18 11.04.2021
401 Clouds 26 1011 86 10000 1.37 159 22:37 11.04.2021
402 Clouds 25 1011 88 10000 1.55 174 22:19 11.04.2021
403 Clouds 25 1011 88 10000 1.55 174 21:41 11.04.2021
404 Clouds 25 1010 88 7131 1.47 171 21:23 11.04.2021
405 Clouds 25 1010 86 10000 1.2 199 20:42 11.04.2021
406 Clouds 25 1009 86 10000 1.23 209 20:23 11.04.2021
407 Clouds 25 1009 86 10000 1.23 209 19:41 11.04.2021
408 Clouds 25 1009 86 10000 1.59 224 19:20 11.04.2021
409 Clouds 25 1009 86 10000 1.59 224 18:55 11.04.2021
410 Clouds 25 1009 86 10000 1.59 224 18:55 11.04.2021
411 Clouds 25 1009 86 10000 1.59 224 18:37 11.04.2021
412 Clouds 25 1009 87 10000 1.98 228 18:18 11.04.2021
413 Clouds 25 1009 87 10000 1.98 228 18:18 11.04.2021
414 Clouds 25 1009 87 10000 1.98 228 17:40 11.04.2021
415 Clouds 25 1010 87 10000 2.09 233 17:19 11.04.2021
416 Clouds 25 1010 87 10000 2.09 233 16:40 11.04.2021
417 Clouds 25 1010 87 10000 2.09 233 16:40 11.04.2021
418 Rain 25 1010 87 10000 2.09 241 16:20 11.04.2021
419 Clouds 25 1010 87 10000 2.09 241 15:43 11.04.2021
420 Clouds 26 1011 86 10000 1.85 248 15:22 11.04.2021
421 Clouds 26 1011 86 10000 1.85 248 14:51 11.04.2021
422 Clouds 26 1011 84 10000 1.78 246 14:21 11.04.2021
423 Clouds 26 1011 84 10000 1.78 246 13:40 11.04.2021
424 Clouds 26 1012 82 10000 1.27 242 13:22 11.04.2021
425 Clouds 26 1012 82 10000 1.27 242 13:22 11.04.2021
426 Rain 26 1012 81 10000 0.63 247 12:26 11.04.2021
427 Rain 26 1012 81 10000 0.63 247 11:56 11.04.2021
428 Rain 26 1012 81 10000 0.63 247 11:38 11.04.2021
429 Rain 27 1011 81 10000 0.52 294 11:19 11.04.2021
430 Rain 27 1011 81 10000 0.52 294 10:40 11.04.2021
431 Rain 27 1010 81 10000 1.02 338 10:20 11.04.2021
432 Clouds 27 1010 81 10000 1.02 338 09:40 11.04.2021
433 Clouds 27 1009 80 10000 1.53 346 09:22 11.04.2021
434 Rain 27 1009 79 10000 1.38 354 08:39 11.04.2021
435 Rain 29 1008 71 10000 1.82 356 07:38 11.04.2021
436 Rain 29 1008 68 10000 2.23 359 07:19 11.04.2021
437 Rain 29 1008 69 10000 2.37 0 05:46 11.04.2021
438 Rain 29 1009 71 10000 2.69 4 05:22 11.04.2021
439 Rain 29 1009 71 10000 2.69 4 04:35 11.04.2021
440 Rain 30 1010 67 10000 2.92 11 03:20 11.04.2021
441 Clouds 28 1012 77 10000 2.15 19 00:49 11.04.2021
442 Rain 28 1012 81 10000 1.91 16 00:25 11.04.2021
443 Rain 28 1012 81 10000 1.91 16 23:33 10.04.2021
444 Rain 27 1011 84 10000 1.57 23 22:54 10.04.2021
445 Rain 26 1011 85 10000 1.33 28 22:26 10.04.2021
446 Rain 26 1011 85 10000 1.33 28 21:52 10.04.2021
447 Rain 26 1010 85 10000 0.74 24 21:24 10.04.2021
448 Rain 26 1010 85 10000 0.74 24 20:53 10.04.2021
449 Rain 25 1010 86 10000 0.84 326 20:32 10.04.2021
450 Rain 25 1010 86 10000 0.84 326 20:32 10.04.2021
451 Clouds 26 1009 85 10000 0.94 340 19:48 10.04.2021
452 Clouds 26 1009 84 10000 0.9 316 19:28 10.04.2021
453 Clouds 26 1009 84 10000 0.9 316 18:54 10.04.2021
454 Clouds 26 1009 84 10000 0.9 316 18:35 10.04.2021
455 Clouds 26 1008 84 10000 0.92 321 17:54 10.04.2021
456 Clouds 26 1008 84 10000 0.92 321 17:34 10.04.2021
457 Clouds 25 1009 84 10000 0.3 298 16:31 10.04.2021
458 Clouds 25 1010 87 10000 0.25 199 15:56 10.04.2021
459 Clouds 25 1010 87 10000 0.25 199 15:35 10.04.2021
460 Rain 25 1010 89 10000 0.46 85 14:50 10.04.2021
461 Rain 25 1011 89 10000 0.69 65 14:25 10.04.2021
462 Rain 25 1011 87 10000 0.48 116 13:47 10.04.2021
463 Rain 26 1011 86 10000 0.54 128 13:28 10.04.2021
464 Rain 26 1011 86 10000 0.54 128 12:37 10.04.2021
465 Clouds 26 1011 86 10000 0.62 136 11:52 10.04.2021
466 Rain 26 1010 86 10000 0.49 149 11:28 10.04.2021
467 Rain 26 1010 86 10000 0.49 149 10:57 10.04.2021
468 Rain 26 1010 86 10000 0.49 149 10:39 10.04.2021
469 Rain 26 1009 86 10000 0.41 206 10:21 10.04.2021
470 Rain 26 1009 87 10000 0.56 267 09:29 10.04.2021
471 Clouds 26 1009 87 10000 0.56 267 08:58 10.04.2021
472 Rain 25 1009 93 5441 1.18 298 08:30 10.04.2021
473 Rain 26 1008 90 5243 2.48 332 07:52 10.04.2021
474 Rain 26 1008 89 5522 3.2 346 07:25 10.04.2021
475 Rain 27 1008 87 7217 3.44 349 06:27 10.04.2021
476 Rain 28 1008 83 7764 3.63 355 04:49 10.04.2021
477 Rain 27 1010 85 10000 2.4 349 02:57 10.04.2021
478 Clouds 27 1010 85 10000 2.4 349 02:35 10.04.2021
479 Rain 27 1011 86 10000 2.89 13 00:53 10.04.2021
480 Rain 26 1011 87 10000 2.36 4 00:29 10.04.2021
481 Rain 26 1011 87 10000 2.36 4 23:44 09.04.2021
482 Rain 25 1011 91 10000 1.43 333 23:19 09.04.2021
483 Rain 25 1011 91 10000 1.43 333 22:42 09.04.2021
484 Rain 25 1011 92 9751 1.07 320 22:24 09.04.2021
485 Rain 25 1011 92 9751 1.07 320 21:39 09.04.2021
486 Rain 25 1010 93 10000 2.21 345 21:19 09.04.2021
487 Rain 25 1010 93 10000 2.21 345 20:44 09.04.2021
488 Rain 24 1010 94 10000 0.6 260 20:23 09.04.2021
489 Rain 24 1010 94 10000 0.6 260 19:56 09.04.2021
490 Rain 24 1010 94 10000 0.6 260 19:37 09.04.2021
491 Rain 24 1009 95 9025 1.27 281 19:19 09.04.2021
492 Clouds 24 1009 95 9025 1.27 281 18:41 09.04.2021
493 Clouds 24 1009 95 9025 1.27 281 18:41 09.04.2021
494 Clouds 24 1009 94 10000 1.81 291 18:19 09.04.2021
495 Clouds 24 1009 94 10000 1.81 291 17:37 09.04.2021
496 Clouds 24 1010 93 10000 1.6 282 16:56 09.04.2021
497 Clouds 24 1010 93 10000 1.6 282 16:35 09.04.2021
498 Clouds 24 1010 93 10000 1.24 267 15:52 09.04.2021
499 Rain 24 1010 93 10000 1.24 267 15:34 09.04.2021
500 Clouds 24 1011 93 10000 1.11 258 14:58 09.04.2021
501 Rain 24 1011 93 10000 1.11 258 14:39 09.04.2021
502 Rain 24 1012 90 10000 0.7 285 13:52 09.04.2021
503 Clouds 25 1012 88 10000 1.12 297 13:25 09.04.2021
504 Rain 25 1012 88 10000 1.12 297 12:51 09.04.2021
505 Rain 25 1012 88 10000 1.12 297 12:32 09.04.2021
506 Rain 24 1012 88 10000 0.63 236 11:46 09.04.2021
507 Rain 24 1012 87 10000 0.81 272 11:22 09.04.2021
508 Rain 24 1012 87 10000 0.81 272 10:46 09.04.2021
509 Rain 25 1011 85 10000 0.73 294 10:20 09.04.2021
510 Rain 25 1011 85 10000 0.73 294 09:39 09.04.2021
511 Rain 25 1010 85 10000 0.38 304 09:20 09.04.2021
512 Rain 25 1010 85 10000 0.38 304 08:51 09.04.2021
513 Clouds 24 1009 91 10000 1.01 213 07:36 09.04.2021
514 Rain 24 1009 92 10000 0.88 195 06:34 09.04.2021
515 Rain 24 1008 93 10000 0.48 132 05:53 09.04.2021
516 Rain 24 1009 96 1541 3.74 4 03:52 09.04.2021
517 Rain 24 1011 96 1504 1.25 35 01:32 09.04.2021
518 Clouds 24 1012 95 3143 2.22 36 00:37 09.04.2021
519 Clouds 24 1012 95 1895 3.05 12 00:18 09.04.2021
520 Clouds 24 1011 97 1292 3.7 359 23:18 08.04.2021
521 Rain 24 1011 97 1292 3.7 359 22:42 08.04.2021
522 Clouds 24 1009 97 644 2.11 346 22:21 08.04.2021
523 Rain 24 1009 97 644 2.11 346 21:54 08.04.2021
524 Clouds 24 1009 97 644 2.11 346 21:36 08.04.2021
525 Clouds 24 1007 96 1042 1.24 89 21:18 08.04.2021
526 Rain 24 1007 96 1042 1.24 89 20:45 08.04.2021
527 Clouds 24 1008 96 2062 1.16 48 20:25 08.04.2021
528 Clouds 25 1008 87 10000 0.87 344 19:42 08.04.2021
529 Clouds 25 1007 86 10000 0.9 36 19:19 08.04.2021
530 Clouds 25 1007 86 10000 0.9 36 18:45 08.04.2021
531 Clouds 25 1007 86 10000 1.1 75 18:20 08.04.2021
532 Clouds 25 1007 86 10000 1.1 75 17:48 08.04.2021
533 Clouds 25 1008 87 10000 1.11 90 17:24 08.04.2021
534 Rain 25 1008 87 10000 1.11 90 16:46 08.04.2021
535 Rain 25 1009 88 10000 1.02 93 16:25 08.04.2021
536 Rain 25 1009 88 10000 1.02 93 15:47 08.04.2021
537 Rain 25 1009 88 10000 1.48 93 15:28 08.04.2021
538 Clouds 25 1009 88 10000 1.48 93 14:44 08.04.2021
539 Rain 25 1010 89 10000 2.01 58 14:23 08.04.2021
540 Clouds 25 1010 89 10000 2.01 58 13:54 08.04.2021
541 Rain 25 1010 89 10000 2.01 58 13:36 08.04.2021
542 Rain 25 1009 89 10000 2.21 57 13:18 08.04.2021
543 Rain 25 1009 89 10000 2.21 57 12:38 08.04.2021
544 Clouds 25 1010 90 10000 2.31 49 11:58 08.04.2021
545 Clouds 25 1009 91 6356 2.63 47 11:29 08.04.2021
546 Clouds 25 1009 91 6356 2.63 47 10:56 08.04.2021
547 Clouds 25 1009 91 7098 3.21 41 10:26 08.04.2021
548 Clouds 25 1009 91 7098 3.21 41 10:26 08.04.2021
549 Clouds 25 1009 91 7098 3.21 41 10:26 08.04.2021
550 Clouds 25 1009 91 7098 3.21 41 10:26 08.04.2021
551 Clouds 25 1009 91 7098 3.21 41 10:26 08.04.2021
552 Clouds 25 1009 91 7098 3.21 41 09:49 08.04.2021
553 Rain 25 1009 91 7098 3.21 41 09:30 08.04.2021
554 Clouds 26 1008 89 10000 3.46 27 08:45 08.04.2021
555 Clouds 26 1007 89 7365 4.17 17 08:22 08.04.2021
556 Clouds 26 1007 89 7365 4.17 17 07:47 08.04.2021
557 Clouds 27 1007 85 6907 3.98 19 06:46 08.04.2021
558 Clouds 28 1009 75 10000 3.39 32 02:26 08.04.2021
559 Clouds 28 1009 79 10000 3.11 31 00:32 08.04.2021
560 Clouds 27 1009 81 10000 2.66 31 23:50 07.04.2021
561 Clouds 27 1009 84 10000 2.29 31 23:27 07.04.2021
562 Clouds 27 1009 84 10000 2.29 31 22:58 07.04.2021
563 Clouds 27 1009 84 10000 2.29 31 22:39 07.04.2021
564 Clouds 26 1008 86 10000 1.81 46 22:21 07.04.2021
565 Clouds 26 1008 86 10000 1.81 46 21:35 07.04.2021
566 Clouds 25 1008 86 10000 1.72 45 20:59 07.04.2021
567 Clouds 26 1008 88 10000 2.28 21 20:40 07.04.2021
568 Clouds 25 1007 88 10000 2.02 27 20:19 07.04.2021
569 Clouds 25 1007 88 10000 2.02 27 19:40 07.04.2021
570 Clouds 25 1007 88 10000 2.05 26 19:22 07.04.2021
571 Clouds 25 1007 88 10000 2.05 26 18:42 07.04.2021
572 Clouds 25 1007 87 10000 1.78 23 18:18 07.04.2021
573 Clouds 25 1007 87 10000 1.78 23 17:47 07.04.2021
574 Clouds 25 1007 87 10000 1.87 25 17:28 07.04.2021
575 Clouds 25 1007 87 10000 1.87 25 16:46 07.04.2021
576 Clouds 25 1008 87 10000 2.39 26 16:21 07.04.2021
577 Clouds 25 1008 87 10000 2.39 26 15:54 07.04.2021
578 Clouds 25 1008 87 10000 2.39 26 15:34 07.04.2021
579 Clouds 25 1008 86 10000 2.91 28 14:47 07.04.2021
580 Clouds 25 1010 86 10000 3.44 20 14:24 07.04.2021
581 Clouds 25 1009 86 10000 3.24 19 13:45 07.04.2021
582 Clouds 25 1010 87 10000 3.76 15 13:20 07.04.2021
583 Clouds 25 1010 87 10000 3.76 15 12:46 07.04.2021
584 Clouds 26 1010 88 10000 3.97 18 12:19 07.04.2021
585 Clouds 26 1010 88 10000 3.97 18 11:45 07.04.2021
586 Clouds 26 1009 89 10000 4.22 18 11:22 07.04.2021
587 Clouds 26 1009 89 10000 4.22 18 10:50 07.04.2021
588 Rain 26 1008 90 9656 3.92 15 09:50 07.04.2021
589 Clouds 25 1008 90 8087 3.73 13 09:28 07.04.2021
590 Clouds 25 1008 90 8087 3.73 13 08:53 07.04.2021
591 Clouds 26 1008 90 5885 3.08 16 08:31 07.04.2021
592 Clouds 26 1007 89 10000 3.04 8 07:54 07.04.2021
593 Clouds 26 1007 89 7790 2.88 1 07:29 07.04.2021
594 Clouds 26 1007 89 7790 2.88 1 06:43 07.04.2021
595 Clouds 26 1007 91 10000 2.55 353 05:42 07.04.2021
596 Clouds 26 1010 91 1745 2.99 12 01:52 07.04.2021
597 Clouds 25 1010 94 3683 3.46 36 23:48 06.04.2021
598 Clouds 25 1010 94 5939 3.3 36 23:22 06.04.2021
599 Clouds 25 1010 94 5939 3.3 36 22:55 06.04.2021
600 Clouds 25 1009 94 9584 3 45 22:21 06.04.2021
601 Clouds 25 1009 94 9584 3 45 21:44 06.04.2021
602 Clouds 25 1008 92 10000 2.36 59 21:24 06.04.2021
603 Rain 25 1008 92 10000 2.36 59 20:57 06.04.2021
604 Rain 25 1008 92 10000 2.36 59 20:37 06.04.2021
605 Rain 25 1008 90 9284 1.95 51 20:18 06.04.2021
606 Rain 25 1008 90 9284 1.95 51 19:41 06.04.2021
607 Rain 25 1008 90 9284 1.95 51 19:41 06.04.2021
608 Rain 26 1007 90 10000 2.06 53 19:23 06.04.2021
609 Rain 26 1007 90 10000 2.06 53 18:43 06.04.2021
610 Clouds 26 1007 90 8428 1.85 56 18:20 06.04.2021
611 Clouds 26 1007 90 8428 1.85 56 17:45 06.04.2021
612 Clouds 26 1007 89 10000 1.87 59 17:19 06.04.2021
613 Rain 26 1007 89 10000 1.87 59 16:46 06.04.2021
614 Rain 26 1008 88 10000 1.92 54 16:26 06.04.2021
615 Rain 26 1009 87 10000 1.58 49 15:27 06.04.2021
616 Clouds 26 1009 87 10000 1.58 49 14:45 06.04.2021
617 Clouds 26 1009 87 10000 1.41 68 14:27 06.04.2021
618 Clouds 26 1009 88 10000 1.12 89 13:47 06.04.2021
619 Clouds 26 1009 89 10000 1.42 99 13:27 06.04.2021
620 Clouds 26 1009 89 10000 1.42 99 13:27 06.04.2021
621 Clouds 26 1009 89 10000 1.42 99 12:55 06.04.2021
622 Rain 26 1009 89 10000 1.42 99 12:36 06.04.2021
623 Rain 27 1009 88 10000 1.39 84 12:18 06.04.2021
624 Rain 27 1009 88 10000 1.39 84 11:43 06.04.2021
625 Clouds 27 1009 87 10000 1.54 80 11:19 06.04.2021
626 Rain 27 1009 87 10000 1.54 80 10:43 06.04.2021
627 Rain 27 1008 85 10000 0.97 71 10:22 06.04.2021
628 Clouds 27 1008 85 10000 0.97 71 09:45 06.04.2021
629 Clouds 27 1007 84 10000 0.88 42 09:25 06.04.2021
630 Clouds 28 1007 84 10000 0.78 348 08:29 06.04.2021
631 Clouds 28 1007 84 10000 0.78 348 07:32 06.04.2021
632 Clouds 28 1006 83 10000 1.34 335 06:54 06.04.2021
633 Clouds 30 1007 75 10000 1.96 348 03:55 06.04.2021
634 Clouds 29 1010 74 10000 1.71 24 00:51 06.04.2021
635 Clouds 28 1010 80 10000 1.2 36 00:22 06.04.2021
636 Clouds 28 1010 80 10000 1.2 36 23:58 05.04.2021
637 Clouds 28 1010 80 10000 1.2 36 23:39 05.04.2021
638 Clouds 27 1009 85 10000 0.9 60 23:18 05.04.2021
639 Clouds 27 1009 85 10000 0.9 60 22:40 05.04.2021
640 Clouds 26 1009 87 10000 0.62 90 21:56 05.04.2021
641 Clouds 26 1009 87 10000 0.62 90 21:37 05.04.2021
642 Clouds 26 1008 87 10000 0.73 105 21:18 05.04.2021
643 Clouds 26 1008 87 10000 0.73 105 20:41 05.04.2021
644 Clouds 26 1007 87 10000 0.22 156 20:22 05.04.2021
645 Clouds 26 1007 87 10000 0.22 156 19:37 05.04.2021
646 Clouds 26 1007 87 10000 0.16 303 19:18 05.04.2021
647 Clouds 26 1007 87 10000 0.16 303 18:41 05.04.2021
648 Clouds 26 1007 87 10000 0.03 177 18:19 05.04.2021
649 Clouds 26 1007 87 10000 0.03 177 17:47 05.04.2021
650 Clouds 26 1007 87 10000 0.29 240 17:23 05.04.2021
651 Clouds 26 1007 87 10000 0.29 240 16:47 05.04.2021
652 Clouds 26 1008 87 10000 0.13 200 16:22 05.04.2021
653 Clouds 26 1008 87 10000 0.13 200 15:57 05.04.2021
654 Clouds 26 1008 87 10000 0.13 200 15:32 05.04.2021
655 Clouds 26 1009 87 10000 0.4 101 14:59 05.04.2021
656 Clouds 26 1009 87 10000 0.4 101 14:36 05.04.2021
657 Clouds 26 1010 87 10000 0.67 116 13:46 05.04.2021
658 Clouds 26 1010 88 10000 0.91 104 13:26 05.04.2021
659 Clouds 26 1010 88 10000 0.91 104 12:46 05.04.2021
660 Clouds 27 1010 87 10000 0.8 105 12:24 05.04.2021
661 Clouds 27 1010 87 10000 0.8 105 11:46 05.04.2021
662 Clouds 27 1009 86 10000 0.81 117 11:28 05.04.2021
663 Clouds 27 1009 86 10000 0.81 117 10:48 05.04.2021
664 Clouds 27 1008 85 10000 0.59 104 10:29 05.04.2021
665 Clouds 27 1008 85 10000 0.59 104 09:48 05.04.2021
666 Clouds 28 1007 84 10000 0.49 64 09:25 05.04.2021
667 Clouds 28 1007 84 10000 0.49 64 08:45 05.04.2021
668 Clouds 28 1007 84 10000 0.77 92 08:26 05.04.2021
669 Clouds 28 1007 84 10000 0.77 92 07:38 05.04.2021
670 Clouds 29 1006 81 10000 0.52 98 06:51 05.04.2021
671 Clouds 30 1008 72 10000 1.45 38 02:36 05.04.2021
672 Clouds 30 1010 69 10000 1.2 48 00:52 05.04.2021
673 Rain 29 1010 75 10000 1.16 94 23:52 04.04.2021
674 Rain 28 1010 82 10000 1.15 127 23:29 04.04.2021
675 Clouds 28 1010 82 10000 1.15 127 22:53 04.04.2021
676 Clouds 28 1010 82 10000 1.15 127 22:30 04.04.2021
677 Clouds 26 1009 86 10000 1.43 151 21:43 04.04.2021
678 Clouds 26 1008 87 10000 1.42 157 21:19 04.04.2021
679 Clouds 26 1008 87 10000 1.42 157 20:30 04.04.2021
680 Clouds 26 1008 87 10000 1.34 158 20:30 04.04.2021
681 Clouds 26 1008 87 10000 1.29 167 19:58 04.04.2021
682 Clouds 26 1008 87 10000 1.29 167 19:38 04.04.2021
683 Clouds 26 1008 87 10000 1.28 172 19:18 04.04.2021
684 Clouds 26 1008 87 10000 1.28 172 18:45 04.04.2021
685 Clouds 26 1008 87 10000 1.37 171 18:24 04.04.2021
686 Clouds 26 1008 87 10000 1.37 171 17:44 04.04.2021
687 Clouds 26 1008 88 10000 1.45 169 17:23 04.04.2021
688 Clouds 26 1008 88 10000 1.45 169 16:47 04.04.2021
689 Clouds 26 1009 88 10000 1.53 164 16:20 04.04.2021
690 Clouds 26 1009 88 10000 1.53 164 15:36 04.04.2021
691 Clouds 26 1009 88 10000 1.49 166 14:46 04.04.2021
692 Clouds 26 1010 88 10000 1.79 169 14:27 04.04.2021
693 Clouds 27 1010 87 10000 1.65 155 13:50 04.04.2021
694 Clouds 27 1010 88 10000 2.04 157 13:24 04.04.2021
695 Clouds 27 1010 88 10000 2.04 157 12:43 04.04.2021
696 Clouds 27 1009 88 10000 2.18 151 12:24 04.04.2021
697 Clouds 27 1009 88 10000 2.18 151 11:42 04.04.2021
698 Clouds 27 1009 87 10000 1.98 149 11:23 04.04.2021
699 Clouds 27 1009 87 10000 1.98 149 10:45 04.04.2021
700 Clouds 27 1008 86 10000 1.62 136 09:55 04.04.2021
701 Clouds 28 1007 84 10000 1.19 107 09:26 04.04.2021
702 Clouds 28 1007 84 10000 1.19 107 08:53 04.04.2021
703 Clouds 28 1007 84 10000 1.19 107 08:35 04.04.2021
704 Clouds 29 1006 82 9107 1.7 83 07:55 04.04.2021
705 Clouds 29 1006 79 8850 2.03 78 06:38 04.04.2021
706 Clouds 30 1006 78 6012 2.32 82 05:33 04.04.2021
707 Clouds 31 1009 65 10000 3.47 86 01:29 04.04.2021
708 Clouds 29 1010 70 10000 3.43 101 00:20 04.04.2021
709 Clouds 29 1010 70 10000 3.43 101 23:48 03.04.2021
710 Clouds 28 1009 77 10000 3.31 120 23:29 03.04.2021
711 Clouds 28 1009 77 10000 3.31 120 22:52 03.04.2021
712 Clouds 26 1009 82 10000 3.43 121 22:22 03.04.2021
713 Clouds 26 1009 82 10000 3.43 121 21:49 03.04.2021
714 Clouds 26 1008 82 10000 2.78 125 21:24 03.04.2021
715 Clouds 26 1008 82 10000 2.78 125 20:51 03.04.2021
716 Clouds 26 1008 82 10000 2.52 125 20:28 03.04.2021
717 Clouds 26 1008 83 10000 3.71 114 19:51 03.04.2021
718 Clouds 26 1008 82 10000 2.68 125 19:25 03.04.2021
719 Clouds 26 1008 82 10000 2.68 125 18:52 03.04.2021
720 Clouds 26 1008 82 10000 2.68 125 18:32 03.04.2021
721 Clouds 26 1008 83 10000 2.11 130 17:55 03.04.2021
722 Clouds 26 1008 83 10000 2.59 119 17:26 03.04.2021
723 Clouds 26 1008 83 10000 2.59 119 16:53 03.04.2021
724 Clouds 26 1009 83 10000 2.61 125 16:25 03.04.2021
725 Clouds 26 1009 83 10000 2.61 125 15:51 03.04.2021
726 Clouds 26 1009 83 10000 2.61 125 15:30 03.04.2021
727 Clouds 26 1009 83 10000 2.61 125 15:30 03.04.2021
728 Clouds 27 1009 83 10000 2.38 124 14:44 03.04.2021
729 Clouds 27 1010 83 10000 2.35 126 14:25 03.04.2021
730 Clouds 27 1010 84 10000 2.68 124 13:53 03.04.2021
731 Clouds 27 1010 84 10000 3.15 121 13:25 03.04.2021
732 Clouds 27 1010 84 10000 3.15 121 12:57 03.04.2021
733 Clouds 27 1010 84 10000 3.15 121 12:32 03.04.2021
734 Clouds 27 1010 84 10000 2.9 125 11:40 03.04.2021
735 Clouds 27 1009 84 10000 2.5 124 11:19 03.04.2021
736 Clouds 27 1009 84 10000 2.5 124 10:43 03.04.2021
737 Clouds 27 1008 83 10000 2.2 103 10:25 03.04.2021
738 Clouds 28 1007 80 10000 2.1 71 09:29 03.04.2021
739 Clouds 28 1007 80 10000 2.1 71 08:59 03.04.2021
740 Rain 28 1007 80 10000 2.1 71 08:31 03.04.2021
741 Clouds 29 1006 74 10000 2.67 62 07:30 03.04.2021
742 Clouds 30 1006 69 10000 2.9 59 06:50 03.04.2021
743 Clouds 31 1007 63 10000 2.7 54 03:53 03.04.2021
744 Clouds 31 1008 61 10000 2.56 56 02:53 03.04.2021
745 Clouds 31 1009 63 10000 2.26 62 02:27 03.04.2021
746 Clouds 30 1009 63 10000 2.03 67 00:31 03.04.2021
747 Clouds 29 1009 65 10000 0.98 90 23:53 02.04.2021
748 Clouds 28 1009 72 10000 1.08 143 23:26 02.04.2021
749 Clouds 28 1009 72 10000 1.08 143 22:55 02.04.2021
750 Clouds 28 1009 72 10000 1.08 143 22:36 02.04.2021
751 Clouds 26 1008 78 10000 1.56 152 21:46 02.04.2021
752 Clouds 25 1008 79 10000 1.79 149 21:26 02.04.2021
753 Clouds 25 1008 79 10000 1.79 149 20:54 02.04.2021
754 Clouds 25 1008 79 10000 1.79 149 20:35 02.04.2021
755 Clouds 25 1007 81 10000 1.72 150 19:59 02.04.2021
756 Clouds 25 1007 81 10000 1.72 150 19:39 02.04.2021
757 Clouds 25 1007 82 10000 1.58 136 19:21 02.04.2021
758 Clouds 25 1007 82 10000 1.58 136 18:41 02.04.2021
759 Clouds 25 1007 82 10000 1.37 140 18:21 02.04.2021
760 Rain 25 1007 82 10000 1.37 140 17:40 02.04.2021
761 Rain 26 1007 82 10000 1.21 144 16:53 02.04.2021
762 Rain 26 1008 82 10000 1.11 139 16:22 02.04.2021
763 Clouds 26 1008 82 10000 1.11 139 15:42 02.04.2021
764 Clouds 26 1009 82 10000 1.07 142 14:57 02.04.2021
765 Rain 26 1009 82 10000 1.07 142 14:33 02.04.2021
766 Rain 26 1009 83 10000 0.76 137 13:44 02.04.2021
767 Rain 26 1009 83 10000 0.53 126 13:25 02.04.2021
768 Clouds 26 1009 83 10000 0.53 126 12:41 02.04.2021
769 Rain 26 1009 83 10000 0.43 127 12:20 02.04.2021
770 Rain 26 1009 83 10000 0.43 127 11:56 02.04.2021
771 Rain 27 1008 83 10000 0.35 138 11:21 02.04.2021
772 Clouds 27 1008 83 10000 0.35 138 10:51 02.04.2021
773 Clouds 27 1008 83 10000 0.35 138 10:30 02.04.2021
774 Clouds 27 1007 83 10000 0.39 79 09:53 02.04.2021
775 Clouds 28 1007 81 10000 1.02 28 09:27 02.04.2021
776 Clouds 28 1007 81 10000 1.02 28 08:58 02.04.2021
777 Rain 28 1006 81 10000 1.05 20 08:33 02.04.2021
778 Clouds 29 1006 73 10000 1.79 9 07:31 02.04.2021
779 Clouds 30 1005 68 10000 2.28 9 06:53 02.04.2021
780 Clouds 30 1006 66 10000 2.49 13 05:57 02.04.2021
781 Clouds 30 1007 73 10000 2.77 20 02:45 02.04.2021
782 Clouds 30 1009 71 10000 2.84 32 00:53 02.04.2021
783 Clouds 29 1009 77 10000 2.29 47 00:22 02.04.2021
784 Clouds 29 1009 77 10000 2.29 47 23:40 01.04.2021
785 Clouds 27 1008 82 10000 1.74 60 22:59 01.04.2021
786 Clouds 26 1008 85 10000 1.39 78 22:20 01.04.2021
787 Clouds 26 1008 85 10000 1.39 78 21:50 01.04.2021
788 Clouds 26 1007 85 10000 1.25 80 21:28 01.04.2021
789 Clouds 26 1007 85 10000 1.25 80 20:49 01.04.2021
790 Clouds 26 1006 89 10000 1.11 81 20:26 01.04.2021
791 Clouds 26 1006 89 10000 1.11 81 19:56 01.04.2021
792 Clouds 26 1006 89 10000 1.11 81 19:35 01.04.2021
793 Rain 26 1006 88 10000 0.97 71 18:46 01.04.2021
794 Rain 26 1006 88 10000 0.96 61 18:19 01.04.2021
795 Rain 26 1006 88 10000 0.96 61 17:52 01.04.2021
796 Rain 26 1006 88 10000 0.96 61 17:32 01.04.2021
797 Rain 26 1006 87 10000 1.19 53 16:53 01.04.2021
798 Rain 26 1006 87 10000 1.19 53 16:30 01.04.2021
799 Rain 26 1007 87 10000 1.17 52 15:47 01.04.2021
800 Rain 26 1008 87 10000 1.1 71 15:20 01.04.2021
801 Rain 26 1008 87 10000 1.1 71 14:45 01.04.2021
802 Rain 26 1008 86 10000 1.12 91 14:26 01.04.2021
803 Rain 26 1008 86 10000 1.12 91 13:56 01.04.2021
804 Rain 26 1008 86 10000 1.12 91 13:31 01.04.2021
805 Rain 26 1008 85 10000 1.21 80 12:51 01.04.2021
806 Rain 26 1008 85 10000 1.21 80 12:32 01.04.2021
807 Rain 26 1008 84 10000 1.11 70 11:50 01.04.2021
808 Rain 27 1007 83 10000 0.99 52 11:25 01.04.2021
809 Rain 27 1007 83 10000 0.99 52 10:56 01.04.2021
810 Rain 27 1007 83 10000 0.99 52 10:37 01.04.2021
811 Rain 27 1006 83 10000 1.07 32 09:56 01.04.2021
812 Clouds 28 1005 80 10000 1.43 37 09:27 01.04.2021
813 Rain 28 1005 80 10000 1.43 37 08:33 01.04.2021
814 Rain 28 1005 76 10000 1.33 45 07:59 01.04.2021
815 Rain 29 1004 74 10000 1.66 38 07:20 01.04.2021
816 Rain 29 1004 74 10000 1.66 38 06:48 01.04.2021
817 Rain 29 1004 74 10000 1.66 38 06:48 01.04.2021
818 Clouds 29 1006 78 10000 1.7 23 03:52 01.04.2021
819 Clouds 29 1007 72 8970 1.83 39 01:52 01.04.2021
820 Clouds 29 1007 72 8970 1.83 39 01:52 01.04.2021
821 Clouds 28 1008 76 10000 1.76 88 23:51 31.03.2021
822 Clouds 28 1008 76 10000 1.76 88 23:31 31.03.2021
823 Clouds 27 1007 82 10000 1.55 108 22:41 31.03.2021
824 Clouds 26 1007 85 10000 1.79 121 22:21 31.03.2021
825 Clouds 26 1007 85 10000 1.79 121 21:47 31.03.2021
826 Clouds 25 1006 86 10000 1.98 128 21:24 31.03.2021
827 Clouds 25 1006 86 10000 1.98 128 20:57 31.03.2021
828 Clouds 25 1006 86 10000 1.98 128 20:39 31.03.2021
829 Clouds 26 1005 85 10000 1.13 143 20:18 31.03.2021
830 Clouds 26 1005 85 10000 1.13 143 19:40 31.03.2021
831 Clouds 26 1005 85 10000 1.35 140 19:19 31.03.2021
832 Clouds 26 1005 85 10000 1.35 140 18:49 31.03.2021
833 Clouds 26 1005 86 10000 1.4 136 18:21 31.03.2021
834 Clouds 26 1005 86 10000 1.4 136 17:37 31.03.2021
835 Clouds 26 1005 87 10000 1.24 134 17:18 31.03.2021
836 Clouds 26 1005 87 10000 1.24 134 16:48 31.03.2021
837 Clouds 26 1006 86 10000 1.26 123 16:25 31.03.2021
838 Clouds 26 1006 86 10000 1.26 123 15:50 31.03.2021
839 Clouds 26 1007 86 10000 1.33 122 15:19 31.03.2021
840 Clouds 26 1007 86 10000 1.33 122 14:44 31.03.2021
841 Clouds 26 1007 87 9189 1.22 124 14:22 31.03.2021
842 Clouds 26 1007 87 8172 1.02 129 13:42 31.03.2021
843 Rain 26 1007 87 10000 0.93 119 12:43 31.03.2021
844 Rain 26 1007 87 10000 0.93 119 12:43 31.03.2021
845 Rain 26 1007 87 10000 0.98 112 12:21 31.03.2021
846 Rain 26 1007 87 10000 0.98 112 11:59 31.03.2021
847 Rain 26 1006 86 10000 1.11 103 11:21 31.03.2021
848 Rain 26 1006 86 10000 1.11 103 10:47 31.03.2021
849 Rain 27 1006 85 10000 1.05 109 10:26 31.03.2021
850 Rain 27 1006 85 10000 1.05 109 09:43 31.03.2021
851 Clouds 27 1005 84 10000 1.17 89 09:19 31.03.2021
852 Rain 27 1005 84 10000 1.17 89 08:39 31.03.2021
853 Rain 28 1004 82 10000 1.2 43 07:54 31.03.2021
854 Clouds 29 1003 78 10000 1.57 41 06:49 31.03.2021
855 Clouds 30 1004 72 10000 2.95 54 03:52 31.03.2021
856 Rain 31 1006 63 10000 2.66 71 01:43 31.03.2021
857 Rain 30 1007 66 10000 2.39 84 00:53 31.03.2021
858 Rain 29 1007 73 10000 2.23 97 00:21 31.03.2021
859 Rain 29 1007 73 10000 2.23 97 23:46 30.03.2021
860 Rain 27 1007 81 10000 2.09 113 23:19 30.03.2021
861 Rain 27 1007 81 10000 2.09 113 22:41 30.03.2021
862 Rain 26 1006 86 10000 2.4 126 22:23 30.03.2021
863 Rain 25 1006 86 10000 2.38 127 21:51 30.03.2021
864 Rain 25 1006 86 10000 2.27 126 21:21 30.03.2021
865 Rain 25 1005 87 10000 2.13 129 20:53 30.03.2021
866 Rain 25 1006 86 10000 2.27 126 20:53 30.03.2021
867 Rain 25 1005 86 10000 1.85 129 20:28 30.03.2021
868 Rain 25 1005 86 10000 1.85 129 19:51 30.03.2021
869 Rain 25 1004 86 10000 1.84 131 19:27 30.03.2021
870 Rain 25 1004 86 10000 1.84 131 19:27 30.03.2021
871 Rain 25 1004 86 10000 1.84 131 18:40 30.03.2021
872 Rain 25 1004 87 10000 1.92 130 17:58 30.03.2021
873 Rain 25 1004 87 10000 1.94 129 17:39 30.03.2021
874 Rain 25 1005 87 10000 1.93 133 17:20 30.03.2021
875 Rain 25 1005 87 10000 1.93 133 16:45 30.03.2021
876 Rain 26 1005 87 10000 1.96 140 16:23 30.03.2021
877 Rain 26 1006 87 10000 2.08 138 15:21 30.03.2021
878 Rain 26 1006 87 10000 2.08 138 14:57 30.03.2021
879 Clouds 26 1006 87 10000 1.94 137 14:22 30.03.2021
880 Rain 26 1006 87 10000 1.94 137 13:59 30.03.2021
881 Clouds 26 1006 87 10000 1.94 137 13:37 30.03.2021
882 Clouds 26 1007 86 10000 1.86 132 12:49 30.03.2021
883 Clouds 26 1007 86 10000 1.79 120 12:28 30.03.2021
884 Clouds 26 1007 86 10000 1.79 120 11:56 30.03.2021
885 Clouds 27 1006 86 10000 1.66 107 11:23 30.03.2021
886 Rain 27 1006 86 10000 1.66 107 10:46 30.03.2021
887 Clouds 27 1005 85 10000 1.71 98 10:25 30.03.2021
888 Rain 27 1005 85 10000 1.71 98 09:44 30.03.2021
889 Rain 27 1005 84 10000 1.75 74 09:26 30.03.2021
890 Clouds 27 1005 84 10000 1.75 74 08:54 30.03.2021
891 Rain 27 1005 84 10000 1.75 74 08:36 30.03.2021
892 Rain 28 1004 80 10000 0.95 16 07:51 30.03.2021
893 Rain 29 1004 77 10000 1.5 16 07:22 30.03.2021
894 Rain 30 1004 75 10000 2.07 27 05:25 30.03.2021
895 Rain 30 1004 75 10000 2.07 27 04:57 30.03.2021
896 Rain 29 1008 72 10000 1.27 92 00:28 30.03.2021
897 Rain 29 1008 72 10000 1.27 92 23:31 29.03.2021
898 Clouds 27 1007 79 10000 1.2 118 22:44 29.03.2021
899 Clouds 26 1007 84 10000 1.33 135 22:18 29.03.2021
900 Clouds 26 1007 84 10000 1.33 135 21:43 29.03.2021
901 Clouds 26 1006 85 10000 1.28 153 21:23 29.03.2021
902 Rain 26 1006 85 10000 1.28 153 20:44 29.03.2021
903 Clouds 26 1005 85 10000 1.5 167 20:26 29.03.2021
904 Rain 26 1005 85 10000 1.5 167 19:46 29.03.2021
905 Rain 26 1005 85 10000 1.56 178 19:20 29.03.2021
906 Rain 26 1005 85 10000 1.56 178 18:40 29.03.2021
907 Rain 26 1005 85 10000 1.47 183 18:21 29.03.2021
908 Rain 26 1005 85 10000 1.47 183 17:45 29.03.2021
909 Rain 26 1006 85 10000 1.29 182 16:59 29.03.2021
910 Rain 26 1006 85 10000 1.29 182 16:35 29.03.2021
911 Rain 26 1007 85 10000 1.12 186 15:52 29.03.2021
912 Rain 26 1007 85 10000 1.12 186 15:34 29.03.2021
913 Rain 26 1007 85 10000 1.06 180 14:55 29.03.2021
914 Rain 26 1007 85 10000 1.06 180 14:33 29.03.2021
915 Rain 26 1008 84 10000 1.12 165 13:52 29.03.2021
916 Rain 26 1008 83 10000 1.07 167 13:26 29.03.2021
917 Clouds 26 1008 83 10000 1.07 167 12:50 29.03.2021
918 Clouds 26 1008 83 10000 1.01 154 11:53 29.03.2021
919 Clouds 26 1008 83 10000 1.01 154 11:35 29.03.2021
920 Clouds 27 1008 83 10000 0.92 155 10:59 29.03.2021
921 Clouds 27 1008 83 10000 0.92 155 10:36 29.03.2021
922 Rain 27 1007 82 10000 0.58 156 09:42 29.03.2021
923 Rain 28 1006 80 10000 0.08 333 08:52 29.03.2021
924 Clouds 29 1006 76 10000 0.44 296 08:28 29.03.2021
925 Rain 29 1005 72 10000 0.8 354 07:28 29.03.2021
926 Rain 30 1005 68 10000 1.7 29 06:27 29.03.2021
927 Clouds 32 1006 60 10000 2.89 56 03:43 29.03.2021
928 Clouds 31 1008 59 10000 2.94 77 01:41 29.03.2021
929 Clouds 29 1009 70 10000 2.84 109 00:21 29.03.2021
930 Clouds 29 1009 70 10000 2.84 109 23:36 28.03.2021
931 Clouds 27 1009 77 10000 2.59 119 23:18 28.03.2021
932 Clouds 27 1009 77 10000 2.59 119 22:39 28.03.2021
933 Clouds 25 1008 83 10000 2.69 130 22:20 28.03.2021
934 Clouds 25 1008 83 10000 2.69 130 22:20 28.03.2021
935 Rain 25 1008 83 10000 2.69 130 21:40 28.03.2021
936 Clouds 25 1007 85 10000 2.68 133 21:22 28.03.2021
937 Clouds 25 1007 85 10000 2.68 133 20:47 28.03.2021
938 Clouds 25 1007 87 10000 2.57 127 20:29 28.03.2021
939 Clouds 25 1007 87 10000 2.57 127 19:43 28.03.2021
940 Clouds 25 1006 88 10000 2.41 138 19:22 28.03.2021
941 Clouds 25 1006 88 10000 2.41 138 18:58 28.03.2021
942 Clouds 25 1006 88 10000 2.43 138 18:26 28.03.2021
943 Clouds 25 1006 88 10000 2.43 138 17:47 28.03.2021
944 Clouds 25 1007 88 10000 2.47 130 17:23 28.03.2021
945 Clouds 25 1007 88 10000 2.47 130 16:46 28.03.2021
946 Clouds 25 1007 87 10000 2.63 121 16:23 28.03.2021
947 Clouds 25 1008 86 10000 2.98 116 15:26 28.03.2021
948 Clouds 25 1008 86 10000 2.98 116 14:52 28.03.2021
949 Clouds 25 1008 86 10000 2.98 116 14:30 28.03.2021
950 Clouds 26 1009 85 10000 3.4 120 13:43 28.03.2021
951 Clouds 26 1009 85 10000 3.48 120 13:20 28.03.2021
952 Clouds 26 1009 85 10000 3.48 120 12:49 28.03.2021
953 Clouds 26 1009 85 10000 3.53 118 12:29 28.03.2021
954 Clouds 26 1009 85 10000 3.53 118 11:40 28.03.2021
955 Clouds 27 1008 85 10000 3.41 116 11:21 28.03.2021
956 Clouds 27 1008 85 10000 3.41 116 10:43 28.03.2021
957 Clouds 27 1008 84 10000 3.47 111 10:23 28.03.2021
958 Clouds 27 1008 84 10000 3.2 111 09:44 28.03.2021
959 Clouds 28 1007 83 10000 3.39 100 09:24 28.03.2021
960 Clouds 28 1007 83 10000 3.39 100 08:45 28.03.2021
961 Clouds 29 1006 79 10000 3.87 90 07:46 28.03.2021
962 Clouds 30 1006 75 10000 4.18 77 06:23 28.03.2021
963 Clouds 30 1007 71 10000 4.45 76 03:51 28.03.2021
964 Clouds 31 1009 64 10000 3.96 85 00:52 28.03.2021
965 Clouds 31 1010 65 10000 3.39 91 00:19 28.03.2021
966 Clouds 31 1010 65 10000 3.39 91 23:39 27.03.2021
967 Clouds 29 1010 70 10000 2.58 104 22:53 27.03.2021
968 Clouds 29 1010 70 10000 2.58 104 22:35 27.03.2021
969 Clouds 28 1010 76 10000 1.92 128 21:46 27.03.2021
970 Clouds 26 1009 82 10000 2.36 141 21:22 27.03.2021
971 Clouds 26 1009 82 10000 2.36 141 20:59 27.03.2021
972 Clouds 26 1009 82 10000 2.36 141 20:38 27.03.2021
973 Clouds 26 1009 83 10000 2.52 138 20:19 27.03.2021
974 Clouds 26 1009 83 10000 2.52 138 19:41 27.03.2021
975 Clouds 26 1008 83 10000 2.53 138 19:22 27.03.2021
976 Clouds 26 1008 83 10000 2.53 138 18:47 27.03.2021
977 Clouds 26 1008 84 10000 2.67 138 18:22 27.03.2021
978 Clouds 26 1008 84 10000 2.67 138 17:37 27.03.2021
979 Clouds 26 1008 84 10000 2.67 138 17:37 27.03.2021
980 Clouds 26 1008 84 10000 2.69 137 17:18 27.03.2021
981 Clouds 26 1008 84 10000 2.69 137 16:47 27.03.2021
982 Clouds 26 1008 85 10000 2.59 135 16:26 27.03.2021
983 Clouds 26 1008 85 10000 2.59 135 15:45 27.03.2021
984 Clouds 26 1008 85 10000 2.67 131 15:20 27.03.2021
985 Clouds 26 1008 85 10000 2.67 131 14:44 27.03.2021
986 Clouds 26 1009 86 10000 2.79 125 13:40 27.03.2021
987 Clouds 26 1009 86 10000 2.79 125 13:40 27.03.2021
988 Clouds 26 1010 87 10000 2.91 121 13:20 27.03.2021
989 Rain 26 1010 87 10000 3.1 119 12:47 27.03.2021
990 Rain 26 1010 87 10000 3.22 116 11:53 27.03.2021
991 Rain 26 1010 87 10000 3.22 116 11:33 27.03.2021
992 Rain 27 1009 88 10000 3.38 119 10:58 27.03.2021
993 Clouds 27 1009 88 10000 3.38 119 10:39 27.03.2021
994 Rain 27 1009 88 10000 3.18 121 09:58 27.03.2021
995 Rain 27 1008 86 10000 3.16 113 09:21 27.03.2021
996 Clouds 27 1008 86 10000 3.16 113 08:40 27.03.2021
997 Clouds 28 1007 81 10000 3.33 95 07:54 27.03.2021
998 Clouds 30 1006 72 10000 3.6 83 07:18 27.03.2021
999 Clouds 30 1006 72 10000 3.6 83 06:42 27.03.2021
1000 Rain 31 1006 65 10000 3.54 63 04:42 27.03.2021
1001 Clouds 31 1007 64 10000 3.87 76 02:45 27.03.2021
1002 Clouds 31 1009 63 10000 4.24 85 00:44 27.03.2021
1003 Clouds 30 1010 65 10000 3.99 92 00:25 27.03.2021
1004 Clouds 29 1010 72 10000 3.42 99 23:27 26.03.2021
1005 Clouds 29 1010 72 10000 3.42 99 22:40 26.03.2021
1006 Clouds 29 1010 72 10000 3.42 99 22:40 26.03.2021
1007 Clouds 28 1010 78 10000 3.07 115 21:45 26.03.2021
1008 Clouds 26 1010 84 10000 3.17 123 21:23 26.03.2021
1009 Clouds 26 1010 84 10000 3.17 123 20:55 26.03.2021
1010 Clouds 26 1010 84 10000 3.17 123 20:31 26.03.2021
1011 Clouds 25 1009 85 10000 3.21 123 19:52 26.03.2021
1012 Clouds 25 1009 85 10000 3.16 124 19:33 26.03.2021
1013 Clouds 25 1008 85 10000 3.04 128 18:50 26.03.2021
1014 Clouds 25 1008 85 10000 3.04 128 18:30 26.03.2021
1015 Clouds 26 1008 85 10000 2.98 130 17:50 26.03.2021
1016 Clouds 26 1008 87 10000 3.11 128 17:23 26.03.2021
1017 Clouds 26 1008 87 10000 3.11 128 16:36 26.03.2021
1018 Clouds 26 1008 87 10000 3.18 127 15:59 26.03.2021
1019 Clouds 26 1008 87 10000 3.22 123 15:28 26.03.2021
1020 Clouds 26 1008 87 10000 3.22 123 14:43 26.03.2021
1021 Clouds 26 1009 87 10000 3.33 114 13:51 26.03.2021
1022 Clouds 26 1009 87 10000 3.48 112 13:22 26.03.2021
1023 Clouds 26 1009 87 10000 3.48 112 12:35 26.03.2021
1024 Rain 27 1009 88 10000 3.57 111 11:47 26.03.2021
1025 Clouds 27 1009 88 10000 3.69 113 11:27 26.03.2021
1026 Rain 27 1009 88 10000 3.69 113 10:42 26.03.2021
1027 Rain 27 1009 87 10000 3.63 114 10:19 26.03.2021
1028 Rain 27 1009 87 10000 3.63 114 09:41 26.03.2021
1029 Clouds 27 1008 86 10000 3.38 110 08:46 26.03.2021
1030 Clouds 29 1007 82 10000 2.87 100 08:25 26.03.2021
1031 Clouds 29 1007 80 10000 2.68 93 07:42 26.03.2021
1032 Clouds 30 1006 73 10000 2.66 81 07:21 26.03.2021
1033 Clouds 30 1006 73 10000 2.66 81 06:55 26.03.2021
1034 Clouds 31 1006 68 10000 2.86 71 05:31 26.03.2021
1035 Clouds 31 1008 67 10000 3.6 75 03:19 26.03.2021
1036 Clouds 31 1010 64 10000 3.79 84 00:33 26.03.2021
1037 Clouds 30 1011 67 10000 3.5 94 23:46 25.03.2021
1038 Clouds 29 1011 75 10000 3.29 101 23:21 25.03.2021
1039 Clouds 29 1011 75 10000 3.29 101 22:39 25.03.2021
1040 Clouds 27 1010 81 10000 2.69 114 21:53 25.03.2021
1041 Clouds 27 1010 81 10000 2.69 114 21:35 25.03.2021
1042 Clouds 25 1010 85 10000 2.63 130 20:47 25.03.2021
1043 Clouds 25 1009 85 10000 2.54 133 20:28 25.03.2021
1044 Clouds 25 1009 85 10000 2.54 133 19:51 25.03.2021
1045 Clouds 25 1009 85 10000 2.54 133 19:32 25.03.2021
1046 Clouds 25 1009 86 10000 2.8 131 18:58 25.03.2021
1047 Clouds 25 1009 86 10000 2.8 131 18:39 25.03.2021
1048 Clouds 25 1008 87 10000 2.54 135 18:18 25.03.2021
1049 Clouds 25 1008 87 10000 2.54 135 17:37 25.03.2021
1050 Clouds 25 1008 87 10000 2.38 141 16:56 25.03.2021
1051 Clouds 25 1008 87 10000 2.38 141 16:33 25.03.2021
1052 Clouds 25 1009 88 10000 2.55 138 15:49 25.03.2021
1053 Clouds 26 1009 87 10000 2.7 130 15:25 25.03.2021
1054 Clouds 26 1009 87 10000 2.7 130 14:49 25.03.2021
1055 Clouds 26 1010 86 10000 2.65 132 14:29 25.03.2021
1056 Clouds 26 1010 86 10000 2.64 135 13:26 25.03.2021
1057 Clouds 26 1010 86 10000 2.9 131 12:46 25.03.2021
1058 Clouds 26 1010 86 10000 2.8 137 12:22 25.03.2021
1059 Clouds 26 1010 86 10000 2.8 137 11:57 25.03.2021
1060 Clouds 26 1010 86 10000 2.8 137 11:39 25.03.2021
1061 Clouds 26 1010 87 10000 2.51 129 11:21 25.03.2021
1062 Clouds 26 1010 87 10000 2.51 129 10:45 25.03.2021
1063 Clouds 26 1010 86 10000 2.09 115 10:19 25.03.2021
1064 Rain 26 1010 86 10000 2.09 115 09:43 25.03.2021
1065 Rain 27 1009 85 10000 1.96 95 09:21 25.03.2021
1066 Clouds 27 1009 85 10000 1.96 95 08:30 25.03.2021
1067 Clouds 29 1007 76 10000 1.39 68 07:26 25.03.2021
1068 Clouds 29 1007 76 10000 1.39 68 06:42 25.03.2021
1069 Clouds 29 1007 75 10000 1.22 55 06:22 25.03.2021
1070 Clouds 29 1007 75 10000 1.2 43 04:42 25.03.2021
1071 Clouds 30 1009 69 10000 1.62 70 01:20 25.03.2021
1072 Clouds 29 1010 69 10000 1.68 84 00:18 25.03.2021
1073 Clouds 29 1010 69 10000 1.68 84 23:39 24.03.2021
1074 Clouds 28 1010 74 10000 1.44 93 22:58 24.03.2021
1075 Clouds 28 1010 74 10000 1.44 93 22:38 24.03.2021
1076 Clouds 27 1010 80 10000 1.22 123 21:50 24.03.2021
1077 Clouds 27 1010 80 10000 1.22 123 21:31 24.03.2021
1078 Clouds 25 1010 84 10000 1.34 157 20:55 24.03.2021
1079 Clouds 25 1010 84 10000 1.34 157 20:37 24.03.2021
1080 Clouds 25 1009 85 10000 1.41 158 20:18 24.03.2021
1081 Clouds 25 1009 85 10000 1.41 158 19:31 24.03.2021
1082 Clouds 25 1008 86 10000 1.35 156 18:52 24.03.2021
1083 Clouds 25 1008 86 10000 1.09 149 18:24 24.03.2021
1084 Clouds 25 1008 86 10000 1.09 150 17:53 24.03.2021
1085 Clouds 25 1008 86 10000 1.09 150 17:53 24.03.2021
1086 Clouds 25 1008 86 10000 1.09 149 17:32 24.03.2021
1087 Clouds 25 1008 85 10000 0.87 147 16:54 24.03.2021
1088 Clouds 25 1008 85 10000 0.87 147 16:32 24.03.2021
1089 Clouds 26 1008 85 10000 0.64 164 15:58 24.03.2021
1090 Clouds 26 1008 85 10000 0.64 164 15:33 24.03.2021
1091 Clouds 26 1009 85 10000 0.45 184 14:59 24.03.2021
1092 Clouds 26 1010 85 10000 0.56 162 14:28 24.03.2021
1093 Clouds 26 1010 85 10000 0.56 162 13:58 24.03.2021
1094 Clouds 26 1010 85 10000 0.56 162 13:58 24.03.2021
1095 Clouds 26 1010 86 10000 1.06 156 13:28 24.03.2021
1096 Clouds 26 1010 86 10000 1.06 156 12:49 24.03.2021
1097 Clouds 26 1010 86 10000 1.08 138 12:27 24.03.2021
1098 Clouds 26 1010 86 10000 1.08 138 11:54 24.03.2021
1099 Clouds 26 1010 86 10000 1.08 138 11:35 24.03.2021
1100 Clouds 26 1010 86 10000 1.37 122 10:46 24.03.2021
1101 Clouds 27 1009 85 10000 1.28 112 10:26 24.03.2021
1102 Clouds 27 1009 85 10000 1.28 112 09:54 24.03.2021
1103 Rain 27 1008 84 10000 1.47 97 09:23 24.03.2021
1104 Clouds 27 1008 84 10000 1.47 97 08:55 24.03.2021
1105 Clouds 28 1007 83 10000 1.3 77 08:29 24.03.2021
1106 Rain 28 1007 83 10000 1.3 77 07:42 24.03.2021
1107 Clouds 29 1007 80 10000 0.78 41 06:54 24.03.2021
1108 Clouds 29 1006 77 10000 0.98 24 05:52 24.03.2021
1109 Clouds 30 1010 67 10000 1.79 50 00:56 24.03.2021
1110 Clouds 30 1011 68 10000 1.73 70 00:28 24.03.2021
1111 Clouds 28 1011 74 10000 1.44 94 23:22 23.03.2021
1112 Clouds 28 1011 74 10000 1.44 94 22:58 23.03.2021
1113 Clouds 28 1011 74 10000 1.44 94 22:40 23.03.2021
1114 Clouds 27 1011 81 10000 1.62 120 21:58 23.03.2021
1115 Clouds 27 1011 81 10000 1.62 120 21:39 23.03.2021
1116 Clouds 25 1010 86 10000 2.01 129 21:19 23.03.2021
1117 Clouds 25 1010 86 10000 2.01 129 20:39 23.03.2021
1118 Clouds 25 1009 86 10000 2.12 128 20:21 23.03.2021
1119 Clouds 25 1009 86 10000 2.12 128 19:44 23.03.2021
1120 Clouds 25 1009 86 10000 1.94 138 19:23 23.03.2021
1121 Clouds 25 1009 86 10000 1.94 138 18:42 23.03.2021
1122 Clouds 25 1008 87 10000 2.24 137 18:20 23.03.2021
1123 Clouds 25 1008 87 10000 2.24 137 17:44 23.03.2021
1124 Clouds 25 1008 88 10000 2.27 143 17:21 23.03.2021
1125 Clouds 25 1009 88 10000 2.04 144 16:26 23.03.2021
1126 Clouds 25 1009 88 10000 2.04 144 15:51 23.03.2021
1127 Clouds 25 1009 88 10000 1.9 150 15:24 23.03.2021
1128 Clouds 25 1009 88 10000 1.9 150 14:49 23.03.2021
1129 Clouds 26 1010 87 10000 1.7 143 14:20 23.03.2021
1130 Clouds 26 1010 87 10000 1.7 143 13:47 23.03.2021
1131 Clouds 26 1011 88 10000 1.7 140 13:25 23.03.2021
1132 Rain 26 1011 88 10000 1.7 140 12:46 23.03.2021
1133 Rain 26 1010 87 10000 1.59 128 12:26 23.03.2021
1134 Clouds 26 1010 87 10000 1.57 129 11:49 23.03.2021
1135 Clouds 26 1010 86 10000 1.08 133 11:26 23.03.2021
1136 Clouds 26 1010 86 10000 1.08 133 10:42 23.03.2021
1137 Clouds 27 1010 86 10000 0.83 146 10:21 23.03.2021
1138 Clouds 27 1010 86 10000 0.83 146 09:51 23.03.2021
1139 Clouds 27 1009 85 10000 0.56 115 09:23 23.03.2021
1140 Clouds 27 1009 85 10000 0.56 115 08:55 23.03.2021
1141 Clouds 27 1009 85 10000 0.56 115 08:37 23.03.2021
1142 Clouds 27 1009 85 10000 0.56 115 08:37 23.03.2021
1143 Clouds 28 1008 83 10000 0.67 60 08:19 23.03.2021
1144 Clouds 28 1008 75 10000 1.14 44 07:27 23.03.2021
1145 Clouds 29 1008 77 10000 1.35 51 06:53 23.03.2021
1146 Clouds 31 1009 65 10000 2.46 43 03:25 23.03.2021
1147 Clouds 31 1009 65 10000 2.46 43 02:46 23.03.2021
1148 Clouds 30 1011 66 10000 1.88 84 23:47 22.03.2021
1149 Clouds 29 1012 71 10000 2.14 108 23:18 22.03.2021
1150 Clouds 29 1012 71 10000 2.14 108 22:42 22.03.2021
1151 Clouds 27 1012 78 10000 1.91 129 22:20 22.03.2021
1152 Clouds 27 1012 78 10000 1.91 129 21:47 22.03.2021
1153 Clouds 26 1011 84 10000 1.53 142 21:26 22.03.2021
1154 Rain 26 1011 84 10000 1.53 142 20:44 22.03.2021
1155 Clouds 25 1011 85 10000 1.56 140 20:25 22.03.2021
1156 Rain 25 1011 85 10000 1.56 140 19:58 22.03.2021
1157 Rain 25 1011 85 10000 1.56 140 19:58 22.03.2021
1158 Clouds 25 1011 85 10000 1.56 140 19:38 22.03.2021
1159 Clouds 26 1009 79 10000 2.02 157 19:19 22.03.2021
1160 Clouds 26 1009 85 10000 2.02 157 18:41 22.03.2021
1161 Clouds 26 1009 85 10000 1.66 164 18:22 22.03.2021
1162 Clouds 26 1009 85 10000 1.66 164 18:22 22.03.2021
1163 Clouds 26 1009 85 10000 1.66 164 17:49 22.03.2021
1164 Clouds 26 1009 85 10000 1.05 173 17:22 22.03.2021
1165 Clouds 26 1009 85 10000 1.05 173 16:48 22.03.2021
1166 Rain 25 1009 86 10000 1.1 185 16:22 22.03.2021
1167 Clouds 25 1009 86 10000 1.1 185 15:39 22.03.2021
1168 Clouds 26 1010 85 10000 1.34 178 15:20 22.03.2021
1169 Clouds 26 1010 85 10000 1.34 178 14:57 22.03.2021
1170 Clouds 26 1010 85 10000 1.34 178 14:34 22.03.2021
1171 Rain 26 1011 85 10000 1.16 184 13:49 22.03.2021
1172 Clouds 26 1012 85 10000 1.09 197 13:28 22.03.2021
1173 Clouds 26 1012 84 10000 0.89 181 12:56 22.03.2021
1174 Clouds 26 1011 84 10000 0.91 179 12:26 22.03.2021
1175 Clouds 26 1011 84 10000 0.91 179 11:50 22.03.2021
1176 Clouds 26 1010 84 10000 0.62 167 11:29 22.03.2021
1177 Clouds 26 1010 84 10000 0.62 167 10:46 22.03.2021
1178 Rain 27 1009 83 10000 0.55 156 10:26 22.03.2021
1179 Clouds 27 1009 83 10000 0.55 156 09:53 22.03.2021
1180 Clouds 27 1009 83 10000 0.55 156 09:32 22.03.2021
1181 Clouds 27 1009 83 10000 0.56 97 08:47 22.03.2021
1182 Clouds 28 1008 80 10000 0.81 53 08:28 22.03.2021
1183 Clouds 28 1008 80 10000 0.81 53 07:50 22.03.2021
1184 Clouds 28 1008 80 10000 0.81 53 07:31 22.03.2021
1185 Clear 29 1008 74 10000 0.81 340 06:51 22.03.2021
1186 Clear 29 1008 69 10000 0.81 340 06:51 22.03.2021
1187 Clear 31 1008 61 10000 2.32 43 02:47 22.03.2021
1188 Clouds 30 1010 64 10000 2.2 73 00:48 22.03.2021
1189 Rain 29 1010 67 10000 1.73 84 23:59 21.03.2021
1190 Clouds 28 1010 71 10000 1.08 95 23:20 21.03.2021
1191 Clouds 28 1010 71 10000 1.08 95 22:59 21.03.2021
1192 Clouds 28 1010 71 10000 1.08 95 22:38 21.03.2021
1193 Rain 26 1010 75 10000 1.15 146 21:43 21.03.2021
1194 Rain 25 1010 79 10000 1.65 161 21:24 21.03.2021
1195 Rain 25 1010 79 10000 1.65 161 21:24 21.03.2021
1196 Rain 25 1010 79 10000 1.64 162 20:55 21.03.2021
1197 Rain 25 1010 79 10000 1.65 161 20:36 21.03.2021
1198 Rain 25 1009 79 10000 1.51 148 20:18 21.03.2021
1199 Rain 25 1009 78 10000 1.25 136 19:29 21.03.2021
1200 Rain 25 1009 78 10000 1.25 136 18:58 21.03.2021
1201 Rain 25 1009 75 10000 0.48 343 18:40 21.03.2021
1202 Rain 25 1008 74 10000 0.61 319 17:59 21.03.2021
1203 Rain 25 1008 74 10000 0.61 319 17:40 21.03.2021
1204 Rain 25 1007 72 10000 0.32 256 17:18 21.03.2021
1205 Rain 25 1007 72 10000 0.32 256 16:48 21.03.2021
1206 Rain 25 1007 72 10000 1.09 173 16:22 21.03.2021
1207 Rain 25 1007 72 10000 1.09 173 15:42 21.03.2021
1208 Rain 25 1008 74 10000 2.43 136 15:20 21.03.2021
1209 Rain 25 1008 74 10000 2.43 136 14:46 21.03.2021
1210 Rain 25 1009 78 10000 3.27 132 14:27 21.03.2021
1211 Rain 25 1009 78 10000 3.27 132 13:57 21.03.2021
1212 Rain 25 1009 78 10000 3.27 132 13:38 21.03.2021
1213 Rain 25 1010 89 10000 2.69 103 12:43 21.03.2021
1214 Rain 25 1010 90 10000 3.09 83 12:25 21.03.2021
1215 Rain 25 1010 90 10000 3.09 83 11:41 21.03.2021
1216 Rain 25 1010 91 10000 4.02 58 11:20 21.03.2021
1217 Rain 25 1010 91 10000 4.02 58 10:44 21.03.2021
1218 Rain 25 1009 94 6068 4.74 38 10:25 21.03.2021
1219 Rain 25 1009 94 6068 4.74 38 09:47 21.03.2021
1220 Rain 25 1008 95 4565 4.15 38 09:29 21.03.2021
1221 Rain 25 1008 95 4565 4.15 38 08:47 21.03.2021
1222 Rain 25 1008 94 5217 2.77 42 08:26 21.03.2021
1223 Rain 25 1008 94 5217 2.77 42 07:39 21.03.2021
1224 Rain 25 1007 92 6482 2.22 34 07:19 21.03.2021
1225 Rain 28 1007 82 10000 2.06 51 05:55 21.03.2021
1226 Rain 28 1007 82 10000 2.77 31 02:34 21.03.2021
1227 Clouds 29 1009 79 10000 2.92 63 00:43 21.03.2021
1228 Clouds 29 1009 76 10000 1.97 84 00:24 21.03.2021
1229 Clouds 29 1009 76 10000 1.96 84 23:50 20.03.2021
1230 Clouds 29 1009 74 10000 1.11 109 23:24 20.03.2021
1231 Clouds 29 1009 74 10000 1.11 109 22:57 20.03.2021
1232 Clouds 27 1008 82 10000 1.74 146 22:23 20.03.2021
1233 Clouds 27 1008 82 10000 1.74 146 21:47 20.03.2021
1234 Clouds 25 1007 83 10000 1.81 149 21:25 20.03.2021
1235 Clouds 25 1007 83 10000 1.81 149 20:48 20.03.2021
1236 Clouds 25 1007 82 10000 1.25 139 20:23 20.03.2021
1237 Clouds 25 1007 82 10000 1.25 139 19:51 20.03.2021
1238 Clouds 25 1006 81 10000 1.43 139 19:29 20.03.2021
1239 Clouds 25 1006 81 10000 1.43 139 18:50 20.03.2021
1240 Clouds 25 1006 83 10000 1.36 149 18:27 20.03.2021
1241 Clouds 25 1006 83 10000 1.36 149 17:58 20.03.2021
1242 Clouds 25 1006 83 10000 1.36 149 17:39 20.03.2021
1243 Clouds 25 1006 83 10000 1.33 160 17:19 20.03.2021
1244 Clouds 25 1006 83 10000 1.33 160 16:38 20.03.2021
1245 Rain 25 1006 83 10000 0.88 143 16:18 20.03.2021
1246 Rain 25 1006 83 10000 0.88 143 15:40 20.03.2021
1247 Rain 25 1006 83 10000 0.88 143 15:40 20.03.2021
1248 Rain 25 1007 83 10000 0.92 129 15:21 20.03.2021
1249 Rain 25 1007 83 10000 0.92 129 14:31 20.03.2021
1250 Rain 25 1008 85 10000 1.33 160 13:56 20.03.2021
1251 Rain 25 1009 89 10000 2.18 159 13:24 20.03.2021
1252 Rain 26 1009 86 10000 2.13 142 12:28 20.03.2021
1253 Rain 26 1009 86 10000 2.13 142 11:55 20.03.2021
1254 Rain 26 1009 86 10000 2.13 142 11:36 20.03.2021
1255 Rain 26 1008 88 10000 2.23 139 11:18 20.03.2021
1256 Rain 26 1008 88 10000 2.23 139 10:38 20.03.2021
1257 Rain 26 1007 87 10000 2.1 138 10:19 20.03.2021
1258 Rain 26 1007 87 10000 2.1 138 09:42 20.03.2021
1259 Rain 27 1007 85 10000 0.83 154 09:21 20.03.2021
1260 Rain 27 1007 85 10000 0.83 154 09:21 20.03.2021
1261 Rain 27 1007 85 10000 0.83 154 08:48 20.03.2021
1262 Rain 27 1006 83 10000 0.4 250 07:56 20.03.2021
1263 Rain 27 1006 83 10000 0.4 250 07:37 20.03.2021
1264 Rain 28 1006 83 10000 0.22 351 07:19 20.03.2021
1265 Rain 28 1006 80 10000 0.55 331 06:27 20.03.2021
1266 Rain 29 1006 77 10000 1.17 17 04:41 20.03.2021
1267 Rain 30 1006 74 10000 2.02 27 03:42 20.03.2021
1268 Clear 31 1008 57 10000 1.58 59 00:42 20.03.2021
1269 Clear 30 1009 63 10000 1.43 79 23:36 19.03.2021
1270 Clear 29 1009 69 10000 0.88 90 22:59 19.03.2021
1271 Clear 29 1009 69 10000 0.88 90 22:40 19.03.2021
1272 Clouds 27 1008 79 10000 1.06 166 22:22 19.03.2021
1273 Clouds 27 1008 79 10000 1.06 166 21:36 19.03.2021
1274 Clouds 25 1008 83 10000 1.59 185 21:18 19.03.2021
1275 Clouds 25 1008 83 10000 1.59 185 20:41 19.03.2021
1276 Clouds 25 1007 84 10000 1.72 195 20:22 19.03.2021
1277 Clouds 25 1007 84 10000 1.72 195 19:46 19.03.2021
1278 Clouds 25 1007 85 10000 1.63 196 19:20 19.03.2021
1279 Clouds 25 1007 85 10000 1.3 179 18:42 19.03.2021
1280 Clouds 26 1006 85 10000 1.18 188 18:20 19.03.2021
1281 Clouds 26 1006 85 10000 1.18 188 17:55 19.03.2021
1282 Clouds 26 1006 85 10000 1.18 188 17:32 19.03.2021
1283 Clouds 26 1006 85 10000 1.31 198 16:55 19.03.2021
1284 Clouds 26 1006 85 10000 1.31 198 16:31 19.03.2021
1285 Clouds 26 1006 85 10000 1.31 198 16:31 19.03.2021
1286 Clouds 26 1006 86 10000 1.58 202 15:56 19.03.2021
1287 Clouds 26 1007 86 10000 1.74 193 15:27 19.03.2021
1288 Clouds 26 1007 86 10000 1.74 193 14:47 19.03.2021
1289 Clouds 26 1008 87 10000 1.66 180 14:28 19.03.2021
1290 Clouds 26 1008 87 10000 1.66 180 13:42 19.03.2021
1291 Clouds 26 1009 86 10000 1.62 153 12:57 19.03.2021
1292 Clouds 26 1009 86 10000 1.52 174 12:37 19.03.2021
1293 Clouds 26 1009 85 10000 1.19 142 11:48 19.03.2021
1294 Clouds 27 1009 84 10000 0.52 161 10:54 19.03.2021
1295 Rain 27 1009 84 10000 0.52 161 10:32 19.03.2021
1296 Rain 27 1008 83 10000 0.26 270 09:58 19.03.2021
1297 Clouds 27 1008 83 10000 0.26 270 09:39 19.03.2021
1298 Clouds 27 1007 83 10000 0.37 327 09:19 19.03.2021
1299 Rain 27 1007 83 10000 0.37 327 08:40 19.03.2021
1300 Rain 28 1006 82 10000 0.27 349 08:21 19.03.2021
1301 Clouds 28 1006 82 10000 0.27 349 07:39 19.03.2021
1302 Rain 28 1006 80 10000 0.63 324 06:52 19.03.2021
1303 Rain 29 1006 78 10000 1.36 351 03:34 19.03.2021
1304 Clouds 30 1009 67 10000 1.57 25 00:58 19.03.2021
1305 Clouds 30 1010 68 10000 1.19 55 23:48 18.03.2021
1306 Clouds 29 1010 74 10000 0.81 99 23:25 18.03.2021
1307 Rain 29 1010 74 10000 0.81 99 22:39 18.03.2021
1308 Clouds 27 1009 82 10000 1.03 147 22:19 18.03.2021
1309 Clouds 27 1009 82 10000 1.03 147 21:39 18.03.2021
1310 Clouds 26 1008 85 10000 1.31 163 20:51 18.03.2021
1311 Clouds 26 1008 85 10000 1.31 163 20:32 18.03.2021
1312 Clouds 25 1008 85 10000 1.18 180 19:48 18.03.2021
1313 Clouds 25 1007 85 10000 1.07 183 19:29 18.03.2021
1314 Clouds 25 1007 83 10000 1.26 159 18:58 18.03.2021
1315 Clouds 25 1007 83 10000 1.26 159 18:34 18.03.2021
1316 Clouds 25 1007 83 10000 1.27 168 17:51 18.03.2021
1317 Clouds 25 1007 83 10000 1.33 162 17:26 18.03.2021
1318 Clouds 25 1007 83 10000 1.33 162 16:49 18.03.2021
1319 Clouds 25 1007 83 10000 1.33 162 16:30 18.03.2021
1320 Clouds 25 1007 83 10000 1.38 147 15:48 18.03.2021
1321 Clouds 25 1008 83 10000 1.57 157 15:28 18.03.2021
1322 Clouds 25 1008 83 10000 1.57 157 14:55 18.03.2021
1323 Clouds 25 1008 83 10000 1.57 157 14:32 18.03.2021
1324 Clouds 25 1009 85 10000 1.81 173 13:53 18.03.2021
1325 Clouds 25 1010 85 10000 1.92 178 13:26 18.03.2021
1326 Clouds 26 1009 85 10000 1.18 162 12:44 18.03.2021
1327 Rain 26 1010 85 10000 0.98 153 12:26 18.03.2021
1328 Clouds 26 1010 85 10000 0.98 153 11:55 18.03.2021
1329 Rain 26 1010 85 10000 0.98 153 11:33 18.03.2021
1330 Rain 26 1009 85 10000 0.72 146 10:49 18.03.2021
1331 Rain 26 1009 84 10000 0.23 127 10:27 18.03.2021
1332 Rain 26 1009 84 10000 0.23 127 09:56 18.03.2021
1333 Clouds 27 1008 84 10000 0.39 287 09:29 18.03.2021
1334 Rain 27 1008 84 10000 0.39 287 08:52 18.03.2021
1335 Rain 27 1008 84 10000 0.39 287 08:32 18.03.2021
1336 Rain 27 1008 84 10000 0.39 287 08:32 18.03.2021
1337 Clouds 27 1007 84 10000 0.93 305 07:54 18.03.2021
1338 Clouds 28 1006 82 10000 1.23 314 07:25 18.03.2021
1339 Rain 27 1006 82 7656 0.27 355 06:30 18.03.2021
1340 Rain 27 1006 82 7656 0.27 355 06:30 18.03.2021
1341 Clouds 28 1006 79 10000 1.08 6 05:55 18.03.2021
1342 Clouds 29 1007 75 10000 2 360 02:35 18.03.2021
1343 Clouds 29 1007 75 10000 2 360 02:35 18.03.2021
1344 Clouds 28 1010 78 10000 1.88 15 23:59 17.03.2021
1345 Clouds 28 1010 78 10000 1.14 29 22:56 17.03.2021
1346 Clouds 28 1010 78 10000 1.16 29 22:36 17.03.2021
1347 Clouds 28 1010 78 10000 1.16 29 22:36 17.03.2021
1348 Clouds 27 1010 82 10000 0.57 146 22:18 17.03.2021
1349 Clouds 27 1010 82 10000 0.57 146 21:42 17.03.2021
1350 Clouds 25 1009 85 10000 1.26 176 21:23 17.03.2021
1351 Clouds 25 1009 85 10000 1.26 176 20:45 17.03.2021
1352 Clouds 25 1008 87 10000 1.67 173 20:25 17.03.2021
1353 Clouds 25 1008 87 10000 1.67 173 19:46 17.03.2021
1354 Clouds 25 1008 88 10000 1.62 161 19:22 17.03.2021
1355 Clouds 25 1008 88 10000 1.62 161 18:55 17.03.2021
1356 Clouds 25 1008 87 10000 0.83 157 18:37 17.03.2021
1357 Rain 25 1007 87 10000 0.8 153 17:49 17.03.2021
1358 Clouds 25 1008 86 10000 0.94 162 17:27 17.03.2021
1359 Rain 25 1008 86 10000 0.94 162 16:47 17.03.2021
1360 Rain 25 1008 86 10000 0.86 167 16:25 17.03.2021
1361 Rain 25 1008 86 10000 0.86 167 15:56 17.03.2021
1362 Rain 25 1008 86 10000 0.86 167 15:36 17.03.2021
1363 Rain 26 1008 86 10000 0.82 189 14:45 17.03.2021
1364 Rain 26 1009 85 10000 0.63 194 14:27 17.03.2021
1365 Rain 26 1009 85 10000 0.63 194 13:55 17.03.2021
1366 Rain 26 1009 85 10000 0.63 194 13:31 17.03.2021
1367 Rain 26 1010 85 10000 0.48 133 12:54 17.03.2021
1368 Rain 26 1010 84 10000 0.52 169 12:34 17.03.2021
1369 Clouds 26 1010 83 10000 0.49 136 11:51 17.03.2021
1370 Clouds 26 1010 82 10000 0.21 142 11:23 17.03.2021
1371 Rain 26 1010 82 10000 0.21 142 10:55 17.03.2021
1372 Clouds 26 1009 81 10000 0.15 308 10:28 17.03.2021
1373 Rain 26 1009 82 10000 0.14 305 09:49 17.03.2021
1374 Rain 27 1008 80 10000 0.74 332 09:26 17.03.2021
1375 Clouds 27 1008 80 10000 0.74 332 08:58 17.03.2021
1376 Clouds 27 1008 80 10000 0.74 332 08:38 17.03.2021
1377 Clouds 28 1008 77 10000 1.49 342 07:49 17.03.2021
1378 Clouds 28 1008 77 10000 1.49 342 07:30 17.03.2021
1379 Rain 29 1007 74 10000 1.93 334 06:42 17.03.2021
1380 Rain 30 1007 67 10000 2.82 348 04:23 17.03.2021
1381 Rain 30 1008 65 10000 2.81 355 03:24 17.03.2021
1382 Rain 30 1010 67 10000 1.96 356 00:40 17.03.2021
1383 Rain 29 1011 69 10000 1.34 356 23:33 16.03.2021
1384 Rain 28 1011 74 10000 0.79 3 22:51 16.03.2021
1385 Clouds 28 1011 74 10000 0.79 3 22:33 16.03.2021
1386 Clouds 27 1010 80 10000 0.34 66 21:49 16.03.2021
1387 Rain 27 1010 79 10000 0.36 64 21:31 16.03.2021
1388 Clouds 26 1009 84 10000 0.56 144 20:59 16.03.2021
1389 Clouds 26 1009 84 10000 0.56 144 20:59 16.03.2021
1390 Clouds 25 1009 84 10000 0.65 135 20:20 16.03.2021
1391 Clouds 25 1009 84 10000 0.65 135 19:58 16.03.2021
1392 Clouds 25 1009 84 10000 0.65 135 19:40 16.03.2021
1393 Clouds 25 1008 84 10000 0.38 42 19:20 16.03.2021
1394 Clouds 25 1008 84 10000 0.38 42 18:40 16.03.2021
1395 Clouds 25 1008 82 10000 0.24 35 18:21 16.03.2021
1396 Clouds 25 1008 82 10000 0.24 35 17:47 16.03.2021
1397 Clouds 26 1008 79 10000 0.11 135 17:29 16.03.2021
1398 Clouds 26 1008 79 10000 0.11 135 16:52 16.03.2021
1399 Clouds 26 1009 76 10000 0.37 143 16:28 16.03.2021
1400 Clouds 26 1009 76 10000 0.37 143 15:47 16.03.2021
1401 Clouds 26 1009 74 10000 0.58 127 15:21 16.03.2021
1402 Clouds 26 1009 74 10000 0.58 127 14:58 16.03.2021
1403 Clouds 26 1009 74 10000 0.58 127 14:40 16.03.2021
1404 Clouds 26 1010 74 10000 0.48 138 14:20 16.03.2021
1405 Rain 26 1010 74 10000 0.48 138 13:49 16.03.2021
1406 Clouds 26 1011 75 10000 0.54 135 13:26 16.03.2021
1407 Clouds 26 1011 75 10000 0.54 135 12:53 16.03.2021
1408 Clouds 26 1011 75 10000 0.68 167 12:34 16.03.2021
1409 Clouds 26 1011 76 10000 0.49 193 11:53 16.03.2021
1410 Clouds 26 1010 77 10000 0.33 222 11:24 16.03.2021
1411 Rain 26 1010 77 10000 0.13 55 10:28 16.03.2021
1412 Rain 26 1010 77 10000 0.13 55 09:59 16.03.2021
1413 Rain 26 1010 77 10000 0.13 55 09:38 16.03.2021
1414 Rain 27 1009 77 10000 0.53 13 09:18 16.03.2021
1415 Rain 27 1009 77 10000 0.53 13 08:45 16.03.2021
1416 Rain 27 1008 75 10000 1.04 358 08:26 16.03.2021
1417 Rain 27 1008 75 10000 1.04 358 07:36 16.03.2021
1418 Rain 28 1008 76 10000 1.81 338 06:40 16.03.2021
1419 Rain 29 1007 72 10000 2.13 340 05:52 16.03.2021
1420 Rain 29 1007 72 10000 2.13 340 05:34 16.03.2021
1421 Rain 30 1009 63 10000 2.35 359 02:45 16.03.2021
1422 Clouds 30 1010 62 10000 2.28 2 02:24 16.03.2021
1423 Clouds 29 1011 65 10000 1.46 7 23:58 15.03.2021
1424 Clouds 28 1011 73 10000 0.85 7 23:29 15.03.2021
1425 Clouds 28 1011 73 10000 0.85 7 23:29 15.03.2021
1426 Clouds 28 1011 73 10000 0.85 7 23:29 15.03.2021
1427 Clouds 28 1011 73 10000 0.85 7 22:53 15.03.2021
1428 Clouds 28 1011 73 10000 0.85 7 22:34 15.03.2021
1429 Rain 27 1011 80 10000 0.23 116 21:55 15.03.2021
1430 Clouds 27 1011 80 10000 0.23 116 21:35 15.03.2021
1431 Clouds 25 1010 83 10000 0.73 157 20:59 15.03.2021
1432 Clouds 25 1010 83 10000 0.73 157 20:40 15.03.2021
1433 Clouds 25 1009 83 10000 0.62 159 20:21 15.03.2021
1434 Clouds 25 1009 83 10000 0.62 159 19:50 15.03.2021
1435 Clouds 25 1009 83 10000 0.62 159 19:50 15.03.2021
1436 Clouds 25 1009 83 10000 0.62 159 19:32 15.03.2021
1437 Clouds 25 1009 83 10000 0.94 168 18:57 15.03.2021
1438 Clouds 25 1009 83 10000 0.88 173 18:28 15.03.2021
1439 Clouds 25 1009 83 10000 0.88 173 17:56 15.03.2021
1440 Clouds 25 1009 83 10000 0.88 173 17:32 15.03.2021
1441 Clouds 25 1009 83 10000 0.64 155 16:52 15.03.2021
1442 Clouds 25 1009 83 10000 0.64 155 16:34 15.03.2021
1443 Clouds 25 1009 83 10000 0.59 150 15:47 15.03.2021
1444 Clouds 25 1010 83 10000 0.58 176 15:26 15.03.2021
1445 Clouds 25 1010 83 10000 0.58 176 14:45 15.03.2021
1446 Clouds 25 1011 83 10000 0.58 159 14:23 15.03.2021
1447 Clouds 25 1011 83 10000 0.58 159 13:49 15.03.2021
1448 Clouds 26 1011 83 10000 0.44 136 13:27 15.03.2021
1449 Clouds 25 1011 84 10000 0.71 102 12:50 15.03.2021
1450 Clouds 26 1011 84 10000 0.84 75 12:20 15.03.2021
1451 Clouds 26 1011 84 10000 0.84 75 11:56 15.03.2021
1452 Clouds 26 1011 84 10000 0.84 75 11:37 15.03.2021
1453 Clouds 26 1011 83 10000 1.2 64 10:56 15.03.2021
1454 Rain 26 1011 83 10000 1.2 64 10:32 15.03.2021
1455 Clouds 26 1010 83 10000 1.21 42 09:53 15.03.2021
1456 Clouds 26 1010 83 10000 1.21 42 09:35 15.03.2021
1457 Clouds 26 1009 83 10000 1.3 6 08:54 15.03.2021
1458 Clouds 26 1009 83 10000 1.3 6 08:34 15.03.2021
1459 Clouds 27 1008 83 10000 1.46 355 07:55 15.03.2021
1460 Clouds 27 1008 83 10000 1.46 355 07:32 15.03.2021
1461 Clouds 27 1008 77 8728 1.7 335 06:40 15.03.2021
1462 Clouds 27 1008 84 10000 1.83 339 05:32 15.03.2021
1463 Clouds 29 1010 80 4756 2.78 348 01:36 15.03.2021
1464 Rain 29 1011 73 10000 1 27 23:56 14.03.2021
1465 Rain 28 1011 78 10000 0.71 93 23:20 14.03.2021
1466 Rain 28 1011 78 10000 0.71 93 22:46 14.03.2021
1467 Rain 27 1011 83 10000 0.73 160 22:23 14.03.2021
1468 Rain 27 1011 83 10000 0.73 160 21:45 14.03.2021
1469 Rain 25 1010 85 10000 0.9 169 21:19 14.03.2021
1470 Clouds 25 1010 85 10000 0.9 169 20:43 14.03.2021
1471 Clouds 25 1009 85 10000 0.94 175 20:25 14.03.2021
1472 Clouds 25 1009 85 10000 0.94 175 19:43 14.03.2021
1473 Clouds 25 1009 86 10000 1.06 174 19:23 14.03.2021
1474 Clouds 25 1009 86 10000 1.06 174 18:48 14.03.2021
1475 Clouds 25 1009 85 10000 1.09 171 18:23 14.03.2021
1476 Clouds 25 1009 85 10000 1.09 171 17:40 14.03.2021
1477 Rain 25 1009 85 10000 1.03 171 17:22 14.03.2021
1478 Clouds 25 1009 85 10000 1.03 171 16:46 14.03.2021
1479 Clouds 25 1009 85 10000 0.99 172 16:26 14.03.2021
1480 Clouds 25 1009 85 10000 0.99 172 15:52 14.03.2021
1481 Clouds 25 1009 85 10000 0.99 172 15:33 14.03.2021
1482 Clouds 25 1010 86 10000 0.94 172 14:41 14.03.2021
1483 Clouds 25 1010 85 10000 0.92 185 14:20 14.03.2021
1484 Clouds 25 1010 85 10000 0.92 185 13:49 14.03.2021
1485 Clouds 26 1011 85 10000 0.86 201 13:28 14.03.2021
1486 Clouds 26 1011 86 10000 0.82 185 12:45 14.03.2021
1487 Rain 26 1011 85 10000 0.54 237 12:27 14.03.2021
1488 Rain 26 1011 85 10000 0.54 237 12:27 14.03.2021
1489 Rain 26 1011 85 10000 0.54 237 11:44 14.03.2021
1490 Rain 26 1010 85 10000 0.51 243 11:26 14.03.2021
1491 Clouds 26 1010 85 10000 0.51 243 10:39 14.03.2021
1492 Clouds 26 1009 85 10000 0.34 191 10:20 14.03.2021
1493 Clouds 26 1009 85 10000 0.34 191 09:59 14.03.2021
1494 Clouds 26 1009 85 10000 0.34 191 09:41 14.03.2021
1495 Clouds 26 1009 85 10000 0.16 157 09:21 14.03.2021
1496 Clouds 26 1009 85 10000 0.16 157 08:40 14.03.2021
1497 Clouds 26 1009 85 10000 0.16 157 08:40 14.03.2021
1498 Clouds 27 1008 84 10000 0.42 359 08:18 14.03.2021
1499 Rain 27 1008 84 10000 0.42 359 07:34 14.03.2021
1500 Rain 28 1007 83 10000 1.45 349 05:42 14.03.2021
1501 Clouds 29 1010 72 10000 1.3 2 01:35 14.03.2021
1502 Rain 28 1011 74 10000 0.25 21 00:49 14.03.2021
1503 Rain 27 1011 81 10000 0.31 129 00:18 14.03.2021
1504 Rain 27 1011 81 10000 0.31 129 23:42 13.03.2021
1505 Rain 25 1011 86 10000 0.97 139 23:20 13.03.2021
1506 Rain 25 1011 86 10000 0.97 139 22:47 13.03.2021
1507 Rain 25 1011 88 10000 1.53 158 22:24 13.03.2021
1508 Rain 25 1011 88 10000 1.53 158 21:36 13.03.2021
1509 Rain 24 1010 91 10000 1.85 183 21:18 13.03.2021
1510 Clouds 24 1010 91 10000 1.83 183 20:47 13.03.2021
1511 Rain 24 1009 94 10000 1.95 205 20:26 13.03.2021
1512 Rain 24 1009 94 10000 1.95 205 19:45 13.03.2021
1513 Rain 24 1008 97 4411 1.44 197 19:24 13.03.2021
1514 Rain 25 1008 89 5374 1.7 247 18:43 13.03.2021
1515 Rain 25 1008 90 5600 1.14 231 18:20 13.03.2021
1516 Rain 25 1008 90 5600 1.14 231 17:51 13.03.2021
1517 Rain 25 1008 90 5600 1.14 231 17:32 13.03.2021
1518 Rain 25 1008 90 10000 1.11 189 16:55 13.03.2021
1519 Clouds 25 1008 90 10000 1.11 189 16:37 13.03.2021
1520 Clouds 25 1009 90 10000 1.27 167 15:56 13.03.2021
1521 Clouds 25 1009 89 9963 0.75 191 15:19 13.03.2021
1522 Clouds 25 1009 89 9963 0.75 191 14:41 13.03.2021
1523 Clouds 26 1010 88 6655 1.4 225 14:21 13.03.2021
1524 Rain 26 1011 88 5659 1.74 227 13:28 13.03.2021
1525 Rain 26 1011 88 5659 1.74 227 12:52 13.03.2021
1526 Clouds 26 1010 87 9325 1.37 198 12:34 13.03.2021
1527 Clouds 26 1011 87 10000 0.74 198 11:54 13.03.2021
1528 Clouds 26 1011 87 10000 0.74 198 11:54 13.03.2021
1529 Clouds 26 1011 87 10000 0.74 198 11:33 13.03.2021
1530 Clouds 26 1010 86 10000 0.26 43 10:58 13.03.2021
1531 Clouds 26 1010 86 10000 0.26 43 10:31 13.03.2021
1532 Clouds 26 1010 86 10000 1.28 3 09:59 13.03.2021
1533 Clouds 26 1010 86 10000 1.28 3 09:32 13.03.2021
1534 Clouds 27 1009 85 8303 1.67 344 08:54 13.03.2021
1535 Clouds 27 1008 82 10000 1.63 337 08:21 13.03.2021
1536 Clouds 27 1008 82 10000 1.61 337 07:57 13.03.2021
1537 Clouds 27 1008 82 10000 1.63 337 07:30 13.03.2021
1538 Clouds 29 1007 76 10000 2.06 349 05:29 13.03.2021
1539 Clouds 29 1009 77 10000 2.52 354 02:20 13.03.2021
1540 Clouds 29 1011 76 10000 1.75 7 00:24 13.03.2021
1541 Clouds 29 1011 76 10000 1.75 7 23:33 12.03.2021
1542 Rain 28 1011 80 10000 1.18 16 22:57 12.03.2021
1543 Rain 28 1011 80 10000 1.18 16 22:30 12.03.2021
1544 Rain 27 1011 85 10000 0.69 33 21:56 12.03.2021
1545 Rain 27 1011 85 10000 0.72 32 21:37 12.03.2021
1546 Rain 27 1011 85 10000 0.72 32 21:37 12.03.2021
1547 Rain 26 1010 87 10000 0.01 147 21:18 12.03.2021
1548 Rain 26 1010 87 10000 0.01 147 20:47 12.03.2021
1549 Rain 26 1009 87 10000 0.26 101 20:21 12.03.2021
1550 Rain 26 1009 87 10000 0.26 101 19:44 12.03.2021
1551 Rain 26 1009 81 10000 0.53 104 19:25 12.03.2021
1552 Clouds 25 1009 88 10000 0.11 125 18:43 12.03.2021
1553 Rain 25 1008 89 10000 0.29 167 18:24 12.03.2021
1554 Clouds 25 1008 89 10000 0.29 167 17:41 12.03.2021
1555 Clouds 25 1008 89 10000 0.2 162 17:23 12.03.2021
1556 Rain 25 1008 89 10000 0.2 162 16:43 12.03.2021
1557 Clouds 26 1009 89 10000 0.2 102 16:18 12.03.2021
1558 Clouds 26 1009 89 10000 0.2 102 15:37 12.03.2021
1559 Rain 26 1010 89 10000 0.31 86 14:49 12.03.2021
1560 Rain 26 1011 88 10000 0.06 330 14:22 12.03.2021
1561 Rain 26 1011 88 10000 0.06 330 13:54 12.03.2021
1562 Rain 26 1011 88 10000 0.06 330 13:36 12.03.2021
1563 Rain 26 1012 82 10000 0.07 92 13:18 12.03.2021
1564 Rain 26 1012 88 10000 0.56 343 12:42 12.03.2021
1565 Rain 26 1011 88 10000 0.39 80 12:23 12.03.2021
1566 Rain 26 1011 88 10000 0.39 80 11:51 12.03.2021
1567 Rain 26 1011 88 10000 0.64 89 11:23 12.03.2021
1568 Clouds 26 1011 88 10000 0.64 89 10:54 12.03.2021
1569 Clouds 26 1010 88 10000 0.48 39 10:26 12.03.2021
1570 Rain 26 1010 88 10000 0.48 39 09:56 12.03.2021
1571 Clouds 27 1010 88 6536 1.06 6 09:25 12.03.2021
1572 Clouds 27 1010 88 6536 1.06 6 08:45 12.03.2021
1573 Clouds 27 1009 86 10000 1.7 355 07:58 12.03.2021
1574 Clouds 27 1009 86 10000 1.73 355 07:33 12.03.2021
1575 Rain 28 1008 82 10000 1.08 352 06:51 12.03.2021
1576 Rain 28 1008 80 10000 1.17 355 06:26 12.03.2021
1577 Clouds 29 1010 74 10000 1.16 24 02:21 12.03.2021
1578 Clouds 29 1012 74 10000 0.9 87 00:19 12.03.2021
1579 Rain 29 1012 74 10000 0.9 87 23:30 11.03.2021
1580 Clouds 27 1012 82 10000 0.73 109 22:43 11.03.2021
1581 Clouds 26 1012 87 10000 0.73 215 22:24 11.03.2021
1582 Clouds 26 1012 87 10000 0.73 215 21:47 11.03.2021
1583 Clouds 25 1011 90 10000 1.24 244 21:27 11.03.2021
1584 Rain 24 1011 91 10000 1.23 243 20:53 11.03.2021
1585 Rain 25 1011 90 10000 1.24 244 20:35 11.03.2021
1586 Clouds 24 1011 92 10000 1.08 258 19:58 11.03.2021
1587 Clouds 24 1011 92 10000 1.08 258 19:39 11.03.2021
1588 Clouds 24 1010 92 10000 1.22 270 18:56 11.03.2021
1589 Clouds 24 1010 93 10000 1.61 257 18:37 11.03.2021
1590 Clouds 24 1010 94 10000 1.82 263 18:18 11.03.2021
1591 Clouds 24 1010 94 10000 1.82 263 17:41 11.03.2021
1592 Rain 25 1010 93 10000 1.35 258 16:43 11.03.2021
1593 Rain 25 1010 90 4098 0.95 220 16:24 11.03.2021
1594 Rain 25 1010 90 4098 0.95 220 15:44 11.03.2021
1595 Rain 26 1011 89 3666 0.89 216 15:21 11.03.2021
1596 Rain 26 1011 89 3666 0.89 216 14:45 11.03.2021
1597 Rain 26 1012 88 3368 1.29 242 14:19 11.03.2021
1598 Rain 26 1012 88 3368 1.29 242 13:46 11.03.2021
1599 Rain 26 1013 87 6165 1.1 267 13:22 11.03.2021
1600 Rain 26 1013 87 6165 1.1 267 12:56 11.03.2021
1601 Rain 26 1012 89 3192 1.92 231 12:31 11.03.2021
1602 Rain 26 1012 87 6822 0.84 255 11:49 11.03.2021
1603 Rain 26 1012 87 6822 0.84 255 11:31 11.03.2021
1604 Rain 26 1012 86 10000 0.64 273 10:57 11.03.2021
1605 Rain 27 1011 79 10000 0.94 307 10:28 11.03.2021
1606 Rain 27 1011 79 10000 0.94 307 09:53 11.03.2021
1607 Rain 27 1011 79 10000 0.94 307 09:33 11.03.2021
1608 Rain 27 1010 78 10000 1.23 317 08:51 11.03.2021
1609 Rain 27 1010 78 10000 1.23 317 08:32 11.03.2021
1610 Clouds 28 1010 77 10000 1.57 324 07:48 11.03.2021
1611 Rain 28 1009 73 10000 1.8 324 07:21 11.03.2021
1612 Clouds 28 1009 73 10000 1.8 324 06:42 11.03.2021
1613 Clouds 29 1009 72 10000 1.95 326 06:22 11.03.2021
1614 Clouds 30 1011 66 10000 1.84 350 02:26 11.03.2021
1615 Clouds 27 1012 75 10000 0.32 158 00:28 11.03.2021
1616 Clouds 27 1012 75 10000 0.32 158 00:28 11.03.2021
1617 Clouds 27 1012 78 10000 0.81 154 23:23 10.03.2021
1618 Clouds 27 1012 78 10000 0.81 154 22:42 10.03.2021
1619 Clouds 27 1012 78 10000 0.81 154 22:41 10.03.2021
1620 Clouds 27 1012 78 10000 0.81 154 22:41 10.03.2021
1621 Clouds 27 1012 78 10000 0.81 154 22:41 10.03.2021
1622 Clouds 27 1012 78 10000 0.81 154 22:41 10.03.2021
1623 Clouds 27 1012 78 10000 0.81 154 22:41 10.03.2021
1624 Clouds 27 1012 78 10000 0.81 154 22:41 10.03.2021
1625 Clouds 27 1012 78 10000 0.81 154 22:41 10.03.2021
1626 Clouds 26 1012 79 10000 1.09 185 21:58 10.03.2021
1627 Clouds 26 1012 79 10000 1.09 185 21:39 10.03.2021
1628 Clouds 25 1011 80 10000 1 186 21:20 10.03.2021
1629 Clouds 25 1011 79 10000 1.16 210 20:42 10.03.2021
1630 Clouds 25 1010 80 10000 1.26 178 20:23 10.03.2021
1631 Clouds 25 1010 80 10000 1.26 178 20:23 10.03.2021
1632 Clouds 25 1010 80 10000 1.26 178 19:40 10.03.2021
1633 Clouds 25 1010 80 10000 1.27 185 19:21 10.03.2021
1634 Clouds 25 1010 80 10000 1.27 185 19:21 10.03.2021
1635 Clouds 25 1010 80 10000 1.27 185 18:42 10.03.2021
1636 Clouds 25 1009 80 10000 1.1 191 18:23 10.03.2021
1637 Clouds 25 1009 80 10000 1.1 191 17:42 10.03.2021
1638 Clouds 25 1009 80 10000 0.98 200 17:21 10.03.2021
1639 Clouds 25 1009 81 10000 0.98 199 16:55 10.03.2021
1640 Clouds 25 1009 80 10000 0.98 200 16:37 10.03.2021
1641 Clouds 25 1010 81 10000 1.11 211 16:18 10.03.2021
1642 Clouds 25 1010 81 10000 1.11 211 15:39 10.03.2021
1643 Clouds 25 1010 81 10000 1.12 232 15:21 10.03.2021
1644 Clouds 25 1010 81 10000 1.12 232 14:38 10.03.2021
1645 Clouds 25 1011 82 10000 1.37 262 14:19 10.03.2021
1646 Clouds 26 1011 80 10000 1.33 268 13:35 10.03.2021
1647 Clouds 26 1012 79 10000 1.26 276 12:53 10.03.2021
1648 Clouds 26 1012 79 10000 1.26 276 12:32 10.03.2021
1649 Clouds 26 1012 79 10000 1.03 276 11:56 10.03.2021
1650 Rain 26 1011 78 10000 0.55 260 11:29 10.03.2021
1651 Clouds 26 1011 78 10000 0.55 260 10:56 10.03.2021
1652 Clouds 26 1011 78 10000 0.55 260 10:34 10.03.2021
1653 Clouds 26 1011 79 10000 0.51 268 09:57 10.03.2021
1654 Clouds 27 1011 78 10000 0.52 271 09:38 10.03.2021
1655 Clouds 27 1010 78 10000 0.31 245 09:19 10.03.2021
1656 Clouds 27 1010 78 10000 0.31 245 08:45 10.03.2021
1657 Clouds 28 1009 77 9771 0.3 14 08:27 10.03.2021
1658 Clouds 28 1009 77 9771 0.3 14 07:44 10.03.2021
1659 Clouds 28 1008 77 10000 0.78 8 07:25 10.03.2021
1660 Clouds 28 1008 77 10000 0.36 42 06:52 10.03.2021
1661 Clouds 29 1010 74 10000 1.55 1 02:45 10.03.2021
1662 Clouds 30 1011 66 10000 1.04 17 00:36 10.03.2021
1663 Clouds 30 1012 69 10000 0.5 77 23:33 09.03.2021
1664 Clouds 28 1012 75 10000 0.92 109 22:52 09.03.2021
1665 Clouds 28 1012 75 10000 0.92 109 22:34 09.03.2021
1666 Clouds 27 1012 80 10000 1.19 145 21:59 09.03.2021
1667 Clouds 27 1012 80 10000 1.19 145 21:38 09.03.2021
1668 Clouds 26 1011 82 10000 1.58 143 21:20 09.03.2021
1669 Clouds 26 1011 82 10000 1.58 143 20:45 09.03.2021
1670 Clouds 25 1010 82 10000 1.3 135 20:23 09.03.2021
1671 Clouds 25 1010 82 10000 1.3 135 19:59 09.03.2021
1672 Clouds 26 1010 82 10000 0.99 139 19:29 09.03.2021
1673 Clouds 26 1010 81 10000 1.16 137 18:54 09.03.2021
1674 Rain 26 1010 81 10000 1.16 137 18:31 09.03.2021
1675 Clouds 26 1010 81 10000 0.91 136 17:59 09.03.2021
1676 Rain 26 1010 81 10000 0.91 136 17:38 09.03.2021
1677 Clouds 26 1010 81 10000 0.91 143 17:19 09.03.2021
1678 Clouds 26 1010 81 10000 0.91 143 16:40 09.03.2021
1679 Clouds 26 1010 81 10000 1.07 149 16:20 09.03.2021
1680 Clouds 26 1010 81 10000 1.07 149 16:20 09.03.2021
1681 Clouds 26 1010 81 10000 1.07 149 15:47 09.03.2021
1682 Clouds 26 1011 81 10000 1.09 152 15:24 09.03.2021
1683 Clouds 26 1011 81 10000 1.09 152 14:42 09.03.2021
1684 Clouds 26 1011 80 10000 1.07 155 14:22 09.03.2021
1685 Clouds 26 1011 80 10000 1.07 155 13:39 09.03.2021
1686 Clouds 26 1012 81 10000 1.16 158 13:21 09.03.2021
1687 Clouds 26 1012 81 10000 1.16 158 12:44 09.03.2021
1688 Clouds 26 1012 80 10000 0.7 152 12:25 09.03.2021
1689 Clouds 26 1012 80 10000 0.7 152 11:42 09.03.2021
1690 Clouds 26 1011 79 10000 0.65 134 11:21 09.03.2021
1691 Clouds 26 1011 79 10000 0.65 134 10:57 09.03.2021
1692 Clouds 26 1011 79 10000 0.65 134 10:38 09.03.2021
1693 Clouds 27 1011 79 10000 0.87 104 10:20 09.03.2021
1694 Clouds 27 1011 79 10000 0.87 104 10:20 09.03.2021
1695 Clouds 27 1011 79 10000 0.87 104 10:20 09.03.2021
1696 Rain 27 1011 79 10000 0.87 104 09:44 09.03.2021
1697 Clouds 27 1010 79 10000 0.62 83 09:26 09.03.2021
1698 Clouds 27 1010 79 10000 0.62 83 08:48 09.03.2021
1699 Clouds 28 1010 77 10000 0.3 314 08:28 09.03.2021
1700 Clouds 28 1010 77 10000 0.3 314 07:40 09.03.2021
1701 Rain 28 1009 76 10000 0.36 279 07:21 09.03.2021
1702 Clouds 29 1008 75 10000 0.76 262 06:18 09.03.2021
1703 Clouds 29 1008 75 10000 0.76 262 05:46 09.03.2021
1704 Clouds 31 1012 62 10000 1.46 33 00:34 09.03.2021
1705 Clouds 30 1012 66 10000 1.03 51 23:45 08.03.2021
1706 Clouds 28 1012 72 10000 0.95 66 23:27 08.03.2021
1707 Clouds 28 1012 72 10000 0.95 66 22:51 08.03.2021
1708 Clouds 28 1012 72 10000 0.95 66 22:32 08.03.2021
1709 Clouds 27 1012 78 10000 0.69 120 21:57 08.03.2021
1710 Clouds 27 1012 78 10000 0.69 120 21:35 08.03.2021
1711 Clouds 25 1011 80 10000 0.62 135 20:48 08.03.2021
1712 Clouds 25 1010 80 10000 0.49 100 20:28 08.03.2021
1713 Clouds 25 1010 80 10000 0.49 100 19:59 08.03.2021
1714 Clouds 25 1010 80 10000 0.49 100 19:36 08.03.2021
1715 Clouds 25 1010 80 10000 0.46 116 18:42 08.03.2021
1716 Clouds 25 1010 79 10000 0.4 134 18:23 08.03.2021
1717 Clouds 25 1010 79 10000 0.4 134 17:51 08.03.2021
1718 Clouds 25 1010 79 10000 0.4 134 17:51 08.03.2021
1719 Clouds 25 1010 79 10000 0.4 134 17:32 08.03.2021
1720 Clouds 25 1010 79 10000 0.36 170 16:49 08.03.2021
1721 Clouds 25 1010 80 10000 0.41 176 16:29 08.03.2021
1722 Clouds 25 1010 80 10000 0.41 176 15:51 08.03.2021
1723 Clouds 25 1011 79 10000 0.33 142 15:29 08.03.2021
1724 Clouds 25 1011 79 10000 0.33 142 14:46 08.03.2021
1725 Clouds 26 1012 79 10000 0.3 144 14:20 08.03.2021
1726 Clouds 26 1012 79 10000 0.3 144 13:40 08.03.2021
1727 Clouds 26 1012 79 10000 0.46 67 13:19 08.03.2021
1728 Clouds 26 1012 79 10000 0.46 67 12:45 08.03.2021
1729 Clouds 26 1012 80 10000 0.79 34 12:26 08.03.2021
1730 Clouds 26 1012 80 10000 0.79 34 11:40 08.03.2021
1731 Clouds 26 1012 80 10000 0.81 40 11:19 08.03.2021
1732 Rain 26 1012 80 10000 0.81 40 10:43 08.03.2021
1733 Rain 26 1012 79 10000 0.76 38 10:24 08.03.2021
1734 Rain 26 1012 79 10000 0.76 38 09:41 08.03.2021
1735 Clouds 27 1011 78 10000 0.83 21 09:22 08.03.2021
1736 Clouds 28 1010 76 10000 0.99 15 08:28 08.03.2021
1737 Clouds 28 1009 75 10000 1.46 18 07:24 08.03.2021
1738 Clouds 28 1009 75 10000 1.46 18 07:24 08.03.2021
1739 Clouds 28 1009 75 10000 1.46 18 06:44 08.03.2021
1740 Clouds 30 1009 70 10000 2.53 12 03:39 08.03.2021
1741 Clouds 30 1011 65 10000 1.71 42 00:44 08.03.2021
1742 Clouds 29 1012 69 10000 1.52 54 23:57 07.03.2021
1743 Clouds 29 1012 69 10000 1.52 54 23:37 07.03.2021
1744 Clouds 28 1012 73 10000 1.24 64 23:18 07.03.2021
1745 Clouds 28 1012 73 10000 1.24 64 22:42 07.03.2021
1746 Clouds 27 1011 78 10000 0.97 84 22:23 07.03.2021
1747 Clouds 27 1011 78 10000 0.97 84 21:44 07.03.2021
1748 Clouds 26 1010 79 10000 1 96 21:25 07.03.2021
1749 Clouds 26 1010 79 10000 1 96 20:48 07.03.2021
1750 Clouds 26 1010 79 10000 1 96 20:30 07.03.2021
1751 Clouds 26 1010 79 10000 0.82 105 19:57 07.03.2021
1752 Clouds 26 1010 79 10000 0.82 105 19:38 07.03.2021
1753 Clouds 26 1009 80 10000 0.52 117 19:19 07.03.2021
1754 Clouds 25 1009 80 10000 0.71 131 18:41 07.03.2021
1755 Clouds 25 1009 80 10000 0.78 141 18:19 07.03.2021
1756 Clouds 25 1009 80 10000 0.78 141 17:39 07.03.2021
1757 Clouds 25 1009 80 10000 0.86 142 17:20 07.03.2021
1758 Clouds 25 1009 80 10000 0.86 142 16:54 07.03.2021
1759 Clouds 25 1009 80 10000 0.86 142 16:36 07.03.2021
1760 Clouds 25 1009 80 10000 0.86 142 16:36 07.03.2021
1761 Clouds 25 1009 79 10000 0.77 144 16:18 07.03.2021
1762 Clouds 25 1009 79 10000 0.77 144 15:41 07.03.2021
1763 Clouds 26 1010 79 10000 0.76 128 15:20 07.03.2021
1764 Clouds 26 1010 79 10000 0.76 128 14:30 07.03.2021
1765 Clouds 26 1010 79 10000 0.76 128 14:30 07.03.2021
1766 Clouds 26 1010 79 10000 0.76 128 14:30 07.03.2021
1767 Clouds 26 1011 79 10000 0.78 123 13:57 07.03.2021
1768 Clouds 26 1011 79 10000 0.78 123 13:38 07.03.2021
1769 Rain 26 1012 79 10000 0.69 131 13:18 07.03.2021
1770 Rain 26 1011 79 10000 0.65 124 12:40 07.03.2021
1771 Rain 26 1011 79 10000 0.65 124 12:40 07.03.2021
1772 Rain 26 1011 79 10000 0.61 110 12:21 07.03.2021
1773 Rain 26 1010 78 10000 0.66 79 11:24 07.03.2021
1774 Rain 26 1010 78 10000 0.66 79 10:59 07.03.2021
1775 Rain 26 1010 78 10000 0.66 79 10:38 07.03.2021
1776 Clouds 27 1010 76 10000 0.27 37 09:58 07.03.2021
1777 Clouds 27 1010 76 10000 0.27 37 09:39 07.03.2021
1778 Rain 27 1009 75 10000 0.78 350 09:19 07.03.2021
1779 Rain 27 1009 75 10000 0.78 350 08:45 07.03.2021
1780 Rain 28 1008 75 10000 1.4 357 08:22 07.03.2021
1781 Rain 28 1008 76 10000 0.85 327 06:51 07.03.2021
1782 Rain 29 1009 75 10000 2.12 350 02:40 07.03.2021
1783 Rain 29 1011 69 10000 2.3 5 00:34 07.03.2021
1784 Rain 29 1011 70 10000 1.47 6 23:40 06.03.2021
1785 Rain 28 1011 74 10000 0.82 22 23:20 06.03.2021
1786 Rain 28 1011 74 10000 0.82 22 22:45 06.03.2021
1787 Rain 27 1010 78 10000 0.26 56 22:21 06.03.2021
1788 Rain 27 1010 78 10000 0.26 56 21:47 06.03.2021
1789 Rain 26 1010 79 10000 0.4 17 21:20 06.03.2021
1790 Rain 26 1010 79 10000 0.4 17 20:42 06.03.2021
1791 Rain 26 1009 79 10000 0.63 15 19:59 06.03.2021
1792 Rain 26 1009 79 10000 0.63 15 19:37 06.03.2021
1793 Rain 26 1009 80 10000 0.71 17 19:18 06.03.2021
1794 Rain 26 1009 80 10000 0.14 223 18:41 06.03.2021
1795 Clouds 26 1008 80 10000 0.43 327 18:20 06.03.2021
1796 Rain 26 1008 80 10000 0.43 327 17:49 06.03.2021
1797 Rain 26 1008 80 10000 0.43 327 17:30 06.03.2021
1798 Rain 25 1008 82 10000 0.94 336 16:57 06.03.2021
1799 Rain 26 1008 81 10000 0.95 337 16:32 06.03.2021
1800 Rain 26 1009 82 10000 1.51 346 15:56 06.03.2021
1801 Rain 26 1009 82 10000 1.51 346 15:38 06.03.2021
1802 Rain 26 1009 82 10000 1.81 342 15:18 06.03.2021
1803 Clouds 26 1009 82 10000 1.81 342 14:31 06.03.2021
1804 Clouds 26 1010 83 10000 2.12 334 13:52 06.03.2021
1805 Clouds 26 1010 83 10000 2.12 334 13:33 06.03.2021
1806 Clouds 26 1011 83 10000 1.57 328 12:58 06.03.2021
1807 Clouds 26 1011 83 10000 1.57 328 12:38 06.03.2021
1808 Clouds 26 1011 83 10000 1.73 332 12:18 06.03.2021
1809 Clouds 26 1011 83 10000 1.73 332 12:18 06.03.2021
1810 Rain 26 1011 83 10000 1.73 332 11:38 06.03.2021
1811 Clouds 26 1010 84 10000 1.98 331 11:18 06.03.2021
1812 Rain 26 1010 84 10000 1.98 331 10:42 06.03.2021
1813 Rain 26 1010 84 10000 2.23 328 09:57 06.03.2021
1814 Rain 26 1009 84 10000 2.43 318 09:24 06.03.2021
1815 Rain 26 1009 84 10000 2.43 318 08:54 06.03.2021
1816 Rain 26 1009 84 10000 2.43 318 08:30 06.03.2021
1817 Rain 26 1008 84 10000 2.42 303 07:54 06.03.2021
1818 Rain 27 1007 79 10000 1.18 341 07:22 06.03.2021
1819 Rain 27 1007 79 10000 1.34 337 06:27 06.03.2021
1820 Rain 28 1007 77 8554 2.49 351 03:47 06.03.2021
1821 Clouds 29 1009 73 6756 2.23 343 01:33 06.03.2021
1822 Clouds 28 1010 73 10000 1.61 330 00:46 06.03.2021
1823 Clouds 29 1010 69 10000 1.37 307 23:44 05.03.2021
1824 Clouds 27 1010 76 10000 0.74 276 23:19 05.03.2021
1825 Clouds 27 1010 76 10000 0.74 276 22:43 05.03.2021
1826 Clouds 27 1009 78 10000 0.54 286 22:21 05.03.2021
1827 Clouds 27 1009 78 10000 0.54 286 21:43 05.03.2021
1828 Clouds 26 1008 79 10000 0.72 325 21:25 05.03.2021
1829 Clouds 26 1008 79 10000 0.72 325 20:47 05.03.2021
1830 Clouds 26 1007 80 10000 1.11 328 20:25 05.03.2021
1831 Rain 26 1007 80 10000 1.11 328 19:48 05.03.2021
1832 Rain 26 1007 82 10000 1.45 358 19:22 05.03.2021
1833 Rain 26 1007 82 10000 1.45 358 18:52 05.03.2021
1834 Rain 26 1006 82 10000 1.24 5 18:27 05.03.2021
1835 Rain 26 1006 82 10000 1.24 5 17:51 05.03.2021
1836 Rain 26 1006 82 10000 1.24 5 17:33 05.03.2021
1837 Clouds 26 1006 83 10000 1.03 9 16:44 05.03.2021
1838 Rain 26 1007 83 10000 0.97 360 16:23 05.03.2021
1839 Rain 26 1007 83 10000 0.97 360 16:23 05.03.2021
1840 Clouds 26 1007 83 10000 0.97 360 15:54 05.03.2021
1841 Clouds 26 1008 84 10000 1.11 1 15:27 05.03.2021
1842 Clouds 26 1008 91 10000 0.97 21 14:47 05.03.2021
1843 Clouds 26 1009 90 10000 0.98 33 14:27 05.03.2021
1844 Clouds 26 1009 90 10000 0.98 33 13:44 05.03.2021
1845 Clouds 26 1009 90 10000 1.04 39 13:21 05.03.2021
1846 Clouds 26 1009 90 10000 1.04 39 12:45 05.03.2021
1847 Clouds 26 1009 90 10000 1 27 11:40 05.03.2021
1848 Clouds 26 1009 89 10000 1.58 21 11:19 05.03.2021
1849 Rain 26 1009 89 10000 1.58 21 10:45 05.03.2021
1850 Rain 26 1008 89 10000 2.03 20 10:26 05.03.2021
1851 Rain 26 1008 89 10000 2.03 20 09:58 05.03.2021
1852 Rain 26 1008 89 10000 2.03 20 09:38 05.03.2021
1853 Clouds 27 1007 88 10000 2.22 20 09:20 05.03.2021
1854 Clouds 27 1007 88 10000 2.22 20 08:38 05.03.2021
1855 Clouds 27 1007 88 10000 2.22 20 08:38 05.03.2021
1856 Clouds 28 1006 83 10000 2.39 15 08:20 05.03.2021
1857 Clouds 28 1006 83 10000 2.39 15 07:30 05.03.2021
1858 Clouds 28 1005 82 10000 2.98 15 06:34 05.03.2021
1859 Rain 29 1005 77 10000 3.14 13 05:39 05.03.2021
1860 Clouds 26 1008 84 10000 1.08 37 00:54 05.03.2021
1861 Rain 26 1009 83 10000 1.42 14 23:45 04.03.2021
1862 Rain 25 1009 81 10000 1.63 63 23:22 04.03.2021
1863 Rain 25 1008 82 10000 1.97 65 22:29 04.03.2021
1864 Rain 24 1008 83 10000 1.93 65 21:53 04.03.2021
1865 Rain 25 1008 82 10000 1.79 45 21:29 04.03.2021
1866 Rain 25 1008 82 10000 1.79 45 20:43 04.03.2021
1867 Rain 25 1007 82 10000 1.33 7 20:24 04.03.2021
1868 Rain 25 1007 82 10000 1.33 7 19:59 04.03.2021
1869 Rain 25 1007 82 10000 1.33 7 19:40 04.03.2021
1870 Rain 25 1007 83 10000 2.23 330 19:21 04.03.2021
1871 Rain 26 1006 83 9467 2.8 5 18:45 04.03.2021
1872 Rain 26 1005 83 10000 2.59 4 18:25 04.03.2021
1873 Rain 26 1005 83 10000 2.59 4 17:46 04.03.2021
1874 Rain 26 1006 83 10000 2.07 2 17:28 04.03.2021
1875 Rain 26 1006 83 10000 2.07 2 16:47 04.03.2021
1876 Rain 26 1006 83 10000 1.62 11 16:28 04.03.2021
1877 Rain 26 1006 83 10000 1.62 11 15:50 04.03.2021
1878 Rain 26 1006 83 10000 1.62 11 15:31 04.03.2021
1879 Rain 26 1006 83 10000 1.72 12 14:49 04.03.2021
1880 Rain 26 1007 83 10000 1.79 11 14:26 04.03.2021
1881 Rain 26 1007 83 10000 1.79 11 13:48 04.03.2021
1882 Rain 26 1007 83 10000 1.79 11 13:30 04.03.2021
1883 Rain 26 1008 82 10000 1.57 27 12:53 04.03.2021
1884 Clouds 26 1008 82 10000 1.57 27 12:35 04.03.2021
1885 Clouds 26 1008 81 10000 1.16 37 11:47 04.03.2021
1886 Clouds 26 1008 81 10000 0.64 50 11:25 04.03.2021
1887 Clouds 26 1008 81 10000 0.64 50 10:47 04.03.2021
1888 Clouds 26 1007 80 10000 0.46 350 10:26 04.03.2021
1889 Rain 26 1007 80 10000 0.46 350 09:39 04.03.2021
1890 Clouds 26 1006 81 10000 0.61 347 08:59 04.03.2021
1891 Rain 26 1006 81 10000 0.61 347 08:35 04.03.2021
1892 Clouds 27 1005 82 9223 1.37 355 07:53 04.03.2021
1893 Clouds 27 1004 83 10000 2.72 359 07:21 04.03.2021
1894 Rain 27 1004 82 10000 2.96 358 06:24 04.03.2021
1895 Rain 27 1006 83 10000 2.5 350 02:49 04.03.2021
1896 Clouds 26 1007 84 10000 2.78 343 01:32 04.03.2021
1897 Clouds 26 1008 85 4976 3.55 15 22:43 03.03.2021
1898 Clouds 26 1008 85 6541 3.78 11 22:25 03.03.2021
1899 Rain 26 1008 85 6541 3.78 11 21:43 03.03.2021
1900 Rain 26 1007 86 5111 3.77 9 21:24 03.03.2021
1901 Rain 26 1007 86 5111 3.77 9 20:56 03.03.2021
1902 Rain 26 1007 86 5111 3.77 9 20:38 03.03.2021
1903 Rain 26 1006 86 6710 3.47 13 19:57 03.03.2021
1904 Rain 26 1006 86 6710 3.47 13 19:39 03.03.2021
1905 Rain 25 1006 85 10000 3.24 15 19:18 03.03.2021
1906 Rain 25 1006 87 6340 2.14 352 18:41 03.03.2021
1907 Rain 25 1006 86 6778 2.15 340 17:59 03.03.2021
1908 Rain 25 1006 86 6778 2.15 340 17:59 03.03.2021
1909 Rain 25 1006 86 6778 2.15 340 17:36 03.03.2021
1910 Rain 25 1006 87 3542 2.22 334 17:18 03.03.2021
1911 Rain 25 1006 87 3542 2.22 334 16:39 03.03.2021
1912 Rain 25 1006 88 2087 2.61 336 16:21 03.03.2021
1913 Rain 25 1006 88 2087 2.61 336 15:33 03.03.2021
1914 Rain 25 1007 88 3211 2.22 351 14:52 03.03.2021
1915 Rain 25 1008 86 4515 1.52 353 14:28 03.03.2021
1916 Rain 25 1008 86 4515 1.52 353 13:48 03.03.2021
1917 Rain 25 1009 84 6417 1.41 336 13:29 03.03.2021
1918 Rain 26 1008 82 10000 0.62 292 12:43 03.03.2021
1919 Rain 26 1008 80 10000 0.64 302 12:23 03.03.2021
1920 Rain 26 1008 80 10000 0.64 302 11:46 03.03.2021
1921 Rain 26 1007 79 10000 0.21 246 11:27 03.03.2021
1922 Rain 26 1007 79 10000 0.21 246 10:46 03.03.2021
1923 Rain 26 1007 79 10000 0.69 153 10:22 03.03.2021
1924 Rain 26 1007 79 10000 0.69 153 09:44 03.03.2021
1925 Rain 26 1006 79 10000 0.58 129 08:55 03.03.2021
1926 Rain 26 1006 79 10000 0.58 129 08:37 03.03.2021
1927 Rain 27 1005 79 10000 0.43 119 08:18 03.03.2021
1928 Rain 27 1005 79 10000 0.69 311 07:34 03.03.2021
1929 Rain 27 1005 79 10000 1.4 301 06:45 03.03.2021
1930 Rain 28 1004 77 8836 2.1 319 05:44 03.03.2021
1931 Clouds 28 1004 77 6416 1.43 349 04:49 03.03.2021
1932 Rain 28 1004 76 6192 1.22 25 04:24 03.03.2021
1933 Rain 28 1007 72 10000 0.66 320 00:37 03.03.2021
1934 Rain 27 1008 77 10000 0.65 284 23:35 02.03.2021
1935 Rain 26 1008 80 10000 0.66 258 22:53 02.03.2021
1936 Rain 26 1007 80 10000 0.45 264 22:23 02.03.2021
1937 Rain 26 1007 80 10000 0.45 264 21:55 02.03.2021
1938 Rain 26 1007 80 10000 0.45 264 21:36 02.03.2021
1939 Rain 26 1006 81 10000 1.34 271 20:58 02.03.2021
1940 Rain 26 1006 81 10000 1.34 271 20:40 02.03.2021
1941 Rain 26 1005 81 10000 2.06 280 20:20 02.03.2021
1942 Rain 26 1005 81 10000 2.06 280 19:47 02.03.2021
1943 Rain 26 1005 79 10000 1.81 290 19:28 02.03.2021
1944 Clouds 26 1005 79 10000 1.81 290 18:42 02.03.2021
1945 Rain 26 1005 79 10000 2.54 302 18:22 02.03.2021
1946 Rain 26 1005 79 10000 2.54 302 17:57 02.03.2021
1947 Clouds 26 1005 79 10000 2.54 302 17:39 02.03.2021
1948 Clouds 26 1005 79 10000 2.13 297 17:19 02.03.2021
1949 Clouds 26 1005 79 10000 2.13 297 16:45 02.03.2021
1950 Clouds 26 1005 79 10000 1.95 295 15:54 02.03.2021
1951 Clouds 26 1006 79 10000 2.09 298 15:27 02.03.2021
1952 Clouds 26 1006 79 10000 2.09 298 14:44 02.03.2021
1953 Clouds 27 1006 78 10000 2.12 300 14:18 02.03.2021
1954 Clouds 27 1006 78 10000 2.12 300 14:18 02.03.2021
1955 Clouds 27 1006 78 10000 2.12 300 13:44 02.03.2021
1956 Clouds 27 1007 78 10000 2.23 291 13:23 02.03.2021
1957 Clouds 27 1007 78 10000 2.23 291 12:45 02.03.2021
1958 Clouds 27 1007 77 10000 1.75 275 12:24 02.03.2021
1959 Clouds 27 1007 77 10000 1.75 275 11:44 02.03.2021
1960 Clouds 27 1007 76 10000 1.73 267 11:22 02.03.2021
1961 Rain 27 1007 76 10000 1.73 267 10:43 02.03.2021
1962 Rain 27 1007 77 10000 1.76 276 10:24 02.03.2021
1963 Clouds 27 1007 77 10000 1.76 276 09:41 02.03.2021
1964 Clouds 28 1006 76 10000 2.13 297 09:21 02.03.2021
1965 Clouds 28 1006 76 10000 2.13 297 08:40 02.03.2021
1966 Clouds 28 1004 74 10000 2.56 302 08:21 02.03.2021
1967 Rain 28 1004 74 10000 1.6 315 07:38 02.03.2021
1968 Rain 29 1004 71 10000 2.4 317 06:36 02.03.2021
1969 Rain 29 1004 70 10000 2.93 321 05:46 02.03.2021
1970 Rain 29 1004 70 10000 2.93 321 05:46 02.03.2021
1971 Rain 29 1004 70 10000 2.93 321 05:46 02.03.2021
1972 Rain 30 1004 69 10000 2.96 326 05:28 02.03.2021
1973 Clouds 31 1006 62 10000 2.95 324 01:45 02.03.2021
1974 Clouds 31 1006 62 10000 2.95 324 01:45 02.03.2021
1975 Rain 30 1006 62 10000 2.18 319 01:27 02.03.2021
1976 Rain 30 1006 61 10000 2.24 321 00:39 02.03.2021
1977 Clouds 28 1007 72 10000 1.64 322 23:28 01.03.2021
1978 Rain 28 1007 72 10000 1.64 322 22:42 01.03.2021
1979 Rain 27 1007 78 10000 1.14 319 22:21 01.03.2021
1980 Rain 27 1007 78 10000 1.14 319 21:46 01.03.2021
1981 Clouds 26 1006 80 10000 0.86 310 21:23 01.03.2021
1982 Clouds 26 1006 80 10000 0.86 310 20:48 01.03.2021
1983 Clouds 25 1006 80 10000 0.52 336 20:27 01.03.2021
1984 Clouds 25 1006 80 10000 0.52 336 19:54 01.03.2021
1985 Clouds 25 1005 79 10000 0.96 306 19:33 01.03.2021
1986 Clouds 25 1005 79 10000 1.4 323 18:46 01.03.2021
1987 Clouds 25 1004 80 10000 1.22 309 18:24 01.03.2021
1988 Clouds 25 1004 80 10000 1.22 309 17:53 01.03.2021
1989 Clouds 25 1004 80 10000 1.22 309 17:30 01.03.2021
1990 Clouds 25 1005 80 10000 1.17 291 16:59 01.03.2021
1991 Clouds 25 1005 80 10000 1.17 291 16:59 01.03.2021
1992 Clouds 25 1005 80 10000 1.17 291 16:40 01.03.2021
1993 Clouds 25 1006 78 10000 1.14 275 16:22 01.03.2021
1994 Clouds 25 1006 78 10000 1.14 275 15:39 01.03.2021
1995 Clouds 25 1007 78 10000 1.13 291 15:18 01.03.2021
1996 Clouds 25 1007 78 10000 1.13 291 14:43 01.03.2021
1997 Clouds 25 1008 78 10000 1.22 286 14:25 01.03.2021
1998 Clouds 25 1008 78 10000 1.22 286 13:39 01.03.2021
1999 Clouds 25 1008 77 10000 0.31 329 13:20 01.03.2021
2000 Clouds 25 1008 77 10000 0.31 329 12:44 01.03.2021
2001 Clouds 25 1008 78 10000 0.44 301 12:25 01.03.2021
2002 Clouds 25 1008 78 10000 0.44 301 11:57 01.03.2021
2003 Clouds 25 1008 78 10000 0.44 301 11:30 01.03.2021
2004 Clouds 25 1008 79 10000 0.65 251 10:42 01.03.2021
2005 Clouds 26 1008 79 10000 0.53 254 10:22 01.03.2021
2006 Clouds 26 1008 79 10000 0.53 254 09:53 01.03.2021
2007 Clouds 26 1008 79 10000 0.53 254 09:34 01.03.2021
2008 Rain 26 1007 79 10000 0.9 240 08:57 01.03.2021
2009 Clouds 26 1007 79 10000 0.9 240 08:33 01.03.2021
2010 Clouds 26 1005 81 10000 1.13 236 07:33 01.03.2021
2011 Clouds 25 1004 85 6264 2.42 230 06:25 01.03.2021
2012 Clouds 26 1006 86 5333 2.59 282 02:40 01.03.2021
2013 Clouds 26 1007 85 10000 2.42 279 23:49 28.02.2021
2014 Clouds 25 1008 86 8207 2.43 272 23:20 28.02.2021
2015 Rain 25 1008 86 8207 2.43 272 22:42 28.02.2021
2016 Clouds 25 1008 86 7569 2.84 279 22:20 28.02.2021
2017 Clouds 25 1008 86 7569 2.84 279 21:45 28.02.2021
2018 Rain 25 1007 85 5650 3.51 284 21:23 28.02.2021
2019 Rain 25 1007 85 5650 3.51 284 20:45 28.02.2021
2020 Clouds 25 1006 85 7715 3.44 285 20:26 28.02.2021
2021 Clouds 25 1006 85 7715 3.44 285 19:46 28.02.2021
2022 Clouds 25 1005 85 10000 3.48 287 19:27 28.02.2021
2023 Clouds 25 1005 85 10000 3.91 288 18:46 28.02.2021
2024 Clouds 25 1005 85 10000 3.88 289 18:26 28.02.2021
2025 Rain 25 1005 85 10000 3.88 289 17:56 28.02.2021
2026 Rain 25 1005 85 10000 3.88 289 17:37 28.02.2021
2027 Rain 25 1006 85 10000 3.82 290 17:18 28.02.2021
2028 Clouds 25 1006 85 10000 3.82 290 16:44 28.02.2021
2029 Rain 25 1006 84 10000 4.06 285 16:26 28.02.2021
2030 Rain 25 1006 84 10000 4.06 285 15:51 28.02.2021
2031 Rain 25 1007 82 10000 4.01 277 15:26 28.02.2021
2032 Rain 25 1007 82 10000 4.01 277 14:57 28.02.2021
2033 Clouds 25 1007 82 10000 4.01 277 14:30 28.02.2021
2034 Rain 25 1008 84 10000 4.65 277 13:53 28.02.2021
2035 Rain 26 1008 83 10000 4.8 278 13:22 28.02.2021
2036 Rain 26 1008 83 10000 4.8 278 12:59 28.02.2021
2037 Rain 26 1008 83 10000 4.8 278 12:59 28.02.2021
2038 Rain 26 1008 83 10000 4.8 278 12:59 28.02.2021
2039 Rain 26 1008 83 10000 4.8 278 12:41 28.02.2021
2040 Rain 26 1008 83 10000 4.8 278 12:40 28.02.2021
2041 Rain 26 1008 85 10000 4.57 276 12:22 28.02.2021
2042 Rain 26 1008 85 10000 4.57 276 11:53 28.02.2021
2043 Rain 26 1008 84 10000 4.26 270 11:26 28.02.2021
2044 Rain 26 1008 84 10000 4.26 270 10:57 28.02.2021
2045 Rain 26 1007 83 10000 4.11 268 10:29 28.02.2021
2046 Rain 26 1007 83 10000 4.11 268 09:56 28.02.2021
2047 Clouds 26 1007 83 10000 4.11 268 09:34 28.02.2021
2048 Rain 26 1007 82 10000 4.14 271 08:52 28.02.2021
2049 Rain 26 1007 82 10000 4.14 271 08:33 28.02.2021
2050 Rain 26 1005 85 10000 5.02 272 07:57 28.02.2021
2051 Clouds 26 1005 85 10000 5.02 272 07:39 28.02.2021
2052 Rain 26 1005 85 7249 4.86 273 07:18 28.02.2021
2053 Rain 26 1004 85 5736 4.82 271 06:21 28.02.2021
2054 Clouds 26 1005 85 5658 4.44 265 03:45 28.02.2021
2055 Clouds 26 1006 87 2884 3.49 273 02:19 28.02.2021
2056 Rain 26 1007 87 2373 3.58 296 00:58 28.02.2021
2057 Clouds 26 1007 87 2373 3.58 296 00:35 28.02.2021
2058 Clouds 27 1008 86 2888 3.01 292 23:48 27.02.2021
2059 Clouds 26 1008 86 5455 2.65 298 23:20 27.02.2021
2060 Clouds 26 1008 86 5455 2.65 298 22:49 27.02.2021
2061 Clouds 26 1007 86 2354 2.06 311 22:21 27.02.2021
2062 Clouds 26 1007 86 2354 2.06 311 21:48 27.02.2021
2063 Clouds 26 1005 86 3846 2.19 249 21:29 27.02.2021
2064 Clouds 26 1005 86 3846 2.19 249 20:49 27.02.2021
2065 Clouds 26 1005 86 3846 2.19 249 20:31 27.02.2021
2066 Clouds 26 1005 85 4705 2.29 214 19:47 27.02.2021
2067 Clouds 26 1004 85 5766 3.04 206 19:28 27.02.2021
2068 Clouds 26 1004 85 3555 4 236 18:55 27.02.2021
2069 Clouds 26 1004 85 3555 4 236 18:36 27.02.2021
2070 Clouds 26 1004 86 2645 4.55 234 18:18 27.02.2021
2071 Clouds 26 1004 86 2645 4.55 234 17:41 27.02.2021
2072 Clouds 26 1004 85 7398 4.4 239 17:19 27.02.2021
2073 Clouds 26 1004 85 7398 4.4 239 16:49 27.02.2021
2074 Clouds 26 1004 86 7189 4.33 241 16:28 27.02.2021
2075 Clouds 26 1004 86 7189 4.33 241 15:46 27.02.2021
2076 Clouds 26 1005 86 3414 4.01 244 15:19 27.02.2021
2077 Clouds 26 1005 86 3414 4.01 244 14:41 27.02.2021
2078 Clouds 26 1006 88 2069 3.75 250 14:21 27.02.2021
2079 Clouds 26 1005 86 3049 4.02 243 13:43 27.02.2021
2080 Clouds 26 1006 87 2890 4.12 245 13:19 27.02.2021
2081 Clouds 26 1006 87 2890 4.12 245 12:45 27.02.2021
2082 Clouds 26 1006 87 2890 4.12 245 12:45 27.02.2021
2083 Rain 26 1006 85 6918 4.46 241 12:24 27.02.2021
2084 Rain 26 1006 85 6918 4.46 241 11:47 27.02.2021
2085 Clouds 26 1006 84 7714 4.57 241 11:29 27.02.2021
2086 Clouds 26 1006 84 7714 4.57 241 10:50 27.02.2021
2087 Clouds 26 1006 84 7714 4.57 241 10:32 27.02.2021
2088 Rain 26 1005 84 8074 4.51 245 09:52 27.02.2021
2089 Clouds 26 1005 84 8074 4.51 245 09:31 27.02.2021
2090 Rain 26 1004 84 7473 4.56 250 08:43 27.02.2021
2091 Rain 27 1003 84 7974 4.72 255 08:22 27.02.2021
2092 Clouds 27 1003 84 7974 4.72 255 07:43 27.02.2021
2093 Clouds 26 1003 83 9263 4.41 252 06:33 27.02.2021
2094 Rain 28 1006 81 10000 4.39 279 01:22 27.02.2021
2095 Clouds 28 1007 79 7174 4.35 285 23:58 26.02.2021
2096 Clouds 28 1007 79 7174 4.35 285 23:40 26.02.2021
2097 Clouds 28 1007 79 7174 4.35 285 23:40 26.02.2021
2098 Clouds 28 1007 80 10000 4.23 276 23:18 26.02.2021
2099 Clouds 28 1007 80 10000 4.23 276 22:31 26.02.2021
2100 Clouds 27 1006 82 10000 3.98 266 21:49 26.02.2021
2101 Clouds 27 1006 82 10000 3.98 266 21:31 26.02.2021
2102 Clouds 26 1005 83 10000 3.93 258 20:45 26.02.2021
2103 Clouds 26 1005 84 10000 3.85 257 20:24 26.02.2021
2104 Clouds 26 1005 84 10000 3.85 257 19:52 26.02.2021
2105 Clouds 26 1004 84 10000 3.62 262 19:25 26.02.2021
2106 Clouds 26 1004 84 10000 3.62 262 18:48 26.02.2021
2107 Clouds 26 1004 84 7885 3.49 265 18:24 26.02.2021
2108 Clouds 26 1004 84 7885 3.49 265 17:48 26.02.2021
2109 Clouds 26 1004 84 8644 3.39 267 17:29 26.02.2021
2110 Clouds 26 1004 84 8644 3.39 267 16:56 26.02.2021
2111 Clouds 26 1004 84 8644 3.39 267 16:37 26.02.2021
2112 Clouds 26 1004 84 10000 3.46 269 16:19 26.02.2021
2113 Clouds 26 1004 84 10000 3.46 269 15:41 26.02.2021
2114 Clouds 26 1005 84 10000 3.37 271 15:22 26.02.2021
2115 Clouds 26 1005 84 10000 3.37 271 14:51 26.02.2021
2116 Clouds 26 1005 84 10000 3.37 271 14:30 26.02.2021
2117 Clouds 26 1006 84 10000 3.65 269 13:46 26.02.2021
2118 Clouds 26 1006 84 10000 3.79 270 13:28 26.02.2021
2119 Clouds 26 1006 84 10000 3.79 270 12:43 26.02.2021
2120 Clouds 26 1006 84 10000 3.74 271 12:25 26.02.2021
2121 Rain 26 1006 84 10000 3.74 271 11:38 26.02.2021
2122 Rain 26 1006 84 10000 3.9 269 10:54 26.02.2021
2123 Clouds 26 1005 83 10000 3.88 269 10:20 26.02.2021
2124 Rain 26 1005 83 10000 3.88 269 09:46 26.02.2021
2125 Rain 27 1005 82 10000 3.98 273 09:26 26.02.2021
2126 Rain 27 1003 82 10000 4.22 276 08:29 26.02.2021
2127 Rain 27 1003 82 10000 4.22 276 07:54 26.02.2021
2128 Clouds 27 1003 82 10000 2.85 275 06:48 26.02.2021
2129 Rain 28 1002 80 10000 2.9 278 05:39 26.02.2021
2130 Clouds 27 1003 81 10000 3.44 269 03:51 26.02.2021
2131 Rain 27 1004 82 10000 3.17 270 02:36 26.02.2021
2132 Rain 28 1006 80 7399 3.59 281 00:23 26.02.2021
2133 Clouds 28 1006 80 8686 3.27 283 23:29 25.02.2021
2134 Rain 28 1006 80 8686 3.27 283 22:50 25.02.2021
2135 Clouds 28 1006 80 8686 3.27 283 22:31 25.02.2021
2136 Clouds 27 1005 81 10000 3 275 21:45 25.02.2021
2137 Clouds 26 1004 83 10000 3.04 270 21:26 25.02.2021
2138 Clouds 26 1004 83 10000 3.04 270 20:41 25.02.2021
2139 Clouds 26 1004 84 10000 3.27 270 20:23 25.02.2021
2140 Clouds 26 1004 84 10000 3.27 270 20:23 25.02.2021
2141 Clouds 26 1004 84 10000 3.27 270 19:52 25.02.2021
2142 Rain 26 1003 83 10000 3.48 268 19:22 25.02.2021
2143 Rain 26 1003 83 10000 3.48 268 18:58 25.02.2021
2144 Rain 26 1003 83 10000 3.45 263 18:27 25.02.2021
2145 Rain 26 1003 83 10000 3.45 263 17:49 25.02.2021
2146 Rain 26 1003 83 10000 3.21 268 17:26 25.02.2021
2147 Clouds 26 1003 83 10000 3.21 268 16:46 25.02.2021
2148 Rain 26 1003 84 10000 3.26 276 16:25 25.02.2021
2149 Clouds 26 1003 84 10000 3.26 276 15:30 25.02.2021
2150 Rain 26 1004 84 10000 3.31 278 14:57 25.02.2021
2151 Rain 26 1005 84 10000 3.13 280 14:24 25.02.2021
2152 Rain 26 1005 84 10000 3.13 280 13:53 25.02.2021
2153 Rain 26 1006 84 10000 2.99 283 13:26 25.02.2021
2154 Rain 26 1006 84 10000 3.23 278 12:53 25.02.2021
2155 Clouds 26 1006 84 10000 2.95 277 12:21 25.02.2021
2156 Clouds 26 1006 84 10000 2.95 277 11:45 25.02.2021
2157 Clouds 26 1005 84 10000 2.82 288 11:19 25.02.2021
2158 Clouds 26 1005 84 10000 2.82 288 10:44 25.02.2021
2159 Clouds 26 1005 84 10000 2.83 304 09:59 25.02.2021
2160 Clouds 26 1005 84 10000 2.83 304 09:40 25.02.2021
2161 Clouds 26 1004 86 10000 3.22 316 08:55 25.02.2021
2162 Clouds 27 1003 85 10000 3.61 332 08:25 25.02.2021
2163 Clouds 27 1003 85 10000 3.61 332 07:53 25.02.2021
2164 Clouds 27 1002 84 10000 3.02 342 07:29 25.02.2021
2165 Rain 29 1002 76 10000 3.21 295 06:47 25.02.2021
2166 Rain 30 1005 70 10000 3.65 295 01:57 25.02.2021
2167 Clouds 30 1005 70 10000 3.86 301 01:34 25.02.2021
2168 Rain 30 1005 69 10000 3.56 294 00:39 25.02.2021
2169 Rain 30 1006 70 10000 3.35 283 23:47 24.02.2021
2170 Clouds 29 1006 74 10000 2.95 274 23:22 24.02.2021
2171 Rain 29 1006 74 10000 2.95 274 22:44 24.02.2021
2172 Clouds 28 1005 77 10000 2.41 259 22:24 24.02.2021
2173 Rain 28 1005 77 10000 2.41 259 21:44 24.02.2021
2174 Rain 27 1004 79 10000 2.21 244 20:53 24.02.2021
2175 Clouds 26 1004 79 10000 2.22 246 20:29 24.02.2021
2176 Clouds 26 1004 79 10000 2.22 246 19:54 24.02.2021
2177 Rain 26 1003 79 10000 2.05 234 19:26 24.02.2021
2178 Clouds 26 1003 79 10000 2.05 234 18:55 24.02.2021
2179 Clouds 26 1003 79 10000 2.05 234 18:33 24.02.2021
2180 Clouds 26 1003 78 10000 1.97 240 17:45 24.02.2021
2181 Clouds 26 1002 79 10000 1.79 234 17:25 24.02.2021
2182 Clouds 26 1002 79 10000 1.79 234 16:49 24.02.2021
2183 Clouds 26 1003 80 10000 1.89 232 16:22 24.02.2021
2184 Clouds 26 1003 80 10000 1.89 232 15:56 24.02.2021
2185 Rain 26 1003 80 10000 1.89 232 15:35 24.02.2021
2186 Rain 27 1004 82 10000 2.11 242 14:52 24.02.2021
2187 Clouds 27 1004 82 10000 2.11 242 14:31 24.02.2021
2188 Rain 27 1004 81 10000 2 260 13:55 24.02.2021
2189 Rain 27 1004 81 10000 2 260 13:37 24.02.2021
2190 Rain 27 1005 81 10000 2.13 264 13:19 24.02.2021
2191 Rain 27 1005 80 10000 2.34 250 12:42 24.02.2021
2192 Clouds 27 1005 80 10000 2.1 263 12:23 24.02.2021
2193 Clouds 27 1005 80 10000 2.1 263 12:23 24.02.2021
2194 Rain 27 1005 80 10000 2.1 263 11:36 24.02.2021
2195 Rain 27 1005 80 10000 1.84 271 10:47 24.02.2021
2196 Clouds 28 1004 80 10000 1.96 277 10:26 24.02.2021
2197 Clouds 28 1004 80 10000 1.96 277 09:30 24.02.2021
2198 Clouds 28 1003 80 10000 2.13 289 08:51 24.02.2021
2199 Clouds 28 1003 80 10000 2.13 289 08:32 24.02.2021
2200 Rain 29 1002 76 10000 2.31 303 07:42 24.02.2021
2201 Clouds 29 1003 77 10000 2.39 306 07:18 24.02.2021
2202 Clouds 29 1002 76 10000 2.78 307 05:27 24.02.2021
2203 Clouds 30 1004 70 10000 2.89 316 02:22 24.02.2021
2204 Clouds 29 1006 73 10000 2.4 321 23:39 23.02.2021
2205 Clouds 28 1006 77 10000 1.69 306 22:50 23.02.2021
2206 Clouds 27 1005 80 10000 0.69 267 22:23 23.02.2021
2207 Clouds 27 1005 80 10000 0.69 267 21:48 23.02.2021
2208 Clouds 26 1004 80 10000 0.66 236 21:25 23.02.2021
2209 Clouds 26 1004 80 10000 0.66 236 20:57 23.02.2021
2210 Clouds 26 1004 80 10000 0.66 236 20:37 23.02.2021
2211 Clouds 26 1004 80 10000 0.67 250 20:19 23.02.2021
2212 Clouds 26 1004 80 10000 0.67 250 19:42 23.02.2021
2213 Clouds 26 1003 79 10000 0.99 272 19:24 23.02.2021
2214 Clouds 27 1004 79 10000 1.31 277 18:44 23.02.2021
2215 Clouds 27 1003 79 10000 1.45 278 18:24 23.02.2021
2216 Rain 27 1003 79 10000 1.45 278 17:51 23.02.2021
2217 Rain 26 1004 79 10000 1.69 273 17:27 23.02.2021
2218 Clouds 26 1004 79 10000 1.69 273 16:45 23.02.2021
2219 Rain 26 1004 79 10000 1.95 258 16:21 23.02.2021
2220 Rain 26 1004 79 10000 1.95 258 15:45 23.02.2021
2221 Clouds 26 1005 80 10000 2.26 250 15:27 23.02.2021
2222 Clouds 26 1005 80 10000 2.26 250 14:46 23.02.2021
2223 Clouds 26 1006 81 10000 2.61 253 14:28 23.02.2021
2224 Clouds 26 1006 81 10000 2.61 253 13:59 23.02.2021
2225 Clouds 26 1006 81 10000 2.61 253 13:34 23.02.2021
2226 Clouds 27 1006 81 10000 2.8 242 12:57 23.02.2021
2227 Clouds 27 1006 81 10000 3 243 12:23 23.02.2021
2228 Clouds 27 1006 81 10000 3 243 11:52 23.02.2021
2229 Rain 27 1006 80 10000 3.18 245 11:25 23.02.2021
2230 Clouds 27 1006 80 10000 3.18 245 10:53 23.02.2021
2231 Clouds 27 1006 80 10000 3.18 245 10:35 23.02.2021
2232 Rain 27 1005 80 10000 2.5 256 09:45 23.02.2021
2233 Clouds 28 1004 80 10000 2.16 265 09:26 23.02.2021
2234 Rain 28 1004 80 10000 2.16 265 08:57 23.02.2021
2235 Clouds 28 1004 80 10000 2.16 265 08:39 23.02.2021
2236 Rain 28 1004 80 6411 2.2 272 08:20 23.02.2021
2237 Clouds 29 1003 80 8743 2.64 271 06:41 23.02.2021
2238 Clouds 29 1003 77 10000 2.62 283 05:22 23.02.2021
2239 Clouds 30 1005 75 10000 3.06 303 02:36 23.02.2021
2240 Clouds 31 1007 63 10000 2.64 313 00:54 23.02.2021
2241 Clouds 30 1007 64 10000 1.91 292 00:18 23.02.2021
2242 Clouds 29 1007 68 10000 1.22 270 23:21 22.02.2021
2243 Clouds 29 1007 68 10000 1.22 270 22:41 22.02.2021
2244 Clouds 28 1006 74 10000 0.8 228 22:20 22.02.2021
2245 Clouds 28 1006 74 10000 0.8 228 21:45 22.02.2021
2246 Clouds 26 1006 76 10000 0.93 218 21:23 22.02.2021
2247 Clouds 26 1006 76 10000 0.93 218 20:52 22.02.2021
2248 Clouds 26 1005 76 10000 1.23 228 20:29 22.02.2021
2249 Clouds 26 1005 76 10000 1.23 228 19:53 22.02.2021
2250 Clouds 26 1005 77 10000 1.01 215 19:35 22.02.2021
2251 Clouds 26 1005 77 10000 1.13 197 18:56 22.02.2021
2252 Clouds 26 1005 77 10000 1.13 197 18:37 22.02.2021
2253 Clouds 26 1005 77 10000 1.16 191 18:19 22.02.2021
2254 Clouds 26 1005 77 10000 1.3 178 17:25 22.02.2021
2255 Clouds 26 1005 77 10000 1.3 178 16:54 22.02.2021
2256 Clouds 26 1005 77 10000 1.3 178 16:32 22.02.2021
2257 Clouds 26 1006 78 10000 1.42 172 15:46 22.02.2021
2258 Clouds 26 1006 78 10000 1.45 172 15:27 22.02.2021
2259 Clouds 26 1006 78 10000 1.45 172 14:47 22.02.2021
2260 Clouds 27 1007 78 10000 1.47 171 14:28 22.02.2021
2261 Clouds 27 1007 78 10000 1.47 171 13:46 22.02.2021
2262 Clouds 27 1007 78 10000 1.47 171 13:46 22.02.2021
2263 Clouds 27 1008 78 10000 1.61 156 12:56 22.02.2021
2264 Clouds 27 1008 79 10000 1.7 150 12:24 22.02.2021
2265 Clouds 27 1008 79 10000 1.7 150 11:57 22.02.2021
2266 Clouds 27 1008 79 10000 1.7 150 11:38 22.02.2021
2267 Clouds 27 1007 78 10000 1.51 141 11:20 22.02.2021
2268 Clouds 27 1007 78 10000 1.51 141 10:45 22.02.2021
2269 Clouds 27 1007 78 10000 1.27 120 10:21 22.02.2021
2270 Clouds 27 1007 78 10000 1.27 120 09:40 22.02.2021
2271 Clouds 28 1006 77 10000 1.01 97 09:22 22.02.2021
2272 Clouds 28 1006 77 10000 1.01 97 08:49 22.02.2021
2273 Clouds 29 1005 77 9303 0.46 92 08:23 22.02.2021
2274 Clouds 29 1005 77 9303 0.46 92 07:50 22.02.2021
2275 Clouds 29 1005 75 8590 0.11 101 07:23 22.02.2021
2276 Clouds 29 1005 75 10000 0.63 189 06:28 22.02.2021
2277 Clouds 30 1005 75 10000 0.61 230 05:21 22.02.2021
2278 Clouds 30 1006 73 10000 1 337 03:23 22.02.2021
2279 Clouds 30 1007 72 10000 1.59 12 01:59 22.02.2021
2280 Clouds 31 1008 64 10000 0.81 36 00:44 22.02.2021
2281 Clouds 30 1008 65 10000 0.67 83 00:18 22.02.2021
2282 Clouds 29 1008 71 10000 0.93 121 23:26 21.02.2021
2283 Clouds 29 1008 71 10000 0.93 121 22:36 21.02.2021
2284 Clouds 28 1008 77 10000 1.41 161 21:53 21.02.2021
2285 Clouds 28 1008 77 10000 1.41 161 21:34 21.02.2021
2286 Clouds 28 1008 77 10000 1.41 161 21:34 21.02.2021
2287 Clouds 26 1007 80 10000 1.8 181 20:58 21.02.2021
2288 Clouds 26 1007 80 10000 1.8 181 20:38 21.02.2021
2289 Clouds 26 1007 81 10000 1.54 181 20:18 21.02.2021
2290 Clouds 26 1007 80 10000 1.56 186 19:44 21.02.2021
2291 Clouds 26 1006 81 10000 1.54 192 19:24 21.02.2021
2292 Clouds 26 1006 81 10000 1.54 192 18:30 21.02.2021
2293 Clouds 26 1006 82 10000 1.77 212 17:59 21.02.2021
2294 Clouds 26 1006 82 10000 1.88 225 17:28 21.02.2021
2295 Clouds 26 1006 82 10000 1.88 225 16:53 21.02.2021
2296 Clouds 26 1006 82 10000 1.88 225 16:32 21.02.2021
2297 Clouds 26 1007 82 10000 2.05 231 15:47 21.02.2021
2298 Clouds 26 1008 82 10000 1.93 242 15:20 21.02.2021
2299 Clouds 26 1008 82 10000 1.93 242 14:42 21.02.2021
2300 Clouds 27 1009 82 10000 2.01 251 14:21 21.02.2021
2301 Clouds 27 1009 82 10000 2.04 236 13:45 21.02.2021
2302 Clouds 27 1009 82 10000 2.07 241 13:22 21.02.2021
2303 Clouds 27 1009 82 10000 2.13 252 12:29 21.02.2021
2304 Clouds 27 1009 82 10000 2.13 252 11:44 21.02.2021
2305 Clouds 27 1009 82 10000 2.22 260 10:59 21.02.2021
2306 Clouds 27 1008 83 10000 2.48 266 10:23 21.02.2021
2307 Clouds 27 1008 83 10000 2.48 266 09:55 21.02.2021
2308 Clouds 27 1008 83 10000 2.48 266 09:55 21.02.2021
2309 Rain 27 1008 82 10000 2.56 276 09:29 21.02.2021
2310 Clouds 27 1008 82 10000 2.56 276 08:54 21.02.2021
2311 Clouds 28 1007 79 10000 1.97 283 08:20 21.02.2021
2312 Clouds 28 1007 79 10000 1.97 283 07:35 21.02.2021
2313 Rain 29 1006 78 10000 1.79 309 06:53 21.02.2021
2314 Rain 29 1007 76 7355 1.85 308 03:36 21.02.2021
2315 Clouds 30 1009 73 10000 1.93 353 02:29 21.02.2021
2316 Clouds 29 1010 74 10000 1.77 11 00:43 21.02.2021
2317 Clouds 29 1010 71 10000 0.7 54 00:19 21.02.2021
2318 Clouds 29 1010 70 10000 0.92 150 23:20 20.02.2021
2319 Clouds 29 1010 70 10000 0.92 150 22:41 20.02.2021
2320 Clouds 27 1010 77 10000 1.41 173 22:23 20.02.2021
2321 Clouds 27 1010 77 10000 1.41 173 21:44 20.02.2021
2322 Clouds 27 1009 78 10000 1.18 198 21:24 20.02.2021
2323 Clouds 27 1009 78 10000 1.18 198 20:42 20.02.2021
2324 Clouds 27 1008 78 10000 1.16 186 20:21 20.02.2021
2325 Clouds 27 1008 78 10000 1.16 186 19:52 20.02.2021
2326 Clouds 27 1007 78 10000 1.48 183 19:27 20.02.2021
2327 Clouds 27 1007 78 10000 1.48 183 18:39 20.02.2021
2328 Clouds 26 1007 79 10000 1.52 179 18:20 20.02.2021
2329 Clouds 26 1007 79 10000 1.52 179 17:38 20.02.2021
2330 Clouds 26 1007 79 10000 1.65 181 16:55 20.02.2021
2331 Clouds 26 1007 79 10000 1.65 181 16:32 20.02.2021
2332 Clouds 26 1008 79 10000 1.51 193 15:46 20.02.2021
2333 Rain 27 1009 78 10000 1.37 199 15:21 20.02.2021
2334 Clouds 27 1009 78 10000 1.37 199 14:44 20.02.2021
2335 Rain 27 1009 78 10000 1 205 14:23 20.02.2021
2336 Rain 27 1009 78 10000 1 205 13:41 20.02.2021
2337 Rain 27 1009 79 10000 1.36 191 13:22 20.02.2021
2338 Rain 27 1009 79 10000 1.36 191 12:47 20.02.2021
2339 Rain 27 1009 79 10000 1.31 196 11:56 20.02.2021
2340 Rain 27 1009 79 10000 1.31 196 11:38 20.02.2021
2341 Clouds 27 1009 80 10000 1.17 213 10:55 20.02.2021
2342 Rain 27 1009 80 10000 1.17 213 10:32 20.02.2021
2343 Rain 27 1009 79 10000 1.05 223 09:48 20.02.2021
2344 Rain 28 1008 79 10000 1.25 256 09:18 20.02.2021
2345 Rain 28 1008 79 10000 1.25 256 08:31 20.02.2021
2346 Clouds 29 1008 79 10000 1.46 288 07:50 20.02.2021
2347 Clouds 30 1009 72 10000 2.12 291 02:37 20.02.2021
2348 Clouds 30 1009 68 10000 2.54 310 02:19 20.02.2021
2349 Clouds 31 1010 62 10000 2.06 318 01:20 20.02.2021
2350 Clouds 31 1010 63 10000 1.7 326 00:42 20.02.2021
2351 Clouds 31 1010 63 10000 1.11 337 23:42 19.02.2021
2352 Clouds 29 1011 68 10000 0.7 360 22:48 19.02.2021
2353 Clouds 28 1010 75 10000 0.24 128 22:26 19.02.2021
2354 Rain 28 1010 75 10000 0.24 128 21:47 19.02.2021
2355 Clouds 26 1009 79 10000 1.01 161 21:26 19.02.2021
2356 Clouds 26 1009 79 10000 1.01 161 20:45 19.02.2021
2357 Clouds 26 1009 79 10000 1.01 161 20:45 19.02.2021
2358 Clouds 26 1009 78 10000 0.89 172 20:27 19.02.2021
2359 Clouds 26 1009 78 10000 0.89 172 19:50 19.02.2021
2360 Clouds 26 1008 79 10000 0.77 173 19:20 19.02.2021
2361 Clouds 26 1008 79 10000 0.59 152 18:53 19.02.2021
2362 Clouds 26 1008 79 10000 0.59 152 18:30 19.02.2021
2363 Clouds 26 1007 79 10000 0.58 143 17:45 19.02.2021
2364 Clouds 26 1007 79 10000 0.42 125 16:46 19.02.2021
2365 Clouds 26 1008 79 10000 0.22 100 16:23 19.02.2021
2366 Clouds 26 1008 79 10000 0.22 100 15:56 19.02.2021
2367 Clouds 26 1008 86 10000 0.22 100 15:30 19.02.2021
2368 Clouds 27 1009 85 10000 0.3 26 14:55 19.02.2021
2369 Clouds 27 1009 85 10000 0.3 26 14:34 19.02.2021
2370 Clouds 26 1009 86 10000 0.66 32 13:56 19.02.2021
2371 Clouds 27 1009 85 10000 0.69 32 13:56 19.02.2021
2372 Clouds 27 1009 86 10000 0.58 58 13:36 19.02.2021
2373 Clouds 27 1010 85 10000 0.58 55 12:55 19.02.2021
2374 Clouds 27 1010 85 10000 0.58 55 12:36 19.02.2021
2375 Clouds 27 1009 85 10000 0.8 45 12:18 19.02.2021
2376 Clouds 27 1009 85 10000 0.8 45 11:35 19.02.2021
2377 Rain 27 1009 85 10000 0.88 36 10:55 19.02.2021
2378 Clouds 27 1009 85 10000 0.88 36 10:34 19.02.2021
2379 Clouds 27 1009 85 10000 0.93 19 09:58 19.02.2021
2380 Clouds 28 1009 85 10000 1.02 356 09:28 19.02.2021
2381 Clouds 28 1009 85 10000 1.02 356 08:55 19.02.2021
2382 Rain 28 1008 84 10000 1.17 345 08:28 19.02.2021
2383 Rain 28 1008 84 10000 1.17 345 07:56 19.02.2021
2384 Rain 28 1008 84 10000 1.17 345 07:36 19.02.2021
2385 Rain 27 1007 91 10000 1.72 344 06:59 19.02.2021
2386 Rain 27 1007 91 10000 1.72 344 06:31 19.02.2021
2387 Rain 29 1007 80 5255 2.04 2 04:42 19.02.2021
2388 Clouds 30 1009 72 10000 2.14 9 02:31 19.02.2021
2389 Clouds 30 1010 72 10000 1.29 37 00:59 19.02.2021
2390 Rain 29 1010 75 10000 1.22 73 00:26 19.02.2021
2391 Clouds 29 1010 75 10000 1.22 73 23:43 18.02.2021
2392 Clouds 29 1010 75 10000 1.11 113 23:25 18.02.2021
2393 Clouds 29 1010 75 10000 1.11 113 22:36 18.02.2021
2394 Clouds 28 1010 80 10000 1.18 145 22:18 18.02.2021
2395 Clouds 26 1009 83 10000 1.35 149 21:28 18.02.2021
2396 Rain 26 1009 83 10000 1.35 149 20:58 18.02.2021
2397 Rain 26 1009 83 10000 1.35 149 20:38 18.02.2021
2398 Clouds 26 1008 83 10000 1.38 152 20:19 18.02.2021
2399 Clouds 26 1008 83 10000 1.38 152 19:43 18.02.2021
2400 Clouds 26 1008 85 10000 1.41 156 19:19 18.02.2021
2401 Clouds 26 1008 85 10000 1.41 156 18:47 18.02.2021
2402 Clouds 26 1007 85 10000 1.65 169 18:26 18.02.2021
2403 Clouds 26 1007 85 10000 1.65 169 17:45 18.02.2021
2404 Clouds 26 1007 85 10000 1.46 178 17:23 18.02.2021
2405 Clouds 26 1007 85 10000 1.46 178 16:44 18.02.2021
2406 Clouds 26 1008 85 10000 1.29 164 16:26 18.02.2021
2407 Clouds 26 1008 85 10000 1.29 164 15:42 18.02.2021
2408 Clouds 26 1009 85 10000 1.33 159 15:22 18.02.2021
2409 Clouds 26 1009 85 10000 1.33 159 14:50 18.02.2021
2410 Clouds 26 1009 85 10000 1.33 159 14:30 18.02.2021
2411 Clouds 27 1009 85 10000 1.05 150 13:49 18.02.2021
2412 Clouds 27 1009 86 10000 1.48 102 13:20 18.02.2021
2413 Rain 27 1009 86 10000 1.45 103 12:53 18.02.2021
2414 Clouds 27 1009 86 10000 1.28 116 12:25 18.02.2021
2415 Rain 27 1009 86 10000 1.28 116 11:47 18.02.2021
2416 Rain 27 1009 86 10000 1.28 116 11:47 18.02.2021
2417 Rain 27 1009 86 10000 1.18 110 11:27 18.02.2021
2418 Rain 27 1009 86 10000 1.18 110 10:52 18.02.2021
2419 Clouds 27 1009 86 10000 1.18 110 10:34 18.02.2021
2420 Clouds 27 1009 79 10000 0.62 97 09:51 18.02.2021
2421 Clouds 28 1008 85 10000 0.66 44 09:26 18.02.2021
2422 Clouds 28 1008 78 10000 0.66 44 08:48 18.02.2021
2423 Clouds 29 1007 77 10000 0.99 0 08:29 18.02.2021
2424 Clouds 29 1007 77 10000 0.99 0 07:35 18.02.2021
2425 Clouds 29 1007 74 10000 0.5 209 06:58 18.02.2021
2426 Rain 29 1007 73 10000 1.31 273 03:52 18.02.2021
2427 Rain 29 1007 73 10000 1.31 273 03:52 18.02.2021
2428 Rain 30 1010 65 10000 0.45 336 23:56 17.02.2021
2429 Rain 30 1010 65 10000 0.45 336 23:30 17.02.2021
2430 Clouds 29 1010 71 10000 0.28 179 22:54 17.02.2021
2431 Rain 28 1009 76 10000 0.95 173 22:27 17.02.2021
2432 Rain 28 1009 76 10000 0.95 173 21:57 17.02.2021
2433 Rain 26 1009 79 10000 1.31 159 21:22 17.02.2021
2434 Rain 26 1009 79 10000 1.31 159 20:52 17.02.2021
2435 Rain 26 1009 79 10000 1.31 159 20:32 17.02.2021
2436 Rain 26 1008 79 10000 1.22 158 19:51 17.02.2021
2437 Rain 26 1008 79 10000 1.22 158 19:32 17.02.2021
2438 Clouds 26 1007 79 10000 1.08 156 18:49 17.02.2021
2439 Rain 26 1007 79 10000 1.08 156 18:30 17.02.2021
2440 Rain 26 1007 79 10000 1.03 160 17:42 17.02.2021
2441 Clouds 26 1007 79 10000 1.06 160 17:20 17.02.2021
2442 Clouds 26 1007 79 10000 1.06 160 16:47 17.02.2021
2443 Clouds 26 1007 79 10000 1.11 172 16:28 17.02.2021
2444 Clouds 26 1007 79 10000 1.11 172 15:45 17.02.2021
2445 Clouds 26 1008 79 10000 1.18 175 15:27 17.02.2021
2446 Clouds 26 1008 79 10000 1.18 175 14:50 17.02.2021
2447 Clouds 27 1009 78 10000 1.09 177 14:29 17.02.2021
2448 Rain 27 1009 78 10000 1.09 177 13:50 17.02.2021
2449 Rain 27 1009 78 10000 1.09 177 13:32 17.02.2021
2450 Rain 27 1009 79 10000 1.21 171 12:50 17.02.2021
2451 Clouds 27 1009 78 10000 0.86 150 12:25 17.02.2021
2452 Rain 27 1009 78 10000 0.86 150 11:46 17.02.2021
2453 Rain 27 1008 78 10000 0.78 123 11:28 17.02.2021
2454 Clouds 27 1008 78 10000 0.78 123 10:49 17.02.2021
2455 Rain 27 1008 78 10000 0.78 123 10:31 17.02.2021
2456 Rain 27 1008 76 10000 0.57 97 09:56 17.02.2021
2457 Rain 27 1008 76 10000 0.57 97 09:36 17.02.2021
2458 Rain 28 1007 75 10000 0.29 27 08:45 17.02.2021
2459 Rain 29 1007 75 10000 0.66 349 08:23 17.02.2021
2460 Rain 29 1006 76 10000 0.52 321 07:37 17.02.2021
2461 Rain 29 1006 75 10000 1.17 330 06:37 17.02.2021
2462 Clouds 30 1006 69 10000 1.91 3 03:47 17.02.2021
2463 Clouds 31 1007 68 10000 1.78 12 02:30 17.02.2021
2464 Clouds 31 1008 65 10000 1.42 10 01:33 17.02.2021
2465 Clouds 30 1009 68 10000 1.07 64 00:25 17.02.2021
2466 Clouds 30 1009 68 10000 1.07 64 23:38 16.02.2021
2467 Clouds 29 1009 73 10000 1.19 94 22:46 16.02.2021
2468 Clouds 28 1008 79 10000 1.17 114 22:26 16.02.2021
2469 Clouds 28 1008 79 10000 1.17 114 21:58 16.02.2021
2470 Clouds 28 1008 79 10000 1.17 114 21:39 16.02.2021
2471 Clouds 26 1008 82 10000 1.32 131 21:21 16.02.2021
2472 Clouds 26 1008 82 10000 1.32 131 20:46 16.02.2021
2473 Clouds 26 1007 82 10000 1.27 143 20:24 16.02.2021
2474 Clouds 26 1007 82 10000 1.27 143 19:47 16.02.2021
2475 Clouds 26 1007 82 10000 1.22 150 19:28 16.02.2021
2476 Clouds 26 1007 82 10000 1.22 150 19:28 16.02.2021
2477 Clouds 26 1007 82 10000 1.18 149 18:47 16.02.2021
2478 Clouds 26 1006 82 10000 1.07 147 18:23 16.02.2021
2479 Clouds 26 1006 82 10000 1.07 147 17:53 16.02.2021
2480 Clouds 26 1006 81 10000 0.92 145 17:27 16.02.2021
2481 Clouds 26 1006 81 10000 0.92 145 16:52 16.02.2021
2482 Clouds 26 1006 81 10000 0.92 145 16:30 16.02.2021
2483 Clouds 26 1006 81 10000 0.92 145 16:30 16.02.2021
2484 Clouds 26 1007 81 10000 0.86 155 15:56 16.02.2021
2485 Rain 26 1007 81 10000 0.86 155 15:33 16.02.2021
2486 Rain 26 1007 81 10000 0.86 155 15:33 16.02.2021
2487 Rain 26 1008 81 10000 0.95 166 14:58 16.02.2021
2488 Rain 26 1008 81 10000 0.95 166 14:38 16.02.2021
2489 Rain 27 1009 80 10000 0.91 182 14:19 16.02.2021
2490 Clouds 27 1009 80 10000 0.91 182 13:40 16.02.2021
2491 Rain 27 1009 80 10000 0.96 185 12:53 16.02.2021
2492 Clouds 27 1009 80 10000 0.96 185 12:30 16.02.2021
2493 Rain 27 1009 79 10000 0.49 195 11:58 16.02.2021
2494 Clouds 27 1009 79 10000 0.49 195 11:39 16.02.2021
2495 Clouds 27 1009 79 10000 0.29 218 11:19 16.02.2021
2496 Clouds 27 1009 79 10000 0.29 218 10:45 16.02.2021
2497 Clouds 27 1008 80 10000 0.63 302 10:27 16.02.2021
2498 Clouds 27 1008 80 10000 0.63 302 09:52 16.02.2021
2499 Clouds 27 1008 79 10000 1.43 310 09:26 16.02.2021
2500 Clouds 27 1008 79 10000 1.43 310 08:51 16.02.2021
2501 Clouds 29 1007 76 10000 1.77 317 08:28 16.02.2021
2502 Clouds 29 1007 76 10000 1.77 317 07:44 16.02.2021
2503 Clouds 29 1006 73 10000 1.97 314 06:49 16.02.2021
2504 Clouds 30 1008 70 10000 2.74 317 02:38 16.02.2021
2505 Clouds 30 1009 64 10000 1.39 317 23:52 15.02.2021
2506 Clouds 29 1009 68 10000 0.86 295 23:27 15.02.2021
2507 Clouds 29 1009 68 10000 0.86 295 22:47 15.02.2021
2508 Clouds 28 1009 74 10000 0.66 249 22:26 15.02.2021
2509 Clouds 28 1009 74 10000 0.66 249 21:43 15.02.2021
2510 Rain 26 1008 79 10000 1.02 221 21:24 15.02.2021
2511 Rain 26 1008 79 10000 1.02 221 21:24 15.02.2021
2512 Rain 26 1008 79 10000 1.02 221 20:53 15.02.2021
2513 Rain 26 1008 79 10000 1.02 221 20:34 15.02.2021
2514 Clouds 26 1008 81 10000 1.27 204 19:50 15.02.2021
2515 Clouds 26 1007 80 10000 1.21 191 19:24 15.02.2021
2516 Rain 26 1006 80 10000 1.01 220 18:49 15.02.2021
2517 Rain 26 1006 80 10000 1.01 229 18:26 15.02.2021
2518 Clouds 26 1006 80 10000 1.01 229 17:45 15.02.2021
2519 Rain 26 1006 81 10000 1.09 227 17:27 15.02.2021
2520 Clouds 26 1006 81 10000 1.09 227 16:57 15.02.2021
2521 Clouds 26 1007 80 10000 1.15 227 16:29 15.02.2021
2522 Rain 26 1007 80 10000 1.15 227 15:58 15.02.2021
2523 Clouds 26 1007 80 10000 1.15 227 15:40 15.02.2021
2524 Clouds 26 1008 80 10000 1.02 236 15:18 15.02.2021
2525 Clouds 26 1008 80 10000 1.02 236 14:40 15.02.2021
2526 Clouds 26 1008 80 10000 1.09 242 14:20 15.02.2021
2527 Clouds 26 1008 80 10000 1.09 242 13:48 15.02.2021
2528 Clouds 27 1009 80 10000 1.09 266 13:20 15.02.2021
2529 Clouds 27 1009 80 10000 1.09 266 13:20 15.02.2021
2530 Clouds 27 1009 80 10000 1.09 266 12:45 15.02.2021
2531 Clouds 27 1009 80 10000 1.08 260 12:21 15.02.2021
2532 Rain 27 1009 80 10000 1.08 260 11:45 15.02.2021
2533 Rain 27 1008 80 10000 1.46 271 11:22 15.02.2021
2534 Rain 27 1008 80 10000 1.46 271 11:22 15.02.2021
2535 Clouds 27 1008 80 10000 1.46 271 10:49 15.02.2021
2536 Clouds 27 1008 80 10000 1.45 282 10:25 15.02.2021
2537 Clouds 27 1008 80 10000 1.45 282 09:55 15.02.2021
2538 Rain 27 1008 80 10000 1.45 282 09:33 15.02.2021
2539 Clouds 27 1007 80 10000 1.95 304 08:50 15.02.2021
2540 Clouds 29 1006 75 10000 2.63 315 07:40 15.02.2021
2541 Clouds 30 1006 70 10000 3.28 313 06:59 15.02.2021
2542 Clouds 30 1006 70 10000 3.28 313 06:39 15.02.2021
2543 Clouds 30 1007 66 10000 3.82 317 02:30 15.02.2021
2544 Clouds 31 1009 60 10000 1.74 318 00:45 15.02.2021
2545 Clouds 30 1009 62 10000 0.93 302 23:34 14.02.2021
2546 Clouds 29 1010 65 10000 0.29 270 22:55 14.02.2021
2547 Clouds 29 1010 65 10000 0.29 270 22:37 14.02.2021
2548 Clouds 28 1009 72 10000 0.76 200 22:18 14.02.2021
2549 Clouds 28 1009 72 10000 0.76 200 21:47 14.02.2021
2550 Clouds 26 1008 75 10000 1.33 204 21:28 14.02.2021
2551 Clouds 26 1008 75 10000 1.33 204 20:42 14.02.2021
2552 Clouds 26 1007 76 10000 1.38 223 20:22 14.02.2021
2553 Clouds 26 1007 76 10000 1.38 223 19:46 14.02.2021
2554 Rain 26 1007 79 10000 1.9 231 18:51 14.02.2021
2555 Rain 26 1007 79 10000 1.9 231 18:51 14.02.2021
2556 Clouds 26 1006 79 10000 2.02 233 18:29 14.02.2021
2557 Rain 26 1006 79 10000 2.02 233 17:51 14.02.2021
2558 Rain 26 1006 79 10000 2.02 233 17:33 14.02.2021
2559 Rain 26 1006 79 10000 2.04 241 16:48 14.02.2021
2560 Rain 26 1007 79 10000 2.07 252 16:25 14.02.2021
2561 Rain 26 1007 79 10000 2.07 252 15:49 14.02.2021
2562 Clouds 26 1007 79 10000 2.16 253 15:29 14.02.2021
2563 Rain 26 1007 79 10000 2.16 253 14:45 14.02.2021
2564 Clouds 26 1008 79 10000 2.27 249 14:25 14.02.2021
2565 Clouds 26 1008 79 10000 2.27 249 13:42 14.02.2021
2566 Clouds 26 1009 78 10000 2.42 245 13:23 14.02.2021
2567 Clouds 26 1009 79 10000 2.6 244 12:26 14.02.2021
2568 Clouds 26 1009 79 10000 2.6 244 11:59 14.02.2021
2569 Clouds 26 1009 79 10000 2.6 244 11:40 14.02.2021
2570 Clouds 27 1008 80 10000 2.83 243 11:20 14.02.2021
2571 Clouds 27 1007 80 10000 2.94 247 10:24 14.02.2021
2572 Rain 27 1007 80 10000 2.94 247 09:40 14.02.2021
2573 Clouds 27 1007 79 10000 3.09 258 09:21 14.02.2021
2574 Clouds 27 1007 79 10000 3.09 258 08:57 14.02.2021
2575 Clouds 28 1006 75 10000 3.61 269 07:59 14.02.2021
2576 Clouds 28 1005 77 10000 3.42 270 06:59 14.02.2021
2577 Clouds 29 1005 76 10000 3.59 275 05:44 14.02.2021
2578 Clouds 29 1006 73 10000 3.87 287 03:57 14.02.2021
2579 Clouds 30 1007 72 10000 3.83 294 02:29 14.02.2021
2580 Clouds 30 1008 72 10000 3.75 291 00:57 14.02.2021
2581 Clouds 30 1008 72 10000 3.75 291 00:37 14.02.2021
2582 Clouds 29 1008 72 10000 3.73 294 23:49 13.02.2021
2583 Clouds 29 1009 74 10000 3.39 290 23:25 13.02.2021
2584 Clouds 29 1009 74 10000 3.39 290 22:49 13.02.2021
2585 Clouds 28 1008 78 10000 2.92 286 22:21 13.02.2021
2586 Clouds 28 1008 78 10000 2.92 286 21:49 13.02.2021
2587 Clouds 26 1007 81 10000 2.46 283 21:22 13.02.2021
2588 Clouds 26 1007 82 10000 2.21 288 20:31 13.02.2021
2589 Rain 26 1007 82 10000 2.21 288 19:59 13.02.2021
2590 Clouds 26 1007 82 10000 2.21 288 19:41 13.02.2021
2591 Clouds 26 1006 82 10000 2.33 288 19:21 13.02.2021
2592 Clouds 26 1006 83 10000 2.2 294 18:45 13.02.2021
2593 Clouds 26 1006 83 10000 2.28 294 18:23 13.02.2021
2594 Clouds 26 1006 83 10000 2.28 294 17:43 13.02.2021
2595 Clouds 26 1006 82 10000 2.28 297 17:23 13.02.2021
2596 Clouds 26 1006 82 10000 2.28 297 16:44 13.02.2021
2597 Clouds 26 1006 82 10000 2.57 288 16:26 13.02.2021
2598 Clouds 26 1006 82 10000 2.57 288 15:40 13.02.2021
2599 Clouds 26 1007 82 10000 2.53 279 14:58 13.02.2021
2600 Clouds 26 1007 82 10000 2.53 279 14:32 13.02.2021
2601 Clouds 26 1008 82 10000 2.46 278 13:48 13.02.2021
2602 Clouds 26 1008 80 10000 2.16 252 13:25 13.02.2021
2603 Clouds 26 1008 80 10000 2.16 252 12:46 13.02.2021
2604 Clouds 26 1008 80 10000 2.3 256 12:19 13.02.2021
2605 Clouds 26 1008 80 10000 2.3 256 11:45 13.02.2021
2606 Clouds 26 1008 81 10000 2.51 262 11:20 13.02.2021
2607 Clouds 26 1008 81 10000 2.51 262 10:46 13.02.2021
2608 Clouds 27 1007 81 10000 2.8 269 10:25 13.02.2021
2609 Clouds 27 1007 81 10000 2.8 269 09:55 13.02.2021
2610 Clouds 27 1007 81 10000 2.8 269 09:30 13.02.2021
2611 Clouds 27 1006 80 10000 3.17 275 08:55 13.02.2021
2612 Clouds 27 1006 80 10000 3.17 275 08:34 13.02.2021
2613 Clouds 28 1006 77 10000 3.53 281 07:50 13.02.2021
2614 Clouds 29 1005 72 10000 4.32 273 06:37 13.02.2021
2615 Clouds 29 1005 74 10000 4.39 290 05:20 13.02.2021
2616 Rain 29 1006 77 10000 4.4 299 03:58 13.02.2021
2617 Clouds 29 1007 76 10000 4.3 301 01:32 13.02.2021
2618 Clouds 27 1009 81 10000 2.01 309 00:23 13.02.2021
2619 Rain 27 1009 81 10000 2.01 309 23:48 12.02.2021
2620 Clouds 26 1009 83 10000 1.67 286 23:20 12.02.2021
2621 Clouds 26 1009 83 10000 1.67 286 22:38 12.02.2021
2622 Clouds 25 1008 85 10000 1.47 251 22:18 12.02.2021
2623 Clouds 25 1008 85 10000 1.47 251 21:42 12.02.2021
2624 Clouds 25 1007 86 5076 2.08 257 21:23 12.02.2021
2625 Clouds 25 1007 86 5076 2.08 257 20:45 12.02.2021
2626 Clouds 26 1007 82 7108 1.43 274 20:26 12.02.2021
2627 Rain 26 1007 82 7108 1.43 274 19:55 12.02.2021
2628 Rain 26 1007 82 7108 1.43 274 19:30 12.02.2021
2629 Clouds 25 1006 82 10000 1.36 271 18:44 12.02.2021
2630 Clouds 25 1006 83 10000 1.54 270 18:25 12.02.2021
2631 Clouds 25 1006 83 10000 1.54 270 17:41 12.02.2021
2632 Clouds 25 1006 84 10000 1.08 262 16:54 12.02.2021
2633 Clouds 25 1007 85 10000 1.17 305 16:18 12.02.2021
2634 Clouds 25 1007 85 10000 1.17 305 15:43 12.02.2021
2635 Clouds 25 1008 84 10000 0.42 295 15:20 12.02.2021
2636 Clouds 25 1008 84 10000 0.42 295 15:20 12.02.2021
2637 Clouds 25 1008 84 10000 0.42 295 14:36 12.02.2021
2638 Clouds 25 1009 84 10000 0.27 260 13:49 12.02.2021
2639 Clouds 26 1009 79 10000 0.68 230 13:29 12.02.2021
2640 Clouds 26 1009 79 10000 0.68 230 12:53 12.02.2021
2641 Clouds 26 1009 79 10000 0.68 230 12:35 12.02.2021
2642 Clouds 26 1009 78 10000 0.8 243 11:47 12.02.2021
2643 Rain 26 1008 78 10000 0.99 246 11:21 12.02.2021
2644 Rain 26 1008 78 10000 0.99 246 10:48 12.02.2021
2645 Rain 26 1008 78 10000 1.2 248 09:59 12.02.2021
2646 Rain 26 1008 78 10000 1.2 248 09:39 12.02.2021
2647 Rain 26 1007 79 10000 1.14 236 09:21 12.02.2021
2648 Clouds 26 1007 79 10000 1.14 236 08:44 12.02.2021
2649 Rain 26 1007 81 10000 1.3 208 08:21 12.02.2021
2650 Rain 26 1007 81 10000 1.3 208 07:51 12.02.2021
2651 Rain 26 1007 81 10000 1.3 208 07:51 12.02.2021
2652 Rain 25 1006 86 9793 2.19 268 07:21 12.02.2021
2653 Rain 26 1005 86 8735 2.31 265 06:18 12.02.2021
2654 Rain 26 1006 87 7329 2.3 258 05:27 12.02.2021
2655 Rain 26 1006 87 7535 2.63 264 03:32 12.02.2021
2656 Rain 26 1008 84 6997 2.99 285 00:28 12.02.2021
2657 Rain 26 1009 85 9258 2.41 277 23:23 11.02.2021
2658 Rain 26 1009 85 9258 2.41 277 22:59 11.02.2021
2659 Rain 26 1009 85 9258 2.41 277 22:41 11.02.2021
2660 Clouds 26 1008 86 5868 2.75 269 22:21 11.02.2021
2661 Rain 26 1008 86 5868 2.75 269 21:42 11.02.2021
2662 Rain 26 1008 86 5868 2.75 269 21:42 11.02.2021
2663 Rain 26 1007 86 3738 3.47 268 21:23 11.02.2021
2664 Clouds 26 1007 86 3738 3.47 268 20:46 11.02.2021
2665 Rain 26 1007 85 4349 3.68 267 20:23 11.02.2021
2666 Rain 26 1007 85 4349 3.68 267 19:52 11.02.2021
2667 Clouds 26 1006 83 4177 3.59 279 19:33 11.02.2021
2668 Clouds 26 1006 84 4811 3.4 279 18:59 11.02.2021
2669 Clouds 26 1006 84 4811 3.4 279 18:31 11.02.2021
2670 Clouds 26 1006 84 4435 3.18 292 17:58 11.02.2021
2671 Clouds 26 1006 84 4435 3.18 292 17:37 11.02.2021
2672 Clouds 26 1005 83 6167 3.25 303 17:18 11.02.2021
2673 Clouds 26 1005 83 6167 3.25 303 16:41 11.02.2021
2674 Clouds 27 1006 82 6843 2.83 306 16:22 11.02.2021
2675 Clouds 27 1006 82 6843 2.83 306 15:44 11.02.2021
2676 Clouds 26 1007 82 6325 1.48 297 15:26 11.02.2021
2677 Clouds 26 1007 82 6325 1.48 297 14:47 11.02.2021
2678 Clouds 26 1007 83 10000 0.75 283 14:29 11.02.2021
2679 Clouds 26 1007 83 10000 0.75 283 13:41 11.02.2021
2680 Clouds 26 1008 82 10000 1.09 250 13:19 11.02.2021
2681 Clouds 26 1008 82 10000 1.09 250 12:51 11.02.2021
2682 Clouds 26 1008 83 10000 1.33 264 12:28 11.02.2021
2683 Clouds 26 1008 83 10000 1.33 264 11:46 11.02.2021
2684 Rain 26 1007 83 10000 1.31 260 11:22 11.02.2021
2685 Clouds 26 1007 83 10000 1.31 260 10:44 11.02.2021
2686 Clouds 26 1007 85 10000 1.1 278 10:26 11.02.2021
2687 Rain 26 1007 85 10000 1.1 278 09:53 11.02.2021
2688 Rain 26 1006 85 10000 2.62 291 09:22 11.02.2021
2689 Rain 26 1006 85 10000 2.62 291 08:51 11.02.2021
2690 Clouds 28 1005 80 7672 3.72 299 08:23 11.02.2021
2691 Clouds 29 1005 75 10000 3.72 304 06:58 11.02.2021
2692 Clouds 29 1005 75 10000 3.72 304 06:35 11.02.2021
2693 Clouds 30 1005 68 10000 3.7 314 04:55 11.02.2021
2694 Clouds 31 1007 63 10000 2.51 333 02:29 11.02.2021
2695 Clouds 30 1007 67 10000 1.96 347 00:47 11.02.2021
2696 Clouds 29 1007 70 10000 1.7 354 00:19 11.02.2021
2697 Clouds 29 1007 70 10000 1.7 354 23:39 10.02.2021
2698 Clouds 28 1008 74 10000 1.27 353 22:52 10.02.2021
2699 Clouds 28 1007 78 10000 0.78 339 22:28 10.02.2021
2700 Clouds 28 1007 78 10000 0.78 339 21:58 10.02.2021
2701 Clouds 28 1007 78 10000 0.78 339 21:38 10.02.2021
2702 Clouds 26 1007 80 10000 0.69 315 21:19 10.02.2021
2703 Clouds 26 1007 80 10000 0.69 315 20:40 10.02.2021
2704 Clouds 26 1007 80 10000 0.69 315 20:40 10.02.2021
2705 Clouds 26 1006 81 10000 0.98 307 20:22 10.02.2021
2706 Clouds 26 1006 81 10000 0.98 307 19:44 10.02.2021
2707 Clouds 26 1006 81 10000 1.13 297 19:23 10.02.2021
2708 Clouds 26 1005 81 10000 1.23 291 18:40 10.02.2021
2709 Clouds 26 1005 81 10000 1.49 285 18:21 10.02.2021
2710 Clouds 26 1005 81 10000 1.49 285 17:50 10.02.2021
2711 Clouds 26 1005 81 10000 1.67 277 17:22 10.02.2021
2712 Clouds 26 1005 81 10000 1.67 277 16:52 10.02.2021
2713 Clouds 26 1006 81 10000 1.97 275 16:29 10.02.2021
2714 Clouds 26 1006 81 10000 1.97 275 15:45 10.02.2021
2715 Clouds 26 1007 81 10000 1.78 278 15:22 10.02.2021
2716 Clouds 26 1007 81 10000 1.78 278 14:42 10.02.2021
2717 Clouds 26 1007 81 10000 1.77 279 14:20 10.02.2021
2718 Clouds 26 1007 81 10000 1.77 279 13:50 10.02.2021
2719 Clouds 26 1008 81 10000 1.9 276 13:27 10.02.2021
2720 Rain 26 1008 81 10000 2.07 271 12:46 10.02.2021
2721 Rain 26 1008 81 10000 2.21 265 12:28 10.02.2021
2722 Rain 26 1008 81 10000 2.21 265 11:47 10.02.2021
2723 Rain 26 1008 81 10000 2.21 265 11:47 10.02.2021
2724 Rain 27 1007 81 10000 2.53 263 11:28 10.02.2021
2725 Clouds 27 1007 81 10000 2.53 263 10:49 10.02.2021
2726 Clouds 27 1007 81 10000 2.76 266 10:19 10.02.2021
2727 Clouds 27 1007 81 10000 2.76 266 09:43 10.02.2021
2728 Clouds 27 1006 80 10000 2.9 269 09:21 10.02.2021
2729 Clouds 27 1006 81 10000 2.87 269 08:50 10.02.2021
2730 Clouds 27 1005 80 10000 3.02 269 07:59 10.02.2021
2731 Clouds 27 1004 80 10000 3.23 266 07:18 10.02.2021
2732 Clouds 29 1005 76 10000 4.11 283 03:45 10.02.2021
2733 Clouds 29 1007 75 9901 4.4 291 00:51 10.02.2021
2734 Clouds 29 1007 74 10000 4.07 289 23:37 09.02.2021
2735 Clouds 28 1008 76 10000 3.43 284 22:56 09.02.2021
2736 Clouds 27 1007 79 10000 3.15 280 22:25 09.02.2021
2737 Clouds 27 1007 79 10000 3.15 280 21:54 09.02.2021
2738 Clouds 27 1007 79 10000 3.15 280 21:35 09.02.2021
2739 Clouds 26 1007 82 10000 2.98 278 20:59 09.02.2021
2740 Clouds 26 1007 82 10000 2.98 278 20:40 09.02.2021
2741 Clouds 26 1006 83 10000 3.31 282 20:20 09.02.2021
2742 Clouds 26 1006 83 10000 3.31 282 19:39 09.02.2021
2743 Clouds 26 1005 82 10000 2.75 284 19:00 09.02.2021
2744 Clouds 26 1005 82 10000 2.75 284 18:39 09.02.2021
2745 Clouds 26 1005 83 10000 2.89 279 17:58 09.02.2021
2746 Clouds 26 1005 83 10000 2.89 279 17:40 09.02.2021
2747 Clouds 26 1005 84 10000 3.25 278 17:21 09.02.2021
2748 Clouds 26 1005 84 10000 3.25 278 16:42 09.02.2021
2749 Clouds 26 1005 83 10000 3.38 274 16:19 09.02.2021
2750 Clouds 26 1005 83 10000 3.38 274 15:50 09.02.2021
2751 Clouds 26 1006 84 10000 3.63 272 15:26 09.02.2021
2752 Clouds 26 1006 84 10000 3.63 272 14:55 09.02.2021
2753 Clouds 26 1007 84 9609 3.54 273 14:28 09.02.2021
2754 Clouds 26 1007 84 9609 3.54 273 13:52 09.02.2021
2755 Clouds 26 1007 83 10000 3.46 266 13:26 09.02.2021
2756 Clouds 26 1007 83 10000 3.46 266 12:54 09.02.2021
2757 Clouds 26 1007 83 10000 3.46 266 12:36 09.02.2021
2758 Clouds 26 1007 83 10000 3.56 263 11:58 09.02.2021
2759 Clouds 26 1007 83 10000 3.56 263 11:39 09.02.2021
2760 Clouds 26 1007 82 10000 3.61 260 11:20 09.02.2021
2761 Clouds 26 1007 82 10000 3.61 260 10:49 09.02.2021
2762 Clouds 26 1006 81 10000 3.63 255 10:18 09.02.2021
2763 Clouds 26 1006 81 10000 3.63 255 09:43 09.02.2021
2764 Clouds 27 1006 81 10000 3.83 255 09:24 09.02.2021
2765 Clouds 27 1006 81 10000 3.83 255 08:44 09.02.2021
2766 Clouds 27 1005 80 10000 4.31 263 08:25 09.02.2021
2767 Clouds 28 1003 76 10000 5.49 262 06:20 09.02.2021
2768 Clouds 29 1004 77 10000 5.26 272 04:18 09.02.2021
2769 Clouds 29 1004 77 10000 5.26 272 03:34 09.02.2021
2770 Clouds 28 1007 78 10000 4.42 283 00:33 09.02.2021
2771 Clouds 27 1007 81 10000 3.14 272 23:57 08.02.2021
2772 Clouds 26 1007 86 10000 2.53 268 23:21 08.02.2021
2773 Clouds 26 1007 86 10000 2.53 268 22:44 08.02.2021
2774 Clouds 26 1006 87 3824 2.81 264 22:24 08.02.2021
2775 Clouds 26 1006 87 3824 2.81 264 22:24 08.02.2021
2776 Clouds 26 1006 87 3824 2.81 264 21:55 08.02.2021
2777 Clouds 26 1006 87 3824 2.81 264 21:32 08.02.2021
2778 Clouds 25 1006 89 1490 3.06 263 20:59 08.02.2021
2779 Clouds 25 1006 89 1490 3.06 263 20:39 08.02.2021
2780 Clouds 26 1005 86 2029 3.25 256 20:20 08.02.2021
2781 Clouds 26 1005 86 2029 3.25 256 19:42 08.02.2021
2782 Clouds 26 1005 81 10000 2.75 259 19:22 08.02.2021
2783 Clouds 26 1005 81 10000 2.75 259 18:48 08.02.2021
2784 Clouds 26 1004 80 10000 2.98 257 18:23 08.02.2021
2785 Clouds 26 1004 80 10000 2.98 257 17:45 08.02.2021
2786 Clouds 26 1004 79 10000 3.12 254 17:25 08.02.2021
2787 Clouds 26 1004 79 10000 3.12 254 16:44 08.02.2021
2788 Clouds 26 1005 79 10000 2.98 251 16:21 08.02.2021
2789 Clouds 26 1005 79 10000 2.98 251 15:43 08.02.2021
2790 Clouds 26 1006 79 10000 3 250 15:20 08.02.2021
2791 Clouds 26 1006 79 10000 3 250 14:52 08.02.2021
2792 Clouds 26 1006 79 10000 3 250 14:31 08.02.2021
2793 Clouds 27 1007 78 10000 3.13 249 13:57 08.02.2021
2794 Clouds 27 1007 78 10000 3.13 249 13:33 08.02.2021
2795 Clouds 27 1007 77 10000 3.21 247 12:55 08.02.2021
2796 Clouds 27 1007 77 10000 3.21 247 12:36 08.02.2021
2797 Clouds 27 1007 77 10000 3.23 249 11:48 08.02.2021
2798 Clouds 27 1007 78 10000 3.23 251 11:22 08.02.2021
2799 Clouds 27 1007 78 10000 3.23 251 10:44 08.02.2021
2800 Clouds 27 1006 78 10000 3.16 248 10:24 08.02.2021
2801 Clouds 27 1006 78 10000 3.16 248 10:24 08.02.2021
2802 Clouds 27 1006 78 10000 3.16 248 09:51 08.02.2021
2803 Clouds 27 1006 78 10000 3.16 248 09:30 08.02.2021
2804 Clouds 27 1005 78 10000 3.47 254 08:41 08.02.2021
2805 Clouds 28 1004 75 10000 3.72 262 08:18 08.02.2021
2806 Clouds 29 1004 72 10000 3.95 266 07:22 08.02.2021
2807 Clear 29 1003 74 10000 3.97 284 05:53 08.02.2021
2808 Clear 30 1006 70 10000 4.4 293 02:28 08.02.2021
2809 Clouds 30 1007 67 10000 4.09 292 00:56 08.02.2021
2810 Clouds 30 1007 69 10000 3.83 291 00:21 08.02.2021
2811 Clouds 30 1007 69 10000 3.83 291 23:46 07.02.2021
2812 Clouds 29 1007 73 10000 2.98 285 23:20 07.02.2021
2813 Clouds 29 1007 73 10000 2.98 285 22:44 07.02.2021
2814 Clouds 28 1007 76 10000 2.27 270 22:25 07.02.2021
2815 Clouds 28 1007 76 10000 2.27 270 21:52 07.02.2021
2816 Clouds 26 1006 79 10000 1.98 259 21:26 07.02.2021
2817 Clouds 26 1006 79 10000 1.98 259 20:53 07.02.2021
2818 Clouds 26 1006 79 10000 1.98 259 20:33 07.02.2021
2819 Clouds 26 1005 79 10000 1.94 264 19:55 07.02.2021
2820 Clouds 26 1006 80 10000 1.73 266 19:31 07.02.2021
2821 Clouds 26 1005 80 10000 1.88 275 18:55 07.02.2021
2822 Clouds 26 1005 80 10000 1.88 275 18:35 07.02.2021
2823 Clouds 26 1005 80 10000 2.07 274 17:59 07.02.2021
2824 Clouds 26 1005 80 10000 2.07 274 17:40 07.02.2021
2825 Clouds 26 1005 80 10000 2.16 264 17:19 07.02.2021
2826 Clouds 26 1005 80 10000 2.16 264 16:45 07.02.2021
2827 Clouds 26 1005 80 10000 2.49 254 16:23 07.02.2021
2828 Clouds 26 1005 80 10000 2.49 254 15:49 07.02.2021
2829 Clouds 26 1006 80 10000 2.61 248 15:28 07.02.2021
2830 Clouds 26 1006 80 10000 2.61 248 14:49 07.02.2021
2831 Clouds 26 1006 80 10000 2.61 248 14:30 07.02.2021
2832 Clouds 26 1007 79 10000 2.71 240 13:56 07.02.2021
2833 Clouds 26 1007 79 10000 2.71 240 13:34 07.02.2021
2834 Clouds 26 1007 80 10000 2.55 247 12:46 07.02.2021
2835 Clouds 26 1007 81 10000 2.72 239 12:23 07.02.2021
2836 Clouds 26 1007 81 10000 2.72 239 11:53 07.02.2021
2837 Clouds 26 1007 82 10000 2.91 249 11:27 07.02.2021
2838 Rain 26 1007 82 10000 2.91 249 10:51 07.02.2021
2839 Clouds 26 1007 84 10000 2.78 261 10:26 07.02.2021
2840 Clouds 26 1007 84 10000 2.78 261 09:49 07.02.2021
2841 Clouds 26 1006 85 10000 2.78 276 09:21 07.02.2021
2842 Clouds 27 1006 85 10000 3.17 283 08:26 07.02.2021
2843 Rain 27 1006 85 10000 3.17 283 07:38 07.02.2021
2844 Clouds 26 1005 86 10000 3.42 277 05:57 07.02.2021
2845 Clouds 26 1006 87 5571 3.81 277 03:52 07.02.2021
2846 Clouds 26 1007 87 2149 4.24 285 01:37 07.02.2021
2847 Clouds 26 1007 85 3669 4.66 278 00:35 07.02.2021
2848 Clouds 26 1008 86 3465 4.49 292 23:46 06.02.2021
2849 Clouds 26 1008 87 2589 4.58 304 22:41 06.02.2021
2850 Rain 26 1007 86 2742 4.15 300 21:42 06.02.2021
2851 Clouds 26 1007 86 4463 3.78 298 21:22 06.02.2021
2852 Clouds 26 1007 86 4463 3.78 298 20:52 06.02.2021
2853 Clouds 26 1006 85 4948 3.86 292 20:25 06.02.2021
2854 Clouds 26 1006 85 4948 3.86 292 19:57 06.02.2021
2855 Clouds 26 1006 85 4948 3.86 292 19:32 06.02.2021
2856 Clouds 25 1005 85 4340 2.29 248 18:52 06.02.2021
2857 Clouds 25 1005 85 4340 2.29 248 18:32 06.02.2021
2858 Clouds 26 1005 84 4127 3.36 263 17:49 06.02.2021
2859 Clouds 26 1005 84 4127 3.36 263 17:49 06.02.2021
2860 Clouds 26 1005 83 4397 3.84 277 17:22 06.02.2021
2861 Clouds 26 1005 83 4397 3.84 277 16:59 06.02.2021
2862 Clouds 26 1005 83 4397 3.84 277 16:41 06.02.2021
2863 Clouds 26 1005 82 4389 3.49 273 16:22 06.02.2021
2864 Clouds 26 1005 82 4389 3.49 273 15:48 06.02.2021
2865 Clouds 26 1006 81 6921 3.12 271 15:22 06.02.2021
2866 Clouds 26 1006 81 6921 3.12 271 14:45 06.02.2021
2867 Clouds 26 1006 81 6921 3.12 271 14:45 06.02.2021
2868 Clouds 26 1007 80 10000 2.88 272 14:26 06.02.2021
2869 Clouds 26 1007 80 10000 2.88 272 13:49 06.02.2021
2870 Clouds 26 1007 80 10000 2.88 272 13:49 06.02.2021
2871 Clouds 26 1007 81 10000 2.55 267 13:21 06.02.2021
2872 Clouds 26 1007 80 10000 2.55 267 12:22 06.02.2021
2873 Clouds 26 1007 80 10000 2.55 267 11:48 06.02.2021
2874 Rain 27 1007 81 10000 2.89 273 11:22 06.02.2021
2875 Rain 27 1007 81 10000 2.89 273 10:57 06.02.2021
2876 Clouds 27 1007 81 10000 2.89 273 10:39 06.02.2021
2877 Clouds 27 1007 81 10000 2.91 274 09:59 06.02.2021
2878 Rain 27 1007 81 10000 2.91 274 09:37 06.02.2021
2879 Rain 27 1006 82 10000 2.82 274 09:18 06.02.2021
2880 Clouds 27 1006 82 10000 2.82 274 08:33 06.02.2021
2881 Rain 28 1005 80 10000 3.31 285 07:59 06.02.2021
2882 Clouds 28 1004 77 10000 3.6 290 05:43 06.02.2021
2883 Clouds 29 1006 77 9763 4.16 292 03:56 06.02.2021
2884 Clouds 29 1007 76 7947 4.23 295 01:42 06.02.2021
2885 Rain 29 1007 74 9529 3.98 294 00:47 06.02.2021
2886 Clouds 29 1007 73 10000 3.47 291 00:19 06.02.2021
2887 Rain 29 1007 73 10000 3.47 291 23:42 05.02.2021
2888 Clouds 28 1007 75 10000 3.01 289 23:24 05.02.2021
2889 Clouds 28 1007 75 10000 3.01 289 22:47 05.02.2021
2890 Clouds 27 1008 78 10000 2.62 287 22:20 05.02.2021
2891 Clouds 27 1008 78 10000 2.62 287 21:44 05.02.2021
2892 Clouds 26 1007 80 10000 2.14 284 21:25 05.02.2021
2893 Clouds 26 1007 80 10000 2.14 284 20:43 05.02.2021
2894 Clouds 26 1007 80 10000 1.99 282 19:51 05.02.2021
2895 Clouds 25 1006 80 10000 1.36 283 19:19 05.02.2021
2896 Clouds 25 1006 80 10000 1.36 283 19:19 05.02.2021
2897 Clouds 25 1006 80 10000 1.36 283 18:53 05.02.2021
2898 Clouds 26 1005 80 10000 1.27 289 18:20 05.02.2021
2899 Clouds 26 1005 80 10000 1.27 289 17:44 05.02.2021
2900 Clouds 26 1005 80 10000 1.51 281 17:21 05.02.2021
2901 Clouds 26 1005 80 10000 1.51 281 16:48 05.02.2021
2902 Clouds 26 1006 80 10000 1.9 278 16:23 05.02.2021
2903 Clouds 26 1006 80 10000 1.9 278 15:54 05.02.2021
2904 Clouds 26 1007 80 10000 2 277 15:26 05.02.2021
2905 Rain 26 1007 80 10000 2 277 14:40 05.02.2021
2906 Rain 26 1007 80 10000 2.08 277 14:22 05.02.2021
2907 Rain 26 1007 80 10000 2.08 277 13:59 05.02.2021
2908 Clouds 26 1007 80 10000 2.08 277 13:36 05.02.2021
2909 Rain 26 1008 79 10000 1.71 274 12:49 05.02.2021
2910 Rain 26 1007 78 10000 1.97 274 12:27 05.02.2021
2911 Clouds 26 1007 78 10000 1.97 274 11:41 05.02.2021
2912 Rain 27 1007 78 10000 2.06 271 11:21 05.02.2021
2913 Rain 27 1007 78 10000 2.06 271 11:21 05.02.2021
2914 Clouds 27 1007 78 10000 2.06 271 10:54 05.02.2021
2915 Rain 27 1007 78 10000 2.29 267 10:27 05.02.2021
2916 Rain 27 1007 78 10000 2.29 267 09:47 05.02.2021
2917 Rain 27 1006 78 10000 2.42 272 09:27 05.02.2021
2918 Rain 27 1006 78 10000 2.42 272 08:52 05.02.2021
2919 Clouds 28 1005 78 10000 2.62 279 08:20 05.02.2021
2920 Clouds 28 1005 78 10000 2.62 279 07:36 05.02.2021
2921 Clouds 29 1004 73 10000 3.32 284 06:49 05.02.2021
2922 Clouds 29 1004 73 10000 3.5 291 05:37 05.02.2021
2923 Clear 30 1007 68 10000 3.31 313 02:52 05.02.2021
2924 Clear 30 1007 69 10000 2.98 315 02:24 05.02.2021
2925 Clouds 30 1008 67 10000 3.29 318 00:40 05.02.2021
2926 Clouds 29 1008 69 10000 2.69 310 00:20 05.02.2021
2927 Clouds 29 1008 69 10000 2.69 310 23:55 04.02.2021
2928 Clouds 29 1008 69 10000 2.69 310 23:36 04.02.2021
2929 Clouds 28 1008 74 10000 2.16 296 23:18 04.02.2021
2930 Clouds 28 1008 74 10000 2.16 296 22:46 04.02.2021
2931 Clouds 27 1008 80 10000 1.93 274 22:25 04.02.2021
2932 Rain 27 1008 80 10000 1.93 274 21:42 04.02.2021
2933 Clouds 26 1007 81 10000 1.8 274 21:19 04.02.2021
2934 Rain 26 1007 81 10000 1.8 274 20:46 04.02.2021
2935 Rain 26 1007 81 10000 1.88 285 20:26 04.02.2021
2936 Rain 26 1007 81 10000 1.88 285 19:42 04.02.2021
2937 Clouds 25 1006 83 10000 2.64 286 18:51 04.02.2021
2938 Clouds 26 1006 82 9378 2.92 293 18:25 04.02.2021
2939 Rain 26 1006 82 9378 2.92 293 17:53 04.02.2021
2940 Clouds 26 1006 82 10000 2.75 285 17:25 04.02.2021
2941 Rain 26 1006 82 10000 2.75 285 16:56 04.02.2021
2942 Rain 26 1006 82 10000 2.75 285 16:38 04.02.2021
2943 Clouds 25 1006 83 10000 2.74 276 16:18 04.02.2021
2944 Clouds 25 1006 83 10000 2.74 276 15:39 04.02.2021
2945 Clouds 26 1008 83 10000 2.8 284 15:20 04.02.2021
2946 Clouds 26 1008 83 10000 2.8 284 14:42 04.02.2021
2947 Clouds 26 1009 84 10000 3.67 287 14:20 04.02.2021
2948 Clouds 26 1009 84 10000 3.67 287 13:45 04.02.2021
2949 Clouds 25 1009 84 9502 4.24 289 13:20 04.02.2021
2950 Rain 26 1009 85 7568 4.68 291 12:52 04.02.2021
2951 Clouds 25 1008 86 7622 5.17 286 11:54 04.02.2021
2952 Clouds 25 1008 86 7622 5.17 286 11:34 04.02.2021
2953 Rain 25 1008 87 5042 4.52 283 10:53 04.02.2021
2954 Rain 25 1008 87 5042 4.52 283 10:32 04.02.2021
2955 Rain 25 1008 88 3002 4.83 277 09:45 04.02.2021
2956 Rain 25 1007 89 941 5.92 292 09:19 04.02.2021
2957 Clouds 25 1007 89 941 5.92 292 08:50 04.02.2021
2958 Clouds 25 1006 88 1738 2.87 292 08:25 04.02.2021
2959 Rain 25 1006 88 1738 2.87 292 07:51 04.02.2021
2960 Rain 25 1006 88 1738 2.87 292 07:32 04.02.2021
2961 Clouds 25 1005 86 10000 1.17 234 06:44 04.02.2021
2962 Clouds 25 1005 87 8301 1.17 227 05:31 04.02.2021
2963 Clouds 26 1007 82 10000 1.44 263 02:29 04.02.2021
2964 Clouds 25 1008 89 1544 2.55 327 00:59 04.02.2021
2965 Clouds 25 1008 89 2186 1.11 295 23:52 03.02.2021
2966 Clouds 25 1008 89 1108 1.36 301 23:27 03.02.2021
2967 Clouds 25 1008 89 1108 1.36 301 22:36 03.02.2021
2968 Rain 25 1007 87 1179 2.11 349 22:18 03.02.2021
2969 Clouds 25 1007 87 1179 2.11 349 21:41 03.02.2021
2970 Rain 26 1006 85 2426 3.71 341 21:21 03.02.2021
2971 Clouds 26 1006 85 2426 3.71 341 20:48 03.02.2021
2972 Clouds 26 1006 84 6505 4.17 336 20:28 03.02.2021
2973 Rain 26 1006 84 6505 4.17 336 19:52 03.02.2021
2974 Clouds 26 1006 85 4503 4.94 332 19:23 03.02.2021
2975 Clouds 26 1006 86 4331 5.33 332 18:52 03.02.2021
2976 Clouds 26 1005 87 2323 5.62 325 18:22 03.02.2021
2977 Clouds 26 1005 87 2323 5.62 325 17:57 03.02.2021
2978 Clouds 26 1005 87 2323 5.62 325 17:37 03.02.2021
2979 Clouds 26 1005 88 1237 4.84 329 17:18 03.02.2021
2980 Clouds 26 1005 88 1237 4.84 329 16:36 03.02.2021
2981 Clouds 26 1005 86 2262 4.48 330 15:50 03.02.2021
2982 Clouds 26 1005 86 2262 4.48 330 15:30 03.02.2021
2983 Clouds 26 1006 87 2410 4.28 345 14:59 03.02.2021
2984 Clouds 26 1006 87 2410 4.28 345 14:40 03.02.2021
2985 Clouds 26 1008 86 4193 4.33 349 13:59 03.02.2021
2986 Clouds 26 1008 86 4193 4.33 349 13:30 03.02.2021
2987 Clouds 26 1008 86 4973 3.62 341 12:56 03.02.2021
2988 Clouds 26 1008 86 4973 3.62 341 12:37 03.02.2021
2989 Clouds 26 1008 86 6445 3.17 331 12:18 03.02.2021
2990 Clouds 26 1008 86 6445 3.17 331 11:38 03.02.2021
2991 Clouds 26 1007 86 4447 2.51 308 11:19 03.02.2021
2992 Clouds 26 1006 86 4394 2.22 288 10:27 03.02.2021
2993 Clouds 26 1006 86 4394 2.22 288 09:53 03.02.2021
2994 Clouds 26 1006 86 4394 2.22 288 09:34 03.02.2021
2995 Clouds 26 1006 86 5451 2.4 277 08:55 03.02.2021
2996 Clouds 26 1006 86 5451 2.4 277 08:36 03.02.2021
2997 Clouds 25 1005 87 6050 2.75 262 07:43 03.02.2021
2998 Rain 26 1005 85 8289 3.69 271 06:42 03.02.2021
2999 Clouds 26 1004 85 4346 6.29 278 04:55 03.02.2021
3000 Clouds 26 1004 85 4346 6.29 278 04:34 03.02.2021
3001 Clouds 27 1004 81 10000 6.07 286 03:40 03.02.2021
3002 Clouds 26 1005 84 10000 5.24 279 02:37 03.02.2021
3003 Clouds 26 1007 86 5626 5.63 272 00:56 03.02.2021
3004 Clouds 26 1007 87 2393 7.52 276 23:59 02.02.2021
3005 Clouds 26 1007 87 2393 7.52 276 23:40 02.02.2021
3006 Clouds 26 1006 89 1158 6.52 288 23:22 02.02.2021
3007 Clouds 26 1006 89 1158 6.52 288 22:37 02.02.2021
3008 Clouds 26 1006 87 2158 3.9 297 22:18 02.02.2021
3009 Clouds 26 1006 87 2158 3.9 297 21:39 02.02.2021
3010 Clouds 26 1005 88 2693 3.94 286 21:21 02.02.2021
3011 Clouds 26 1005 88 2693 3.94 286 20:47 02.02.2021
3012 Clouds 26 1005 82 6981 3.66 280 20:20 02.02.2021
3013 Clouds 26 1005 82 6981 3.66 280 19:48 02.02.2021
3014 Clouds 26 1005 82 10000 2.62 274 19:30 02.02.2021
3015 Clouds 26 1005 82 6981 3.66 280 19:30 02.02.2021
3016 Clouds 26 1004 82 10000 2.06 257 18:46 02.02.2021
3017 Clouds 26 1004 82 10000 2.37 244 18:26 02.02.2021
3018 Clouds 26 1004 82 10000 2.37 244 17:52 02.02.2021
3019 Clouds 26 1004 81 10000 2.36 247 17:24 02.02.2021
3020 Clouds 26 1004 81 10000 2.36 247 16:58 02.02.2021
3021 Clouds 26 1004 81 10000 2.36 247 16:38 02.02.2021
3022 Clouds 26 1004 82 10000 2.57 245 16:18 02.02.2021
3023 Clouds 26 1004 82 10000 2.57 245 15:42 02.02.2021
3024 Clouds 26 1004 82 10000 2.57 245 15:42 02.02.2021
3025 Rain 26 1005 83 10000 2.52 252 15:21 02.02.2021
3026 Rain 26 1005 83 10000 2.52 252 14:41 02.02.2021
3027 Rain 26 1006 84 9434 3.45 252 14:19 02.02.2021
3028 Rain 26 1006 84 9434 3.45 252 13:54 02.02.2021
3029 Clouds 26 1006 84 9434 3.45 252 13:36 02.02.2021
3030 Rain 26 1007 86 5578 3.89 267 13:18 02.02.2021
3031 Clouds 26 1007 85 8618 3.8 267 12:29 02.02.2021
3032 Rain 26 1007 85 8618 3.8 267 11:43 02.02.2021
3033 Rain 26 1006 86 4710 4.37 263 11:21 02.02.2021
3034 Rain 26 1006 86 4710 4.37 263 10:53 02.02.2021
3035 Clouds 26 1006 85 3915 4.87 266 10:27 02.02.2021
3036 Clouds 26 1006 85 3915 4.87 266 09:46 02.02.2021
3037 Clouds 26 1005 84 10000 4.79 259 09:25 02.02.2021
3038 Rain 26 1005 84 10000 4.79 259 08:48 02.02.2021
3039 Clouds 26 1004 85 9869 4.72 260 08:21 02.02.2021
3040 Clouds 26 1004 84 8155 5.65 267 07:28 02.02.2021
3041 Clouds 26 1003 85 10000 5.32 266 06:41 02.02.2021
3042 Clouds 25 1003 85 8010 5.82 270 05:51 02.02.2021
3043 Rain 25 1003 85 5735 6.37 263 04:36 02.02.2021
3044 Rain 27 1004 82 4207 5.56 291 02:25 02.02.2021
3045 Clouds 28 1005 79 7695 5.92 299 01:23 02.02.2021
3046 Clouds 28 1005 79 8319 6.04 299 00:18 02.02.2021
3047 Clouds 28 1005 80 8310 5.25 299 23:18 01.02.2021
3048 Clouds 28 1005 80 8310 5.25 299 22:39 01.02.2021
3049 Clouds 27 1005 82 8489 5.38 303 22:21 01.02.2021
3050 Clouds 27 1005 82 8489 5.38 303 21:48 01.02.2021
3051 Clouds 27 1005 82 8489 5.38 303 21:48 01.02.2021
3052 Clouds 27 1005 82 6101 5.58 305 21:24 01.02.2021
3053 Clouds 27 1005 82 6101 5.58 305 20:45 01.02.2021
3054 Clouds 27 1004 80 7888 6.49 307 20:25 01.02.2021
3055 Clouds 27 1004 80 7888 6.49 307 19:49 01.02.2021
3056 Clouds 27 1003 81 9148 6.37 299 19:21 01.02.2021
3057 Clouds 27 1003 81 10000 5.64 292 18:58 01.02.2021
3058 Clouds 27 1003 81 10000 5.64 292 18:40 01.02.2021
3059 Clouds 27 1002 81 8914 5.88 291 18:21 01.02.2021
3060 Clouds 27 1002 81 8914 5.88 291 17:42 01.02.2021
3061 Rain 27 1002 81 8191 5.97 294 17:19 01.02.2021
3062 Rain 27 1002 81 8191 5.97 294 16:40 01.02.2021
3063 Clouds 27 1003 81 5885 6.3 296 16:21 01.02.2021
3064 Clouds 27 1003 81 5885 6.3 296 15:40 01.02.2021
3065 Clouds 27 1003 81 5046 6.7 300 15:19 01.02.2021
3066 Clouds 27 1003 81 5046 6.7 300 15:19 01.02.2021
3067 Clouds 27 1003 81 5046 6.7 300 14:48 01.02.2021
3068 Clouds 27 1004 82 8035 5.66 295 14:18 01.02.2021
3069 Rain 27 1004 82 8035 5.66 295 13:42 01.02.2021
3070 Rain 27 1004 82 10000 5.57 301 13:22 01.02.2021
3071 Rain 27 1004 82 10000 5.57 301 12:44 01.02.2021
3072 Rain 27 1004 82 10000 5.57 301 12:44 01.02.2021
3073 Rain 27 1004 81 10000 5.85 299 12:23 01.02.2021
3074 Rain 27 1004 81 10000 5.85 299 11:42 01.02.2021
3075 Rain 27 1004 81 9644 6.09 296 11:20 01.02.2021
3076 Rain 27 1004 81 9644 6.09 296 10:46 01.02.2021
3077 Rain 27 1004 82 7540 6.08 293 10:20 01.02.2021
3078 Rain 27 1004 82 7540 6.08 293 09:45 01.02.2021
3079 Rain 27 1003 82 4080 6.83 293 09:24 01.02.2021
3080 Rain 27 1003 82 4080 6.83 293 08:54 01.02.2021
3081 Clouds 27 1003 82 5023 6.85 300 07:53 01.02.2021
3082 Clouds 28 1002 80 8113 6.83 300 06:37 01.02.2021
3083 Clouds 28 1001 79 8843 6.63 305 04:30 01.02.2021
3084 Clouds 29 1003 77 8426 7.52 309 01:41 01.02.2021
3085 Clouds 28 1004 78 10000 7.25 313 23:45 31.01.2021
3086 Rain 28 1004 79 9307 6.99 319 22:44 31.01.2021
3087 Rain 28 1004 79 10000 6.76 326 22:25 31.01.2021
3088 Rain 28 1004 79 10000 6.76 326 21:55 31.01.2021
3089 Rain 27 1003 80 10000 5.92 325 21:26 31.01.2021
3090 Rain 27 1003 80 10000 5.92 325 20:57 31.01.2021
3091 Clouds 27 1003 80 10000 5.92 325 20:37 31.01.2021
3092 Clouds 27 1003 79 10000 5.4 321 20:18 31.01.2021
3093 Clouds 27 1003 80 10000 5.11 313 19:37 31.01.2021
3094 Clouds 27 1003 80 10000 4.81 314 19:19 31.01.2021
3095 Clouds 27 1003 80 10000 4.81 314 19:19 31.01.2021
3096 Clouds 27 1003 80 10000 4.81 314 18:41 31.01.2021
3097 Clouds 27 1003 80 10000 4.81 314 18:41 31.01.2021
3098 Clouds 26 1002 79 10000 4.46 313 18:21 31.01.2021
3099 Clouds 26 1002 79 10000 4.46 313 17:47 31.01.2021
3100 Clouds 26 1002 78 10000 4.39 312 17:23 31.01.2021
3101 Clouds 26 1002 78 10000 4.39 312 16:51 31.01.2021
3102 Clouds 26 1002 78 10000 4.39 312 16:51 31.01.2021
3103 Clouds 26 1002 78 10000 4.39 312 16:33 31.01.2021
3104 Clouds 27 1003 79 10000 4.41 311 15:52 31.01.2021
3105 Clouds 27 1003 79 10000 4.41 311 15:34 31.01.2021
3106 Clouds 27 1004 80 10000 4.81 314 14:44 31.01.2021
3107 Clouds 27 1005 80 10000 4.37 316 14:24 31.01.2021
3108 Rain 27 1005 80 10000 4.37 316 13:53 31.01.2021
3109 Clouds 27 1005 80 10000 4.37 316 13:34 31.01.2021
3110 Clouds 27 1005 80 10000 4.37 318 12:49 31.01.2021
3111 Clouds 27 1005 80 10000 4.64 321 12:22 31.01.2021
3112 Clouds 27 1005 80 10000 4.64 321 11:44 31.01.2021
3113 Clouds 27 1005 80 10000 4.4 319 11:25 31.01.2021
3114 Rain 27 1005 80 10000 4.4 319 10:57 31.01.2021
3115 Clouds 27 1005 80 10000 4.4 319 10:35 31.01.2021
3116 Rain 27 1004 80 10000 4.75 312 09:51 31.01.2021
3117 Rain 27 1003 81 10000 4.13 314 09:25 31.01.2021
3118 Clouds 27 1003 81 10000 4.13 314 08:33 31.01.2021
3119 Clouds 28 1002 79 10000 3.81 298 06:57 31.01.2021
3120 Clouds 28 1002 78 8086 4 303 05:35 31.01.2021
3121 Clouds 28 1005 82 5848 3.69 319 00:47 31.01.2021
3122 Clouds 27 1006 83 5362 2.86 316 00:22 31.01.2021
3123 Rain 27 1006 83 5362 2.86 316 23:33 30.01.2021
3124 Clouds 26 1005 85 5471 2.13 293 22:56 30.01.2021
3125 Clouds 26 1005 85 5471 2.13 293 22:30 30.01.2021
3126 Clouds 26 1005 84 4627 2.95 284 21:40 30.01.2021
3127 Rain 27 1004 82 4191 2.9 292 21:21 30.01.2021
3128 Clouds 27 1004 82 4191 2.9 292 20:47 30.01.2021
3129 Clouds 27 1003 82 3766 2.71 300 20:28 30.01.2021
3130 Clouds 27 1003 82 3766 2.71 300 19:44 30.01.2021
3131 Clouds 27 1003 82 8189 2.86 304 19:25 30.01.2021
3132 Clouds 26 1003 81 8852 2.43 295 18:42 30.01.2021
3133 Clouds 26 1003 80 8608 2.49 287 18:21 30.01.2021
3134 Clouds 26 1003 80 8608 2.49 287 17:58 30.01.2021
3135 Clouds 26 1002 80 10000 2.3 278 17:19 30.01.2021
3136 Clouds 26 1002 80 10000 2.3 278 16:47 30.01.2021
3137 Clouds 26 1003 80 10000 2.26 272 16:25 30.01.2021
3138 Rain 26 1003 80 10000 2.26 272 15:55 30.01.2021
3139 Clouds 26 1003 80 10000 2.26 272 15:37 30.01.2021
3140 Clouds 26 1004 80 10000 2.15 270 15:19 30.01.2021
3141 Clouds 26 1004 80 10000 2.15 270 14:42 30.01.2021
3142 Clouds 26 1005 79 10000 1.85 266 14:19 30.01.2021
3143 Clouds 26 1005 79 10000 1.85 266 13:30 30.01.2021
3144 Rain 27 1006 79 10000 1.86 249 12:49 30.01.2021
3145 Clouds 27 1006 80 10000 2.04 258 12:28 30.01.2021
3146 Clouds 27 1006 80 10000 2.04 258 11:56 30.01.2021
3147 Clouds 27 1005 80 10000 2.21 268 11:26 30.01.2021
3148 Clouds 27 1005 80 10000 2.21 268 10:47 30.01.2021
3149 Clouds 27 1005 80 10000 2.61 281 09:44 30.01.2021
3150 Clouds 27 1004 80 10000 3 291 09:26 30.01.2021
3151 Clouds 27 1004 80 10000 3 291 08:47 30.01.2021
3152 Clouds 29 1003 78 10000 3.29 296 07:45 30.01.2021
3153 Clouds 29 1002 76 10000 3.13 296 06:36 30.01.2021
3154 Rain 29 1002 76 10000 3.96 304 04:28 30.01.2021
3155 Rain 29 1002 76 10000 3.96 304 03:34 30.01.2021
3156 Rain 29 1004 75 10000 3.88 300 02:23 30.01.2021
3157 Clouds 29 1005 75 9468 3.57 287 01:26 30.01.2021
3158 Rain 29 1005 75 7143 3.75 293 00:35 30.01.2021
3159 Rain 29 1006 72 10000 3.62 286 23:55 29.01.2021
3160 Rain 28 1006 75 10000 3.36 281 23:28 29.01.2021
3161 Rain 28 1006 75 10000 3.36 281 22:56 29.01.2021
3162 Rain 28 1006 75 10000 3.36 281 22:37 29.01.2021
3163 Rain 28 1006 78 10000 2.56 267 21:59 29.01.2021
3164 Rain 27 1005 80 10000 2.71 254 21:28 29.01.2021
3165 Rain 27 1005 80 10000 2.71 254 20:43 29.01.2021
3166 Rain 26 1004 81 10000 2.84 252 20:24 29.01.2021
3167 Rain 26 1004 81 10000 2.84 252 19:40 29.01.2021
3168 Rain 26 1004 81 10000 3.36 264 19:21 29.01.2021
3169 Rain 26 1004 81 10000 4.26 263 18:55 29.01.2021
3170 Rain 26 1003 82 10000 3.72 275 17:50 29.01.2021
3171 Rain 26 1003 83 10000 3.57 278 17:23 29.01.2021
3172 Clouds 26 1003 83 10000 3.57 278 16:54 29.01.2021
3173 Rain 26 1004 83 10000 3.54 277 16:28 29.01.2021
3174 Rain 26 1004 83 10000 3.54 277 15:55 29.01.2021
3175 Rain 26 1004 83 10000 3.54 277 15:37 29.01.2021
3176 Rain 26 1004 83 10000 3.82 277 15:19 29.01.2021
3177 Rain 26 1005 84 10000 3.77 273 14:23 29.01.2021
3178 Rain 26 1005 84 10000 3.77 273 13:50 29.01.2021
3179 Rain 26 1005 84 10000 3.77 273 13:31 29.01.2021
3180 Rain 25 1006 87 10000 3.55 284 12:43 29.01.2021
3181 Rain 25 1006 87 7105 3.65 276 12:19 29.01.2021
3182 Rain 25 1006 87 7105 3.65 276 11:44 29.01.2021
3183 Rain 25 1006 87 7585 3.47 268 11:18 29.01.2021
3184 Rain 25 1006 87 7585 3.47 268 10:46 29.01.2021
3185 Rain 25 1005 87 2650 4.97 261 10:22 29.01.2021
3186 Rain 25 1005 87 2650 4.97 261 09:39 29.01.2021
3187 Rain 25 1004 87 2020 6.28 276 08:50 29.01.2021
3188 Rain 26 1003 87 2531 5.04 297 08:27 29.01.2021
3189 Clouds 26 1003 87 2531 5.04 297 07:48 29.01.2021
3190 Clouds 26 1003 87 3654 3.29 274 07:29 29.01.2021
3191 Clouds 26 1003 87 3654 3.29 274 06:49 29.01.2021
3192 Clouds 26 1002 87 1595 5.49 278 04:53 29.01.2021
3193 Clouds 27 1004 84 6957 4.31 304 01:50 29.01.2021
3194 Clouds 27 1005 82 6575 4.38 293 00:37 29.01.2021
3195 Clouds 27 1005 82 4785 4.54 290 00:19 29.01.2021
3196 Clouds 27 1005 82 4785 4.54 290 23:39 28.01.2021
3197 Clouds 27 1005 82 4785 4.54 290 23:39 28.01.2021
3198 Clouds 27 1005 82 6863 4.49 291 23:20 28.01.2021
3199 Rain 27 1005 82 6863 4.49 291 22:41 28.01.2021
3200 Clouds 27 1004 81 6223 4.49 295 22:22 28.01.2021
3201 Clouds 27 1004 81 6223 4.49 295 21:44 28.01.2021
3202 Clouds 27 1003 81 10000 4.13 295 21:26 28.01.2021
3203 Rain 27 1003 81 10000 4.13 295 20:46 28.01.2021
3204 Clouds 27 1003 81 10000 3.75 297 20:19 28.01.2021
3205 Clouds 27 1003 81 10000 3.75 297 20:19 28.01.2021
3206 Clouds 27 1003 81 10000 3.75 297 19:54 28.01.2021
3207 Clouds 27 1003 81 10000 3.1 294 19:32 28.01.2021
3208 Rain 27 1002 80 10000 3.3 278 18:53 28.01.2021
3209 Clouds 27 1002 80 10000 3.3 278 18:34 28.01.2021
3210 Clouds 26 1002 81 10000 3.46 270 17:54 28.01.2021
3211 Clouds 26 1002 81 10000 3.46 270 17:35 28.01.2021
3212 Clouds 26 1002 82 10000 3.91 279 16:59 28.01.2021
3213 Clouds 26 1002 82 10000 3.91 279 16:40 28.01.2021
3214 Rain 27 1002 82 10000 4.09 276 16:20 28.01.2021
3215 Clouds 27 1002 82 10000 4.09 276 15:32 28.01.2021
3216 Clouds 27 1003 82 10000 4.02 274 14:49 28.01.2021
3217 Rain 27 1004 82 10000 3.85 269 14:27 28.01.2021
3218 Rain 27 1004 82 10000 3.85 269 13:59 28.01.2021
3219 Clouds 27 1005 82 10000 3.92 271 13:25 28.01.2021
3220 Clouds 27 1005 82 10000 3.92 271 12:50 28.01.2021
3221 Clouds 27 1005 82 5239 4.62 275 12:32 28.01.2021
3222 Rain 27 1006 82 5383 4.61 278 11:57 28.01.2021
3223 Clouds 27 1006 82 5383 4.61 278 11:39 28.01.2021
3224 Rain 27 1005 82 9731 4.8 282 11:18 28.01.2021
3225 Rain 27 1005 82 9731 4.8 282 10:48 28.01.2021
3226 Clouds 27 1004 82 5771 5.13 284 10:24 28.01.2021
3227 Clouds 27 1004 82 5771 5.13 284 09:39 28.01.2021
3228 Rain 27 1004 82 4562 5.15 280 09:19 28.01.2021
3229 Rain 27 1004 82 4562 5.15 280 08:44 28.01.2021
3230 Rain 27 1003 81 5810 4.39 285 07:50 28.01.2021
3231 Rain 29 1002 73 10000 5.04 284 07:21 28.01.2021
3232 Rain 29 1002 73 10000 5.04 284 06:48 28.01.2021
3233 Rain 28 1002 77 10000 3.74 280 04:30 28.01.2021
3234 Rain 29 1002 75 10000 4.65 277 02:45 28.01.2021
3235 Rain 29 1004 77 10000 4.84 271 00:35 28.01.2021
3236 Rain 28 1005 79 10000 4.54 275 23:25 27.01.2021
3237 Clouds 28 1005 79 10000 4.54 275 22:44 27.01.2021
3238 Rain 27 1004 80 10000 4.46 273 22:26 27.01.2021
3239 Clouds 27 1004 80 10000 4.46 273 21:59 27.01.2021
3240 Rain 27 1004 80 10000 4.46 273 21:40 27.01.2021
3241 Rain 27 1004 80 10000 4.46 273 21:40 27.01.2021
3242 Clouds 27 1003 81 10000 4.07 280 21:22 27.01.2021
3243 Clouds 27 1003 81 10000 4.07 280 20:41 27.01.2021
3244 Clouds 26 1003 81 10000 3.5 286 19:58 27.01.2021
3245 Clouds 26 1003 81 10000 3.5 286 19:39 27.01.2021
3246 Clouds 26 1002 80 10000 2.86 275 19:20 27.01.2021
3247 Clouds 26 1002 80 10000 2.86 275 19:20 27.01.2021
3248 Clouds 26 1002 80 10000 2.86 275 18:42 27.01.2021
3249 Rain 26 1002 80 10000 2.48 266 18:23 27.01.2021
3250 Clouds 26 1002 80 10000 2.48 266 17:46 27.01.2021
3251 Clouds 26 1002 81 10000 2.16 255 17:21 27.01.2021
3252 Clouds 26 1002 81 10000 2.16 255 16:48 27.01.2021
3253 Clouds 26 1003 81 10000 2.1 259 16:28 27.01.2021
3254 Clouds 26 1003 81 10000 2.1 259 15:50 27.01.2021
3255 Clouds 26 1003 81 10000 2.1 259 15:30 27.01.2021
3256 Clouds 26 1003 82 10000 2.31 259 14:42 27.01.2021
3257 Rain 26 1004 82 10000 2.4 253 14:21 27.01.2021
3258 Clouds 26 1004 84 10000 1.61 247 13:43 27.01.2021
3259 Rain 25 1005 85 10000 1.94 249 12:48 27.01.2021
3260 Rain 26 1005 85 10000 2.6 251 12:26 27.01.2021
3261 Clouds 26 1005 85 10000 2.6 251 11:55 27.01.2021
3262 Rain 26 1005 85 10000 2.6 251 11:36 27.01.2021
3263 Rain 26 1005 83 10000 3.19 250 11:18 27.01.2021
3264 Rain 26 1005 83 10000 3.19 250 10:36 27.01.2021
3265 Rain 26 1005 83 10000 2.86 258 10:18 27.01.2021
3266 Rain 26 1005 83 10000 2.86 258 09:36 27.01.2021
3267 Rain 26 1004 84 10000 2.49 260 08:55 27.01.2021
3268 Clouds 26 1003 85 10000 2.75 261 07:59 27.01.2021
3269 Clouds 26 1003 85 10000 2.75 261 07:40 27.01.2021
3270 Rain 27 1002 79 10000 3.11 256 06:49 27.01.2021
3271 Rain 28 1002 76 10000 3.14 266 05:58 27.01.2021
3272 Rain 28 1002 76 10000 3.14 266 05:35 27.01.2021
3273 Rain 27 1004 83 10000 3.3 268 02:46 27.01.2021
3274 Rain 27 1004 83 10000 3.58 270 02:21 27.01.2021
3275 Rain 27 1004 83 10000 3.58 270 01:47 27.01.2021
3276 Rain 27 1005 82 10000 4.07 270 00:30 27.01.2021
3277 Rain 27 1005 82 10000 3.83 273 23:44 26.01.2021
3278 Rain 27 1005 80 10000 3.77 274 23:22 26.01.2021
3279 Rain 27 1005 80 10000 3.77 274 22:44 26.01.2021
3280 Rain 27 1005 80 10000 3.9 278 22:20 26.01.2021
3281 Rain 27 1005 80 10000 3.9 278 21:53 26.01.2021
3282 Rain 27 1004 82 10000 3.88 281 21:26 26.01.2021
3283 Rain 27 1004 82 10000 3.88 281 20:56 26.01.2021
3284 Rain 27 1004 82 10000 3.88 281 20:36 26.01.2021
3285 Rain 27 1004 82 10000 3.88 281 20:36 26.01.2021
3286 Rain 26 1003 83 10000 3.74 292 20:18 26.01.2021
3287 Rain 26 1003 83 10000 3.74 292 19:42 26.01.2021
3288 Rain 27 1002 83 8287 3.42 301 19:19 26.01.2021
3289 Rain 27 1002 83 8287 3.42 301 18:43 26.01.2021
3290 Rain 27 1002 82 10000 3.55 303 18:23 26.01.2021
3291 Rain 27 1002 82 10000 3.55 303 18:23 26.01.2021
3292 Clouds 27 1002 82 10000 3.55 303 17:48 26.01.2021
3293 Clouds 27 1002 82 10000 3.63 304 17:25 26.01.2021
3294 Clouds 27 1002 82 10000 3.63 304 16:52 26.01.2021
3295 Rain 27 1003 81 10000 3.04 309 16:21 26.01.2021
3296 Rain 27 1003 81 10000 3.04 309 15:53 26.01.2021
3297 Clouds 27 1003 81 10000 3.04 309 15:35 26.01.2021
3298 Clouds 27 1004 80 10000 2.85 306 14:49 26.01.2021
3299 Clouds 27 1004 80 10000 2.85 306 14:30 26.01.2021
3300 Clouds 27 1005 79 10000 2.55 303 13:51 26.01.2021
3301 Clouds 27 1005 78 10000 2.29 290 13:28 26.01.2021
3302 Clouds 27 1005 78 10000 2.53 298 12:46 26.01.2021
3303 Clouds 27 1005 78 10000 2.53 298 12:46 26.01.2021
3304 Rain 27 1005 78 10000 2.47 288 12:25 26.01.2021
3305 Clouds 27 1005 78 10000 2.47 288 11:59 26.01.2021
3306 Clouds 27 1005 78 10000 2.47 288 11:39 26.01.2021
3307 Clouds 27 1005 77 10000 2.54 276 10:55 26.01.2021
3308 Clouds 27 1005 77 10000 2.54 276 10:33 26.01.2021
3309 Clouds 27 1005 77 10000 2.54 276 10:33 26.01.2021
3310 Rain 27 1004 76 10000 2.82 269 09:49 26.01.2021
3311 Clouds 27 1004 76 10000 2.82 269 09:30 26.01.2021
3312 Rain 28 1004 75 10000 3.28 271 08:53 26.01.2021
3313 Clouds 28 1004 75 10000 3.28 271 08:34 26.01.2021
3314 Clouds 29 1003 70 10000 4.2 278 07:50 26.01.2021
3315 Rain 31 1002 60 10000 4.91 297 06:24 26.01.2021
3316 Rain 31 1002 60 10000 4.91 297 05:44 26.01.2021
3317 Rain 31 1002 58 10000 5.12 299 05:23 26.01.2021
3318 Rain 31 1004 59 10000 5.05 304 02:46 26.01.2021
3319 Rain 30 1006 62 10000 4.27 298 00:57 26.01.2021
3320 Clouds 30 1006 65 10000 3.87 297 23:40 25.01.2021
3321 Rain 29 1006 67 10000 3.32 295 23:18 25.01.2021
3322 Rain 29 1006 67 10000 3.32 295 22:39 25.01.2021
3323 Clouds 28 1006 71 10000 2.57 289 21:52 25.01.2021
3324 Clouds 28 1006 71 10000 2.57 289 21:33 25.01.2021
3325 Rain 26 1005 76 10000 1.91 280 20:52 25.01.2021
3326 Clouds 26 1005 76 10000 1.91 280 20:33 25.01.2021
3327 Clouds 26 1005 76 10000 1.91 280 20:33 25.01.2021
3328 Clouds 25 1005 77 10000 1.92 280 19:52 25.01.2021
3329 Clouds 25 1005 77 10000 1.92 280 19:32 25.01.2021
3330 Rain 25 1004 76 10000 1.94 277 18:49 25.01.2021
3331 Clouds 26 1004 78 10000 1.89 253 18:28 25.01.2021
3332 Clouds 26 1004 78 10000 1.89 253 17:59 25.01.2021
3333 Rain 26 1004 78 10000 1.89 253 17:41 25.01.2021
3334 Rain 26 1005 78 10000 2.11 257 17:23 25.01.2021
3335 Rain 26 1005 78 10000 2.11 257 16:41 25.01.2021
3336 Clouds 26 1005 77 10000 2.44 259 16:22 25.01.2021
3337 Clouds 26 1005 77 10000 2.44 259 15:50 25.01.2021
3338 Clouds 26 1005 77 10000 2.44 259 15:31 25.01.2021
3339 Clouds 26 1006 77 10000 2.66 260 14:50 25.01.2021
3340 Clouds 26 1007 77 10000 2.46 259 14:19 25.01.2021
3341 Clouds 26 1007 77 10000 2.46 259 13:54 25.01.2021
3342 Rain 26 1007 77 10000 2.44 262 13:28 25.01.2021
3343 Rain 26 1007 77 10000 2.11 265 12:46 25.01.2021
3344 Rain 26 1007 77 10000 1.87 272 12:24 25.01.2021
3345 Clouds 26 1007 77 10000 1.87 272 11:48 25.01.2021
3346 Clouds 27 1007 77 10000 1.82 285 11:19 25.01.2021
3347 Clouds 27 1007 77 10000 1.82 285 10:41 25.01.2021
3348 Clouds 27 1006 76 10000 1.78 294 10:19 25.01.2021
3349 Clouds 27 1006 76 10000 1.78 294 09:45 25.01.2021
3350 Rain 27 1006 76 10000 1.99 305 09:27 25.01.2021
3351 Clouds 28 1005 72 10000 2.61 311 08:29 25.01.2021
3352 Clouds 28 1005 72 10000 2.61 311 07:32 25.01.2021
3353 Clouds 29 1004 66 10000 2.89 319 06:55 25.01.2021
3354 Clouds 30 1005 61 10000 3.93 331 04:18 25.01.2021
3355 Clouds 30 1007 59 10000 3.63 324 01:32 25.01.2021
3356 Rain 30 1008 63 10000 2.78 316 23:44 24.01.2021
3357 Rain 29 1008 66 10000 1.89 307 23:19 24.01.2021
3358 Rain 29 1008 66 10000 1.89 307 22:43 24.01.2021
3359 Rain 27 1008 70 10000 0.94 273 22:21 24.01.2021
3360 Clouds 27 1008 70 10000 0.94 273 21:48 24.01.2021
3361 Clouds 25 1007 74 10000 1 230 21:24 24.01.2021
3362 Clouds 25 1007 74 10000 1 230 20:45 24.01.2021
3363 Clouds 25 1006 75 10000 1.05 221 20:22 24.01.2021
3364 Clouds 25 1006 75 10000 1.05 221 19:52 24.01.2021
3365 Clouds 25 1006 75 10000 1.02 214 19:27 24.01.2021
3366 Clouds 25 1006 75 10000 1.02 214 18:58 24.01.2021
3367 Rain 25 1006 76 10000 0.77 176 18:39 24.01.2021
3368 Rain 25 1006 76 10000 0.77 176 18:39 24.01.2021
3369 Clouds 25 1006 76 10000 0.89 199 18:20 24.01.2021
3370 Clouds 25 1006 76 10000 0.89 199 17:50 24.01.2021
3371 Clouds 25 1006 75 10000 0.9 212 17:28 24.01.2021
3372 Clouds 25 1006 75 10000 0.9 212 16:57 24.01.2021
3373 Clouds 25 1006 75 10000 0.9 212 16:37 24.01.2021
3374 Clouds 25 1007 74 10000 0.93 227 16:18 24.01.2021
3375 Clouds 25 1007 74 10000 0.93 227 15:42 24.01.2021
3376 Clouds 25 1008 74 10000 0.91 230 15:18 24.01.2021
3377 Clouds 25 1008 74 10000 0.91 230 14:38 24.01.2021
3378 Rain 25 1009 73 10000 0.76 229 13:45 24.01.2021
3379 Rain 25 1009 73 10000 0.67 222 13:24 24.01.2021
3380 Rain 25 1009 71 10000 0.74 224 12:47 24.01.2021
3381 Clouds 26 1008 71 10000 0.7 247 12:20 24.01.2021
3382 Clouds 26 1008 71 10000 0.7 247 11:49 24.01.2021
3383 Clouds 26 1008 71 10000 0.7 247 11:49 24.01.2021
3384 Rain 26 1008 71 10000 0.91 291 11:24 24.01.2021
3385 Rain 26 1008 71 10000 0.91 291 10:43 24.01.2021
3386 Rain 26 1008 71 10000 1.36 314 10:18 24.01.2021
3387 Rain 27 1007 70 10000 1.95 326 09:22 24.01.2021
3388 Rain 27 1007 70 10000 1.95 326 08:56 24.01.2021
3389 Clouds 28 1006 66 10000 2.44 325 07:50 24.01.2021
3390 Clouds 31 1007 58 10000 3.05 352 02:39 24.01.2021
3391 Clouds 31 1007 56 10000 2.67 351 01:46 24.01.2021
3392 Clouds 30 1008 60 10000 1.68 6 00:24 24.01.2021
3393 Clouds 30 1008 60 10000 1.68 6 23:47 23.01.2021
3394 Clouds 29 1009 64 10000 1.02 356 23:26 23.01.2021
3395 Clouds 29 1009 64 10000 1.02 356 23:26 23.01.2021
3396 Clouds 29 1009 64 10000 1.02 356 22:51 23.01.2021
3397 Clouds 29 1009 64 10000 1.02 356 22:32 23.01.2021
3398 Clouds 27 1008 70 10000 0.1 286 21:51 23.01.2021
3399 Clouds 25 1008 76 10000 0.61 197 21:22 23.01.2021
3400 Clouds 25 1008 76 10000 0.61 197 20:47 23.01.2021
3401 Clouds 25 1007 76 10000 0.66 185 20:24 23.01.2021
3402 Clouds 25 1007 76 10000 0.66 185 19:46 23.01.2021
3403 Clouds 25 1007 75 10000 0.87 190 19:22 23.01.2021
3404 Clouds 25 1007 75 10000 0.63 194 18:49 23.01.2021
3405 Clouds 25 1007 74 10000 0.75 179 18:26 23.01.2021
3406 Clouds 25 1007 74 10000 0.75 179 17:48 23.01.2021
3407 Clouds 25 1007 74 10000 0.71 148 17:27 23.01.2021
3408 Clouds 25 1007 74 10000 0.71 148 16:48 23.01.2021
3409 Clouds 25 1007 74 10000 0.71 125 16:25 23.01.2021
3410 Clouds 25 1007 74 10000 0.71 125 15:40 23.01.2021
3411 Clouds 25 1008 74 10000 0.79 122 15:21 23.01.2021
3412 Clouds 25 1008 74 10000 0.79 122 14:32 23.01.2021
3413 Clouds 25 1009 74 10000 1 118 13:54 23.01.2021
3414 Clouds 25 1009 74 10000 1 118 13:35 23.01.2021
3415 Clouds 25 1009 72 10000 0.9 92 12:57 23.01.2021
3416 Clouds 26 1009 72 10000 0.69 82 12:27 23.01.2021
3417 Clouds 26 1009 72 10000 0.69 82 11:45 23.01.2021
3418 Clouds 26 1009 72 10000 0.45 75 11:25 23.01.2021
3419 Clouds 26 1009 72 10000 0.45 75 10:48 23.01.2021
3420 Clouds 26 1008 72 10000 0.66 41 10:19 23.01.2021
3421 Clouds 26 1008 72 10000 0.66 41 09:46 23.01.2021
3422 Clouds 26 1008 71 10000 1.24 4 08:54 23.01.2021
3423 Clouds 26 1008 71 10000 1.24 4 08:30 23.01.2021
3424 Clouds 26 1008 71 10000 1.24 4 08:30 23.01.2021
3425 Clouds 29 1007 62 10000 2.36 354 07:24 23.01.2021
3426 Clouds 31 1007 53 10000 2.96 359 03:36 23.01.2021
3427 Clouds 30 1008 59 10000 2.84 356 00:38 23.01.2021
3428 Clouds 29 1009 63 10000 2.76 354 23:38 22.01.2021
3429 Clouds 29 1009 63 10000 2.76 354 23:38 22.01.2021
3430 Clouds 28 1009 70 10000 2.93 356 22:46 22.01.2021
3431 Clouds 27 1008 76 10000 2.88 1 22:22 22.01.2021
3432 Clouds 27 1008 76 10000 2.88 1 21:46 22.01.2021
3433 Clouds 27 1008 78 10000 2.91 1 21:26 22.01.2021
3434 Clouds 27 1008 78 10000 2.91 1 20:55 22.01.2021
3435 Clouds 27 1008 78 10000 2.91 1 20:33 22.01.2021
3436 Clouds 26 1008 79 10000 2.85 353 19:48 22.01.2021
3437 Clouds 27 1007 79 10000 2.85 353 19:21 22.01.2021
3438 Clouds 26 1007 76 10000 2 7 18:50 22.01.2021
3439 Clouds 26 1007 77 10000 1.92 10 18:27 22.01.2021
3440 Clouds 26 1007 77 10000 1.92 10 17:56 22.01.2021
3441 Clouds 26 1007 77 10000 1.92 10 17:38 22.01.2021
3442 Clouds 25 1006 77 10000 1.87 16 16:56 22.01.2021
3443 Clouds 25 1006 77 10000 1.87 16 16:31 22.01.2021
3444 Clouds 25 1007 77 10000 1.78 20 15:53 22.01.2021
3445 Clouds 25 1008 76 10000 1.5 23 15:25 22.01.2021
3446 Clouds 25 1008 76 10000 1.5 23 14:43 22.01.2021
3447 Clouds 26 1009 75 10000 1.18 27 14:24 22.01.2021
3448 Rain 26 1009 75 10000 1.18 27 13:38 22.01.2021
3449 Rain 26 1009 75 10000 1.11 33 13:19 22.01.2021
3450 Rain 25 1009 74 10000 1.37 27 12:40 22.01.2021
3451 Rain 25 1009 73 10000 1.39 23 12:18 22.01.2021
3452 Rain 25 1009 73 10000 1.39 23 11:38 22.01.2021
3453 Clouds 25 1008 72 10000 1.45 23 10:48 22.01.2021
3454 Rain 26 1008 72 10000 1.56 24 10:24 22.01.2021
3455 Rain 26 1008 72 10000 1.56 24 09:44 22.01.2021
3456 Rain 26 1007 71 10000 1.85 16 08:58 22.01.2021
3457 Rain 26 1007 71 10000 1.85 16 08:32 22.01.2021
3458 Rain 28 1007 66 10000 2.32 10 07:48 22.01.2021
3459 Rain 30 1006 57 10000 3.28 5 05:22 22.01.2021
3460 Rain 30 1008 61 10000 3.45 5 01:54 22.01.2021
3461 Clouds 28 1009 73 10000 3.45 10 00:29 22.01.2021
3462 Clouds 28 1009 73 10000 3.45 10 23:48 21.01.2021
3463 Clouds 28 1009 76 10000 3.41 10 23:20 21.01.2021
3464 Clouds 28 1009 76 10000 3.41 10 22:48 21.01.2021
3465 Clouds 27 1008 79 10000 3.38 11 21:58 21.01.2021
3466 Clouds 27 1008 79 10000 3.38 11 21:38 21.01.2021
3467 Clouds 27 1008 81 10000 3.26 10 21:18 21.01.2021
3468 Rain 27 1008 81 10000 3.26 10 20:43 21.01.2021
3469 Clouds 26 1007 81 10000 3.34 9 20:21 21.01.2021
3470 Clouds 26 1007 81 10000 3.34 9 19:47 21.01.2021
3471 Clouds 26 1007 81 10000 3.27 9 19:25 21.01.2021
3472 Clouds 26 1007 81 10000 3.27 9 18:43 21.01.2021
3473 Clouds 26 1006 82 10000 3.17 8 18:22 21.01.2021
3474 Clouds 26 1006 82 10000 3.17 8 17:57 21.01.2021
3475 Clouds 26 1006 82 10000 3.17 8 17:57 21.01.2021
3476 Clouds 27 1006 82 10000 3.18 8 17:21 21.01.2021
3477 Clouds 27 1006 82 10000 3.18 8 16:56 21.01.2021
3478 Clouds 27 1006 82 10000 3.18 8 16:38 21.01.2021
3479 Clouds 27 1007 82 10000 3.12 9 16:19 21.01.2021
3480 Clouds 27 1007 82 10000 3.12 9 15:46 21.01.2021
3481 Clouds 27 1008 81 10000 2.87 9 15:24 21.01.2021
3482 Clouds 27 1008 81 10000 2.87 9 14:44 21.01.2021
3483 Clouds 27 1009 81 10000 2.53 10 14:23 21.01.2021
3484 Clouds 27 1009 81 10000 2.53 10 13:43 21.01.2021
3485 Clouds 27 1009 80 10000 2.43 20 13:23 21.01.2021
3486 Clouds 27 1009 80 10000 2.43 20 12:42 21.01.2021
3487 Clouds 27 1009 80 10000 2.43 20 12:24 21.01.2021
3488 Rain 27 1009 80 10000 2.43 20 11:51 21.01.2021
3489 Clouds 27 1009 80 10000 2.28 18 11:28 21.01.2021
3490 Clouds 27 1009 80 10000 2.28 18 10:52 21.01.2021
3491 Clouds 27 1009 80 10000 2.28 18 10:33 21.01.2021
3492 Clouds 27 1008 80 10000 2.18 14 09:45 21.01.2021
3493 Clouds 27 1007 80 10000 2.23 7 09:25 21.01.2021
3494 Clouds 27 1007 80 10000 2.23 7 09:25 21.01.2021
3495 Clouds 27 1007 80 10000 2.23 7 08:45 21.01.2021
3496 Clouds 27 1007 80 10000 2.23 7 08:45 21.01.2021
3497 Clouds 28 1007 78 10000 2.39 2 08:24 21.01.2021
3498 Clouds 28 1006 76 10000 2.6 358 07:28 21.01.2021
3499 Clouds 29 1006 76 10000 2.77 358 06:54 21.01.2021
3500 Clouds 29 1006 73 10000 3.21 354 05:22 21.01.2021
3501 Clouds 30 1008 66 10000 3.22 350 02:40 21.01.2021
3502 Clouds 30 1009 65 10000 2.82 1 00:54 21.01.2021
3503 Clouds 29 1010 71 10000 2.7 4 23:54 20.01.2021
3504 Clouds 29 1010 71 10000 2.7 4 23:32 20.01.2021
3505 Clouds 28 1010 74 10000 2.81 12 22:58 20.01.2021
3506 Clouds 28 1010 74 10000 2.81 12 22:37 20.01.2021
3507 Clouds 28 1010 76 10000 2.5 14 21:58 20.01.2021
3508 Clouds 28 1010 76 10000 2.5 14 21:58 20.01.2021
3509 Clouds 28 1010 76 10000 2.5 14 21:40 20.01.2021
3510 Clouds 26 1009 78 10000 1.69 17 21:19 20.01.2021
3511 Clouds 26 1009 78 10000 1.69 17 20:38 20.01.2021
3512 Clouds 26 1008 79 10000 1.2 14 20:18 20.01.2021
3513 Clouds 26 1008 79 10000 1.2 14 19:41 20.01.2021
3514 Rain 26 1007 79 10000 0.89 17 19:22 20.01.2021
3515 Clouds 26 1007 79 10000 0.89 17 18:42 20.01.2021
3516 Clouds 26 1007 80 10000 0.6 7 17:57 20.01.2021
3517 Clouds 26 1007 80 10000 0.6 7 17:37 20.01.2021
3518 Clouds 26 1007 81 10000 0.42 26 16:53 20.01.2021
3519 Rain 26 1007 81 10000 0.42 26 16:33 20.01.2021
3520 Rain 26 1007 81 10000 0.16 57 15:51 20.01.2021
3521 Rain 26 1007 81 10000 0.16 57 15:33 20.01.2021
3522 Rain 26 1008 80 10000 0.28 29 14:48 20.01.2021
3523 Clouds 26 1009 78 10000 0.41 73 14:22 20.01.2021
3524 Rain 26 1009 78 10000 0.41 73 13:42 20.01.2021
3525 Rain 26 1010 78 10000 0.41 98 13:21 20.01.2021
3526 Rain 26 1010 78 10000 0.41 98 12:39 20.01.2021
3527 Clouds 26 1009 76 10000 0.74 121 11:55 20.01.2021
3528 Clouds 26 1009 76 10000 0.74 121 11:35 20.01.2021
3529 Clouds 26 1009 76 10000 0.76 121 10:56 20.01.2021
3530 Clouds 26 1009 76 10000 0.76 121 10:32 20.01.2021
3531 Clouds 26 1008 77 10000 0.71 110 09:50 20.01.2021
3532 Clouds 27 1007 76 10000 0.81 57 09:24 20.01.2021
3533 Clouds 27 1007 76 10000 0.81 57 08:49 20.01.2021
3534 Clouds 28 1007 71 10000 1.15 22 08:27 20.01.2021
3535 Clouds 28 1007 71 10000 1.15 22 07:56 20.01.2021
3536 Clouds 29 1007 67 10000 1.51 3 07:25 20.01.2021
3537 Clouds 30 1007 62 10000 2.04 5 05:38 20.01.2021
3538 Clouds 29 1009 63 10000 0.72 41 03:22 20.01.2021
3539 Rain 30 1010 62 10000 1.94 24 00:59 20.01.2021
3540 Rain 30 1010 62 10000 1.94 24 00:31 20.01.2021
3541 Rain 29 1011 68 10000 1.44 26 23:46 19.01.2021
3542 Rain 28 1010 72 10000 1.5 20 23:19 19.01.2021
3543 Rain 28 1010 72 10000 1.5 20 22:42 19.01.2021
3544 Rain 27 1010 78 10000 1.56 34 22:22 19.01.2021
3545 Rain 27 1010 78 10000 1.56 34 21:58 19.01.2021
3546 Rain 27 1010 78 10000 1.56 34 21:40 19.01.2021
3547 Rain 26 1009 81 10000 1.49 39 21:18 19.01.2021
3548 Rain 26 1009 81 10000 1.49 39 20:40 19.01.2021
3549 Clouds 26 1009 82 6755 2.19 28 20:22 19.01.2021
3550 Clouds 26 1009 82 6755 2.19 28 19:41 19.01.2021
3551 Clouds 26 1009 82 8661 1.29 32 19:19 19.01.2021
3552 Clouds 26 1009 82 8661 1.29 32 18:39 19.01.2021
3553 Clouds 26 1008 81 9510 1.28 36 18:21 19.01.2021
3554 Clouds 26 1008 81 9510 1.28 36 17:45 19.01.2021
3555 Clouds 27 1008 81 10000 1.55 29 17:23 19.01.2021
3556 Clouds 27 1008 81 10000 1.55 29 16:44 19.01.2021
3557 Clouds 27 1008 80 10000 1.61 27 16:24 19.01.2021
3558 Clouds 27 1008 80 10000 1.61 27 15:54 19.01.2021
3559 Clouds 27 1008 80 10000 1.61 27 15:34 19.01.2021
3560 Clouds 27 1009 80 10000 1.69 24 14:50 19.01.2021
3561 Clouds 27 1010 79 10000 1.7 27 14:29 19.01.2021
3562 Clouds 27 1010 79 10000 1.7 27 13:53 19.01.2021
3563 Clouds 27 1011 79 10000 1.74 25 13:28 19.01.2021
3564 Clouds 27 1011 79 10000 1.74 25 12:58 19.01.2021
3565 Clouds 27 1011 79 10000 1.8 21 12:34 19.01.2021
3566 Clouds 27 1010 78 10000 1.68 26 11:57 19.01.2021
3567 Clouds 27 1010 78 10000 1.68 26 11:37 19.01.2021
3568 Clouds 27 1010 78 10000 1.68 26 11:37 19.01.2021
3569 Clouds 27 1010 78 10000 1.51 35 11:19 19.01.2021
3570 Clouds 27 1010 78 10000 1.51 35 10:41 19.01.2021
3571 Clouds 27 1009 78 10000 1.52 35 10:19 19.01.2021
3572 Clouds 27 1009 78 10000 1.52 35 09:46 19.01.2021
3573 Clouds 27 1008 77 10000 1.84 30 09:20 19.01.2021
3574 Clouds 27 1008 77 10000 1.84 30 08:34 19.01.2021
3575 Clouds 29 1008 74 10000 2.29 28 07:53 19.01.2021
3576 Clouds 29 1007 72 10000 2.69 31 07:18 19.01.2021
3577 Clouds 30 1008 67 10000 2.73 35 04:18 19.01.2021
3578 Clouds 31 1009 60 10000 3.16 51 02:22 19.01.2021
3579 Clouds 31 1010 59 10000 2.97 67 00:37 19.01.2021
3580 Clouds 31 1010 61 10000 3.02 81 23:48 18.01.2021
3581 Clouds 30 1010 65 10000 2.83 92 23:25 18.01.2021
3582 Clouds 30 1010 65 10000 2.83 92 22:43 18.01.2021
3583 Clouds 28 1009 72 10000 2.52 104 22:21 18.01.2021
3584 Clouds 28 1009 72 10000 2.52 104 21:47 18.01.2021
3585 Clouds 26 1009 75 10000 2.33 118 21:23 18.01.2021
3586 Clouds 26 1009 75 10000 2.33 118 20:55 18.01.2021
3587 Clouds 26 1009 75 10000 2.33 118 20:33 18.01.2021
3588 Clouds 26 1008 76 10000 2.21 127 19:54 18.01.2021
3589 Clouds 26 1008 76 10000 2.21 127 19:34 18.01.2021
3590 Clouds 26 1007 79 10000 1.88 120 18:48 18.01.2021
3591 Clouds 26 1007 79 10000 2.08 121 18:26 18.01.2021
3592 Clouds 26 1007 79 10000 2.08 121 17:47 18.01.2021
3593 Clouds 26 1007 79 10000 2.29 117 17:28 18.01.2021
3594 Clouds 26 1007 79 10000 2.29 117 16:50 18.01.2021
3595 Clouds 26 1007 78 10000 2.42 121 16:25 18.01.2021
3596 Clouds 26 1007 78 10000 2.42 121 15:51 18.01.2021
3597 Clouds 26 1008 78 10000 2.52 118 15:27 18.01.2021
3598 Clouds 26 1008 78 10000 2.52 118 14:47 18.01.2021
3599 Clouds 26 1009 78 10000 2.45 119 14:28 18.01.2021
3600 Clouds 26 1009 78 10000 2.45 119 13:56 18.01.2021
3601 Clouds 26 1009 78 10000 2.45 119 13:38 18.01.2021
3602 Clouds 26 1009 79 10000 2.65 120 13:20 18.01.2021
3603 Clouds 26 1009 78 10000 2.52 126 12:42 18.01.2021
3604 Clouds 27 1009 79 10000 2.61 122 12:18 18.01.2021
3605 Clouds 27 1009 79 10000 2.61 122 11:41 18.01.2021
3606 Clouds 27 1008 80 10000 2.56 114 11:23 18.01.2021
3607 Clouds 27 1008 80 10000 2.56 114 10:47 18.01.2021
3608 Clouds 27 1007 81 10000 2.47 105 10:20 18.01.2021
3609 Clouds 27 1007 81 10000 2.47 105 09:39 18.01.2021
3610 Clouds 27 1007 80 10000 2.41 90 09:18 18.01.2021
3611 Clouds 29 1006 77 10000 2.07 82 08:25 18.01.2021
3612 Clouds 29 1006 77 10000 2.07 82 07:48 18.01.2021
3613 Clouds 29 1006 74 10000 1.89 73 06:32 18.01.2021
3614 Clouds 30 1007 71 10000 1.95 54 04:41 18.01.2021
3615 Clouds 31 1007 65 10000 2.13 55 04:20 18.01.2021
3616 Clouds 31 1007 65 10000 2.13 55 03:45 18.01.2021
3617 Clouds 31 1008 65 10000 2.45 69 03:23 18.01.2021
3618 Clouds 31 1008 65 10000 2.45 69 02:51 18.01.2021
3619 Clouds 30 1008 69 10000 2.97 81 01:56 18.01.2021
3620 Clouds 30 1008 71 10000 3.31 86 00:39 18.01.2021
3621 Clouds 30 1009 68 10000 3.63 83 23:49 17.01.2021
3622 Clouds 29 1009 71 10000 3.2 92 23:24 17.01.2021
3623 Clouds 29 1009 71 10000 3.2 92 22:47 17.01.2021
3624 Clouds 28 1008 78 10000 3.08 100 22:22 17.01.2021
3625 Clouds 28 1008 78 10000 3.08 100 21:42 17.01.2021
3626 Clouds 27 1008 82 10000 3.17 107 21:24 17.01.2021
3627 Clouds 27 1008 82 10000 3.17 107 20:49 17.01.2021
3628 Clouds 27 1008 82 10000 3.17 107 20:30 17.01.2021
3629 Clouds 26 1007 83 10000 3.21 112 19:43 17.01.2021
3630 Clouds 26 1007 82 10000 3.22 115 19:25 17.01.2021
3631 Clouds 26 1007 82 10000 3.22 115 19:25 17.01.2021
3632 Clouds 26 1007 82 10000 2.98 122 18:49 17.01.2021
3633 Clouds 26 1006 81 10000 2.77 119 18:27 17.01.2021
3634 Clouds 26 1006 81 10000 2.77 119 17:49 17.01.2021
3635 Clouds 26 1007 81 10000 2.45 116 17:28 17.01.2021
3636 Clouds 26 1007 81 10000 2.45 116 16:44 17.01.2021
3637 Clouds 26 1007 80 10000 2.37 116 16:24 17.01.2021
3638 Clouds 26 1007 80 10000 2.37 116 15:44 17.01.2021
3639 Clouds 26 1008 80 10000 2.71 119 15:25 17.01.2021
3640 Clouds 26 1008 80 10000 2.71 119 14:50 17.01.2021
3641 Clouds 26 1009 80 10000 2.94 124 14:26 17.01.2021
3642 Clouds 26 1009 80 10000 2.94 124 13:47 17.01.2021
3643 Clouds 26 1009 80 10000 2.96 128 13:29 17.01.2021
3644 Clouds 26 1009 80 10000 2.96 128 12:55 17.01.2021
3645 Clouds 26 1009 80 10000 3.04 124 12:32 17.01.2021
3646 Clear 26 1009 80 10000 2.67 129 11:59 17.01.2021
3647 Clear 27 1009 80 10000 2.01 134 11:24 17.01.2021
3648 Clear 27 1009 80 10000 2.01 134 10:49 17.01.2021
3649 Clear 27 1008 79 10000 1.51 125 10:21 17.01.2021
3650 Clear 27 1008 79 10000 1.51 125 09:44 17.01.2021
3651 Rain 27 1008 77 10000 1.26 96 08:46 17.01.2021
3652 Clear 29 1007 73 10000 1.37 67 07:46 17.01.2021
3653 Clouds 30 1007 69 10000 1.59 30 04:29 17.01.2021
3654 Clouds 30 1008 66 10000 1.64 23 02:48 17.01.2021
3655 Clouds 31 1009 61 10000 1.97 50 00:51 17.01.2021
3656 Clouds 31 1009 61 10000 1.97 50 00:51 17.01.2021
3657 Clouds 30 1010 63 10000 1.46 68 00:18 17.01.2021
3658 Clouds 30 1010 63 10000 1.46 68 23:49 16.01.2021
3659 Clouds 29 1010 70 10000 1.34 92 23:20 16.01.2021
3660 Clouds 29 1010 70 10000 1.34 92 22:45 16.01.2021
3661 Clouds 27 1010 76 10000 1.21 115 21:58 16.01.2021
3662 Clouds 27 1010 76 10000 1.21 115 21:37 16.01.2021
3663 Clouds 26 1009 79 10000 1.32 128 21:18 16.01.2021
3664 Clouds 26 1009 79 10000 1.32 128 20:42 16.01.2021
3665 Clouds 25 1008 80 10000 1.18 123 20:21 16.01.2021
3666 Clouds 25 1008 80 10000 1.18 123 19:44 16.01.2021
3667 Clouds 25 1007 80 10000 1.04 133 19:24 16.01.2021
3668 Clouds 25 1007 80 10000 1.04 133 19:24 16.01.2021
3669 Clouds 25 1007 79 10000 1.17 136 18:43 16.01.2021
3670 Clouds 25 1007 79 10000 1.17 136 18:43 16.01.2021
3671 Clouds 25 1006 79 10000 1.12 139 18:24 16.01.2021
3672 Clouds 25 1006 79 10000 1.12 139 17:47 16.01.2021
3673 Clouds 25 1007 80 10000 1.01 150 17:28 16.01.2021
3674 Clouds 25 1007 80 10000 1.01 150 16:47 16.01.2021
3675 Clouds 25 1007 80 10000 1.07 158 16:26 16.01.2021
3676 Clouds 25 1007 80 10000 1.07 158 15:51 16.01.2021
3677 Clouds 26 1008 81 10000 1.24 161 15:20 16.01.2021
3678 Clouds 26 1009 81 10000 1.18 150 14:21 16.01.2021
3679 Clouds 26 1009 81 10000 1.18 150 13:48 16.01.2021
3680 Clouds 26 1009 80 10000 1.2 134 13:21 16.01.2021
3681 Clouds 26 1009 80 10000 1.32 123 12:39 16.01.2021
3682 Clouds 26 1009 79 10000 1.25 92 12:20 16.01.2021
3683 Clouds 26 1009 79 10000 1.25 92 11:48 16.01.2021
3684 Clouds 26 1009 79 10000 1.39 68 11:24 16.01.2021
3685 Clouds 26 1009 79 10000 1.39 68 10:46 16.01.2021
3686 Clouds 27 1008 79 10000 1.59 60 10:21 16.01.2021
3687 Clouds 27 1008 79 10000 1.59 60 09:33 16.01.2021
3688 Clouds 27 1008 79 10000 1.64 66 08:35 16.01.2021
3689 Clouds 27 1007 78 10000 1.73 69 07:32 16.01.2021
3690 Clouds 28 1006 75 10000 1.35 45 06:43 16.01.2021
3691 Clouds 28 1006 74 10000 1.62 34 04:39 16.01.2021
3692 Clouds 30 1007 67 10000 2.63 26 02:56 16.01.2021
3693 Rain 29 1007 70 10000 3.11 26 00:50 16.01.2021
3694 Rain 29 1008 68 10000 3.07 25 00:28 16.01.2021
3695 Clouds 29 1008 68 10000 3.07 25 23:55 15.01.2021
3696 Rain 29 1008 68 10000 2.37 38 22:56 15.01.2021
3697 Rain 28 1008 71 10000 1.95 57 22:24 15.01.2021
3698 Clouds 28 1008 71 10000 1.95 57 21:46 15.01.2021
3699 Rain 27 1007 75 10000 1.8 66 20:58 15.01.2021
3700 Rain 27 1007 75 10000 1.8 66 20:40 15.01.2021
3701 Clouds 26 1006 76 10000 1.79 62 20:19 15.01.2021
3702 Clouds 26 1006 76 10000 1.79 62 19:40 15.01.2021
3703 Rain 26 1005 76 10000 1.53 58 19:22 15.01.2021
3704 Rain 26 1005 76 10000 1.53 58 18:43 15.01.2021
3705 Rain 26 1005 76 10000 1.69 50 18:19 15.01.2021
3706 Rain 26 1005 76 10000 1.69 50 17:51 15.01.2021
3707 Rain 26 1005 77 10000 1.9 37 17:24 15.01.2021
3708 Rain 26 1005 77 10000 1.9 37 16:52 15.01.2021
3709 Rain 27 1005 76 10000 1.94 26 16:25 15.01.2021
3710 Clouds 27 1005 76 10000 1.94 26 15:42 15.01.2021
3711 Clouds 27 1006 76 10000 1.95 24 15:22 15.01.2021
3712 Clouds 27 1006 76 10000 1.95 24 14:48 15.01.2021
3713 Clouds 27 1007 76 10000 1.9 22 14:27 15.01.2021
3714 Clouds 27 1007 76 10000 1.9 22 13:43 15.01.2021
3715 Clouds 27 1007 76 10000 1.77 14 13:23 15.01.2021
3716 Clouds 27 1007 75 10000 1.62 18 12:58 15.01.2021
3717 Clouds 27 1007 75 10000 1.62 18 12:33 15.01.2021
3718 Clouds 27 1007 75 10000 1.14 25 11:56 15.01.2021
3719 Clouds 27 1007 75 10000 1.14 25 11:36 15.01.2021
3720 Clouds 27 1007 75 10000 1.02 27 10:57 15.01.2021
3721 Clouds 27 1007 75 10000 1.02 27 10:39 15.01.2021
3722 Clouds 27 1006 75 10000 1.14 31 10:19 15.01.2021
3723 Clouds 27 1006 75 10000 1.14 31 09:41 15.01.2021
3724 Clouds 27 1005 74 10000 1.61 30 09:20 15.01.2021
3725 Clouds 29 1004 69 10000 1.88 26 08:25 15.01.2021
3726 Clouds 29 1004 69 10000 1.88 26 07:41 15.01.2021
3727 Clouds 30 1004 63 10000 1.9 23 07:20 15.01.2021
3728 Clouds 30 1003 60 10000 1.65 28 05:35 15.01.2021
3729 Clouds 31 1006 61 10000 2.74 42 01:52 15.01.2021
3730 Rain 30 1007 64 10000 2.04 59 23:55 14.01.2021
3731 Clouds 29 1007 67 10000 1.74 72 23:28 14.01.2021
3732 Rain 29 1007 67 10000 1.74 72 22:48 14.01.2021
3733 Clouds 28 1007 71 10000 1.36 91 22:25 14.01.2021
3734 Clouds 28 1007 71 10000 1.36 91 21:49 14.01.2021
3735 Clouds 26 1006 77 10000 1.25 113 21:21 14.01.2021
3736 Clouds 26 1006 77 10000 1.25 113 20:52 14.01.2021
3737 Clouds 26 1005 79 10000 1.18 121 20:27 14.01.2021
3738 Clouds 26 1005 79 10000 1.18 121 19:48 14.01.2021
3739 Clouds 26 1005 79 10000 1.11 115 19:29 14.01.2021
3740 Clouds 26 1005 79 10000 1.11 115 18:55 14.01.2021
3741 Clouds 26 1005 79 10000 1 109 18:31 14.01.2021
3742 Clouds 26 1005 79 10000 0.82 99 17:53 14.01.2021
3743 Clouds 26 1005 78 10000 0.75 102 17:27 14.01.2021
3744 Clouds 26 1005 78 10000 0.75 102 16:46 14.01.2021
3745 Clouds 26 1005 77 10000 0.79 101 16:26 14.01.2021
3746 Clouds 26 1005 77 10000 0.79 101 15:46 14.01.2021
3747 Clouds 26 1006 76 10000 0.76 89 15:23 14.01.2021
3748 Clouds 26 1006 76 10000 0.76 89 14:39 14.01.2021
3749 Clouds 26 1007 75 10000 0.64 82 14:20 14.01.2021
3750 Clouds 26 1007 75 10000 0.64 82 13:53 14.01.2021
3751 Clouds 26 1008 75 10000 0.84 76 13:22 14.01.2021
3752 Clouds 26 1008 75 10000 0.84 76 12:51 14.01.2021
3753 Clouds 26 1008 75 10000 0.99 69 12:20 14.01.2021
3754 Clouds 26 1008 75 10000 0.99 69 11:50 14.01.2021
3755 Clouds 26 1007 75 10000 0.95 51 11:21 14.01.2021
3756 Clouds 26 1007 75 10000 0.95 51 10:54 14.01.2021
3757 Clouds 26 1007 75 10000 1.1 47 10:29 14.01.2021
3758 Clouds 26 1007 75 10000 1.1 47 09:48 14.01.2021
3759 Clouds 27 1006 74 10000 1.45 36 09:23 14.01.2021
3760 Rain 27 1006 74 10000 1.45 36 08:52 14.01.2021
3761 Rain 28 1005 69 10000 1.84 23 08:28 14.01.2021
3762 Rain 28 1005 69 10000 1.84 23 07:50 14.01.2021
3763 Rain 29 1005 64 10000 2.12 17 06:59 14.01.2021
3764 Rain 30 1004 63 10000 2.67 24 05:56 14.01.2021
3765 Clouds 30 1007 61 10000 3.23 22 01:42 14.01.2021
3766 Clouds 30 1008 67 10000 3.33 28 23:55 13.01.2021
3767 Rain 29 1008 72 10000 3.27 29 23:23 13.01.2021
3768 Rain 29 1008 72 10000 3.27 29 22:30 13.01.2021
3769 Rain 28 1008 77 10000 3 32 21:57 13.01.2021
3770 Rain 28 1008 77 10000 3 32 21:39 13.01.2021
3771 Clouds 27 1007 80 10000 2.53 33 20:59 13.01.2021
3772 Clouds 27 1007 80 10000 2.53 33 20:37 13.01.2021
3773 Clouds 26 1007 81 10000 2.48 29 20:18 13.01.2021
3774 Clouds 26 1007 81 10000 2.48 29 19:42 13.01.2021
3775 Rain 26 1006 81 10000 2.1 26 19:20 13.01.2021
3776 Rain 26 1006 82 10000 1.28 23 18:41 13.01.2021
3777 Rain 26 1006 82 10000 1.01 38 17:51 13.01.2021
3778 Clouds 26 1006 81 10000 0.93 27 17:26 13.01.2021
3779 Clouds 26 1006 81 10000 0.93 27 16:58 13.01.2021
3780 Clouds 26 1006 79 10000 0.63 86 16:22 13.01.2021
3781 Clouds 26 1006 79 10000 0.63 86 15:56 13.01.2021
3782 Clouds 26 1006 79 10000 0.63 86 15:38 13.01.2021
3783 Clouds 26 1007 79 10000 0.89 128 14:49 13.01.2021
3784 Clouds 26 1008 78 10000 1.11 155 13:55 13.01.2021
3785 Clouds 26 1008 78 10000 1.11 155 13:32 13.01.2021
3786 Clouds 26 1009 79 10000 1.05 131 12:47 13.01.2021
3787 Clouds 26 1008 78 10000 1.15 115 12:29 13.01.2021
3788 Clouds 26 1008 78 10000 1.15 115 11:59 13.01.2021
3789 Clouds 26 1008 78 10000 1.15 115 11:40 13.01.2021
3790 Clouds 26 1008 77 10000 0.96 100 11:22 13.01.2021
3791 Rain 26 1008 77 10000 0.96 100 10:41 13.01.2021
3792 Clouds 26 1008 76 10000 0.81 73 10:22 13.01.2021
3793 Clouds 26 1008 76 10000 0.81 73 09:34 13.01.2021
3794 Clouds 26 1007 77 10000 1.01 52 08:53 13.01.2021
3795 Clouds 26 1007 77 10000 1.01 52 08:32 13.01.2021
3796 Clouds 27 1006 75 10000 1.31 46 07:37 13.01.2021
3797 Clouds 28 1006 73 10000 1.5 37 06:58 13.01.2021
3798 Clouds 29 1007 65 10000 0.59 336 04:21 13.01.2021
3799 Rain 29 1007 65 10000 0.59 336 03:48 13.01.2021
3800 Rain 29 1008 65 10000 0.79 5 03:29 13.01.2021
3801 Clouds 28 1009 66 10000 0.86 18 01:44 13.01.2021
3802 Clouds 27 1009 75 10000 0.57 182 00:29 13.01.2021
3803 Clouds 26 1009 77 10000 1.14 193 23:24 12.01.2021
3804 Rain 26 1009 77 10000 1.14 193 22:47 12.01.2021
3805 Clouds 25 1009 79 10000 1.03 186 22:24 12.01.2021
3806 Clouds 25 1009 79 10000 1.03 186 21:53 12.01.2021
3807 Rain 25 1009 79 10000 1.03 186 21:31 12.01.2021
3808 Rain 25 1008 81 10000 1 191 20:49 12.01.2021
3809 Rain 24 1008 83 10000 1.29 202 20:27 12.01.2021
3810 Rain 24 1008 83 10000 1.29 202 19:55 12.01.2021
3811 Clouds 24 1008 83 10000 1.29 202 19:35 12.01.2021
3812 Clouds 24 1007 85 10000 1.72 205 18:46 12.01.2021
3813 Rain 24 1006 88 4632 1.48 251 18:24 12.01.2021
3814 Rain 24 1006 88 4632 1.48 251 17:44 12.01.2021
3815 Rain 24 1006 88 2247 1.55 263 17:25 12.01.2021
3816 Rain 24 1006 88 2247 1.55 263 16:44 12.01.2021
3817 Rain 24 1007 88 1351 1.67 283 16:24 12.01.2021
3818 Rain 24 1007 88 1351 1.67 283 15:41 12.01.2021
3819 Rain 25 1008 89 761 2.41 318 15:21 12.01.2021
3820 Rain 25 1008 89 761 2.41 318 14:43 12.01.2021
3821 Rain 25 1009 89 697 2.73 345 14:23 12.01.2021
3822 Rain 25 1009 89 697 2.73 345 13:52 12.01.2021
3823 Rain 25 1009 89 940 2.32 341 13:18 12.01.2021
3824 Rain 25 1009 89 859 2.93 350 12:24 12.01.2021
3825 Clouds 25 1009 89 859 2.93 350 11:41 12.01.2021
3826 Clouds 25 1009 90 1778 1.93 2 10:55 12.01.2021
3827 Clouds 25 1008 89 2105 1.04 338 10:25 12.01.2021
3828 Clouds 25 1008 89 2105 1.04 338 09:58 12.01.2021
3829 Clouds 25 1007 89 1258 1.12 297 09:29 12.01.2021
3830 Clouds 25 1007 89 1258 1.12 297 08:54 12.01.2021
3831 Clouds 26 1006 89 1557 1.5 311 08:26 12.01.2021
3832 Clouds 26 1006 89 1557 1.5 311 07:37 12.01.2021
3833 Clouds 26 1005 85 2837 2.62 344 06:39 12.01.2021
3834 Clouds 27 1005 84 3481 3.04 341 05:34 12.01.2021
3835 Clouds 29 1007 79 5689 3.78 4 03:27 12.01.2021
3836 Clouds 29 1007 76 10000 2.51 11 02:19 12.01.2021
3837 Clouds 29 1008 74 7428 1.99 13 01:28 12.01.2021
3838 Clouds 28 1008 77 10000 0.86 1 23:57 11.01.2021
3839 Clouds 28 1008 77 10000 0.86 1 23:36 11.01.2021
3840 Clouds 27 1009 79 10000 0.31 193 23:18 11.01.2021
3841 Clouds 27 1009 79 10000 0.31 193 22:44 11.01.2021
3842 Clouds 27 1008 81 10000 0.66 188 22:26 11.01.2021
3843 Clouds 27 1008 81 10000 0.66 188 21:39 11.01.2021
3844 Clouds 26 1008 84 10000 0.55 208 21:21 11.01.2021
3845 Clouds 27 1008 79 10000 1.14 198 20:41 11.01.2021
3846 Clouds 26 1007 82 10000 1.14 200 20:23 11.01.2021
3847 Clouds 26 1007 82 10000 1.14 200 19:55 11.01.2021
3848 Clouds 26 1007 82 10000 1.14 200 19:30 11.01.2021
3849 Clouds 26 1006 84 10000 0.77 194 18:45 11.01.2021
3850 Clouds 26 1006 84 10000 0.5 180 18:26 11.01.2021
3851 Clouds 26 1006 84 10000 0.5 180 17:54 11.01.2021
3852 Clouds 26 1006 84 10000 0.5 180 17:36 11.01.2021
3853 Clouds 26 1006 84 10000 0.5 180 17:36 11.01.2021
3854 Clouds 26 1006 82 10000 0.44 226 17:18 11.01.2021
3855 Clouds 26 1006 82 10000 0.44 226 16:38 11.01.2021
3856 Clouds 26 1006 82 10000 1.19 265 16:19 11.01.2021
3857 Clouds 26 1006 82 10000 1.19 265 15:47 11.01.2021
3858 Clouds 26 1007 83 10000 1.37 293 15:26 11.01.2021
3859 Clouds 26 1007 83 10000 1.37 293 14:39 11.01.2021
3860 Clouds 26 1008 83 10000 1.75 304 13:50 11.01.2021
3861 Clouds 26 1009 83 10000 1.95 312 13:25 11.01.2021
3862 Clouds 26 1008 83 10000 1.83 290 12:49 11.01.2021
3863 Clouds 26 1008 83 10000 1.83 290 12:30 11.01.2021
3864 Clouds 26 1008 83 10000 2.18 317 11:56 11.01.2021
3865 Clouds 27 1008 83 10000 2.79 342 11:26 11.01.2021
3866 Clouds 27 1008 83 10000 2.79 342 10:47 11.01.2021
3867 Clouds 27 1008 80 10000 2.52 353 10:24 11.01.2021
3868 Clouds 27 1008 80 10000 2.52 353 09:39 11.01.2021
3869 Clouds 27 1007 78 10000 1.51 348 09:20 11.01.2021
3870 Clouds 27 1007 78 10000 1.51 348 08:44 11.01.2021
3871 Clouds 28 1006 77 10000 1.24 325 08:18 11.01.2021
3872 Rain 29 1006 77 8905 1.57 305 07:26 11.01.2021
3873 Rain 29 1006 77 8905 1.57 305 06:58 11.01.2021
3874 Rain 30 1007 72 8235 1.59 340 03:27 11.01.2021
3875 Clouds 31 1008 62 10000 1.63 26 01:29 11.01.2021
3876 Clouds 31 1008 62 10000 1.63 26 01:29 11.01.2021
3877 Clouds 31 1008 63 10000 1.94 64 23:59 10.01.2021
3878 Clouds 31 1008 63 10000 1.94 64 23:30 10.01.2021
3879 Clouds 30 1008 65 10000 1.68 80 22:48 10.01.2021
3880 Clouds 29 1008 70 10000 1.22 135 22:23 10.01.2021
3881 Clouds 29 1008 70 10000 1.22 135 21:44 10.01.2021
3882 Clouds 27 1008 74 10000 1.71 158 21:20 10.01.2021
3883 Clouds 27 1008 74 10000 1.71 158 20:53 10.01.2021
3884 Clouds 27 1008 74 10000 1.71 158 20:32 10.01.2021
3885 Clouds 27 1007 74 10000 1.95 165 19:43 10.01.2021
3886 Clouds 27 1007 74 10000 1.95 165 19:43 10.01.2021
3887 Clouds 27 1006 74 10000 1.98 178 19:24 10.01.2021
3888 Clouds 27 1006 74 10000 1.98 178 18:47 10.01.2021
3889 Clouds 27 1005 75 10000 1.93 157 18:21 10.01.2021
3890 Clouds 27 1005 75 10000 1.93 157 18:21 10.01.2021
3891 Rain 26 1006 76 10000 2.14 157 17:28 10.01.2021
3892 Clouds 26 1006 76 10000 2.14 157 16:58 10.01.2021
3893 Clouds 26 1006 76 10000 2.14 157 16:32 10.01.2021
3894 Clouds 26 1006 76 10000 2.28 158 15:54 10.01.2021
3895 Clouds 27 1007 77 10000 2.22 158 15:25 10.01.2021
3896 Clouds 27 1007 77 10000 2.22 158 15:25 10.01.2021
3897 Clouds 27 1007 77 10000 2.22 158 14:44 10.01.2021
3898 Clouds 27 1008 77 10000 1.96 154 14:25 10.01.2021
3899 Clouds 27 1008 77 10000 1.96 154 13:54 10.01.2021
3900 Clouds 27 1008 77 10000 1.96 154 13:36 10.01.2021
3901 Clouds 27 1008 77 10000 1.8 142 13:18 10.01.2021
3902 Clouds 27 1009 76 10000 2.12 132 12:42 10.01.2021
3903 Clouds 27 1008 77 10000 1.82 125 11:58 10.01.2021
3904 Clouds 28 1008 78 10000 1.79 107 11:22 10.01.2021
3905 Clouds 28 1008 78 10000 1.79 107 10:53 10.01.2021
3906 Clouds 28 1007 77 10000 1.87 96 10:25 10.01.2021
3907 Clouds 28 1007 77 10000 1.87 96 09:46 10.01.2021
3908 Clouds 28 1007 76 10000 1.81 83 08:50 10.01.2021
3909 Clouds 29 1007 73 10000 1.65 67 08:18 10.01.2021
3910 Clouds 30 1006 70 10000 2.5 65 06:52 10.01.2021
3911 Clouds 31 1006 68 10000 2.48 55 06:18 10.01.2021
3912 Clouds 31 1006 64 10000 2.49 53 05:28 10.01.2021
3913 Clouds 32 1007 58 10000 2.72 52 02:42 10.01.2021
3914 Clouds 30 1009 60 10000 1.77 84 00:25 10.01.2021
3915 Clouds 30 1009 60 10000 1.77 84 23:42 09.01.2021
3916 Rain 30 1009 61 10000 1.44 101 23:22 09.01.2021
3917 Rain 28 1008 67 10000 1.27 142 22:25 09.01.2021
3918 Clouds 28 1008 67 10000 1.27 142 21:59 09.01.2021
3919 Clouds 28 1008 67 10000 1.27 142 21:39 09.01.2021
3920 Clouds 26 1008 71 10000 1.46 162 21:21 09.01.2021
3921 Clouds 26 1008 71 10000 1.46 162 20:56 09.01.2021
3922 Clouds 26 1008 71 10000 1.46 162 20:32 09.01.2021
3923 Clouds 26 1008 73 10000 1.5 154 19:40 09.01.2021
3924 Clouds 26 1007 74 10000 1.46 153 19:21 09.01.2021
3925 Clouds 26 1007 74 10000 1.61 152 18:38 09.01.2021
3926 Clouds 26 1007 74 10000 1.61 152 18:38 09.01.2021
3927 Rain 26 1007 74 10000 1.49 152 18:18 09.01.2021
3928 Clouds 26 1007 74 10000 1.49 152 17:41 09.01.2021
3929 Clouds 26 1007 75 10000 1.48 151 17:22 09.01.2021
3930 Clouds 26 1007 74 10000 1.47 160 16:28 09.01.2021
3931 Clouds 26 1007 74 10000 1.47 160 15:41 09.01.2021
3932 Clouds 26 1007 74 10000 1.34 151 15:22 09.01.2021
3933 Clouds 26 1007 74 10000 1.34 151 14:37 09.01.2021
3934 Clouds 27 1008 74 10000 1.27 139 14:19 09.01.2021
3935 Clouds 27 1008 74 10000 1.27 139 13:45 09.01.2021
3936 Clouds 27 1009 74 10000 1.21 137 13:27 09.01.2021
3937 Clouds 27 1009 75 10000 1.02 118 12:29 09.01.2021
3938 Clouds 27 1009 75 10000 1.02 118 12:29 09.01.2021
3939 Clouds 27 1009 75 10000 1.02 118 11:59 09.01.2021
3940 Clouds 27 1009 75 10000 1.02 118 11:40 09.01.2021
3941 Clouds 27 1009 75 10000 1.07 124 11:22 09.01.2021
3942 Clouds 27 1009 75 10000 1.07 124 10:48 09.01.2021
3943 Clouds 27 1008 74 10000 0.47 129 10:25 09.01.2021
3944 Clouds 27 1008 74 10000 0.47 129 09:44 09.01.2021
3945 Clouds 27 1008 74 10000 0.47 129 09:44 09.01.2021
3946 Clouds 27 1007 74 10000 0.41 44 09:20 09.01.2021
3947 Clouds 28 1006 71 10000 0.84 29 08:19 09.01.2021
3948 Clouds 29 1006 65 10000 1.23 26 06:54 09.01.2021
3949 Rain 29 1006 65 10000 1.37 41 06:34 09.01.2021
3950 Rain 31 1006 60 10000 2.27 39 03:53 09.01.2021
3951 Clear 31 1007 60 10000 2.42 34 02:41 09.01.2021
3952 Rain 31 1007 59 10000 2.33 32 02:23 09.01.2021
3953 Rain 31 1007 59 10000 2.33 32 02:23 09.01.2021
3954 Clouds 30 1008 60 10000 1.99 32 01:25 09.01.2021
3955 Clouds 30 1008 60 10000 1.64 37 00:33 09.01.2021
3956 Clouds 30 1008 60 10000 1.64 37 00:33 09.01.2021
3957 Clouds 30 1008 60 10000 1.64 37 00:33 09.01.2021
3958 Rain 30 1008 64 10000 1.58 43 23:45 08.01.2021
3959 Rain 29 1008 70 10000 0.87 76 22:43 08.01.2021
3960 Clouds 27 1008 76 10000 1.02 107 21:52 08.01.2021
3961 Clouds 26 1007 79 10000 1.42 126 20:59 08.01.2021
3962 Clouds 26 1007 79 10000 1.42 126 20:35 08.01.2021
3963 Rain 25 1007 80 10000 1.26 144 19:57 08.01.2021
3964 Clouds 25 1007 79 10000 1.15 126 19:25 08.01.2021
3965 Clouds 25 1007 79 10000 1.15 126 18:54 08.01.2021
3966 Rain 25 1007 79 10000 1.15 156 18:32 08.01.2021
3967 Rain 25 1006 79 10000 0.75 171 17:53 08.01.2021
3968 Rain 25 1006 79 10000 0.02 3 17:25 08.01.2021
3969 Clouds 25 1006 79 10000 0.02 3 16:47 08.01.2021
3970 Rain 25 1007 78 10000 0.56 284 15:48 08.01.2021
3971 Clouds 25 1007 78 10000 0.63 131 15:27 08.01.2021
3972 Rain 25 1007 78 10000 0.63 131 14:37 08.01.2021
3973 Rain 25 1008 81 10000 1.99 195 13:50 08.01.2021
3974 Clouds 25 1008 85 10000 1.52 191 13:21 08.01.2021
3975 Clouds 25 1008 85 10000 1.52 191 12:50 08.01.2021
3976 Rain 25 1009 88 3137 1.47 78 12:20 08.01.2021
3977 Rain 25 1009 88 3137 1.47 78 11:46 08.01.2021
3978 Clouds 25 1009 89 1594 1.86 44 11:28 08.01.2021
3979 Clouds 25 1009 89 1594 1.86 44 10:53 08.01.2021
3980 Clouds 25 1009 89 1594 1.86 44 10:35 08.01.2021
3981 Clouds 25 1008 89 1390 2.88 29 09:53 08.01.2021
3982 Clouds 25 1008 89 1390 2.88 29 09:31 08.01.2021
3983 Clouds 25 1007 89 909 4.02 27 08:39 08.01.2021
3984 Clouds 26 1005 89 641 4.71 25 07:29 08.01.2021
3985 Clouds 27 1005 85 4265 5.15 29 06:21 08.01.2021
3986 Clouds 31 1007 62 10000 2.31 357 00:22 08.01.2021
3987 Clouds 31 1007 62 10000 2.31 357 23:41 07.01.2021
3988 Clouds 30 1007 64 10000 1.13 358 22:47 07.01.2021
3989 Clouds 29 1007 68 10000 0.18 353 22:26 07.01.2021
3990 Clouds 29 1007 68 10000 0.18 353 21:46 07.01.2021
3991 Clouds 28 1006 74 10000 0.59 215 21:27 07.01.2021
3992 Clouds 28 1006 74 10000 0.59 215 20:47 07.01.2021
3993 Clouds 27 1006 76 10000 0.66 224 20:29 07.01.2021
3994 Clouds 27 1006 76 10000 0.66 224 19:45 07.01.2021
3995 Clouds 27 1005 76 10000 0.82 229 19:23 07.01.2021
3996 Clouds 27 1005 77 10000 0.65 268 18:31 07.01.2021
3997 Clouds 27 1005 77 10000 0.75 255 17:58 07.01.2021
3998 Clouds 27 1005 78 10000 0.73 240 17:28 07.01.2021
3999 Clouds 27 1005 78 10000 0.73 240 16:53 07.01.2021
4000 Clouds 27 1005 79 10000 1.03 227 16:28 07.01.2021
4001 Clouds 27 1005 79 10000 1.03 227 15:41 07.01.2021
4002 Clouds 27 1006 80 10000 0.98 222 15:22 07.01.2021
4003 Clouds 27 1007 79 10000 0.56 206 14:27 07.01.2021
4004 Clouds 27 1007 79 10000 0.56 206 13:46 07.01.2021
4005 Clouds 27 1007 79 10000 0.28 190 13:18 07.01.2021
4006 Clouds 27 1007 79 10000 0.28 190 12:42 07.01.2021
4007 Clouds 27 1007 88 10000 1.5 180 11:55 07.01.2021
4008 Clouds 27 1007 88 10000 1.5 180 11:36 07.01.2021
4009 Clouds 29 1006 79 10000 0.53 40 10:50 07.01.2021
4010 Clouds 29 1006 79 10000 0.9 38 10:27 07.01.2021
4011 Clouds 30 1005 74 10000 2.1 320 09:47 07.01.2021
4012 Clouds 28 1006 76 10000 1.6 26 09:19 07.01.2021
4013 Clouds 32 1004 66 10000 2.1 320 08:29 07.01.2021
4014 Clouds 32 1004 66 10000 2.1 320 07:48 07.01.2021
4015 Clouds 32 1003 66 10000 2.1 340 07:22 07.01.2021
4016 Clouds 33 1004 52 10000 3.6 50 04:30 07.01.2021
4017 Clouds 32 1007 66 10000 2.6 110 00:29 07.01.2021
4018 Clouds 31 1007 66 10000 2.1 110 23:45 06.01.2021
4019 Clouds 28 1007 78 10000 2.6 140 22:39 06.01.2021
4020 Clouds 24 1007 94 10000 2.6 160 21:44 06.01.2021
4021 Clouds 23 1007 94 10000 2.1 160 21:23 06.01.2021
4022 Clouds 23 1007 94 10000 2.1 160 20:53 06.01.2021
4023 Clouds 23 1006 100 10000 2.6 180 20:24 06.01.2021
4024 Clouds 23 1006 100 10000 2.6 180 19:54 06.01.2021
4025 Clouds 23 1006 100 10000 2.6 180 19:36 06.01.2021
4026 Clouds 24 1005 94 10000 1 180 19:18 06.01.2021
4027 Clouds 24 1005 94 10000 1 180 18:40 06.01.2021
4028 Clouds 24 1005 94 10000 1 180 18:21 06.01.2021
4029 Clouds 24 1005 94 10000 1.5 180 17:42 06.01.2021
4030 Clouds 24 1005 88 10000 2.1 160 17:21 06.01.2021
4031 Clouds 24 1005 88 10000 2.1 160 16:40 06.01.2021
4032 Clouds 24 1006 94 10000 3.6 180 16:19 06.01.2021
4033 Clouds 24 1006 94 10000 3.6 180 15:50 06.01.2021
4034 Clouds 24 1006 94 10000 3.6 180 15:50 06.01.2021
4035 Clouds 25 1006 83 10000 2.6 180 15:26 06.01.2021
4036 Clouds 25 1006 83 10000 2.6 180 14:42 06.01.2021
4037 Clouds 25 1007 83 10000 2.1 200 14:19 06.01.2021
4038 Clouds 25 1007 83 10000 2.1 200 13:40 06.01.2021
4039 Clouds 25 1007 88 10000 1.5 180 13:18 06.01.2021
4040 Clouds 25 1007 88 10000 1.5 180 12:45 06.01.2021
4041 Clouds 26 1007 83 10000 1.5 180 11:50 06.01.2021
4042 Clouds 27 1007 83 10000 1.5 200 11:24 06.01.2021
4043 Clouds 27 1007 83 10000 1.5 200 10:46 06.01.2021
4044 Clouds 28 1006 78 10000 1.5 200 09:52 06.01.2021
4045 Clouds 28 1006 78 10000 1.5 200 09:33 06.01.2021
4046 Clouds 31 1005 66 10000 2.6 200 08:54 06.01.2021
4047 Clouds 31 1005 70 10000 2.1 200 08:20 06.01.2021
4048 Clouds 31 1005 70 10000 2.1 200 07:52 06.01.2021
4049 Thunderstorm 31 1005 62 10000 3.1 70 06:44 06.01.2021
4050 Clouds 33 1004 55 10000 6.2 50 05:29 06.01.2021
4051 Clouds 32 1007 70 10000 6.2 50 03:21 06.01.2021
4052 Rain 32 1007 70 10000 6.2 50 02:42 06.01.2021
4053 Rain 32 1007 70 10000 6.2 70 02:20 06.01.2021
4054 Clouds 31 1008 70 10000 3.1 90 23:51 05.01.2021
4055 Rain 27 1008 83 10000 2.1 160 22:57 05.01.2021
4056 Clouds 27 1008 83 10000 2.1 160 22:38 05.01.2021
4057 Clouds 25 1008 94 10000 1 160 22:19 05.01.2021
4058 Clouds 27 1008 79 10000 2.18 118 21:21 05.01.2021
4059 Clouds 27 1008 79 10000 2.18 118 20:30 05.01.2021
4060 Clouds 26 1007 81 10000 2.27 121 19:46 05.01.2021
4061 Clouds 26 1007 81 10000 2.49 123 19:27 05.01.2021
4062 Clouds 26 1007 78 10000 2.22 129 18:50 05.01.2021
4063 Clouds 26 1007 78 10000 2.4 135 18:28 05.01.2021
4064 Clouds 26 1007 78 10000 2.4 135 18:28 05.01.2021
4065 Rain 26 1007 78 10000 2.4 135 17:54 05.01.2021
4066 Clouds 26 1007 78 10000 2.4 135 17:32 05.01.2021
4067 Rain 26 1007 78 10000 2.47 127 16:57 05.01.2021
4068 Clouds 26 1007 78 10000 2.47 127 16:36 05.01.2021
4069 Clouds 26 1007 78 10000 2.21 121 16:18 05.01.2021
4070 Clouds 26 1007 78 10000 2.21 121 15:40 05.01.2021
4071 Clouds 26 1008 79 10000 1.92 132 14:48 05.01.2021
4072 Clouds 26 1008 78 10000 1.79 142 14:18 05.01.2021
4073 Clouds 26 1008 94 10000 1.79 142 13:39 05.01.2021
4074 Clouds 26 1008 94 10000 1.82 143 13:20 05.01.2021
4075 Clouds 26 1008 94 10000 1.86 135 12:46 05.01.2021
4076 Clouds 27 1008 88 10000 1 200 12:20 05.01.2021
4077 -273 0 0 0 0 0 11:32 05.01.2021
4078 -273 0 0 0 0 0 11:32 05.01.2021
4079 -273 0 0 0 0 0 11:32 05.01.2021
4080 Clouds 27 1008 88 10000 1 200 11:31 05.01.2021
4081 Rain 28 1008 83 10000 1 180 10:45 05.01.2021
4082 Clouds 28 1008 83 10000 1 200 10:19 05.01.2021
4083 Clouds 28 1008 83 10000 1 200 09:42 05.01.2021
4084 Clouds 29 1007 74 10000 2.1 180 08:59 05.01.2021
4085 Rain 30 1006 70 10000 1 360 08:19 05.01.2021
4086 Rain 32 1006 70 10000 2.1 20 05:32 05.01.2021
4087 Rain 32 1007 66 10000 2.6 360 03:39 05.01.2021
4088 Clouds 32 1009 70 10000 2.6 320 00:23 05.01.2021
4089 Clouds 32 1009 70 10000 2.6 320 23:42 04.01.2021
4090 Clouds 29 1009 74 10000 2.1 180 23:22 04.01.2021
4091 Clouds 29 1009 74 10000 2.1 180 22:46 04.01.2021
4092 Clouds 26 1009 83 10000 1 180 22:19 04.01.2021
4093 Clouds 26 1009 83 10000 1 180 21:40 04.01.2021
4094 Clouds 26 1009 83 10000 1 180 21:40 04.01.2021
4095 Clouds 24 1008 94 10000 1 160 20:59 04.01.2021
4096 Clouds 24 1008 94 10000 1 160 20:37 04.01.2021
4097 Clouds 25 1007 94 10000 1.5 200 20:18 04.01.2021
4098 Clouds 25 1007 94 10000 1.5 200 19:41 04.01.2021
4099 Clouds 26 1007 75 10000 1.09 107 19:19 04.01.2021
4100 Clouds 26 1007 75 10000 1.09 107 19:19 04.01.2021
4101 Clouds 26 1007 75 10000 1.09 107 18:43 04.01.2021
4102 Clouds 25 1007 94 10000 1.5 180 17:49 04.01.2021
4103 Clouds 25 1007 94 10000 1.5 180 17:28 04.01.2021
4104 Clouds 26 1007 88 10000 1.5 180 16:58 04.01.2021
4105 Clouds 26 1007 88 10000 1.5 180 16:39 04.01.2021
4106 Clouds 25 1007 100 10000 1 200 16:21 04.01.2021
4107 Clouds 25 1007 100 10000 1 200 15:47 04.01.2021
4108 Clouds 25 1008 100 10000 1.05 52 14:55 04.01.2021
4109 Clouds 26 1008 94 10000 1 140 13:57 04.01.2021
4110 Clouds 26 1008 94 10000 1 140 13:35 04.01.2021
4111 Clouds 27 1008 88 10000 1.5 160 12:53 04.01.2021
4112 Rain 27 1008 88 10000 1 180 12:25 04.01.2021
4113 Clouds 27 1008 88 10000 1 180 11:40 04.01.2021
4114 Clouds 28 1008 83 10000 1 200 11:18 04.01.2021
4115 Clouds 28 1008 83 10000 1 200 10:42 04.01.2021
4116 Clouds 29 1008 79 10000 1 290 10:21 04.01.2021
4117 Clouds 30 1007 74 10000 2.6 320 09:25 04.01.2021
4118 Clouds 30 1007 74 10000 2.6 320 08:50 04.01.2021
4119 Rain 31 1007 70 10000 2.6 340 08:21 04.01.2021
4120 Clouds 31 1007 70 10000 2.6 340 07:45 04.01.2021
4121 Clouds 32 1006 70 10000 4.1 360 05:35 04.01.2021
4122 Clouds 32 1007 70 10000 4.1 360 04:50 04.01.2021
4123 Clouds 31 1008 79 10000 2.6 360 01:30 04.01.2021
4124 Clouds 30 1009 79 10000 1.5 200 23:55 03.01.2021
4125 Clouds 28 1009 88 10000 1.5 200 23:26 03.01.2021
4126 Clouds 28 1009 88 10000 1.5 200 22:57 03.01.2021
4127 Clouds 28 1009 88 10000 1.5 200 22:38 03.01.2021
4128 Clouds 25 1009 88 10000 1.5 180 22:18 03.01.2021
4129 Clouds 25 1009 88 10000 1.5 180 21:30 03.01.2021
4130 Clouds 23 1008 100 10000 1 160 20:50 03.01.2021
4131 Clouds 23 1008 100 10000 1 160 20:32 03.01.2021
4132 Rain 24 1008 94 10000 1.5 180 19:58 03.01.2021
4133 Clouds 24 1008 94 10000 1.5 180 19:35 03.01.2021
4134 Clouds 27 1007 82 10000 2.68 22 18:58 03.01.2021
4135 Clouds 24 1007 94 10000 1.5 200 18:39 03.01.2021
4136 Clouds 24 1007 94 10000 1.5 200 18:19 03.01.2021
4137 Clouds 24 1007 94 10000 1.5 200 18:19 03.01.2021
4138 Clouds 24 1007 94 10000 1.5 200 17:48 03.01.2021
4139 Clouds 24 1007 94 10000 1.5 200 17:23 03.01.2021
4140 Clouds 24 1007 94 10000 1.5 200 16:43 03.01.2021
4141 Rain 24 1007 94 10000 1.5 200 16:20 03.01.2021
4142 Rain 24 1008 94 10000 2.1 180 15:46 03.01.2021
4143 Clouds 24 1008 94 10000 2.1 180 15:27 03.01.2021
4144 Clouds 24 1008 94 10000 1.5 180 14:52 03.01.2021
4145 Clouds 24 1008 94 10000 1.5 180 14:27 03.01.2021
4146 Clouds 25 1008 100 10000 1 200 13:41 03.01.2021
4147 Drizzle 25 1009 100 10000 1 290 13:22 03.01.2021
4148 Clouds 26 1008 88 10000 2.1 180 12:24 03.01.2021
4149 Clouds 26 1008 88 10000 2.1 180 11:42 03.01.2021
4150 Clouds 26 1008 88 10000 2.1 180 11:24 03.01.2021
4151 Clouds 26 1008 88 10000 1.34 41 10:34 03.01.2021
4152 Clouds 29 1007 74 10000 1 230 09:55 03.01.2021
4153 Clouds 29 1007 74 10000 1 230 09:33 03.01.2021
4154 Clouds 30 1006 66 10000 1 290 08:57 03.01.2021
4155 Clouds 31 1006 79 10000 1.5 290 07:26 03.01.2021
4156 Clouds 33 1006 55 10000 2.6 340 05:42 03.01.2021
4157 Clouds 32 1009 62 10000 1 20 02:27 03.01.2021
4158 Clouds 32 1009 62 10000 1 20 02:27 03.01.2021
4159 Clouds 31 1009 66 10000 2.67 32 00:56 03.01.2021
4160 Clouds 29 1009 79 10000 1.5 140 23:53 02.01.2021
4161 Clouds 26 1009 83 10000 1 200 23:20 02.01.2021
4162 Clouds 26 1009 83 10000 1 200 22:49 02.01.2021
4163 Clouds 26 1009 83 10000 1 200 22:31 02.01.2021
4164 Clouds 25 1009 88 10000 1 180 21:49 02.01.2021
4165 Clouds 25 1009 88 10000 1 180 21:29 02.01.2021
4166 Clouds 24 1008 94 10000 1 180 20:45 02.01.2021
4167 Clouds 24 1007 94 10000 1 180 20:25 02.01.2021
4168 Clouds 24 1007 94 10000 1 180 19:47 02.01.2021
4169 Clouds 24 1007 94 10000 1 180 19:20 02.01.2021
4170 Clouds 24 1007 94 10000 1 180 18:47 02.01.2021
4171 Clouds 24 1007 94 10000 1 180 18:29 02.01.2021
4172 Clouds 24 1007 94 10000 1.03 58 17:46 02.01.2021
4173 Clouds 24 1007 94 10000 1 180 17:28 02.01.2021
4174 Clouds 24 1007 94 10000 1 180 16:44 02.01.2021
4175 Clouds 25 1008 94 10000 0.76 62 16:21 02.01.2021
4176 Clouds 25 1008 94 10000 0.76 62 15:44 02.01.2021
4177 Clouds 25 1008 94 10000 0.75 61 15:25 02.01.2021
4178 Clouds 25 1008 94 10000 0.75 61 14:39 02.01.2021
4179 Clouds 25 1008 94 10000 1.01 51 14:21 02.01.2021
4180 Clouds 26 1009 94 10000 1.5 200 13:40 02.01.2021
4181 Clouds 26 1009 94 10000 1.5 200 13:40 02.01.2021
4182 Clouds 26 1009 94 10000 1 180 12:54 02.01.2021
4183 Clouds 26 1009 94 10000 1 180 12:32 02.01.2021
4184 Clouds 27 1008 88 10000 1.5 70 11:57 02.01.2021
4185 Clouds 29 1006 79 10000 1.5 250 11:22 02.01.2021
4186 Clouds 29 1006 79 10000 1.5 250 10:56 02.01.2021
4187 Clouds 29 1006 79 10000 1.5 250 10:31 02.01.2021
4188 Clouds 29 1007 79 10000 2.1 290 09:54 02.01.2021
4189 Clouds 29 1007 79 10000 2.1 290 09:28 02.01.2021
4190 Clouds 30 1006 70 10000 2.6 290 08:51 02.01.2021
4191 Clouds 30 1006 70 10000 2.6 290 08:28 02.01.2021
4192 Clouds 31 1006 66 10000 2.6 320 07:49 02.01.2021
4193 Clouds 32 1005 62 10000 2.6 360 07:22 02.01.2021
4194 Clouds 32 1005 62 10000 2.6 360 06:46 02.01.2021
4195 Clouds 32 1005 62 10000 2.6 360 05:45 02.01.2021
4196 Clouds 30 1009 74 10000 2.6 50 00:59 02.01.2021
4197 Clouds 30 1009 74 10000 2.6 50 00:37 02.01.2021
4198 Clouds 30 1009 74 10000 2.1 90 23:56 01.01.2021
4199 Clouds 27 1009 88 10000 1.36 88 23:21 01.01.2021
4200 Clouds 27 1009 88 10000 1.36 88 22:47 01.01.2021
4201 Clouds 24 1009 100 10000 1 110 22:25 01.01.2021
4202 Clouds 24 1009 100 10000 1 110 21:44 01.01.2021
4203 Clouds 24 1008 100 10000 1.65 125 21:22 01.01.2021
4204 Clouds 24 1008 100 10000 1.65 125 20:53 01.01.2021
4205 Clouds 24 1007 100 10000 1 110 20:22 01.01.2021
4206 Clouds 24 1007 100 10000 1 110 19:43 01.01.2021
4207 Clouds 24 1007 100 10000 1 110 19:24 01.01.2021
4208 Clouds 24 1007 100 10000 1 110 18:59 01.01.2021
4209 Clouds 24 1007 100 10000 1 110 18:40 01.01.2021
4210 Clouds 25 1007 100 10000 2.15 143 18:19 01.01.2021
4211 Clouds 25 1007 100 10000 2.15 143 17:42 01.01.2021
4212 Clouds 26 1008 94 10000 2.1 200 17:18 01.01.2021
4213 Clouds 26 1008 94 10000 2.1 200 16:40 01.01.2021
4214 Thunderstorm 25 1008 100 10000 1.5 270 15:56 01.01.2021
4215 Thunderstorm 25 1008 100 10000 1.5 270 15:37 01.01.2021
4216 Thunderstorm 25 1009 100 10000 1 50 14:42 01.01.2021
4217 Thunderstorm 26 1009 94 10000 1.5 200 14:19 01.01.2021
4218 Thunderstorm 26 1009 94 10000 1.5 200 13:37 01.01.2021
4219 Clouds 27 1009 94 10000 1 250 12:48 01.01.2021
4220 Clouds 26 1009 94 10000 1 230 12:25 01.01.2021
4221 Clouds 26 1009 94 10000 1 230 11:39 01.01.2021
4222 Clouds 28 1008 88 10000 2.1 200 11:18 01.01.2021
4223 Clouds 28 1008 88 10000 2.1 200 10:50 01.01.2021
4224 Clouds 29 1007 83 10000 1.5 340 09:50 01.01.2021
4225 Clouds 30 1007 74 10000 1.5 340 09:22 01.01.2021
4226 Clouds 30 1007 74 10000 1.5 340 08:30 01.01.2021
4227 Clouds 30 1007 74 10000 1.5 340 08:30 01.01.2021
4228 Clouds 32 1007 59 10000 3.1 50 04:54 01.01.2021
4229 Rain 32 1007 59 10000 3.1 50 04:30 01.01.2021
4230 Clouds 31 1009 66 10000 2.1 360 01:39 01.01.2021
4231 Clouds 31 1010 66 10000 2.1 140 00:31 01.01.2021
4232 Clouds 30 1010 70 10000 2.1 140 23:37 31.12.2020
4233 Clouds 26 1010 83 10000 2.1 180 23:19 31.12.2020
4234 Clouds 26 1010 83 10000 2.1 180 22:41 31.12.2020
4235 Clouds 24 1009 88 10000 2.1 180 22:21 31.12.2020
4236 Clouds 24 1009 88 10000 2.1 180 21:47 31.12.2020
4237 Clouds 24 1009 88 10000 2.1 180 21:29 31.12.2020
4238 Clouds 22 1009 94 10000 2.1 200 20:54 31.12.2020
4239 Clouds 23 1008 88 10000 1 160 20:21 31.12.2020
4240 Clouds 23 1008 88 10000 1 160 19:48 31.12.2020
4241 Clouds 23 1008 88 10000 1 160 19:30 31.12.2020
4242 Clouds 25 1008 75 10000 1.18 172 18:50 31.12.2020
4243 Clouds 23 1008 94 10000 1.5 180 18:24 31.12.2020
4244 Clouds 23 1008 94 10000 1.5 180 17:45 31.12.2020
4245 Clouds 23 1008 94 10000 1 200 17:23 31.12.2020
4246 Clouds 23 1008 94 10000 1 200 16:44 31.12.2020
4247 Clouds 23 1009 100 10000 1 160 16:25 31.12.2020
4248 Clouds 23 1009 100 10000 1 160 15:50 31.12.2020
4249 Clouds 24 1010 94 10000 1 160 15:23 31.12.2020
4250 Clouds 24 1010 94 10000 1 160 14:58 31.12.2020
4251 Clouds 24 1010 94 10000 1 160 14:39 31.12.2020
4252 Clouds 24 1010 100 10000 1 160 14:21 31.12.2020
4253 Clouds 24 1010 100 10000 1 160 13:39 31.12.2020
4254 Clouds 24 1010 100 10000 1 160 13:39 31.12.2020
4255 Clouds 25 1009 94 10000 1 160 13:21 31.12.2020
4256 Rain 25 1009 94 10000 1 160 12:53 31.12.2020
4257 Clouds 25 1009 94 10000 1 160 12:35 31.12.2020
4258 Rain 26 1009 94 10000 1 200 11:52 31.12.2020
4259 Clouds 26 1009 94 10000 1 200 11:32 31.12.2020
4260 Clouds 26 1009 94 10000 1 200 11:32 31.12.2020
4261 Clouds 26 1009 94 10000 1 200 11:32 31.12.2020
4262 Clouds 26 1008 94 10000 1 180 10:50 31.12.2020
4263 Clouds 26 1008 94 10000 1 180 10:29 31.12.2020
4264 Clouds 29 1008 70 10000 1.48 74 09:58 31.12.2020
4265 Clouds 29 1008 70 10000 1.48 74 09:36 31.12.2020
4266 Clouds 30 1007 66 10000 1.5 20 08:51 31.12.2020
4267 Clouds 30 1007 66 10000 1.5 20 08:33 31.12.2020
4268 Clouds 31 1007 66 10000 2.1 50 07:59 31.12.2020
4269 Clouds 31 1007 66 10000 2.1 50 07:32 31.12.2020
4270 Clouds 31 1007 66 10000 3.1 50 05:56 31.12.2020
4271 Clouds 31 1007 62 10000 3.6 50 05:28 31.12.2020
4272 Clouds 30 1009 70 10000 2.6 180 02:56 31.12.2020
4273 Clouds 30 1010 74 10000 3.6 180 02:25 31.12.2020
4274 Clouds 30 1010 74 10000 3.6 180 01:45 31.12.2020
4275 Clouds 26 1011 100 10000 3.6 180 01:25 31.12.2020
4276 Clouds 26 1011 100 10000 3.6 180 00:46 31.12.2020
4277 Clouds 24 1011 100 10000 3.1 180 23:48 30.12.2020
4278 Clouds 24 1011 100 10000 3.1 180 23:19 30.12.2020
4279 Clouds 24 1011 100 10000 2.28 97 22:48 30.12.2020
4280 Clouds 24 1011 100 10000 2.28 97 22:30 30.12.2020
4281 Clouds 24 1009 100 10000 2.15 116 21:44 30.12.2020
4282 Clouds 23 1008 100 10000 2.1 160 21:22 30.12.2020
4283 Clouds 23 1008 100 10000 2.1 160 20:50 30.12.2020
4284 Clouds 24 1007 94 10000 1.5 160 20:20 30.12.2020
4285 Clouds 24 1007 94 10000 1.5 160 19:41 30.12.2020
4286 Clouds 24 1007 100 10000 1 160 19:22 30.12.2020
4287 Clouds 24 1007 100 10000 1 160 18:46 30.12.2020
4288 Clouds 24 1007 100 10000 1 160 18:46 30.12.2020
4289 Clouds 24 1007 100 10000 1.5 200 18:28 30.12.2020
4290 Clouds 24 1007 100 10000 1.5 200 17:51 30.12.2020
4291 Clouds 24 1007 100 10000 1.5 200 17:51 30.12.2020
4292 Drizzle 24 1008 100 10000 1 140 17:32 30.12.2020
4293 Drizzle 24 1008 100 10000 1 140 16:56 30.12.2020
4294 Drizzle 24 1008 100 10000 1 140 16:31 30.12.2020
4295 Drizzle 24 1008 100 10000 2.6 160 15:47 30.12.2020
4296 Clouds 26 1009 94 10000 4.6 50 15:24 30.12.2020
4297 Clouds 26 1009 94 10000 4.6 50 14:44 30.12.2020
4298 Clouds 26 1009 94 10000 0.86 108 14:22 30.12.2020
4299 Clouds 26 1009 94 10000 0.72 68 13:29 30.12.2020
4300 Clouds 26 1009 77 10000 1.57 52 12:29 30.12.2020
4301 Clouds 26 1009 77 10000 1.57 52 11:57 30.12.2020
4302 Clouds 27 1007 88 10000 1 160 11:36 30.12.2020
4303 Clouds 27 1007 88 10000 1 160 11:18 30.12.2020
4304 Clouds 27 1007 88 10000 1 160 10:39 30.12.2020
4305 Clouds 28 1007 83 10000 2.1 140 10:20 30.12.2020
4306 Clouds 28 1007 83 10000 2.1 140 09:47 30.12.2020
4307 Clouds 26 1008 81 10000 1.68 2 09:18 30.12.2020
4308 Clouds 31 1005 66 10000 2.1 360 08:23 30.12.2020
4309 Clouds 30 1005 70 10000 2.1 20 07:28 30.12.2020
4310 Clouds 30 1005 70 10000 2.1 20 06:43 30.12.2020
4311 Clouds 32 1005 59 10000 3.6 50 05:50 30.12.2020
4312 Clouds 32 1005 59 10000 3.6 50 05:31 30.12.2020
4313 Clouds 32 1007 66 10000 3.1 270 03:45 30.12.2020
4314 Clouds 30 1008 74 10000 2.1 340 03:25 30.12.2020
4315 Clouds 30 1008 74 10000 2.1 340 02:36 30.12.2020
4316 Clouds 31 1009 62 10000 2.6 50 01:49 30.12.2020
4317 Clouds 31 1009 62 10000 2.6 50 01:30 30.12.2020
4318 Clouds 30 1009 74 10000 3.1 160 00:46 30.12.2020
4319 Clouds 27 1009 94 10000 2.6 160 00:26 30.12.2020
4320 Clouds 27 1009 94 10000 2.6 160 23:52 29.12.2020
4321 Clouds 27 1009 94 10000 2.6 160 23:34 29.12.2020
4322 Clouds 26 1008 94 10000 2.1 200 22:50 29.12.2020
4323 Clouds 26 1008 94 10000 2.1 200 22:31 29.12.2020
4324 Clouds 24 1008 100 10000 3.6 200 21:56 29.12.2020
4325 Clouds 24 1008 100 10000 3.6 200 21:37 29.12.2020
4326 Clouds 24 1008 100 10000 3.6 200 21:37 29.12.2020
4327 Clouds 24 1008 100 10000 3.01 50 21:18 29.12.2020
4328 Clouds 24 1008 100 10000 3.01 50 20:41 29.12.2020
4329 Clouds 24 1007 100 10000 1.5 110 20:22 29.12.2020
4330 Clouds 24 1007 100 10000 1.5 110 19:43 29.12.2020
4331 Clouds 24 1007 100 10000 2.6 200 19:21 29.12.2020
4332 Clouds 24 1007 100 10000 2.6 200 18:50 29.12.2020
4333 Clouds 24 1007 100 10000 1.48 63 18:28 29.12.2020
4334 Clouds 24 1007 100 10000 1.48 63 17:45 29.12.2020
4335 Clouds 24 1007 94 10000 1 140 17:21 29.12.2020
4336 Clouds 24 1007 94 10000 1 140 16:52 29.12.2020
4337 Clouds 24 1007 100 10000 1 180 16:25 29.12.2020
4338 Clouds 24 1007 100 10000 1 180 15:39 29.12.2020
4339 Clouds 24 1008 100 10000 1.5 140 15:20 29.12.2020
4340 Clouds 24 1008 100 10000 1.5 140 14:40 29.12.2020
4341 Clouds 25 1009 94 10000 3.1 180 14:20 29.12.2020
4342 Clouds 25 1009 94 10000 3.1 180 13:48 29.12.2020
4343 Clouds 25 1009 94 10000 2.1 180 13:23 29.12.2020
4344 Clouds 25 1009 94 10000 2.1 180 12:42 29.12.2020
4345 Clouds 24 1009 100 10000 1.5 200 12:23 29.12.2020
4346 Clouds 24 1009 100 10000 1.5 200 11:56 29.12.2020
4347 Clouds 24 1009 100 10000 1.5 200 11:31 29.12.2020
4348 Clouds 25 1008 94 10000 1.5 160 10:37 29.12.2020
4349 Clouds 25 1007 94 10000 0.68 2 09:50 29.12.2020
4350 Clouds 25 1007 94 10000 0.81 343 09:28 29.12.2020
4351 Clouds 26 1007 88 10000 3.1 200 08:55 29.12.2020
4352 Clouds 26 1007 88 10000 3.1 200 08:33 29.12.2020
4353 Drizzle 25 1006 94 10000 3.6 200 07:27 29.12.2020
4354 Clouds 27 1006 83 10000 3.1 200 06:46 29.12.2020
4355 Thunderstorm 30 1005 74 10000 3.1 340 05:27 29.12.2020
4356 Clouds 30 1008 74 10000 1.03 1 00:56 29.12.2020
4357 Clouds 30 1008 74 10000 1.5 160 00:22 29.12.2020
4358 Clouds 30 1008 74 10000 1.5 160 23:36 28.12.2020
4359 Clouds 24 1007 94 10000 1 160 22:28 28.12.2020
4360 Clouds 24 1007 94 10000 1 160 21:46 28.12.2020
4361 Clouds 24 1007 94 10000 1 160 21:28 28.12.2020
4362 Clouds 23 1007 94 10000 2.1 160 20:44 28.12.2020
4363 Clouds 23 1006 100 10000 2.1 200 20:24 28.12.2020
4364 Clouds 23 1006 100 10000 2.1 200 19:50 28.12.2020
4365 Clouds 23 1006 100 10000 2.1 200 19:25 28.12.2020
4366 Clouds 23 1006 100 10000 2.1 200 18:59 28.12.2020
4367 Clouds 23 1006 100 10000 2.1 200 18:28 28.12.2020
4368 Clouds 23 1006 100 10000 2.1 200 17:47 28.12.2020
4369 Clouds 24 1007 94 10000 2.1 160 17:29 28.12.2020
4370 Clouds 24 1007 94 10000 2.1 160 16:50 28.12.2020
4371 Clouds 24 1007 94 10000 2.1 160 16:28 28.12.2020
4372 Clouds 24 1007 100 10000 1 140 15:53 28.12.2020
4373 Clouds 24 1008 100 10000 1 250 15:30 28.12.2020
4374 Clouds 24 1008 100 10000 1 250 14:28 28.12.2020
4375 Rain 24 1009 100 10000 1.5 180 13:38 28.12.2020
4376 Clouds 24 1009 100 10000 1 140 13:19 28.12.2020
4377 Clouds 25 1009 94 10000 1.5 290 12:25 28.12.2020
4378 Clouds 25 1009 94 10000 1.5 290 11:48 28.12.2020
4379 Clouds 25 1009 94 10000 1.5 290 11:29 28.12.2020
4380 Drizzle 26 1009 94 10000 4.1 340 10:54 28.12.2020
4381 Clouds 25 1008 94 10000 1 110 10:28 28.12.2020
4382 Clouds 25 1008 94 10000 1 110 09:52 28.12.2020
4383 Clouds 26 1007 94 10000 2.1 180 09:22 28.12.2020
4384 Clouds 26 1007 94 10000 2.1 180 08:58 28.12.2020
4385 Clouds 25 1006 94 10000 1.5 160 06:52 28.12.2020
4386 Clouds 26 1007 94 10000 4.1 110 04:56 28.12.2020
4387 Clouds 31 1007 74 10000 4.6 340 03:21 28.12.2020
4388 Clouds 31 1008 70 10000 2.6 340 01:52 28.12.2020
4389 Clouds 31 1009 70 10000 1 140 23:50 27.12.2020
4390 Clouds 28 1008 78 10000 1.5 200 23:20 27.12.2020
4391 Clouds 28 1008 78 10000 1.5 200 23:20 27.12.2020
4392 Clouds 25 1008 94 10000 1.5 180 21:59 27.12.2020
4393 Clouds 25 1008 94 10000 1.5 180 21:27 27.12.2020
4394 Clouds 23 1007 100 10000 1 180 20:53 27.12.2020
4395 Clouds 23 1006 100 10000 2.1 160 19:49 27.12.2020
4396 Clouds 23 1006 100 10000 2.1 160 19:23 27.12.2020
4397 Clouds 24 1006 94 10000 1 140 18:47 27.12.2020
4398 Clouds 24 1006 100 10000 3.1 200 18:20 27.12.2020
4399 Clouds 24 1006 100 10000 3.1 200 17:49 27.12.2020
4400 Clouds 24 1006 100 10000 3.1 200 17:30 27.12.2020
4401 Clouds 24 1007 100 10000 1 200 16:54 27.12.2020
4402 Clouds 24 1008 100 10000 1.5 200 16:20 27.12.2020
4403 Clouds 24 1009 100 10000 1.82 300 15:21 27.12.2020
4404 Clouds 24 1009 100 10000 1.82 300 14:42 27.12.2020
4405 Clouds 25 1009 94 10000 1.56 324 14:22 27.12.2020
4406 Clouds 25 1009 100 10000 1.5 180 13:23 27.12.2020
4407 Clouds 25 1009 100 10000 1.5 180 12:49 27.12.2020
4408 Clouds 26 1009 94 10000 0.93 348 12:18 27.12.2020
4409 Clouds 26 1009 94 10000 0.93 348 11:39 27.12.2020
4410 Clouds 26 1008 94 10000 1.43 244 10:52 27.12.2020
4411 Clouds 26 1008 94 10000 2.14 244 10:25 27.12.2020
4412 Clouds 26 1008 94 10000 1 200 09:53 27.12.2020
4413 Clouds 27 1007 88 10000 1.5 270 08:50 27.12.2020
4414 Clouds 29 1007 83 10000 1 320 08:25 27.12.2020
4415 Clouds 29 1007 83 10000 1 320 07:26 27.12.2020
4416 Clouds 26 1007 94 10000 1 270 05:45 27.12.2020
4417 Clouds 28 1007 83 10000 3.1 200 04:25 27.12.2020
4418 Clouds 31 1008 74 10000 4.6 340 03:20 27.12.2020
4419 Clouds 31 1009 74 10000 2.1 20 01:34 27.12.2020
4420 Clouds 31 1009 74 10000 2.1 20 01:34 27.12.2020
4421 Clouds 31 1009 74 10000 1 90 00:20 27.12.2020
4422 Clouds 29 1009 79 10000 1.3 131 23:27 26.12.2020
4423 Clouds 29 1009 79 10000 1.3 131 22:50 26.12.2020
4424 Clouds 26 1008 88 10000 1.45 134 22:21 26.12.2020
4425 Clouds 26 1008 88 10000 1.45 134 21:59 26.12.2020
4426 Clouds 26 1008 88 10000 1.45 134 21:40 26.12.2020
4427 Clouds 24 1007 100 10000 1.5 200 21:19 26.12.2020
4428 Clouds 24 1007 100 10000 1.5 200 20:41 26.12.2020
4429 Clouds 24 1006 94 10000 1.5 180 20:18 26.12.2020
4430 Clouds 24 1006 94 10000 1.5 180 19:26 26.12.2020
4431 Clouds 26 1007 83 10000 0.21 79 18:50 26.12.2020
4432 Clouds 26 1006 83 10000 1.37 78 18:28 26.12.2020
4433 Clouds 26 1006 83 10000 1.37 78 17:41 26.12.2020
4434 Clouds 25 1007 94 10000 1.5 200 17:20 26.12.2020
4435 Clouds 25 1007 94 10000 1.5 200 16:36 26.12.2020
4436 Clouds 25 1008 100 10000 2.01 54 15:27 26.12.2020
4437 Clouds 25 1008 100 10000 2.01 54 14:51 26.12.2020
4438 Clouds 25 1008 100 10000 2.15 29 14:28 26.12.2020
4439 Clouds 25 1009 94 10000 1 180 13:47 26.12.2020
4440 Clouds 25 1009 94 10000 1 180 13:28 26.12.2020
4441 Clouds 26 1009 82 10000 1.94 26 12:45 26.12.2020
4442 Clouds 27 1009 88 10000 2.1 180 12:22 26.12.2020
4443 Clouds 27 1009 88 10000 2.1 180 11:51 26.12.2020
4444 Clouds 27 1008 94 10000 1.7 52 11:22 26.12.2020
4445 Clouds 27 1008 94 10000 1.7 52 10:54 26.12.2020
4446 Clouds 27 1008 94 10000 1.89 25 10:27 26.12.2020
4447 Clouds 27 1007 88 10000 1.89 25 09:51 26.12.2020
4448 Clouds 27 1007 88 10000 1.87 18 09:28 26.12.2020
4449 Clouds 28 1007 83 10000 1.87 18 08:33 26.12.2020
4450 Clouds 29 1006 89 10000 2.1 140 07:52 26.12.2020
4451 Clouds 29 1006 83 10000 1.5 110 06:31 26.12.2020
4452 Rain 31 1008 74 10000 3.1 360 03:19 26.12.2020
4453 Clouds 31 1008 74 10000 3.6 360 01:32 26.12.2020
4454 Clouds 31 1009 74 10000 1 360 00:25 26.12.2020
4455 Rain 31 1009 74 10000 1 360 23:39 25.12.2020
4456 Clouds 31 1009 74 10000 1 360 23:21 25.12.2020
4457 Clouds 28 1008 88 10000 1 180 22:40 25.12.2020
4458 Rain 28 1009 76 10000 1.02 110 21:54 25.12.2020
4459 Rain 25 1008 94 10000 1 160 21:34 25.12.2020
4460 Rain 25 1008 94 10000 1 160 20:49 25.12.2020
4461 Rain 25 1008 94 10000 1 160 20:49 25.12.2020
4462 Clouds 25 1008 94 10000 1 160 20:30 25.12.2020
4463 Rain 25 1007 100 10000 1 230 19:47 25.12.2020
4464 Rain 26 1007 80 10000 1.28 173 18:58 25.12.2020
4465 Clouds 26 1007 80 10000 1.29 165 18:38 25.12.2020
4466 Rain 26 1007 81 10000 1.49 181 17:40 25.12.2020
4467 Clouds 25 1008 100 10000 1 180 17:21 25.12.2020
4468 Clouds 26 1007 81 10000 1.35 178 16:33 25.12.2020
4469 Rain 26 1007 81 10000 1.11 161 15:57 25.12.2020
4470 Clouds 26 1008 100 10000 1.5 180 15:35 25.12.2020
4471 Clouds 26 1008 100 10000 1.5 180 14:49 25.12.2020
4472 Rain 26 1008 100 10000 1.5 180 14:28 25.12.2020
4473 Thunderstorm 26 1009 100 10000 1.5 230 13:44 25.12.2020
4474 Clouds 25 1009 100 10000 2.1 230 13:25 25.12.2020
4475 Clouds 25 1009 100 10000 2.1 230 12:34 25.12.2020
4476 Rain 25 1009 100 10000 2.1 230 11:52 25.12.2020
4477 Rain 25 1009 100 10000 2.1 230 11:29 25.12.2020
4478 Rain 27 1008 88 10000 3.1 160 10:49 25.12.2020
4479 Rain 29 1007 83 10000 2.1 160 10:23 25.12.2020
4480 Clouds 29 1007 79 10000 1 360 09:27 25.12.2020
4481 Rain 29 1007 79 10000 1 360 08:47 25.12.2020
4482 Clouds 31 1005 70 10000 2.1 20 07:52 25.12.2020
4483 Clouds 31 1005 66 10000 2.1 360 06:44 25.12.2020
4484 Clouds 31 1007 70 10000 3.1 20 02:47 25.12.2020
4485 Clouds 30 1008 66 10000 2.33 43 00:48 25.12.2020
4486 Clouds 30 1008 64 10000 1.79 56 00:18 25.12.2020
4487 Clouds 30 1008 64 10000 1.25 89 23:23 24.12.2020
4488 Clouds 25 1008 94 10000 1 180 22:37 24.12.2020
4489 Clouds 25 1008 94 10000 1 180 22:18 24.12.2020
4490 Clouds 25 1008 94 10000 1 180 21:32 24.12.2020
4491 Clouds 24 1006 94 10000 1 160 20:19 24.12.2020
4492 Rain 24 1007 100 10000 2.1 110 18:22 24.12.2020
4493 Clouds 24 1007 100 10000 1.62 173 17:58 24.12.2020
4494 Clouds 24 1007 100 10000 1.62 173 17:36 24.12.2020
4495 Clouds 25 1008 94 10000 2.1 160 16:27 24.12.2020
4496 Clouds 25 1008 94 10000 2.1 160 15:49 24.12.2020
4497 Clouds 25 1008 94 10000 2.1 160 15:29 24.12.2020
4498 Clouds 25 1008 94 10000 2.1 110 14:59 24.12.2020
4499 Clouds 25 1008 94 10000 2.1 110 14:40 24.12.2020
4500 Clouds 25 1009 94 10000 2.1 140 14:22 24.12.2020
4501 Clouds 25 1009 94 10000 2.1 140 13:39 24.12.2020
4502 Clouds 25 1009 100 10000 1.5 160 13:19 24.12.2020
4503 Clouds 25 1009 100 10000 1.5 160 12:41 24.12.2020
4504 Clouds 25 1009 100 10000 1.5 160 12:19 24.12.2020
4505 Clouds 26 1008 88 10000 1.5 140 11:39 24.12.2020
4506 Clouds 27 1007 83 10000 1.5 230 11:20 24.12.2020
4507 Clouds 27 1007 83 10000 1.5 230 10:46 24.12.2020
4508 Clouds 29 1007 79 10000 2.6 230 10:28 24.12.2020
4509 Clouds 29 1007 79 10000 2.6 230 09:51 24.12.2020
4510 Clouds 30 1005 74 10000 2.1 320 09:23 24.12.2020
4511 Clouds 30 1005 74 10000 2.1 320 07:57 24.12.2020
4512 Clouds 31 1005 70 10000 2.6 340 07:37 24.12.2020
4513 Clouds 30 1005 70 10000 2.6 340 06:34 24.12.2020
4514 Clouds 31 1006 70 10000 3.1 50 04:24 24.12.2020
4515 Clouds 30 1009 74 10000 2.6 50 01:53 24.12.2020
4516 Clouds 30 1009 74 10000 2.6 50 01:53 24.12.2020
4517 Clouds 30 1008 74 10000 3.1 50 01:28 24.12.2020
4518 Clouds 30 1009 74 10000 4.1 70 00:44 24.12.2020
4519 Clouds 30 1009 74 10000 3.1 70 00:19 24.12.2020
4520 Clouds 29 1008 79 10000 2.1 110 23:40 23.12.2020
4521 Clouds 29 1008 79 10000 2.1 110 23:21 23.12.2020
4522 Clouds 27 1008 83 10000 2.1 160 22:48 23.12.2020
4523 Clouds 27 1008 83 10000 2.1 160 22:26 23.12.2020
4524 Clouds 24 1008 94 10000 2.1 180 21:46 23.12.2020
4525 Clouds 24 1008 94 10000 2.1 180 21:23 23.12.2020
4526 Clouds 23 1007 94 10000 1 180 20:46 23.12.2020
4527 Clouds 23 1007 94 10000 1 180 20:28 23.12.2020
4528 Clouds 23 1006 94 10000 1 180 19:45 23.12.2020
4529 Clouds 24 1006 94 10000 2.1 180 19:24 23.12.2020
4530 Clouds 24 1006 94 10000 2.1 180 18:56 23.12.2020
4531 Clouds 24 1006 94 10000 2.1 180 18:36 23.12.2020
4532 Clouds 24 1006 94 10000 2.1 180 17:57 23.12.2020
4533 Clouds 24 1006 94 10000 1.6 148 17:36 23.12.2020
4534 Clouds 24 1006 94 10000 1.43 144 17:18 23.12.2020
4535 Clouds 24 1006 94 10000 1.43 144 16:39 23.12.2020
4536 Clouds 24 1007 94 10000 1.51 139 16:21 23.12.2020
4537 Clouds 24 1007 94 10000 1.51 139 15:40 23.12.2020
4538 Clouds 24 1007 100 10000 1.5 140 15:22 23.12.2020
4539 Clouds 24 1007 100 10000 1.5 140 14:52 23.12.2020
4540 Clouds 24 1007 100 10000 1.5 140 14:25 23.12.2020
4541 Clouds 25 1008 94 10000 1.63 139 13:47 23.12.2020
4542 Clouds 25 1008 100 10000 2.6 200 13:21 23.12.2020
4543 Clouds 25 1008 100 10000 2.6 200 12:59 23.12.2020
4544 Clouds 25 1008 100 10000 2.6 200 12:38 23.12.2020
4545 Clouds 25 1008 100 10000 2.6 200 12:38 23.12.2020
4546 Clouds 26 1008 94 10000 1 160 12:18 23.12.2020
4547 Clouds 26 1008 94 10000 1 160 11:45 23.12.2020
4548 Clouds 27 1008 88 10000 1.5 360 10:57 23.12.2020
4549 Clouds 27 1008 88 10000 1.5 360 10:39 23.12.2020
4550 Clouds 28 1007 78 10000 1 140 10:19 23.12.2020
4551 Clouds 28 1007 78 10000 1 140 09:26 23.12.2020
4552 Clouds 29 1007 74 10000 1 50 08:42 23.12.2020
4553 Clouds 29 1006 74 10000 2.1 140 07:51 23.12.2020
4554 Clouds 30 1005 70 10000 5.1 110 06:59 23.12.2020
4555 Clouds 30 1005 70 10000 5.1 110 06:37 23.12.2020
4556 Thunderstorm 27 1006 83 10000 7.2 140 05:25 23.12.2020
4557 Thunderstorm 30 1006 79 10000 5.1 270 03:56 23.12.2020
4558 Clouds 32 1008 70 10000 3.6 360 00:33 23.12.2020
4559 Clouds 32 1008 70 10000 0.41 308 23:45 22.12.2020
4560 Clouds 28 1008 83 10000 1.5 180 23:25 22.12.2020
4561 Clouds 28 1008 83 10000 1.5 180 22:43 22.12.2020
4562 Clouds 25 1007 94 10000 2.1 200 22:25 22.12.2020
4563 Clouds 25 1007 94 10000 2.1 200 21:54 22.12.2020
4564 Clouds 24 1007 94 10000 1 140 21:21 22.12.2020
4565 Clouds 24 1007 94 10000 1 140 20:55 22.12.2020
4566 Clouds 24 1007 94 10000 1 140 20:37 22.12.2020
4567 Clouds 24 1006 94 10000 1 180 19:59 22.12.2020
4568 Clouds 24 1006 94 10000 1 180 19:41 22.12.2020
4569 Clouds 24 1006 100 10000 2.1 160 19:20 22.12.2020
4570 Clouds 24 1006 100 10000 2.1 160 18:44 22.12.2020
4571 Clouds 25 1005 100 10000 1 200 18:24 22.12.2020
4572 Clouds 25 1005 100 10000 1 200 17:41 22.12.2020
4573 Clouds 25 1005 100 10000 1 200 17:18 22.12.2020
4574 Clouds 25 1006 100 10000 0.58 144 16:47 22.12.2020
4575 Clouds 25 1007 100 10000 1 140 16:21 22.12.2020
4576 Clouds 25 1007 100 10000 1 140 15:47 22.12.2020
4577 Clouds 25 1007 100 10000 1 180 15:29 22.12.2020
4578 Clouds 25 1007 100 10000 1 180 14:57 22.12.2020
4579 Clouds 25 1007 100 10000 1 180 14:39 22.12.2020
4580 Clouds 25 1007 100 10000 1 180 14:19 22.12.2020
4581 Clouds 26 1008 94 10000 1 140 13:43 22.12.2020
4582 Clouds 26 1008 94 10000 0.95 124 13:18 22.12.2020
4583 Clouds 26 1008 94 10000 0.91 145 12:44 22.12.2020
4584 Clouds 26 1007 100 10000 2.1 230 12:26 22.12.2020
4585 Clouds 26 1007 100 10000 2.1 230 11:57 22.12.2020
4586 Clouds 26 1007 100 10000 2.1 230 11:39 22.12.2020
4587 Clouds 27 1007 83 10000 2.6 360 11:19 22.12.2020
4588 Clouds 27 1007 83 10000 2.6 360 10:47 22.12.2020
4589 Clouds 28 1006 83 10000 2.1 140 10:24 22.12.2020
4590 Clouds 28 1006 83 10000 2.1 140 09:55 22.12.2020
4591 Clouds 30 1005 74 10000 1.5 320 09:23 22.12.2020
4592 Clouds 30 1005 74 10000 1.5 320 08:51 22.12.2020
4593 Clouds 32 1005 70 10000 3.1 360 08:29 22.12.2020
4594 Clouds 32 1005 70 10000 3.1 360 07:48 22.12.2020
4595 Clouds 31 1004 70 10000 3.6 340 06:48 22.12.2020
4596 Clouds 32 1004 66 10000 3.1 360 05:41 22.12.2020
4597 Clouds 32 1006 66 10000 4.1 50 02:51 22.12.2020
4598 Clouds 32 1007 66 10000 2.1 20 00:44 22.12.2020
4599 Clouds 32 1007 66 10000 1 200 23:52 21.12.2020
4600 Clouds 28 1007 78 10000 2.1 200 23:29 21.12.2020
4601 Clouds 28 1007 78 10000 2.1 200 22:38 21.12.2020
4602 Clouds 26 1007 88 10000 1.5 180 22:19 21.12.2020
4603 Clouds 26 1007 88 10000 1.5 180 21:49 21.12.2020
4604 Clouds 26 1007 88 10000 1.5 180 21:31 21.12.2020
4605 Clouds 24 1006 100 10000 1 110 20:50 21.12.2020
4606 Clouds 24 1005 94 10000 1.27 143 20:25 21.12.2020
4607 Clouds 24 1005 94 10000 1.27 143 19:56 21.12.2020
4608 Clouds 24 1005 94 10000 1.27 143 19:37 21.12.2020
4609 Clouds 24 1005 94 10000 1.24 140 19:18 21.12.2020
4610 Clouds 24 1005 94 10000 1.24 140 19:18 21.12.2020
4611 Clouds 24 1005 100 10000 3.1 140 18:49 21.12.2020
4612 Clouds 24 1005 100 10000 3.1 140 18:31 21.12.2020
4613 Clouds 25 1005 94 10000 1 200 17:43 21.12.2020
4614 Clouds 25 1005 94 10000 1 200 17:24 21.12.2020
4615 Clouds 25 1006 100 10000 1.5 200 16:45 21.12.2020
4616 Clouds 26 1006 94 10000 2.1 200 16:24 21.12.2020
4617 Clouds 26 1006 94 10000 2.1 200 15:43 21.12.2020
4618 Clouds 26 1006 94 10000 2.1 200 15:18 21.12.2020
4619 Clouds 26 1007 94 10000 1 230 14:54 21.12.2020
4620 Clouds 27 1007 94 10000 1 180 14:20 21.12.2020
4621 Clouds 27 1007 94 10000 1 180 13:42 21.12.2020
4622 Clouds 27 1007 88 10000 1.5 70 13:22 21.12.2020
4623 Clouds 27 1007 88 10000 1.5 70 12:43 21.12.2020
4624 Clouds 27 1007 88 10000 1.5 90 12:23 21.12.2020
4625 Clouds 27 1007 88 10000 1.5 90 11:43 21.12.2020
4626 Clouds 28 1006 88 10000 1.5 140 11:23 21.12.2020
4627 Clouds 28 1006 88 10000 1.5 140 10:58 21.12.2020
4628 Clouds 28 1006 88 10000 1.5 140 10:40 21.12.2020
4629 Clouds 28 1006 83 10000 2.6 160 09:59 21.12.2020
4630 Clouds 28 1006 83 10000 2.6 160 09:40 21.12.2020
4631 Clouds 30 1005 74 10000 1.5 320 09:22 21.12.2020
4632 Clouds 30 1005 74 10000 1.5 320 08:30 21.12.2020
4633 Clouds 30 1004 74 10000 2.1 340 07:31 21.12.2020
4634 Clouds 32 1004 66 10000 4.1 320 05:40 21.12.2020
4635 Clouds 32 1005 66 10000 3.1 20 04:31 21.12.2020
4636 Clouds 31 1007 70 10000 2.6 360 00:37 21.12.2020
4637 Clouds 32 1007 66 10000 1 360 23:51 20.12.2020
4638 Clouds 29 1007 79 10000 1 180 23:21 20.12.2020
4639 Clouds 29 1007 79 10000 1 180 22:45 20.12.2020
4640 Clouds 26 1007 88 10000 1.5 200 22:26 20.12.2020
4641 Clouds 26 1007 88 10000 1.5 200 21:58 20.12.2020
4642 Clouds 26 1007 88 10000 1.5 200 21:38 20.12.2020
4643 Clouds 24 1006 94 10000 2.1 180 21:18 20.12.2020
4644 Clouds 24 1006 94 10000 2.1 180 20:44 20.12.2020
4645 Clouds 24 1005 94 10000 2.1 180 20:21 20.12.2020
4646 Clouds 24 1005 94 10000 2.1 180 19:43 20.12.2020
4647 Clouds 24 1005 94 10000 1 160 19:22 20.12.2020
4648 Clouds 24 1005 94 10000 1 160 18:54 20.12.2020
4649 Clouds 24 1005 94 10000 1 160 18:36 20.12.2020
4650 Clouds 24 1005 94 10000 2.1 180 17:48 20.12.2020
4651 Clouds 24 1005 94 10000 2.1 180 17:29 20.12.2020
4652 Clouds 25 1005 88 10000 1 200 16:57 20.12.2020
4653 Clouds 25 1005 88 10000 1 200 16:38 20.12.2020
4654 Clouds 25 1005 94 10000 1 160 16:19 20.12.2020
4655 Clouds 25 1005 94 10000 1 160 15:37 20.12.2020
4656 Clouds 25 1006 94 10000 1 200 15:18 20.12.2020
4657 Clouds 25 1006 94 10000 1 200 14:38 20.12.2020
4658 Clouds 25 1007 100 10000 1.5 200 14:19 20.12.2020
4659 Clouds 25 1007 100 10000 1.5 200 13:41 20.12.2020
4660 Clouds 26 1006 94 10000 1 200 13:21 20.12.2020
4661 Clouds 26 1006 94 10000 1 200 12:49 20.12.2020
4662 Clouds 26 1006 94 10000 1.5 200 12:22 20.12.2020
4663 Clouds 26 1006 94 10000 1.5 200 11:49 20.12.2020
4664 Clouds 27 1006 88 10000 1.5 140 11:26 20.12.2020
4665 Clouds 27 1006 88 10000 1.5 140 10:49 20.12.2020
4666 Clouds 28 1005 83 10000 1.5 110 10:21 20.12.2020
4667 Clouds 28 1005 83 10000 1.5 110 09:55 20.12.2020
4668 Clouds 28 1005 83 10000 1.5 110 09:36 20.12.2020
4669 Clouds 29 1005 79 10000 2.6 140 09:18 20.12.2020
4670 Clouds 29 1005 79 10000 2.6 140 08:44 20.12.2020
4671 Clouds 31 1004 70 10000 5.1 110 08:25 20.12.2020
4672 Clouds 32 1004 62 10000 3.1 70 07:21 20.12.2020
4673 Clouds 31 1006 70 10000 3.6 20 02:47 20.12.2020
4674 Clouds 30 1006 70 10000 1 110 00:59 20.12.2020
4675 Clouds 30 1007 70 10000 1 180 23:41 19.12.2020
4676 Clouds 27 1006 83 10000 2.1 200 23:18 19.12.2020
4677 Clouds 27 1006 83 10000 2.1 200 23:18 19.12.2020
4678 Clouds 27 1006 83 10000 2.1 200 22:42 19.12.2020
4679 Clouds 24 1006 94 10000 1 200 22:24 19.12.2020
4680 Clouds 24 1006 94 10000 1 200 21:45 19.12.2020
4681 Clouds 22 1006 100 10000 1 140 21:26 19.12.2020
4682 Clouds 22 1006 100 10000 1 140 20:58 19.12.2020
4683 Clouds 23 1005 94 10000 1 110 20:24 19.12.2020
4684 Clouds 23 1005 94 10000 1 110 19:59 19.12.2020
4685 Clouds 23 1005 94 10000 1 110 19:41 19.12.2020
4686 Clouds 23 1005 100 10000 1.5 230 19:21 19.12.2020
4687 Clouds 23 1005 100 10000 1.5 230 18:33 19.12.2020
4688 Clouds 23 1005 100 10000 1.75 217 17:56 19.12.2020
4689 Clouds 23 1005 100 10000 1.75 217 17:31 19.12.2020
4690 Clouds 23 1005 100 10000 1.89 220 16:58 19.12.2020
4691 Clouds 23 1005 100 10000 1.89 220 16:38 19.12.2020
4692 Clouds 23 1005 100 10000 1.89 220 16:38 19.12.2020
4693 Clouds 23 1005 100 10000 1.65 223 16:20 19.12.2020
4694 Rain 23 1005 100 10000 1.65 223 15:49 19.12.2020
4695 Clouds 24 1006 94 10000 2.1 180 15:20 19.12.2020
4696 Rain 24 1006 94 10000 2.1 180 14:37 19.12.2020
4697 Rain 24 1007 94 10000 1.5 200 13:42 19.12.2020
4698 Clouds 24 1007 100 10000 2.1 230 13:23 19.12.2020
4699 Clouds 24 1007 100 10000 2.1 230 12:57 19.12.2020
4700 Clouds 24 1007 100 10000 2.1 230 12:38 19.12.2020
4701 Clouds 24 1007 100 10000 2.1 200 12:20 19.12.2020
4702 Clouds 24 1007 100 10000 2.1 200 11:44 19.12.2020
4703 Rain 25 1007 94 10000 2.1 160 11:18 19.12.2020
4704 Rain 25 1007 94 10000 2.1 160 10:42 19.12.2020
4705 Rain 25 1007 94 10000 2.1 160 10:42 19.12.2020
4706 Clouds 25 1007 94 10000 1.39 192 10:18 19.12.2020
4707 Clouds 25 1007 94 10000 1.39 192 09:41 19.12.2020
4708 Clouds 25 1007 94 10000 1 180 08:58 19.12.2020
4709 Clouds 25 1006 100 8000 2.1 230 08:18 19.12.2020
4710 Clouds 25 1006 100 10000 1.5 114 07:19 19.12.2020
4711 Clouds 25 1006 100 10000 1.5 114 06:44 19.12.2020
4712 Thunderstorm 26 1006 100 10000 3.1 360 05:23 19.12.2020
4713 Thunderstorm 27 1006 88 10000 4.1 180 03:48 19.12.2020
4714 Clouds 32 1007 70 10000 3.1 50 00:42 19.12.2020
4715 Clouds 31 1007 70 10000 2.1 70 00:21 19.12.2020
4716 Clouds 31 1007 70 10000 2.1 70 23:49 18.12.2020
4717 Clouds 28 1007 83 10000 1 140 23:25 18.12.2020
4718 Clouds 28 1007 83 10000 1 140 22:57 18.12.2020
4719 Clouds 28 1007 83 10000 1 140 22:38 18.12.2020
4720 Clouds 28 1007 83 10000 1 140 22:19 18.12.2020
4721 Clouds 25 1006 94 10000 2.1 160 21:41 18.12.2020
4722 Clouds 24 1005 94 10000 1 140 21:22 18.12.2020
4723 Clouds 24 1005 94 10000 1.17 194 20:25 18.12.2020
4724 Clouds 24 1005 94 10000 1.17 194 19:49 18.12.2020
4725 Clouds 25 1004 94 10000 1 230 19:23 18.12.2020
4726 Clouds 25 1004 94 10000 1 230 18:46 18.12.2020
4727 Clouds 26 1005 78 10000 1.84 215 18:26 18.12.2020
4728 Clouds 26 1005 78 10000 1.84 215 17:50 18.12.2020
4729 Clouds 25 1005 94 10000 1 230 17:20 18.12.2020
4730 Clouds 25 1005 94 10000 1 230 16:45 18.12.2020
4731 Clouds 25 1005 94 10000 1 160 16:20 18.12.2020
4732 Clouds 25 1005 94 10000 1 160 15:51 18.12.2020
4733 Clouds 25 1005 94 10000 1 160 15:33 18.12.2020
4734 Clouds 25 1006 94 10000 1.5 200 14:57 18.12.2020
4735 Clouds 25 1007 100 10000 1.5 110 14:24 18.12.2020
4736 Clouds 25 1007 100 10000 1.5 110 13:51 18.12.2020
4737 Clouds 25 1007 100 10000 1.5 110 13:32 18.12.2020
4738 Clouds 26 1006 94 10000 1.5 160 12:57 18.12.2020
4739 Clouds 26 1006 94 10000 1.5 160 12:34 18.12.2020
4740 Clouds 27 1006 88 10000 1 160 11:28 18.12.2020
4741 Clouds 27 1006 88 10000 1 160 10:40 18.12.2020
4742 Clouds 28 1005 83 10000 1 180 10:21 18.12.2020
4743 Clouds 28 1005 83 10000 1 180 09:55 18.12.2020
4744 Clouds 28 1005 83 10000 1 180 09:36 18.12.2020
4745 Clouds 29 1005 79 10000 2.6 160 09:18 18.12.2020
4746 Clouds 29 1005 79 10000 2.6 160 08:42 18.12.2020
4747 Clouds 32 1004 70 10000 1.5 160 07:52 18.12.2020
4748 Clouds 29 1004 79 10000 2.44 259 07:19 18.12.2020
4749 Clouds 29 1004 79 10000 2.73 269 06:58 18.12.2020
4750 Thunderstorm 31 1004 70 10000 2.6 20 05:44 18.12.2020
4751 Thunderstorm 32 1005 66 10000 3.6 360 04:51 18.12.2020
4752 Clouds 30 1005 72 10000 3.02 279 02:49 18.12.2020
4753 Clouds 31 1007 70 10000 3.6 20 01:43 18.12.2020
4754 Clouds 31 1007 70 10000 3.6 20 00:28 18.12.2020
4755 Clouds 31 1007 74 10000 0.94 335 23:51 17.12.2020
4756 Clouds 28 1007 83 10000 0.4 258 23:20 17.12.2020
4757 Clouds 28 1007 83 10000 0.4 258 22:47 17.12.2020
4758 Clouds 28 1007 83 10000 0.95 201 22:27 17.12.2020
4759 Clouds 25 1006 94 10000 1 200 21:44 17.12.2020
4760 Clouds 25 1006 94 10000 1 200 21:44 17.12.2020
4761 Clouds 23 1005 100 10000 2.1 180 21:20 17.12.2020
4762 Clouds 23 1005 100 10000 2.1 180 20:45 17.12.2020
4763 Clouds 24 1005 94 10000 1.61 198 20:19 17.12.2020
4764 Clouds 24 1005 94 10000 1.61 198 19:49 17.12.2020
4765 Clouds 24 1004 100 10000 1.75 207 19:25 17.12.2020
4766 Clouds 24 1004 100 10000 1.89 211 18:47 17.12.2020
4767 Clouds 24 1005 100 10000 1.98 213 18:27 17.12.2020
4768 Clouds 24 1005 100 10000 1.98 213 17:58 17.12.2020
4769 Clouds 24 1005 100 10000 1.98 213 17:36 17.12.2020
4770 Clouds 24 1005 94 10000 1 180 17:18 17.12.2020
4771 Clouds 24 1005 94 10000 1 180 16:37 17.12.2020
4772 Clouds 24 1006 100 10000 1.91 217 16:18 17.12.2020
4773 Clouds 24 1006 100 10000 1.91 217 15:41 17.12.2020
4774 Clouds 24 1007 100 10000 1.95 214 15:20 17.12.2020
4775 Clouds 24 1007 100 10000 1.95 214 14:47 17.12.2020
4776 Clouds 25 1007 94 10000 1 230 14:19 17.12.2020
4777 Clouds 25 1007 94 10000 1 230 13:42 17.12.2020
4778 Clouds 25 1007 100 10000 2.01 212 12:58 17.12.2020
4779 Clouds 25 1007 100 10000 2.01 212 12:38 17.12.2020
4780 Clouds 26 1007 94 10000 1 180 12:20 17.12.2020
4781 Clouds 26 1007 94 10000 1 180 11:40 17.12.2020
4782 Clouds 26 1007 100 10000 2.34 220 11:20 17.12.2020
4783 Clouds 26 1007 100 10000 2.34 220 10:33 17.12.2020
4784 Clouds 26 1006 94 10000 2.47 228 09:36 17.12.2020
4785 Drizzle 27 1005 94 10000 2.57 242 08:40 17.12.2020
4786 Rain 25 1004 94 10000 3.6 160 07:41 17.12.2020
4787 Clouds 24 1004 100 10000 6.2 180 07:20 17.12.2020
4788 Clouds 27 1004 94 10000 7.7 140 06:45 17.12.2020
4789 Clouds 27 1004 94 10000 7.7 140 06:27 17.12.2020
4790 Clouds 32 1006 62 10000 3.1 50 01:57 17.12.2020
4791 Clouds 32 1006 66 10000 1.75 289 00:19 17.12.2020
4792 Clouds 32 1006 66 10000 1.75 289 23:38 16.12.2020
4793 Clouds 29 1006 74 10000 1.5 140 23:18 16.12.2020
4794 Clouds 29 1006 74 10000 1.5 140 22:47 16.12.2020
4795 Clouds 29 1006 74 10000 1.5 140 22:27 16.12.2020
4796 Clouds 25 1005 94 10000 1.53 246 21:41 16.12.2020
4797 Clouds 23 1004 100 10000 1 160 21:21 16.12.2020
4798 Clouds 23 1004 100 10000 1 160 20:46 16.12.2020
4799 Clouds 24 1004 94 10000 2.1 180 20:20 16.12.2020
4800 Clouds 24 1004 94 10000 2.1 180 19:37 16.12.2020
4801 Clouds 24 1004 94 10000 2.1 180 19:18 16.12.2020
4802 Clouds 24 1004 100 10000 1.67 194 18:42 16.12.2020
4803 Clouds 25 1005 94 10000 1 180 18:22 16.12.2020
4804 Clouds 25 1005 94 10000 1 180 17:35 16.12.2020
4805 Clouds 25 1005 94 10000 1.5 230 16:43 16.12.2020
4806 Clouds 25 1005 100 10000 1 230 16:24 16.12.2020
4807 Clouds 25 1005 100 10000 1 230 15:54 16.12.2020
4808 Clouds 25 1005 100 10000 1 230 15:36 16.12.2020
4809 Clouds 26 1006 94 10000 1.5 200 14:56 16.12.2020
4810 Clouds 26 1006 94 10000 1.5 200 14:37 16.12.2020
4811 Clouds 26 1006 94 10000 1.5 90 14:19 16.12.2020
4812 Clouds 26 1006 94 10000 1.5 90 13:39 16.12.2020
4813 Clouds 27 1006 94 10000 2.1 70 13:19 16.12.2020
4814 Clouds 27 1006 94 10000 2.1 70 12:42 16.12.2020
4815 Clouds 27 1006 94 10000 2.6 160 11:49 16.12.2020
4816 Thunderstorm 28 1005 88 10000 1.5 180 11:23 16.12.2020
4817 Thunderstorm 28 1005 88 10000 1.5 180 10:53 16.12.2020
4818 Thunderstorm 28 1005 88 10000 1.5 180 10:27 16.12.2020
4819 Clouds 29 1005 89 10000 2.1 140 10:27 16.12.2020
4820 Clouds 29 1005 89 10000 2.1 140 09:50 16.12.2020
4821 Clouds 29 1003 89 10000 1.5 140 09:23 16.12.2020
4822 Clouds 30 1003 84 10000 3.1 160 08:22 16.12.2020
4823 Clouds 30 1003 84 10000 3.1 160 07:42 16.12.2020
4824 Clouds 31 1003 79 10000 4.1 160 07:19 16.12.2020
4825 Clouds 32 1004 70 10000 6.2 340 03:35 16.12.2020
4826 Clouds 31 1006 74 10000 2.6 360 01:31 16.12.2020
4827 Clouds 31 1007 70 10000 2.1 360 23:46 15.12.2020
4828 Clouds 29 1007 79 10000 2.28 289 22:56 15.12.2020
4829 Clouds 29 1007 79 10000 2.28 289 22:38 15.12.2020
4830 Clouds 25 1006 94 10000 1.77 268 22:18 15.12.2020
4831 Clouds 25 1006 94 10000 1.77 268 21:40 15.12.2020
4832 Clouds 24 1006 94 10000 1.5 180 21:21 15.12.2020
4833 Clouds 24 1006 94 10000 1.5 180 20:44 15.12.2020
4834 Clouds 24 1005 94 10000 1 110 20:26 15.12.2020
4835 Clouds 24 1005 94 10000 1 110 19:52 15.12.2020
4836 Clouds 24 1005 94 10000 1 110 19:26 15.12.2020
4837 Clouds 24 1005 94 10000 1 200 18:39 15.12.2020
4838 Clouds 25 1005 94 10000 1 200 18:21 15.12.2020
4839 Clouds 25 1005 94 10000 1 200 17:45 15.12.2020
4840 Clouds 25 1005 94 10000 1.5 200 17:27 15.12.2020
4841 Clouds 25 1005 94 10000 1.5 200 16:46 15.12.2020
4842 Clouds 25 1006 94 10000 1 180 16:27 15.12.2020
4843 Clouds 25 1006 94 10000 1 180 15:42 15.12.2020
4844 Clouds 26 1007 94 10000 1 200 15:24 15.12.2020
4845 Clouds 26 1007 94 10000 1 200 14:42 15.12.2020
4846 Clouds 26 1007 94 10000 1 200 14:20 15.12.2020
4847 Clouds 26 1007 94 10000 1.5 230 13:49 15.12.2020
4848 Clouds 26 1007 94 10000 1 250 13:25 15.12.2020
4849 Clouds 26 1007 94 10000 1 250 12:46 15.12.2020
4850 Clouds 26 1008 88 10000 1 160 12:19 15.12.2020
4851 Clouds 26 1008 88 10000 1 160 11:52 15.12.2020
4852 Clouds 28 1007 78 10000 1 140 11:23 15.12.2020
4853 Clouds 28 1007 78 10000 1 140 10:48 15.12.2020
4854 Clouds 29 1006 83 10000 2.6 180 10:20 15.12.2020
4855 Clouds 29 1006 83 10000 2.6 180 09:43 15.12.2020
4856 Thunderstorm 30 1005 79 10000 2.1 180 09:25 15.12.2020
4857 Clouds 31 1005 74 10000 1.5 50 08:41 15.12.2020
4858 Clouds 31 1004 70 10000 3.1 340 08:21 15.12.2020
4859 Clouds 31 1004 70 10000 3.1 340 07:44 15.12.2020
4860 Clouds 31 1004 74 10000 3.6 360 06:59 15.12.2020
4861 Clouds 31 1004 74 10000 4.1 320 05:37 15.12.2020
4862 Clouds 30 1008 79 10000 2.6 290 00:54 15.12.2020
4863 Clouds 30 1009 79 10000 2.1 320 23:51 14.12.2020
4864 Clouds 28 1008 83 10000 1 140 23:19 14.12.2020
4865 Clouds 28 1008 83 10000 1 140 22:44 14.12.2020
4866 Clouds 28 1008 83 10000 1 140 22:19 14.12.2020
4867 Clouds 26 1008 88 10000 1.5 230 21:40 14.12.2020
4868 Clouds 24 1007 94 10000 1.5 180 21:18 14.12.2020
4869 Clouds 24 1007 94 10000 1.5 180 21:18 14.12.2020
4870 Clouds 24 1007 94 10000 1.5 180 20:46 14.12.2020
4871 Clouds 25 1006 94 10000 1.5 180 20:27 14.12.2020
4872 Clouds 25 1006 94 10000 1.5 180 19:41 14.12.2020
4873 Clouds 24 1007 100 10000 1.1 285 19:23 14.12.2020
4874 Clouds 24 1007 100 10000 1.23 267 18:43 14.12.2020
4875 Clouds 24 1007 100 10000 1.24 262 18:23 14.12.2020
4876 Clouds 24 1007 100 10000 1.24 262 17:38 14.12.2020
4877 Clouds 24 1007 100 10000 1.33 252 17:19 14.12.2020
4878 Clouds 25 1007 94 10000 1.33 252 16:42 14.12.2020
4879 Clouds 25 1007 100 10000 1 180 16:23 14.12.2020
4880 Clouds 25 1007 100 10000 1 180 15:33 14.12.2020
4881 Clouds 25 1007 100 10000 1 180 15:33 14.12.2020
4882 Clouds 25 1008 100 10000 1.5 160 14:50 14.12.2020
4883 Clouds 25 1008 100 10000 1.5 160 14:29 14.12.2020
4884 Clouds 25 1008 100 10000 1.5 160 13:56 14.12.2020
4885 Thunderstorm 26 1008 94 10000 1 140 13:34 14.12.2020
4886 Thunderstorm 26 1008 94 10000 0.94 227 12:56 14.12.2020
4887 Thunderstorm 26 1008 94 10000 0.94 227 12:32 14.12.2020
4888 Clouds 26 1008 100 10000 2.1 160 11:57 14.12.2020
4889 Clouds 27 1007 94 10000 2.1 180 11:23 14.12.2020
4890 Clouds 27 1007 94 10000 2.1 180 10:28 14.12.2020
4891 Clouds 29 1006 79 10000 1.5 290 09:53 14.12.2020
4892 Clouds 29 1005 83 10000 2.1 360 08:57 14.12.2020
4893 Clouds 29 1005 83 10000 2.1 360 08:39 14.12.2020
4894 Clouds 29 1004 79 10000 2.6 320 07:59 14.12.2020
4895 Clouds 29 1004 79 10000 2.49 319 07:19 14.12.2020
4896 Clouds 29 1004 79 10000 2.49 319 06:42 14.12.2020
4897 Clouds 26 1006 94 10000 4.6 360 03:57 14.12.2020
4898 Clouds 26 1006 94 10000 4.6 360 03:57 14.12.2020
4899 Clouds 31 1007 70 10000 2.1 20 00:58 14.12.2020
4900 Clouds 31 1007 70 10000 2.1 20 00:39 14.12.2020
4901 Clouds 31 1007 70 10000 1 250 00:20 14.12.2020
4902 Clouds 31 1007 70 10000 1 250 23:44 13.12.2020
4903 Clouds 27 1007 78 10000 1 160 22:57 13.12.2020
4904 Clouds 27 1007 78 10000 1 160 22:39 13.12.2020
4905 Clouds 25 1006 88 10000 0.75 106 22:18 13.12.2020
4906 Clouds 25 1006 88 10000 0.75 106 21:41 13.12.2020
4907 Clouds 24 1005 94 10000 1 180 20:55 13.12.2020
4908 Clouds 24 1005 94 10000 2.1 200 20:25 13.12.2020
4909 Clouds 24 1005 94 10000 2.1 200 19:47 13.12.2020
4910 Thunderstorm 23 1005 94 10000 1 160 19:23 13.12.2020
4911 Thunderstorm 23 1005 94 10000 1 160 18:54 13.12.2020
4912 Thunderstorm 23 1005 94 10000 1 160 18:36 13.12.2020
4913 Clouds 23 1005 94 10000 1 160 18:18 13.12.2020
4914 Clouds 23 1005 94 10000 1 160 17:43 13.12.2020
4915 Clouds 24 1005 94 10000 1.75 211 17:18 13.12.2020
4916 Clouds 24 1005 94 10000 1.75 211 16:44 13.12.2020
4917 Clouds 24 1006 88 10000 1.5 180 16:21 13.12.2020
4918 Clouds 24 1006 88 10000 1.5 180 15:45 13.12.2020
4919 Clouds 24 1006 88 10000 1.5 180 15:45 13.12.2020
4920 Clouds 24 1006 88 10000 1.5 180 15:25 13.12.2020
4921 Clouds 24 1006 94 10000 1 180 14:46 13.12.2020
4922 Clouds 24 1006 94 10000 1 180 14:28 13.12.2020
4923 Clouds 25 1007 94 10000 1.5 200 13:46 13.12.2020
4924 Clouds 25 1007 94 10000 1.5 200 13:27 13.12.2020
4925 Clouds 25 1007 94 10000 1.5 250 12:55 13.12.2020
4926 Clouds 26 1007 83 10000 2.02 211 12:24 13.12.2020
4927 Clouds 26 1007 83 10000 2.02 211 11:51 13.12.2020
4928 Clouds 28 1006 74 10000 2.6 270 11:23 13.12.2020
4929 Clouds 28 1006 74 10000 2.6 270 10:41 13.12.2020
4930 Clouds 29 1005 70 10000 4.6 270 10:18 13.12.2020
4931 Clouds 29 1005 70 10000 4.6 270 09:31 13.12.2020
4932 Clouds 31 1004 62 10000 5.7 250 08:36 13.12.2020
4933 Clouds 33 1003 63 10000 4.6 290 07:52 13.12.2020
4934 Clouds 32 1003 70 10000 4.6 340 05:49 13.12.2020
4935 Clouds 32 1005 70 10000 4.6 320 02:43 13.12.2020
4936 Drizzle 31 1006 62 10000 4.6 290 01:58 13.12.2020
4937 Clouds 31 1006 70 10000 5.1 320 01:19 13.12.2020
4938 Clouds 31 1006 70 10000 5.1 320 00:33 13.12.2020
4939 Clouds 31 1006 66 10000 2.6 320 23:33 12.12.2020
4940 Clouds 28 1006 74 10000 1.07 296 22:57 12.12.2020
4941 Clouds 28 1006 74 10000 0.67 266 22:25 12.12.2020
4942 Clouds 25 1006 83 10000 1 200 21:44 12.12.2020
4943 Clouds 23 1004 88 10000 1 180 21:18 12.12.2020
4944 Clouds 23 1004 88 10000 1 180 20:41 12.12.2020
4945 Clouds 24 1004 88 10000 1 230 20:19 12.12.2020
4946 Clouds 24 1004 88 10000 1 230 20:19 12.12.2020
4947 Clouds 24 1004 88 10000 1 230 19:46 12.12.2020
4948 Clouds 24 1004 88 10000 1 230 19:28 12.12.2020
4949 Clouds 24 1004 88 10000 1 230 18:47 12.12.2020
4950 Clouds 24 1004 88 10000 1 230 18:29 12.12.2020
4951 Clouds 24 1004 88 10000 1 230 17:47 12.12.2020
4952 Clouds 24 1004 88 10000 1 230 17:28 12.12.2020
4953 Clouds 24 1005 94 10000 1 200 16:21 12.12.2020
4954 Clouds 24 1005 94 10000 1 200 15:50 12.12.2020
4955 Clouds 24 1005 94 10000 1 200 15:31 12.12.2020
4956 Clouds 25 1006 88 10000 1.32 195 14:49 12.12.2020
4957 Clouds 26 1007 83 10000 1.5 230 13:57 12.12.2020
4958 Clouds 26 1007 83 10000 1.5 230 13:38 12.12.2020
4959 Clouds 26 1007 94 10000 1.5 230 12:59 12.12.2020
4960 Clouds 26 1007 94 10000 1.5 230 12:26 12.12.2020
4961 Clouds 27 1007 88 10000 1 140 10:54 12.12.2020
4962 Clouds 28 1006 83 10000 1.5 160 09:49 12.12.2020
4963 Clouds 30 1005 74 10000 3.1 110 08:57 12.12.2020
4964 Clouds 33 1005 59 10000 7.7 320 02:57 12.12.2020
4965 Clouds 30 1006 74 10000 2.1 290 23:55 11.12.2020
4966 Clouds 27 1007 88 10000 1.5 200 22:30 11.12.2020
4967 Clouds 23 1006 94 10000 1.81 211 20:50 11.12.2020
4968 Clouds 24 1005 94 10000 2.6 200 18:27 11.12.2020
4969 Clouds 24 1006 94 10000 1.5 200 16:27 11.12.2020
4970 Clouds 26 1007 88 10000 2.1 230 14:18 11.12.2020
4971 Clouds 26 1007 88 10000 1.74 217 13:25 11.12.2020
4972 Clouds 26 1007 78 10000 1.84 227 12:19 11.12.2020
4973 Clouds 26 1007 78 10000 1.84 227 11:51 11.12.2020
4974 Clouds 26 1006 88 10000 1 230 10:46 11.12.2020
4975 Clouds 30 1006 74 10000 2.6 111 08:48 11.12.2020
4976 Clouds 31 1004 66 10000 4.1 360 05:42 11.12.2020
4977 Clouds 32 1005 66 10000 3.6 20 04:52 11.12.2020
4978 Clouds 30 1008 74 10000 3.6 360 01:38 11.12.2020
4979 Clouds 30 1008 74 10000 1 110 00:21 11.12.2020
4980 Clouds 28 1008 74 10000 2.1 180 22:44 10.12.2020
4981 Clouds 25 1007 88 10000 1 200 21:36 10.12.2020
4982 Clouds 23 1007 94 10000 2.1 180 20:41 10.12.2020
4983 Clouds 24 1006 100 10000 1.5 180 19:37 10.12.2020
4984 Clouds 24 1006 94 10000 2.6 180 18:53 10.12.2020
4985 Clouds 24 1006 94 10000 2.1 180 17:52 10.12.2020
4986 Clouds 25 1007 100 10000 1.5 160 16:25 10.12.2020
4987 Clouds 25 1008 100 10000 2.1 160 15:26 10.12.2020
4988 Clouds 25 1008 100 10000 2.1 160 14:50 10.12.2020
4989 Clouds 26 1009 94 10000 3.1 90 14:26 10.12.2020
4990 Clouds 26 1008 100 10000 1 200 12:40 10.12.2020
4991 Clouds 28 1008 88 10000 2.1 180 11:33 10.12.2020
4992 Clouds 30 1007 74 10000 1.5 360 08:51 10.12.2020
4993 Clouds 30 1006 74 10000 3.1 340 07:38 10.12.2020
4994 Clouds 31 1006 66 10000 2.6 340 06:41 10.12.2020
4995 Clouds 31 1007 70 10000 3.6 360 02:53 10.12.2020
4996 Clouds 31 1008 70 10000 3.6 20 01:58 10.12.2020
4997 Clouds 30 1009 74 10000 2.6 320 23:50 09.12.2020
4998 Clouds 24 1008 94 10000 1 200 20:43 09.12.2020
4999 Clouds 24 1007 100 10000 1 200 20:24 09.12.2020
5000 Clouds 25 1007 79 10000 1.79 150 18:58 09.12.2020
5001 Clouds 24 1007 100 10000 1 160 17:39 09.12.2020
5002 Clouds 24 1007 100 10000 1.5 180 16:40 09.12.2020
5003 Clouds 25 1008 94 10000 1.5 200 16:20 09.12.2020
5004 Clouds 25 1009 100 10000 2.1 140 14:53 09.12.2020
5005 Clouds 25 1009 100 10000 1 110 14:27 09.12.2020
5006 Clouds 25 1009 100 10000 1 110 13:51 09.12.2020
5007 Clouds 26 1009 100 10000 2.21 165 13:18 09.12.2020
5008 Clouds 26 1009 100 10000 2.18 154 12:43 09.12.2020
5009 Clouds 27 1009 94 10000 1.5 180 11:43 09.12.2020
5010 Clouds 28 1008 88 10000 1 110 09:54 09.12.2020
5011 Clouds 30 1007 74 10000 1 50 08:42 09.12.2020
5012 Clouds 29 1007 79 10000 3.1 290 06:56 09.12.2020
5013 Clouds 31 1007 74 10000 3.6 290 05:42 09.12.2020
5014 Clouds 31 1008 74 10000 4.1 20 02:57 09.12.2020
5015 Clouds 31 1010 74 10000 3.1 360 00:52 09.12.2020
5016 Clouds 30 1010 74 10000 2.1 110 23:36 08.12.2020
5017 Clouds 25 1010 94 10000 2.1 160 22:27 08.12.2020
5018 Clouds 24 1009 94 10000 0.72 125 20:48 08.12.2020
5019 Clouds 24 1008 94 10000 1 160 19:31 08.12.2020
5020 Clouds 24 1008 94 10000 1 160 18:38 08.12.2020
5021 Clouds 24 1008 100 10000 1 110 17:19 08.12.2020
5022 Clouds 25 1010 94 10000 0.16 179 15:23 08.12.2020
5023 Clouds 25 1010 100 10000 1 180 13:50 08.12.2020
5024 Clouds 25 1010 100 10000 2.1 160 12:41 08.12.2020
5025 Clouds 25 1010 100 10000 1.5 140 11:55 08.12.2020
5026 Clouds 26 1010 88 10000 1.5 160 10:57 08.12.2020
5027 Clouds 26 1010 88 10000 1.5 160 10:39 08.12.2020
5028 Clouds 27 1009 88 10000 1.5 110 09:38 08.12.2020
5029 Clouds 29 1008 74 10000 1 110 07:38 08.12.2020
5030 Clouds 31 1008 66 10000 2.6 70 05:35 08.12.2020
5031 Clouds 31 1010 70 10000 4.1 360 02:29 08.12.2020
5032 Clouds 32 1011 66 10000 1.5 230 00:44 08.12.2020
5033 Clouds 28 1011 78 10000 1.5 180 23:25 07.12.2020
5034 Clouds 25 1011 88 10000 2.1 200 22:20 07.12.2020
5035 Clouds 25 1011 88 10000 2.1 200 21:26 07.12.2020
5036 Clouds 24 1009 94 10000 1 180 19:23 07.12.2020
5037 Clouds 23 1009 100 10000 2.1 200 17:55 07.12.2020
5038 Clouds 24 1009 94 10000 1.5 140 17:19 07.12.2020
5039 Clouds 24 1009 94 10000 1.5 140 16:28 07.12.2020
5040 Clouds 24 1009 100 10000 1 180 15:24 07.12.2020
5041 Clouds 24 1010 100 10000 1 180 14:28 07.12.2020
5042 Clouds 25 1011 94 10000 0.45 208 13:35 07.12.2020
5043 Rain 25 1011 100 10000 1 180 11:58 07.12.2020
5044 Rain 25 1011 100 10000 1 180 11:58 07.12.2020
5045 Clouds 25 1011 100 10000 1 180 11:38 07.12.2020
5046 Clouds 25 1010 100 10000 2.1 180 10:23 07.12.2020
5047 Clouds 25 1010 100 10000 0.31 17 08:37 07.12.2020
5048 Clouds 25 1008 94 9411 3.1 140 07:23 07.12.2020
5049 Thunderstorm 31 1008 74 10000 4.6 20 05:26 07.12.2020
5050 Clouds 31 1009 79 10000 4.1 20 03:43 07.12.2020
5051 Clouds 31 1011 74 10000 3.6 50 00:33 07.12.2020
5052 Clouds 28 1011 78 10000 3.1 200 22:46 06.12.2020
5053 Clouds 25 1010 94 10000 1.5 160 21:44 06.12.2020
5054 Clouds 23 1010 100 10000 1.5 160 20:35 06.12.2020
5055 Clouds 23 1010 100 10000 1.5 160 20:35 06.12.2020
5056 Clouds 24 1009 94 10000 1.5 140 19:57 06.12.2020
5057 Clouds 26 1009 79 10000 1.29 147 18:53 06.12.2020
5058 Clouds 24 1010 100 10000 1.32 148 17:24 06.12.2020
5059 Clouds 24 1010 100 10000 1.24 143 16:27 06.12.2020
5060 Clouds 25 1011 94 10000 1.43 141 14:21 06.12.2020
5061 Clouds 25 1011 94 10000 1 160 12:52 06.12.2020
5062 Clouds 25 1011 94 10000 1 160 12:27 06.12.2020
5063 Clouds 26 1011 94 10000 1 140 11:37 06.12.2020
5064 Clouds 27 1010 88 10000 1 230 11:18 06.12.2020
5065 Clouds 27 1010 88 10000 1 230 10:26 06.12.2020
5066 Clouds 29 1009 74 10000 2.1 360 08:45 06.12.2020
5067 Clouds 32 1008 55 10000 1 50 06:51 06.12.2020
5068 Clouds 31 1010 70 10000 3.6 70 02:21 06.12.2020
5069 Clouds 31 1011 70 10000 1 140 00:42 06.12.2020
5070 Rain 28 1011 78 10000 1.5 180 00:23 06.12.2020
5071 Clouds 26 1011 88 10000 1 160 22:51 05.12.2020
5072 Rain 25 1011 94 10000 2.6 140 22:20 05.12.2020
5073 Rain 25 1011 94 10000 2.6 140 21:51 05.12.2020
5074 Clouds 25 1011 94 10000 2.6 140 21:26 05.12.2020
5075 Rain 24 1010 94 10000 1 230 19:48 05.12.2020
5076 Clouds 24 1009 94 10000 1 180 18:40 05.12.2020
5077 Clouds 24 1009 100 10000 1 110 17:33 05.12.2020
5078 Clouds 25 1009 94 10000 1.5 160 16:31 05.12.2020
5079 Clouds 25 1010 94 10000 2.1 110 15:54 05.12.2020
5080 Clouds 26 1011 94 10000 1 160 14:27 05.12.2020
5081 Clouds 27 1010 83 10000 0.45 52 12:23 05.12.2020
5082 Clouds 27 1010 83 10000 0.45 52 11:41 05.12.2020
5083 Clouds 27 1010 83 10000 0.39 69 10:31 05.12.2020
5084 Clouds 30 1008 70 10000 1 230 07:48 05.12.2020
5085 Rain 29 1008 79 10000 2.1 340 06:40 05.12.2020
5086 Clouds 30 1009 74 10000 2.6 360 03:54 05.12.2020
5087 Clouds 30 1011 74 10000 2.1 360 23:52 04.12.2020
5088 Clouds 25 1010 94 10000 0.76 50 22:24 04.12.2020
5089 Rain 24 1009 100 10000 1.08 154 20:25 04.12.2020
5090 Rain 24 1008 100 10000 1 140 18:53 04.12.2020
5091 Clouds 24 1008 100 10000 0.53 172 18:19 04.12.2020
5092 Rain 25 1008 94 10000 1.01 172 17:29 04.12.2020
5093 Clouds 25 1009 100 10000 1.01 177 15:39 04.12.2020
5094 Drizzle 25 1010 94 10000 0.9 155 13:40 04.12.2020
5095 Clouds 25 1010 94 10000 2.6 140 13:21 04.12.2020
5096 Clouds 25 1010 94 10000 2.6 140 12:49 04.12.2020
5097 Clouds 26 1009 88 10000 1.07 135 10:40 04.12.2020
5098 Clouds 27 1009 83 10000 1.5 320 09:46 04.12.2020
5099 Rain 30 1007 66 10000 2.1 340 06:42 04.12.2020
5100 Clouds 30 1007 66 10000 2.6 360 05:44 04.12.2020
5101 Clouds 31 1009 66 10000 2.1 360 01:56 04.12.2020
5102 Clouds 25 1010 94 4649 2.84 150 22:52 03.12.2020
5103 Clouds 25 1010 94 4545 3.23 142 22:27 03.12.2020
5104 Clouds 24 1009 94 3807 1 180 20:49 03.12.2020
5105 Clouds 24 1008 94 2218 2.68 132 19:29 03.12.2020
5106 Clouds 24 1008 100 10000 3.48 107 18:51 03.12.2020
5107 Clouds 24 1009 100 10000 3.31 110 17:41 03.12.2020
5108 Clouds 24 1009 100 10000 1 110 17:18 03.12.2020
5109 Clouds 24 1010 100 10000 1.5 140 15:52 03.12.2020
5110 Clouds 24 1010 100 10000 1.5 140 15:30 03.12.2020
5111 Drizzle 24 1010 100 10000 1.5 110 14:35 03.12.2020
5112 Drizzle 24 1011 100 10000 1 180 13:36 03.12.2020
5113 Clouds 24 1011 100 10000 1.5 160 12:26 03.12.2020
5114 Clouds 25 1010 94 10000 3.1 70 11:24 03.12.2020
5115 Clouds 25 1008 94 10000 1 180 08:56 03.12.2020
5116 Rain 30 1008 62 10000 1.5 20 05:23 03.12.2020
5117 Rain 31 1008 70 10000 3.6 20 02:27 03.12.2020
5118 Rain 30 1009 70 10000 2.1 50 00:48 03.12.2020
5119 Clouds 27 1009 83 10000 1 360 22:47 02.12.2020
5120 Rain 26 1009 88 10000 2.6 360 22:21 02.12.2020
5121 Clouds 26 1009 77 10000 2.27 116 20:55 02.12.2020
5122 Clouds 24 1008 94 10000 1 160 20:37 02.12.2020
5123 Rain 24 1008 94 10000 1 160 20:18 02.12.2020
5124 Clouds 24 1008 100 10000 1.5 160 17:56 02.12.2020
5125 Rain 24 1008 100 10000 1.5 90 17:37 02.12.2020
5126 Rain 24 1008 100 10000 1.5 90 17:19 02.12.2020
5127 Rain 25 1010 94 10000 2.1 110 14:49 02.12.2020
5128 Clouds 26 1010 88 10000 3.38 114 11:34 02.12.2020
5129 Clouds 26 1009 94 10000 1 200 10:28 02.12.2020
5130 Clouds 28 1008 83 10000 1.5 160 08:36 02.12.2020
5131 Clouds 32 1009 59 10000 6.7 90 01:39 02.12.2020
5132 Clouds 25 1008 94 10000 3.1 110 22:21 01.12.2020
5133 Clouds 27 1009 79 10000 3.29 118 20:46 01.12.2020
5134 Rain 24 1007 100 10000 2.6 140 19:34 01.12.2020
5135 Clouds 25 1008 100 10000 3.37 118 17:34 01.12.2020
5136 Clouds 26 1009 94 10000 1.5 160 15:44 01.12.2020
5137 Rain 26 1009 100 10000 1 70 13:37 01.12.2020
5138 Clouds 28 1009 83 10000 1 160 11:46 01.12.2020
5139 Clouds 28 1009 83 10000 1 160 11:26 01.12.2020
5140 Clouds 28 1009 83 10000 1 160 10:38 01.12.2020
5141 Clouds 30 1007 74 10000 3.1 110 08:21 01.12.2020
5142 Clouds 31 1007 70 10000 5.1 90 06:47 01.12.2020
5143 Clouds 32 1010 62 10000 2.6 140 01:52 01.12.2020
5144 Clouds 32 1010 66 10000 3.1 110 00:52 01.12.2020
5145 Clouds 27 1010 83 10000 1.5 160 23:21 30.11.2020
5146 Clouds 27 1010 83 10000 1.5 160 22:43 30.11.2020
5147 Clouds 27 1010 83 10000 1.5 160 22:25 30.11.2020
5148 Clouds 24 1009 94 10000 1 200 20:47 30.11.2020
5149 Clouds 24 1008 94 10000 1.5 180 19:42 30.11.2020
5150 Clouds 24 1008 94 10000 1.5 180 19:42 30.11.2020
5151 Clouds 25 1008 94 10000 1 140 18:23 30.11.2020
5152 Clouds 25 1008 94 10000 1 140 17:47 30.11.2020
5153 Clouds 25 1008 94 10000 1.81 132 16:54 30.11.2020
5154 Clouds 25 1009 100 10000 1.88 118 15:46 30.11.2020
5155 Rain 26 1009 94 10000 1 180 14:24 30.11.2020
5156 Rain 26 1010 94 10000 1 160 13:42 30.11.2020
5157 Clouds 26 1010 94 10000 1 140 12:26 30.11.2020
5158 Clouds 27 1010 88 10000 1.86 152 11:57 30.11.2020
5159 Clouds 27 1009 83 10000 1 200 10:26 30.11.2020
5160 Clouds 28 1008 83 10000 1 200 09:43 30.11.2020
5161 Rain 30 1006 74 10000 4.1 50 06:48 30.11.2020
5162 Clouds 29 1009 79 10000 2.6 140 23:29 29.11.2020
5163 Clouds 25 1009 88 10000 2.1 140 21:47 29.11.2020
5164 Clouds 25 1009 88 10000 2.1 140 21:47 29.11.2020
5165 Clouds 25 1009 88 10000 2.1 140 21:28 29.11.2020
5166 Clouds 22 1008 94 10000 2.1 140 19:46 29.11.2020
5167 Clouds 22 1008 100 10000 2.39 31 17:46 29.11.2020
5168 Clouds 22 1008 100 10000 2.39 31 17:46 29.11.2020
5169 Clouds 23 1010 100 10000 1 140 14:53 29.11.2020
5170 Clouds 23 1010 100 10000 2.6 200 12:46 29.11.2020
5171 Rain 24 1009 100 10000 2.6 200 11:41 29.11.2020
5172 Drizzle 25 1008 94 10000 1.5 230 08:55 29.11.2020
5173 Rain 25 1008 94 10000 1.5 230 08:36 29.11.2020
5174 Rain 32 1007 70 10000 6.2 70 03:30 29.11.2020
5175 Clouds 28 1008 78 10000 1 180 23:18 28.11.2020
5176 Clouds 28 1008 78 10000 1 180 22:50 28.11.2020
5177 Clouds 24 1007 94 10000 1.09 86 20:27 28.11.2020
5178 Clouds 24 1006 94 10000 1 140 19:29 28.11.2020
5179 Clouds 24 1006 100 10000 1 160 18:58 28.11.2020
5180 Clouds 25 1006 94 10000 0.73 145 18:22 28.11.2020
5181 Clouds 25 1006 94 10000 1.5 180 16:58 28.11.2020
5182 Clouds 26 1008 94 10000 1.5 160 14:59 28.11.2020
5183 Rain 26 1009 88 10000 2.1 160 13:55 28.11.2020
5184 Clouds 28 1009 88 10000 1.5 180 11:28 28.11.2020
5185 Clouds 29 1008 79 10000 2.6 340 09:26 28.11.2020
5186 Clouds 32 1007 62 10000 4.1 50 03:44 28.11.2020
5187 Clouds 31 1008 70 10000 3.6 50 01:53 28.11.2020
5188 Clouds 28 1008 78 10000 1 180 23:22 27.11.2020
5189 Clouds 28 1008 78 10000 1 180 22:33 27.11.2020
5190 Clouds 23 1007 94 10000 1.5 160 20:39 27.11.2020
5191 Clouds 23 1006 94 10000 1 140 19:34 27.11.2020
5192 Clouds 23 1006 100 10000 1 180 18:57 27.11.2020
5193 Clouds 24 1006 94 10000 2.1 90 16:51 27.11.2020
5194 Clouds 25 1008 94 10000 2.1 200 14:45 27.11.2020
5195 Clouds 26 1009 94 10000 1.5 200 13:18 27.11.2020
5196 Clouds 26 1009 94 10000 1.5 200 12:46 27.11.2020
5197 Clouds 26 1008 94 10000 2.1 160 11:34 27.11.2020
5198 Clouds 27 1008 88 10000 1.5 140 10:43 27.11.2020
5199 Clouds 28 1007 88 10000 2.1 180 09:31 27.11.2020
5200 Clouds 29 1010 67 10000 1.33 75 23:18 26.11.2020
5201 Clouds 28 1010 71 10000 1.12 107 22:24 26.11.2020
5202 Clouds 28 1010 71 10000 1.12 107 21:42 26.11.2020
5203 Clouds 23 1008 94 10000 1.16 136 20:43 26.11.2020
5204 Clouds 24 1007 94 10000 1.5 200 18:36 26.11.2020
5205 Clouds 23 1007 100 10000 1.5 160 17:20 26.11.2020
5206 Clouds 24 1009 100 10000 1 180 13:44 26.11.2020
5207 Clouds 25 1009 94 10000 1 140 12:56 26.11.2020
5208 Clouds 25 1009 94 10000 1 140 12:29 26.11.2020
5209 Clouds 26 1007 88 10000 1 200 10:40 26.11.2020
5210 Clouds 27 1007 78 10000 1 200 10:18 26.11.2020
5211 Clouds 27 1007 78 10000 1 200 09:34 26.11.2020
5212 Clouds 28 1006 69 10000 1 290 08:44 26.11.2020
5213 Clouds 29 1005 66 10000 2.1 340 07:49 26.11.2020
5214 Clouds 30 1009 66 10000 0.62 131 02:18 26.11.2020
5215 Clouds 23 1009 100 10000 1 200 21:54 25.11.2020
5216 Clouds 22 1008 100 10000 1.5 140 20:31 25.11.2020
5217 Clouds 24 1008 70 10000 0.76 209 18:59 25.11.2020
5218 Rain 22 1007 100 10000 0.6 197 17:27 25.11.2020
5219 Clouds 23 1007 94 10000 1.5 160 15:43 25.11.2020
5220 Clouds 22 1008 100 10000 1.5 160 14:46 25.11.2020
5221 Clouds 22 1008 100 10000 2.1 180 13:45 25.11.2020
5222 Clouds 23 1009 100 10000 0.92 168 12:30 25.11.2020
5223 Clouds 24 1008 94 10000 0.84 138 11:21 25.11.2020
5224 Rain 24 1008 79 10000 1.44 98 09:20 25.11.2020
5225 Rain 25 1007 94 10000 1.44 98 08:49 25.11.2020
5226 Drizzle 25 1007 94 10000 1 200 06:59 25.11.2020
5227 Drizzle 25 1008 94 10000 2.1 320 03:49 25.11.2020
5228 Rain 24 1010 94 4130 1.5 160 00:55 25.11.2020
5229 Clouds 23 1010 100 4153 1.5 140 23:57 24.11.2020
5230 Clouds 23 1010 100 4153 1 200 23:34 24.11.2020
5231 Clouds 23 1009 100 3401 3.1 200 22:18 24.11.2020
5232 Clouds 24 1009 100 3401 2.1 20 21:31 24.11.2020
5233 Clouds 23 1007 100 10000 1 140 20:45 24.11.2020
5234 Clouds 23 1007 100 10000 2.1 180 19:21 24.11.2020
5235 Clouds 23 1007 100 10000 4.1 360 17:31 24.11.2020
5236 Drizzle 25 1006 94 10000 2.1 320 16:56 24.11.2020
5237 Drizzle 25 1006 94 10000 2.1 320 16:36 24.11.2020
5238 Thunderstorm 25 1006 94 10000 2.6 200 15:55 24.11.2020
5239 Clouds 25 1007 88 10000 1.5 20 15:19 24.11.2020
5240 Clouds 25 1007 88 10000 1.5 20 14:43 24.11.2020
5241 Clouds 25 1008 88 10000 2.1 180 12:55 24.11.2020
5242 Clouds 26 1008 88 10000 1.5 200 12:22 24.11.2020
5243 Clouds 26 1008 88 10000 1.5 200 11:58 24.11.2020
5244 Clouds 27 1007 83 10000 1.01 157 10:47 24.11.2020
5245 Clouds 27 1007 83 10000 0.39 146 10:25 24.11.2020
5246 Clouds 28 1007 78 10000 3.1 200 09:35 24.11.2020
5247 Clouds 29 1006 74 10000 2.1 160 08:26 24.11.2020
5248 Clouds 32 1005 55 10000 3.1 360 04:48 24.11.2020
5249 Clouds 27 1007 83 10000 1.5 180 22:35 23.11.2020
5250 Clouds 26 1007 83 10000 1.25 78 21:37 23.11.2020
5251 Clouds 23 1006 94 10000 1.5 200 20:54 23.11.2020
5252 Clouds 23 1006 94 10000 2.1 160 20:27 23.11.2020
5253 Clouds 23 1006 94 10000 2.1 160 19:24 23.11.2020
5254 Clouds 24 1006 94 10000 0.5 153 17:26 23.11.2020
5255 Clouds 24 1006 94 10000 0.54 127 16:28 23.11.2020
5256 Clouds 25 1008 88 10000 0.64 137 14:48 23.11.2020
5257 Clouds 25 1009 94 10000 1.19 179 13:20 23.11.2020
5258 Clouds 25 1009 94 10000 1.19 179 12:37 23.11.2020
5259 Clouds 26 1008 83 10000 1.5 180 11:48 23.11.2020
5260 Clouds 26 1008 94 10000 2.1 140 11:19 23.11.2020
5261 Clouds 27 1008 88 10000 1 180 09:31 23.11.2020
5262 Drizzle 28 1007 83 10000 1 140 08:47 23.11.2020
5263 Clouds 30 1006 66 10000 1.5 160 07:27 23.11.2020
5264 Clouds 30 1008 70 10000 3.1 20 00:34 23.11.2020
5265 Clouds 30 1009 70 10000 3.1 20 23:35 22.11.2020
5266 Clouds 25 1008 94 10000 1.5 110 22:18 22.11.2020
5267 Clouds 23 1007 100 10000 1.5 160 20:53 22.11.2020
5268 Clouds 23 1007 94 10000 2.1 180 19:53 22.11.2020
5269 Clouds 23 1007 100 10000 1 200 18:40 22.11.2020
5270 Clouds 24 1008 94 10000 2.1 140 16:54 22.11.2020
5271 Clouds 24 1009 94 10000 2.1 140 15:51 22.11.2020
5272 Clouds 24 1010 100 10000 1 200 14:34 22.11.2020
5273 Clouds 25 1010 94 10000 1.26 155 12:50 22.11.2020
5274 Clouds 26 1009 94 10000 1 230 11:57 22.11.2020
5275 Clouds 26 1009 94 10000 1.5 180 11:20 22.11.2020
5276 Clouds 26 1009 94 10000 1.5 180 10:44 22.11.2020
5277 Clouds 29 1007 74 10000 1.5 110 08:51 22.11.2020
5278 Clouds 31 1009 70 10000 2.6 20 01:48 22.11.2020
5279 Clouds 31 1009 70 10000 4.6 70 23:35 21.11.2020
5280 Clouds 25 1009 100 10000 1.5 160 21:57 21.11.2020
5281 Clouds 24 1008 100 10000 1.5 160 21:19 21.11.2020
5282 Clouds 24 1008 100 10000 1.5 160 20:33 21.11.2020
5283 Drizzle 24 1008 94 10000 2.1 110 19:53 21.11.2020
5284 Drizzle 24 1008 94 10000 2.1 110 19:26 21.11.2020
5285 Clouds 24 1007 100 10000 1.5 140 17:57 21.11.2020
5286 Clouds 25 1008 88 10000 1.81 153 16:48 21.11.2020
5287 Clouds 25 1008 88 10000 1.81 153 16:48 21.11.2020
5288 Clouds 25 1008 94 10000 1.5 180 15:51 21.11.2020
5289 Clouds 25 1009 94 10000 1.5 160 15:21 21.11.2020
5290 Clouds 25 1009 94 10000 1.5 160 14:43 21.11.2020
5291 Clouds 25 1010 94 10000 1 180 13:48 21.11.2020
5292 Clouds 25 1010 94 10000 1 160 12:26 21.11.2020
5293 Clouds 25 1009 94 10000 1.5 160 11:56 21.11.2020
5294 Clouds 25 1010 94 10000 1.5 140 10:39 21.11.2020
5295 Clouds 27 1009 88 10000 1.5 20 09:32 21.11.2020
5296 Thunderstorm 27 1009 88 10000 1.5 20 08:51 21.11.2020
5297 Clouds 31 1006 66 10000 2.6 360 05:43 21.11.2020
5298 Clouds 32 1007 62 10000 2.6 50 04:24 21.11.2020
5299 Clouds 30 1009 70 10000 2.6 90 00:26 21.11.2020
5300 Clouds 27 1009 83 10000 1.92 62 23:23 20.11.2020
5301 Clouds 25 1009 94 10000 1 160 21:47 20.11.2020
5302 Clouds 25 1009 94 10000 1 160 21:26 20.11.2020
5303 Rain 24 1008 100 10000 1 140 20:42 20.11.2020
5304 Rain 24 1007 100 10000 1.5 140 19:37 20.11.2020
5305 Clouds 25 1007 94 10000 2.1 180 18:28 20.11.2020
5306 Clouds 25 1007 94 10000 1.5 160 17:32 20.11.2020
5307 Rain 26 1007 88 10000 1.47 121 16:48 20.11.2020
5308 Rain 26 1007 88 10000 1.47 121 16:48 20.11.2020
5309 Rain 26 1007 88 10000 1.69 111 16:29 20.11.2020
5310 Rain 26 1008 94 10000 2.1 50 15:47 20.11.2020
5311 Rain 25 1009 94 10000 1 140 14:18 20.11.2020
5312 Rain 25 1009 100 10000 1.5 140 13:22 20.11.2020
5313 Rain 25 1009 100 10000 1.5 140 12:58 20.11.2020
5314 Clouds 26 1009 94 10000 1 140 11:55 20.11.2020
5315 Clouds 26 1009 94 10000 1 140 11:26 20.11.2020
5316 Rain 27 1008 88 10000 2.6 110 09:53 20.11.2020
5317 Rain 28 1007 83 10000 1 90 08:30 20.11.2020
5318 Rain 29 1006 70 10000 1 70 07:49 20.11.2020
5319 Rain 30 1007 70 10000 2.6 90 05:18 20.11.2020
5320 Clouds 27 1009 88 10000 3.1 140 23:38 19.11.2020
5321 Clouds 27 1008 83 10000 3.1 110 22:30 19.11.2020
5322 Clouds 24 1008 94 10000 2.1 140 21:52 19.11.2020
5323 Clouds 24 1007 94 10000 3.1 90 20:53 19.11.2020
5324 Clouds 24 1007 94 10000 1 200 20:19 19.11.2020
5325 Clouds 24 1007 94 10000 1 200 19:26 19.11.2020
5326 Clouds 24 1006 100 10000 1.5 160 18:47 19.11.2020
5327 Clouds 24 1007 100 10000 1 110 17:21 19.11.2020
5328 Clouds 24 1007 100 10000 1 110 16:26 19.11.2020
5329 Clouds 25 1008 94 10000 5.1 110 15:29 19.11.2020
5330 Clouds 25 1009 94 10000 1.5 180 13:49 19.11.2020
5331 Clouds 25 1009 94 10000 1.5 180 13:30 19.11.2020
5332 Clouds 25 1008 94 10000 1.5 140 12:51 19.11.2020
5333 Clouds 25 1008 94 10000 1.5 140 12:28 19.11.2020
5334 Clouds 25 1009 94 10000 1.5 140 11:40 19.11.2020
5335 Clouds 25 1009 94 10000 1.5 140 11:40 19.11.2020
5336 Clouds 26 1008 83 10000 3.6 90 11:20 19.11.2020
5337 Clouds 26 1008 83 10000 3.6 90 10:29 19.11.2020
5338 Clouds 28 1008 78 10000 3.6 90 09:47 19.11.2020
5339 Clouds 28 1008 78 10000 3.6 90 09:26 19.11.2020
5340 Clouds 30 1006 66 10000 6.7 90 08:20 19.11.2020
5341 Clouds 31 1005 66 10000 4.1 90 06:54 19.11.2020
5342 Clouds 32 1008 62 10000 4.6 110 01:46 19.11.2020
5343 Clouds 31 1008 70 10000 5.7 110 00:31 19.11.2020
5344 Clouds 30 1008 70 10000 4.1 90 23:30 18.11.2020
5345 Clouds 26 1008 83 10000 2.1 110 22:40 18.11.2020
5346 Clouds 25 1008 88 10000 1 110 22:21 18.11.2020
5347 Clouds 25 1008 88 10000 1 110 21:40 18.11.2020
5348 Clouds 23 1007 100 10000 1.88 134 21:20 18.11.2020
5349 Clouds 23 1006 94 10000 2.1 180 19:50 18.11.2020
5350 Clouds 23 1006 94 10000 2.1 180 19:28 18.11.2020
5351 Clouds 24 1006 94 10000 2.1 160 18:56 18.11.2020
5352 Clouds 24 1006 94 10000 2.1 160 18:37 18.11.2020
5353 Clouds 24 1005 94 10000 1.84 122 17:37 18.11.2020
5354 Clouds 25 1005 88 10000 1.5 90 16:24 18.11.2020
5355 Clouds 25 1007 88 10000 4.1 110 15:47 18.11.2020
5356 Clouds 25 1009 88 10000 3.6 110 14:41 18.11.2020
5357 Clouds 25 1009 94 10000 6.2 90 13:43 18.11.2020
5358 Clouds 25 1009 94 10000 6.2 90 13:20 18.11.2020
5359 Clouds 25 1009 94 10000 6.2 90 12:29 18.11.2020
5360 Clouds 25 1009 94 10000 4.1 110 11:28 18.11.2020
5361 Drizzle 24 1008 94 10000 3.6 140 10:31 18.11.2020
5362 Clouds 25 1008 94 10000 4.1 140 09:52 18.11.2020
5363 Drizzle 25 1008 94 10000 3.6 90 07:40 18.11.2020
5364 Clouds 25 1008 94 10000 5.1 110 06:30 18.11.2020
5365 Clouds 31 1008 70 10000 6.7 70 00:23 18.11.2020
5366 Clouds 32 1008 66 10000 6.2 110 23:31 17.11.2020
5367 Clouds 28 1008 78 10000 1 140 22:46 17.11.2020
5368 Clouds 28 1008 78 10000 1 140 22:28 17.11.2020
5369 Clouds 25 1008 94 10000 3.3 115 21:49 17.11.2020
5370 Clouds 25 1008 94 10000 3.06 118 21:29 17.11.2020
5371 Clouds 24 1007 94 10000 1 160 20:44 17.11.2020
5372 Clouds 24 1007 94 10000 1 160 20:24 17.11.2020
5373 Clouds 24 1007 94 10000 2.1 180 19:50 17.11.2020
5374 Clouds 26 1007 79 10000 2.58 136 18:24 17.11.2020
5375 Clouds 25 1007 94 10000 1 110 17:33 17.11.2020
5376 Rain 25 1007 94 10000 1 110 16:37 17.11.2020
5377 Clouds 25 1007 94 10000 2.1 180 16:18 17.11.2020
5378 Rain 25 1007 94 10000 2.1 180 15:38 17.11.2020
5379 Clouds 26 1008 88 10000 2.1 110 15:20 17.11.2020
5380 Clouds 26 1008 88 10000 2.1 110 14:30 17.11.2020
5381 Clouds 26 1009 88 10000 1.5 110 13:45 17.11.2020
5382 Clouds 27 1010 81 10000 2.55 123 13:21 17.11.2020
5383 Clouds 27 1010 81 10000 2.88 122 12:42 17.11.2020
5384 Clouds 27 1008 88 10000 2.54 129 11:45 17.11.2020
5385 Clouds 28 1008 88 10000 2.44 137 11:21 17.11.2020
5386 Clouds 28 1008 88 10000 2.44 137 10:39 17.11.2020
5387 Clouds 29 1007 83 10000 2.1 250 09:53 17.11.2020
5388 Clouds 29 1007 83 10000 2.1 250 09:33 17.11.2020
5389 Clouds 31 1006 79 10000 1.24 115 08:25 17.11.2020
5390 Clouds 32 1005 70 10000 4.6 90 07:56 17.11.2020
5391 Clouds 32 1005 70 10000 4.6 90 07:26 17.11.2020
5392 Clouds 33 1005 63 10000 4.1 50 04:28 17.11.2020
5393 Clouds 31 1007 79 10000 2.6 50 02:59 17.11.2020
5394 Clouds 30 1008 70 10000 3.6 20 02:21 17.11.2020
5395 Clouds 31 1009 66 10000 1.5 110 00:56 17.11.2020
5396 Clouds 28 1010 78 10000 1 160 23:51 16.11.2020
5397 Clouds 28 1010 78 10000 1 160 23:51 16.11.2020
5398 Clouds 28 1010 78 10000 1 160 23:29 16.11.2020
5399 Rain 26 1010 83 10000 1.11 94 22:48 16.11.2020
5400 Clouds 23 1009 100 10000 1.11 109 22:21 16.11.2020
5401 Clouds 23 1009 100 10000 1.11 109 21:48 16.11.2020
5402 Clouds 23 1009 100 10000 0.96 162 21:25 16.11.2020
5403 Clouds 32 1008 55 10000 1.5 140 20:54 16.11.2020
5404 Clouds 32 1008 55 10000 1.5 140 20:25 16.11.2020
5405 Clouds 22 1008 100 10000 1.5 140 19:39 16.11.2020
5406 Clouds 26 1008 80 10000 1.02 200 19:21 16.11.2020
5407 Rain 26 1008 80 10000 1.02 200 18:41 16.11.2020
5408 Clouds 23 1008 100 10000 1.52 185 17:51 16.11.2020
5409 Clouds 23 1008 100 10000 2.04 168 17:22 16.11.2020
5410 Rain 26 1008 80 10000 2.04 168 16:54 16.11.2020
5411 Rain 23 1009 100 10000 2.19 149 16:29 16.11.2020
5412 Clouds 23 1009 100 10000 2.19 149 15:57 16.11.2020
5413 Clouds 23 1009 100 10000 2.19 149 15:37 16.11.2020
5414 Clouds 24 1010 100 10000 1.5 200 15:19 16.11.2020
5415 Clouds 24 1010 100 10000 1.5 200 14:28 16.11.2020
5416 Clouds 24 1010 100 10000 2.31 120 13:31 16.11.2020
5417 Clouds 24 1010 94 10000 2.1 180 12:33 16.11.2020
5418 Clouds 24 1011 94 10000 1 180 11:44 16.11.2020
5419 Clouds 24 1011 100 10000 1.5 160 11:24 16.11.2020
5420 Thunderstorm 25 1010 94 10000 1.5 160 10:47 16.11.2020
5421 Thunderstorm 25 1010 94 10000 1.5 160 10:26 16.11.2020
5422 Thunderstorm 25 1010 94 10000 1.5 160 10:26 16.11.2020
5423 Thunderstorm 25 1010 94 10000 2.1 200 09:53 16.11.2020
5424 Thunderstorm 25 1010 94 10000 2.1 140 09:35 16.11.2020
5425 Clouds 25 1009 94 10000 1 160 08:49 16.11.2020
5426 Clouds 25 1009 94 10000 1 160 08:26 16.11.2020
5427 Rain 25 1008 94 10000 4.39 107 07:36 16.11.2020
5428 Drizzle 25 1008 100 10000 2.1 200 06:47 16.11.2020
5429 Thunderstorm 25 1009 100 10000 2.1 230 05:49 16.11.2020
5430 Thunderstorm 30 1008 84 10000 7.7 70 03:58 16.11.2020
5431 Clouds 34 1009 56 10000 5.7 50 01:45 16.11.2020
5432 Clouds 33 1009 63 10000 2.6 200 00:42 16.11.2020
5433 Clouds 31 1011 70 10000 1 70 23:33 15.11.2020
5434 Clouds 30 1011 70 10000 1 90 22:58 15.11.2020
5435 Clouds 29 1011 74 10000 1.28 147 22:26 15.11.2020
5436 Clouds 26 1009 88 10000 1 90 21:56 15.11.2020
5437 Clouds 26 1009 88 10000 1 90 21:36 15.11.2020
5438 Clouds 27 1010 78 10000 1.64 151 20:58 15.11.2020
5439 Clouds 24 1008 94 10000 1.5 180 20:39 15.11.2020
5440 Clouds 24 1008 94 10000 1.5 180 19:57 15.11.2020
5441 Clouds 24 1008 94 10000 1.5 180 19:38 15.11.2020
5442 Clouds 26 1009 79 10000 1.79 149 19:20 15.11.2020
5443 Clouds 26 1009 79 10000 1.78 147 18:45 15.11.2020
5444 Clouds 24 1008 100 10000 1.5 180 18:25 15.11.2020
5445 Clouds 24 1008 100 10000 1.5 180 17:57 15.11.2020
5446 Clouds 24 1008 100 10000 1.5 180 17:39 15.11.2020
5447 Clouds 25 1009 94 10000 1.5 160 17:19 15.11.2020
5448 Clouds 25 1009 94 10000 1.5 160 16:39 15.11.2020
5449 Clouds 25 1009 94 10000 2.1 180 16:18 15.11.2020
5450 Clouds 25 1009 94 10000 2.1 180 15:43 15.11.2020
5451 Clouds 25 1011 100 10000 1.5 160 15:23 15.11.2020
5452 Clouds 25 1011 100 10000 1.5 160 14:51 15.11.2020
5453 Clouds 25 1011 100 10000 1.5 160 14:26 15.11.2020
5454 Clouds 26 1011 94 10000 2.1 110 13:42 15.11.2020
5455 Clouds 26 1011 94 10000 1 250 13:18 15.11.2020
5456 Clouds 26 1011 94 10000 1 250 12:46 15.11.2020
5457 Clouds 27 1011 88 10000 1 90 12:19 15.11.2020
5458 Clouds 27 1011 88 10000 1 90 11:44 15.11.2020
5459 Clouds 31 1009 70 10000 1 200 11:18 15.11.2020
5460 Clouds 31 1009 70 10000 1 200 10:49 15.11.2020
5461 Clouds 31 1009 70 10000 1 200 10:30 15.11.2020
5462 Clouds 29 1011 74 10000 2.6 110 09:46 15.11.2020
5463 Clouds 31 1009 70 10000 5.1 90 09:23 15.11.2020
5464 Clouds 31 1009 70 10000 5.1 90 08:54 15.11.2020
5465 Clouds 31 1009 70 10000 5.1 90 08:31 15.11.2020
5466 Clouds 31 1009 70 10000 6.7 70 07:44 15.11.2020
5467 Clouds 33 1008 66 10000 6.7 70 05:33 15.11.2020
5468 Clouds 33 1009 66 10000 6.2 70 04:51 15.11.2020
5469 Clouds 32 1011 66 10000 3.6 50 01:26 15.11.2020
5470 Clouds 31 1011 70 10000 3.1 110 00:29 15.11.2020
5471 Clouds 30 1012 70 10000 1 110 23:41 14.11.2020
5472 Clouds 29 1012 74 10000 1 200 22:51 14.11.2020
5473 Clouds 29 1012 74 10000 1 200 22:32 14.11.2020
5474 Clouds 26 1011 88 10000 1 230 21:44 14.11.2020
5475 Clouds 27 1012 74 10000 1.98 127 21:23 14.11.2020
5476 Clouds 27 1012 74 10000 1.98 127 20:59 14.11.2020
5477 Clouds 23 1010 100 10000 1.5 110 20:30 14.11.2020
5478 Clouds 23 1010 100 10000 1.5 110 20:30 14.11.2020
5479 Clouds 23 1010 100 10000 1.5 110 19:55 14.11.2020
5480 Clouds 23 1010 100 10000 1.5 110 19:35 14.11.2020
5481 Clouds 23 1010 100 10000 1 180 18:44 14.11.2020
5482 Clouds 23 1010 100 10000 1 180 18:25 14.11.2020
5483 Clouds 24 1009 94 10000 1 160 17:58 14.11.2020
5484 Clouds 24 1009 94 10000 1 160 17:40 14.11.2020
5485 Clouds 24 1010 100 10000 2.14 133 17:19 14.11.2020
5486 Clouds 24 1010 100 10000 2.14 133 16:43 14.11.2020
5487 Clouds 24 1011 100 10000 2.24 137 16:20 14.11.2020
5488 Clouds 24 1011 100 10000 2.24 137 15:52 14.11.2020
5489 Clouds 24 1011 100 10000 2.23 136 15:27 14.11.2020
5490 Clouds 25 1012 94 10000 1.5 110 14:47 14.11.2020
5491 Clouds 26 1012 88 10000 1 180 14:24 14.11.2020
5492 Clouds 26 1012 88 10000 1 180 13:45 14.11.2020
5493 Clouds 26 1012 88 10000 1.5 180 13:24 14.11.2020
5494 Clouds 26 1012 88 10000 1.5 180 12:48 14.11.2020
5495 Clouds 26 1012 88 10000 1.5 180 12:29 14.11.2020
5496 Clouds 27 1013 79 10000 1.46 138 11:46 14.11.2020
5497 Clouds 27 1011 88 10000 2.6 180 11:25 14.11.2020
5498 Clouds 27 1011 88 10000 2.6 180 10:49 14.11.2020
5499 Clouds 27 1011 88 10000 2.6 180 10:26 14.11.2020
5500 Clouds 29 1010 79 10000 1 180 09:50 14.11.2020
5501 Clouds 29 1010 79 10000 1 180 09:28 14.11.2020
5502 Clouds 29 1010 79 10000 1 180 09:28 14.11.2020
5503 Clouds 29 1010 79 10000 1 180 09:28 14.11.2020
5504 Clouds 30 1010 74 10000 1.5 20 08:55 14.11.2020
5505 Clouds 30 1010 74 10000 1.5 20 08:37 14.11.2020
5506 Clouds 31 1009 62 10000 3.6 20 07:50 14.11.2020
5507 Clouds 31 1009 62 10000 3.6 20 07:28 14.11.2020
5508 Clouds 32 1009 62 10000 2.1 360 06:32 14.11.2020
5509 Clouds 32 1009 59 10000 2.1 360 05:33 14.11.2020
5510 Clouds 32 1010 62 10000 3.1 50 04:18 14.11.2020
5511 Clouds 31 1012 70 10000 2.1 70 00:59 14.11.2020
5512 Clouds 31 1012 74 10000 1.5 160 23:47 13.11.2020
5513 Clouds 26 1012 88 10000 1 180 23:25 13.11.2020
5514 Clouds 26 1012 88 10000 1 180 22:46 13.11.2020
5515 Clouds 24 1012 94 10000 1 180 22:26 13.11.2020
5516 Clouds 24 1012 94 10000 1 180 21:55 13.11.2020
5517 Clouds 24 1012 94 10000 1 180 21:37 13.11.2020
5518 Clouds 24 1011 94 10000 1 140 21:19 13.11.2020
5519 Clouds 24 1011 94 10000 1 140 20:41 13.11.2020
5520 Clouds 24 1010 94 10000 1 140 20:21 13.11.2020
5521 Clouds 24 1010 94 10000 1 140 19:45 13.11.2020
5522 Clouds 24 1010 94 10000 1 140 19:23 13.11.2020
5523 Clouds 24 1010 94 10000 1 200 18:54 13.11.2020
5524 Clouds 24 1010 94 10000 1 200 18:00 13.11.2020
5525 Clouds 24 1010 94 10000 1 200 17:39 13.11.2020
5526 Clouds 24 1010 100 10000 2.1 200 17:18 13.11.2020
5527 Clouds 24 1010 100 10000 2.1 200 16:47 13.11.2020
5528 Clouds 24 1011 100 10000 2.17 222 16:21 13.11.2020
5529 Clouds 24 1011 100 10000 2.17 222 15:42 13.11.2020
5530 Rain 24 1011 100 10000 1.91 250 15:23 13.11.2020
5531 Clouds 24 1011 100 10000 1.91 250 14:41 13.11.2020
5532 Clouds 24 1012 100 10000 1.61 284 14:20 13.11.2020
5533 Clouds 24 1012 100 10000 1.61 284 13:45 13.11.2020
5534 Drizzle 24 1012 100 10000 2.1 160 13:21 13.11.2020
5535 Drizzle 24 1012 100 10000 2.1 160 12:45 13.11.2020
5536 Drizzle 24 1012 100 10000 0.58 306 12:24 13.11.2020
5537 Drizzle 24 1012 100 10000 0.58 306 11:48 13.11.2020
5538 Clouds 24 1011 94 10000 1.5 200 11:24 13.11.2020
5539 Clouds 24 1011 94 10000 1.5 200 10:54 13.11.2020
5540 Clouds 24 1011 94 10000 1.5 200 10:34 13.11.2020
5541 Drizzle 24 1011 100 10000 2.1 140 09:56 13.11.2020
5542 Clouds 24 1011 100 10000 1 180 09:32 13.11.2020
5543 Clouds 24 1011 100 10000 1 180 09:32 13.11.2020
5544 Clouds 24 1011 100 10000 1.5 90 08:55 13.11.2020
5545 Clouds 24 1011 94 10000 1.37 308 08:32 13.11.2020
5546 Thunderstorm 29 1010 79 10000 3.1 230 07:55 13.11.2020
5547 Thunderstorm 29 1009 79 10000 1 140 07:36 13.11.2020
5548 Clouds 30 1008 70 10000 1.5 340 07:18 13.11.2020
5549 Clouds 30 1008 70 10000 1.5 340 06:37 13.11.2020
5550 Rain 30 1008 70 10000 3.1 320 05:42 13.11.2020
5551 Clouds 32 1009 62 10000 2.1 50 04:20 13.11.2020
5552 Clouds 31 1011 62 10000 2.1 250 01:43 13.11.2020
5553 Clouds 29 1011 45 10000 1.5 200 00:37 13.11.2020
5554 Clouds 26 1011 94 10000 1.53 10 23:55 12.11.2020
5555 Rain 25 1011 94 10000 1 160 23:22 12.11.2020
5556 Rain 25 1011 94 10000 1 160 22:56 12.11.2020
5557 Rain 25 1011 94 10000 1 160 22:38 12.11.2020
5558 Rain 24 1010 100 10000 1 110 21:59 12.11.2020
5559 Rain 24 1010 100 10000 1 110 21:41 12.11.2020
5560 Rain 24 1009 100 10000 2.1 180 21:22 12.11.2020
5561 Clouds 24 1009 100 10000 2.1 180 20:42 12.11.2020
5562 Drizzle 25 1009 94 10000 2.1 270 20:24 12.11.2020
5563 Rain 25 1009 94 10000 2.1 270 19:55 12.11.2020
5564 Drizzle 25 1009 94 10000 2.1 270 19:37 12.11.2020
5565 Clouds 25 1008 94 10000 2.1 160 19:19 12.11.2020
5566 Clouds 25 1008 94 10000 2.1 160 18:42 12.11.2020
5567 Clouds 26 1009 78 10000 0.89 158 18:20 12.11.2020
5568 Clouds 26 1009 78 10000 0.89 158 17:43 12.11.2020
5569 Clouds 25 1009 94 10000 1.5 230 17:24 12.11.2020
5570 Clouds 25 1009 94 10000 1.5 230 16:45 12.11.2020
5571 Clouds 25 1009 94 10000 2.1 200 16:23 12.11.2020
5572 Rain 25 1009 94 10000 2.1 200 15:53 12.11.2020
5573 Rain 25 1009 94 10000 2.1 200 15:28 12.11.2020
5574 Rain 25 1010 100 10000 1 160 14:56 12.11.2020
5575 Clouds 25 1010 100 10000 1 160 14:37 12.11.2020
5576 Thunderstorm 26 1010 94 10000 0.84 184 14:18 12.11.2020
5577 Thunderstorm 26 1010 94 10000 0.84 184 13:43 12.11.2020
5578 Thunderstorm 26 1011 94 10000 1 200 13:19 12.11.2020
5579 Clouds 26 1011 94 10000 2.1 230 12:47 12.11.2020
5580 Clouds 26 1011 94 10000 2.1 230 12:25 12.11.2020
5581 Clouds 26 1011 94 10000 2.1 230 12:25 12.11.2020
5582 Rain 27 1010 94 10000 1 200 11:53 12.11.2020
5583 Rain 27 1010 94 10000 1 200 11:53 12.11.2020
5584 Clouds 27 1010 94 10000 1 200 11:34 12.11.2020
5585 Clouds 28 1010 88 10000 1.5 180 10:50 12.11.2020
5586 Clouds 28 1010 88 10000 1.5 180 10:32 12.11.2020
5587 Clouds 29 1009 79 10000 0.67 317 09:51 12.11.2020
5588 Clouds 29 1009 79 10000 1.34 324 09:27 12.11.2020
5589 Clouds 29 1008 79 10000 1 290 08:58 12.11.2020
5590 Clouds 29 1008 79 10000 1 290 08:40 12.11.2020
5591 Clouds 30 1007 74 10000 2.1 360 08:20 12.11.2020
5592 Clouds 30 1007 74 10000 2.1 360 07:54 12.11.2020
5593 Clouds 30 1007 74 10000 2.1 360 07:30 12.11.2020
5594 Clouds 30 1007 74 10000 3.1 360 06:51 12.11.2020
5595 Clouds 31 1007 70 10000 3.6 290 06:22 12.11.2020
5596 Clouds 31 1008 70 10000 4.1 290 03:43 12.11.2020
5597 Clouds 32 1009 66 10000 3.1 20 03:18 12.11.2020
5598 Clouds 31 1011 70 10000 2.1 50 00:25 12.11.2020
5599 Clouds 32 1011 66 10000 1 230 23:40 11.11.2020
5600 Clouds 28 1010 78 10000 1.5 180 23:22 11.11.2020
5601 Clouds 28 1010 78 10000 1.5 180 22:43 11.11.2020
5602 Clouds 26 1009 83 10000 1.5 200 22:21 11.11.2020
5603 Clouds 26 1009 83 10000 1.5 200 21:56 11.11.2020
5604 Clouds 26 1009 83 10000 1.5 200 21:38 11.11.2020
5605 Clouds 23 1009 94 10000 0.99 177 21:18 11.11.2020
5606 Clouds 23 1009 94 10000 0.99 177 20:42 11.11.2020
5607 Clouds 24 1008 94 10000 2.1 180 20:21 11.11.2020
5608 Clouds 24 1008 94 10000 2.1 180 19:51 11.11.2020
5609 Clouds 24 1008 94 10000 2.1 180 19:32 11.11.2020
5610 Clouds 24 1008 94 10000 1.5 180 18:58 11.11.2020
5611 Clouds 24 1008 94 10000 1.5 180 18:40 11.11.2020
5612 Clouds 24 1008 94 10000 1.5 180 17:46 11.11.2020
5613 Clouds 24 1008 94 10000 0.77 192 17:27 11.11.2020
5614 Clouds 24 1008 94 10000 0.77 192 16:59 11.11.2020
5615 Clouds 24 1008 94 10000 0.77 192 16:37 11.11.2020
5616 Clouds 24 1009 100 10000 1.5 140 16:19 11.11.2020
5617 Clouds 24 1009 100 10000 1.5 140 15:39 11.11.2020
5618 Clouds 26 1010 94 10000 1 160 15:21 11.11.2020
5619 Clouds 26 1010 94 10000 1 160 14:43 11.11.2020
5620 Clouds 26 1010 94 10000 2.1 200 14:23 11.11.2020
5621 Clouds 26 1010 94 10000 2.1 200 13:48 11.11.2020
5622 Clouds 26 1010 94 10000 1 180 13:24 11.11.2020
5623 Clouds 26 1010 88 10000 1 180 12:21 11.11.2020
5624 Clouds 26 1010 88 10000 1 180 11:51 11.11.2020
5625 Clouds 26 1010 88 10000 1 180 11:33 11.11.2020
5626 Clouds 26 1010 88 10000 1 180 11:33 11.11.2020
5627 Clouds 27 1009 83 10000 1.5 140 10:45 11.11.2020
5628 Clouds 27 1009 83 10000 1.5 140 10:27 11.11.2020
5629 Clouds 28 1009 78 10000 2.1 140 09:55 11.11.2020
5630 Clouds 28 1009 78 10000 2.1 140 09:37 11.11.2020
5631 Clouds 30 1008 70 10000 3.1 290 09:19 11.11.2020
5632 Clouds 30 1008 70 10000 3.1 290 08:43 11.11.2020
5633 Clouds 30 1008 70 10000 3.1 290 08:24 11.11.2020
5634 Clouds 31 1007 66 10000 2.1 200 07:43 11.11.2020
5635 Clouds 32 1007 66 10000 4.1 320 06:31 11.11.2020
5636 Clouds 31 1007 70 10000 4.6 360 05:36 11.11.2020
5637 Clouds 32 1009 62 10000 3.1 360 01:37 11.11.2020
5638 Clouds 30 1010 74 10000 3.1 290 00:57 11.11.2020
5639 Clouds 27 1010 83 10000 1.5 230 00:24 11.11.2020
5640 Clouds 27 1010 83 10000 1.5 230 23:37 10.11.2020
5641 Clouds 26 1010 88 10000 1 140 23:18 10.11.2020
5642 Clouds 26 1010 88 10000 1 140 22:43 10.11.2020
5643 Clouds 26 1010 88 10000 1 140 22:24 10.11.2020
5644 Rain 24 1009 100 10000 2.1 160 21:41 10.11.2020
5645 Clouds 22 1008 100 10000 1.5 140 21:23 10.11.2020
5646 Clouds 22 1008 100 10000 1.5 140 20:55 10.11.2020
5647 Clouds 22 1008 100 10000 1.5 140 20:37 10.11.2020
5648 Clouds 23 1008 94 10000 2.1 180 20:19 10.11.2020
5649 Clouds 23 1008 94 10000 2.1 180 19:42 10.11.2020
5650 Clouds 23 1008 94 10000 2.1 180 19:23 10.11.2020
5651 Clouds 23 1008 100 10000 1.06 203 18:43 10.11.2020
5652 Rain 23 1008 100 10000 1.55 220 18:24 10.11.2020
5653 Clouds 23 1008 100 10000 1.55 220 17:57 10.11.2020
5654 Clouds 23 1008 100 10000 1.55 220 17:38 10.11.2020
5655 Rain 23 1009 100 10000 1.82 228 17:20 10.11.2020
5656 Clouds 23 1009 100 10000 1.82 228 16:41 10.11.2020
5657 Clouds 24 1010 100 10000 1 90 16:22 10.11.2020
5658 Clouds 24 1010 100 10000 1 90 15:48 10.11.2020
5659 Rain 24 1010 100 10000 1 90 15:27 10.11.2020
5660 Clouds 24 1010 100 10000 1 160 14:56 10.11.2020
5661 Clouds 24 1010 100 10000 1 160 14:37 10.11.2020
5662 Clouds 24 1010 100 10000 1 160 14:37 10.11.2020
5663 Rain 24 1011 94 10000 1.5 90 14:18 10.11.2020
5664 Rain 24 1011 94 10000 1.5 90 13:38 10.11.2020
5665 Clouds 25 1010 100 10000 2.33 233 13:19 10.11.2020
5666 Clouds 25 1010 100 10000 2.87 238 12:45 10.11.2020
5667 Clouds 25 1010 100 10000 2.83 247 12:24 10.11.2020
5668 Clouds 25 1010 100 10000 1 230 11:41 10.11.2020
5669 Clouds 25 1010 94 10000 1.5 140 11:21 10.11.2020
5670 Clouds 25 1010 94 10000 1.5 140 11:21 10.11.2020
5671 Rain 25 1010 94 10000 1.5 140 10:56 10.11.2020
5672 Clouds 25 1010 94 10000 1.5 140 10:36 10.11.2020
5673 Clouds 25 1010 94 10000 2.75 248 10:18 10.11.2020
5674 Clouds 25 1010 94 10000 2.75 248 09:41 10.11.2020
5675 Clouds 27 1008 88 10000 2.1 110 09:23 10.11.2020
5676 Clouds 27 1008 88 10000 2.1 110 08:52 10.11.2020
5677 Clouds 27 1008 88 10000 2.1 110 08:26 10.11.2020
5678 Clouds 27 1008 88 10000 2.6 110 07:44 10.11.2020
5679 Thunderstorm 28 1008 83 10000 4.1 140 07:21 10.11.2020
5680 Thunderstorm 28 1008 83 10000 4.1 140 06:40 10.11.2020
5681 Rain 31 1007 70 10000 3.1 320 05:41 10.11.2020
5682 Rain 31 1007 66 10000 2.1 270 04:49 10.11.2020
5683 Rain 31 1009 67 10000 3.01 309 02:18 10.11.2020
5684 Clouds 30 1010 66 10000 2.46 307 01:25 10.11.2020
5685 Clouds 28 1010 88 10000 1 200 23:54 09.11.2020
5686 Drizzle 27 1010 88 10000 2.1 180 23:24 09.11.2020
5687 Drizzle 27 1010 88 10000 2.1 180 22:44 09.11.2020
5688 Drizzle 25 1010 100 10000 0.98 242 22:23 09.11.2020
5689 Drizzle 25 1010 100 10000 0.98 242 21:46 09.11.2020
5690 Drizzle 25 1010 100 10000 1.01 215 21:27 09.11.2020
5691 Drizzle 25 1010 100 10000 1.01 215 21:27 09.11.2020
5692 Clouds 25 1009 94 10000 1.5 110 20:45 09.11.2020
5693 Clouds 25 1008 94 10000 1 110 20:24 09.11.2020
5694 Clouds 25 1008 94 10000 1 110 19:57 09.11.2020
5695 Clouds 25 1008 94 10000 1 110 19:39 09.11.2020
5696 Clouds 25 1007 94 10000 1 200 19:19 09.11.2020
5697 Clouds 25 1007 94 10000 1 200 18:41 09.11.2020
5698 Clouds 25 1007 94 10000 1 180 18:20 09.11.2020
5699 Clouds 25 1007 94 10000 1 180 17:44 09.11.2020
5700 Clouds 25 1008 94 10000 2.6 200 17:26 09.11.2020
5701 Clouds 25 1008 94 10000 2.6 200 16:44 09.11.2020
5702 Clouds 25 1009 100 10000 2.6 110 16:26 09.11.2020
5703 Clouds 25 1009 100 10000 2.6 110 15:48 09.11.2020
5704 Clouds 25 1009 100 10000 2.6 110 15:29 09.11.2020
5705 Clouds 25 1010 100 10000 1.5 160 14:53 09.11.2020
5706 Clouds 25 1010 100 10000 1.5 160 14:29 09.11.2020
5707 Rain 26 1009 88 10000 0.2 134 13:59 09.11.2020
5708 Clouds 26 1009 88 10000 0.2 134 13:38 09.11.2020
5709 Clouds 26 1009 94 10000 0.33 123 13:18 09.11.2020
5710 Clouds 26 1009 94 10000 0.33 123 12:41 09.11.2020
5711 Clouds 26 1009 94 10000 0.81 156 12:21 09.11.2020
5712 Clouds 26 1009 94 10000 0.81 156 11:43 09.11.2020
5713 Clouds 26 1008 94 10000 1.5 160 11:24 09.11.2020
5714 Clouds 26 1008 94 10000 1.5 160 10:58 09.11.2020
5715 Clouds 26 1008 94 10000 1.5 160 10:58 09.11.2020
5716 Clouds 26 1008 94 10000 1.5 160 10:40 09.11.2020
5717 Clouds 27 1008 88 10000 1.05 220 10:21 09.11.2020
5718 Clouds 27 1008 88 10000 1.05 220 09:30 09.11.2020
5719 Clouds 28 1007 83 10000 2.1 160 08:54 09.11.2020
5720 Clouds 28 1007 83 10000 2.1 160 08:28 09.11.2020
5721 Rain 30 1006 74 10000 2.1 70 07:55 09.11.2020
5722 Clouds 31 1006 74 10000 2.6 50 07:23 09.11.2020
5723 Clouds 31 1006 74 10000 2.6 50 06:52 09.11.2020
5724 Rain 32 1006 66 10000 4.1 50 04:30 09.11.2020
5725 Clouds 31 1009 70 10000 3.1 360 01:57 09.11.2020
5726 Clouds 31 1009 70 10000 3.1 360 01:39 09.11.2020
5727 Clouds 31 1010 70 10000 2.1 50 00:40 09.11.2020
5728 Clouds 31 1010 70 10000 2.1 70 23:40 08.11.2020
5729 Clouds 28 1010 78 10000 1.5 160 23:22 08.11.2020
5730 Clouds 28 1010 78 10000 1.5 160 22:42 08.11.2020
5731 Clouds 25 1009 94 10000 2.1 160 22:21 08.11.2020
5732 Clouds 25 1009 94 10000 2.1 160 21:46 08.11.2020
5733 Clouds 23 1009 100 10000 1.5 200 21:21 08.11.2020
5734 Clouds 23 1009 100 10000 1.5 200 20:57 08.11.2020
5735 Clouds 23 1009 100 10000 1.5 200 20:38 08.11.2020
5736 Clouds 25 1010 82 10000 1.73 134 20:19 08.11.2020
5737 Clouds 25 1010 82 10000 1.73 134 20:19 08.11.2020
5738 Clouds 23 1008 100 10000 1.5 160 19:43 08.11.2020
5739 Clouds 23 1008 100 10000 1.5 160 19:21 08.11.2020
5740 Clouds 23 1008 100 10000 1.5 160 18:49 08.11.2020
5741 Clouds 24 1008 94 10000 1.64 135 18:22 08.11.2020
5742 Clouds 24 1008 94 10000 1.64 135 17:59 08.11.2020
5743 Clouds 24 1008 94 10000 1.64 135 17:41 08.11.2020
5744 Clouds 26 1008 82 10000 1.67 129 17:20 08.11.2020
5745 Clouds 26 1008 82 10000 1.67 129 16:56 08.11.2020
5746 Clouds 24 1009 100 10000 1.67 129 16:37 08.11.2020
5747 Clouds 24 1009 100 10000 1.77 129 16:18 08.11.2020
5748 Clouds 24 1009 100 10000 1.77 129 15:43 08.11.2020
5749 Clouds 24 1009 100 10000 1.83 134 15:23 08.11.2020
5750 Clouds 24 1009 100 10000 1.83 134 14:42 08.11.2020
5751 Clouds 25 1010 94 10000 1.91 136 14:23 08.11.2020
5752 Clouds 25 1010 94 10000 1.91 136 13:47 08.11.2020
5753 Clouds 25 1010 94 10000 1.78 140 13:24 08.11.2020
5754 Clouds 26 1010 94 10000 2.1 140 12:47 08.11.2020
5755 Clouds 26 1010 94 10000 2.1 140 12:29 08.11.2020
5756 Clouds 26 1010 94 10000 2.1 180 11:58 08.11.2020
5757 Clouds 26 1010 94 10000 2.1 180 11:40 08.11.2020
5758 Clouds 26 1010 88 10000 1 200 11:20 08.11.2020
5759 Clouds 26 1010 88 10000 1 200 10:50 08.11.2020
5760 Clouds 27 1009 88 10000 1.5 200 10:19 08.11.2020
5761 Clouds 27 1009 88 10000 1.5 200 09:55 08.11.2020
5762 Clouds 27 1009 88 10000 1.5 200 09:37 08.11.2020
5763 Clouds 27 1009 88 10000 3.1 230 09:18 08.11.2020
5764 Clouds 27 1009 88 10000 3.1 230 08:39 08.11.2020
5765 Clouds 28 1008 83 10000 4.1 200 08:18 08.11.2020
5766 Clouds 28 1008 83 10000 4.1 200 07:52 08.11.2020
5767 Thunderstorm 28 1007 88 10000 3.1 180 07:24 08.11.2020
5768 Clouds 30 1007 74 10000 1.5 20 06:22 08.11.2020
5769 Clouds 30 1007 74 10000 1.5 20 05:52 08.11.2020
5770 Clouds 32 1007 70 10000 3.1 70 04:31 08.11.2020
5771 Clouds 31 1010 70 10000 4.1 50 01:51 08.11.2020
5772 Clouds 31 1010 70 10000 2.1 50 01:18 08.11.2020
5773 Clouds 31 1010 70 10000 2.1 50 00:27 08.11.2020
5774 Clouds 31 1011 66 10000 2.05 83 23:46 07.11.2020
5775 Clouds 31 1011 66 10000 2.11 99 23:28 07.11.2020
5776 Clouds 28 1011 78 10000 2.1 180 22:43 07.11.2020
5777 Clouds 28 1011 78 10000 2.1 180 22:25 07.11.2020
5778 Clouds 28 1012 72 10000 2.08 108 21:46 07.11.2020
5779 Clouds 23 1010 100 10000 1 140 21:22 07.11.2020
5780 Clouds 23 1010 100 10000 1 140 20:55 07.11.2020
5781 Clouds 23 1010 100 10000 1 140 20:36 07.11.2020
5782 Clouds 23 1009 94 10000 1 140 20:18 07.11.2020
5783 Clouds 23 1009 94 10000 1 140 19:39 07.11.2020
5784 Clouds 25 1010 80 10000 1.68 131 19:20 07.11.2020
5785 Clear 25 1010 78 10000 1.58 136 18:39 07.11.2020
5786 Clear 25 1009 79 10000 1.49 137 18:20 07.11.2020
5787 Clear 25 1009 79 10000 1.49 137 17:45 07.11.2020
5788 Clear 25 1009 79 10000 1.45 132 17:25 07.11.2020
5789 Clear 25 1009 79 10000 1.45 132 16:43 07.11.2020
5790 Clouds 24 1010 100 10000 2.1 140 16:24 07.11.2020
5791 Clouds 24 1010 100 10000 2.1 140 15:47 07.11.2020
5792 Clouds 24 1010 100 10000 2.1 110 15:24 07.11.2020
5793 Clouds 24 1010 100 10000 2.1 110 14:56 07.11.2020
5794 Clouds 24 1010 100 10000 2.1 110 14:38 07.11.2020
5795 Clouds 25 1011 94 10000 1.5 110 14:19 07.11.2020
5796 Clouds 25 1011 94 10000 1.5 110 13:39 07.11.2020
5797 Clouds 26 1011 77 10000 1.07 155 13:21 07.11.2020
5798 Clouds 26 1011 94 10000 1.06 169 12:32 07.11.2020
5799 Clouds 26 1011 94 10000 0.91 170 11:45 07.11.2020
5800 Clouds 27 1010 88 10000 1 180 11:24 07.11.2020
5801 Clouds 27 1010 88 10000 1 180 10:56 07.11.2020
5802 Clouds 27 1010 88 10000 1 180 10:37 07.11.2020
5803 Clouds 28 1010 83 10000 0.57 138 10:18 07.11.2020
5804 Clouds 28 1010 83 10000 0.57 138 09:42 07.11.2020
5805 Clouds 30 1010 70 10000 0.26 322 09:19 07.11.2020
5806 Clouds 30 1010 70 10000 0.26 322 08:42 07.11.2020
5807 Clouds 31 1009 62 10000 1.5 320 08:22 07.11.2020
5808 Clouds 31 1009 62 10000 1.5 320 07:37 07.11.2020
5809 Clouds 31 1009 66 10000 3.1 340 06:48 07.11.2020
5810 Clouds 32 1009 59 10000 3.6 360 05:38 07.11.2020
5811 Clouds 32 1010 66 10000 4.1 20 03:25 07.11.2020
5812 Clouds 31 1011 70 10000 2.6 50 01:45 07.11.2020
5813 Clouds 31 1011 70 10000 2.6 50 01:25 07.11.2020
5814 Clouds 31 1011 70 10000 3.1 20 00:28 07.11.2020
5815 Clouds 30 1012 79 10000 2.1 140 23:30 06.11.2020
5816 Clouds 27 1012 83 10000 1 180 22:45 06.11.2020
5817 Rain 28 1012 70 10000 0.96 82 22:20 06.11.2020
5818 Rain 28 1012 70 10000 0.96 82 22:20 06.11.2020
5819 Clouds 28 1012 70 10000 0.96 82 21:56 06.11.2020
5820 Clouds 28 1012 70 10000 0.96 82 21:37 06.11.2020
5821 Clouds 24 1011 88 10000 0.84 120 21:18 06.11.2020
5822 Clouds 24 1011 88 10000 0.84 120 20:43 06.11.2020
5823 Clouds 24 1010 88 10000 0.85 157 20:19 06.11.2020
5824 Clouds 24 1010 88 10000 0.85 157 19:45 06.11.2020
5825 Clouds 24 1010 88 10000 0.92 188 19:26 06.11.2020
5826 Clouds 26 1010 79 10000 1.36 219 18:47 06.11.2020
5827 Clouds 24 1010 88 10000 2.1 200 18:26 06.11.2020
5828 Clouds 24 1010 88 10000 2.1 200 17:52 06.11.2020
5829 Clouds 24 1010 88 10000 2.1 200 17:31 06.11.2020
5830 Clouds 24 1010 88 10000 1 180 16:50 06.11.2020
5831 Clouds 24 1010 88 10000 1 180 16:32 06.11.2020
5832 Clouds 24 1010 88 10000 1 180 16:32 06.11.2020
5833 Clouds 24 1011 94 10000 1 160 15:54 06.11.2020
5834 Clouds 24 1011 94 10000 1 160 15:33 06.11.2020
5835 Clouds 24 1011 94 10000 1 200 14:54 06.11.2020
5836 Clouds 24 1011 94 10000 1 200 14:28 06.11.2020
5837 Rain 25 1012 88 10000 0.66 240 13:49 06.11.2020
5838 Clouds 25 1012 88 10000 0.72 307 13:25 06.11.2020
5839 Clouds 25 1012 94 10000 1 180 12:47 06.11.2020
5840 Rain 25 1012 94 10000 1 180 12:25 06.11.2020
5841 Clouds 25 1011 94 10000 1 200 11:59 06.11.2020
5842 Clouds 25 1011 94 10000 1 200 11:36 06.11.2020
5843 Rain 26 1011 88 10000 2.1 160 10:47 06.11.2020
5844 Clouds 26 1011 88 10000 2.1 160 10:27 06.11.2020
5845 Rain 26 1011 94 10000 1 160 09:50 06.11.2020
5846 Clouds 27 1010 88 10000 2.1 250 09:23 06.11.2020
5847 Clouds 27 1010 88 10000 2.1 250 08:51 06.11.2020
5848 Clouds 27 1010 88 10000 2.1 250 08:29 06.11.2020
5849 Clouds 27 1010 88 10000 3.1 290 07:54 06.11.2020
5850 Rain 27 1010 88 10000 3.1 290 07:34 06.11.2020
5851 Clouds 29 1009 79 10000 3.6 320 06:58 06.11.2020
5852 Clouds 30 1009 79 10000 3.1 250 06:24 06.11.2020
5853 Clouds 30 1009 79 10000 3.1 250 05:36 06.11.2020
5854 Clouds 31 1011 79 10000 4.1 50 01:23 06.11.2020
5855 Clouds 30 1012 79 10000 2.6 110 00:22 06.11.2020
5856 Clouds 30 1012 79 10000 2.6 110 23:32 05.11.2020
5857 Clouds 29 1011 79 10000 1.5 140 22:58 05.11.2020
5858 Clouds 29 1011 79 10000 1.5 140 22:39 05.11.2020
5859 Clouds 27 1011 88 10000 2.1 180 22:20 05.11.2020
5860 Clouds 27 1011 88 10000 2.1 180 21:43 05.11.2020
5861 Clouds 24 1010 100 10000 1.78 147 21:22 05.11.2020
5862 Clouds 24 1010 100 10000 1.78 147 20:55 05.11.2020
5863 Clouds 24 1010 100 10000 1.78 147 20:37 05.11.2020
5864 Clouds 24 1010 100 10000 1 180 20:18 05.11.2020
5865 Clouds 24 1010 100 10000 1 180 19:41 05.11.2020
5866 Clouds 26 1010 81 10000 1.67 169 19:22 05.11.2020
5867 Clouds 25 1010 80 10000 1.8 160 18:45 05.11.2020
5868 Clouds 25 1009 100 10000 1.6 158 18:26 05.11.2020
5869 Clouds 25 1009 100 10000 1.6 158 17:52 05.11.2020
5870 Clouds 25 1009 100 10000 1.37 151 17:29 05.11.2020
5871 Clouds 25 1009 100 10000 1.37 151 16:59 05.11.2020
5872 Clouds 25 1009 100 10000 1.37 151 16:40 05.11.2020
5873 Clouds 25 1010 100 10000 1 180 16:19 05.11.2020
5874 Clouds 25 1010 100 10000 1 180 15:44 05.11.2020
5875 Rain 25 1011 100 10000 1 160 15:22 05.11.2020
5876 Rain 25 1011 100 10000 1 160 14:46 05.11.2020
5877 Drizzle 25 1011 94 10000 1 160 14:26 05.11.2020
5878 Drizzle 25 1011 94 10000 1 160 13:42 05.11.2020
5879 Drizzle 25 1011 94 10000 2.6 160 13:23 05.11.2020
5880 Drizzle 25 1011 94 10000 2.6 160 12:50 05.11.2020
5881 Drizzle 25 1011 94 10000 2.6 160 12:25 05.11.2020
5882 Thunderstorm 26 1012 88 10000 4.1 90 11:54 05.11.2020
5883 Thunderstorm 27 1011 88 10000 1 140 11:28 05.11.2020
5884 Clouds 27 1011 88 10000 2.1 110 10:53 05.11.2020
5885 Clouds 27 1011 88 10000 2.1 110 10:32 05.11.2020
5886 Clouds 28 1010 88 10000 1 140 09:58 05.11.2020
5887 Clouds 28 1010 88 10000 1 140 09:38 05.11.2020
5888 Clouds 29 1009 83 10000 2.1 90 09:20 05.11.2020
5889 Clouds 29 1009 83 10000 2.1 90 08:43 05.11.2020
5890 Clouds 29 1009 83 10000 2.1 90 08:24 05.11.2020
5891 Clouds 30 1008 74 10000 3.6 70 07:29 05.11.2020
5892 Clouds 30 1008 74 10000 2.6 50 06:52 05.11.2020
5893 Clouds 30 1008 74 10000 2.6 50 06:33 05.11.2020
5894 Clouds 30 1009 74 10000 1 70 03:47 05.11.2020
5895 Rain 26 1011 88 10000 1 180 00:59 05.11.2020
5896 Rain 26 1011 88 10000 1 180 00:26 05.11.2020
5897 Clouds 26 1011 88 10000 2.1 77 23:43 04.11.2020
5898 Clouds 26 1011 88 10000 1.71 103 23:25 04.11.2020
5899 Clouds 25 1010 88 10000 1 180 22:45 04.11.2020
5900 Clouds 24 1010 100 10000 1.5 160 22:23 04.11.2020
5901 Clouds 24 1010 100 10000 1.5 160 21:48 04.11.2020
5902 Clouds 24 1010 100 10000 1.5 160 21:28 04.11.2020
5903 Clouds 24 1009 100 10000 2.1 180 20:56 04.11.2020
5904 Clouds 24 1009 100 10000 2.1 180 20:36 04.11.2020
5905 Clouds 24 1009 100 10000 1.85 132 20:18 04.11.2020
5906 Clouds 24 1009 100 10000 1.85 132 19:41 04.11.2020
5907 Clouds 24 1009 100 10000 1.85 132 19:41 04.11.2020
5908 Clouds 24 1009 100 10000 1.86 123 19:23 04.11.2020
5909 Clouds 24 1008 100 10000 1.96 119 18:42 04.11.2020
5910 Clouds 24 1008 100 10000 1.5 160 18:24 04.11.2020
5911 Clouds 24 1008 100 10000 1.5 160 17:48 04.11.2020
5912 Clouds 24 1008 100 10000 1.5 160 17:27 04.11.2020
5913 Clouds 24 1008 100 10000 1.5 160 17:27 04.11.2020
5914 Clouds 25 1008 94 10000 1.5 160 16:56 04.11.2020
5915 Clouds 25 1008 94 10000 1.5 160 16:36 04.11.2020
5916 Clouds 25 1009 100 10000 2.1 200 16:18 04.11.2020
5917 Clouds 25 1009 100 10000 2.1 200 15:41 04.11.2020
5918 Clouds 25 1009 100 10000 1.5 160 15:23 04.11.2020
5919 Clouds 25 1009 100 10000 1.5 160 14:45 04.11.2020
5920 Clouds 25 1009 100 10000 1.5 160 14:24 04.11.2020
5921 Clouds 25 1010 94 10000 1 160 13:51 04.11.2020
5922 Clouds 26 1010 94 10000 1.5 200 13:21 04.11.2020
5923 Clouds 26 1010 94 10000 1.5 200 12:58 04.11.2020
5924 Clouds 26 1010 94 10000 1.5 200 12:58 04.11.2020
5925 Clouds 26 1010 94 10000 1.5 200 12:40 04.11.2020
5926 Clouds 26 1010 94 10000 1.5 200 12:40 04.11.2020
5927 Clouds 26 1010 94 10000 2.3 129 12:21 04.11.2020
5928 Clouds 26 1010 94 10000 2.3 129 11:44 04.11.2020
5929 Clouds 26 1009 94 10000 1.5 160 11:21 04.11.2020
5930 Clouds 26 1009 94 10000 1.5 160 10:48 04.11.2020
5931 Clouds 26 1009 94 10000 1.5 160 10:23 04.11.2020
5932 Clouds 27 1009 88 10000 2.6 110 09:55 04.11.2020
5933 Clouds 27 1009 88 10000 2.6 110 09:28 04.11.2020
5934 Clouds 29 1008 79 10000 2.6 110 08:48 04.11.2020
5935 Clouds 30 1007 70 10000 1 20 08:23 04.11.2020
5936 Clouds 30 1007 70 10000 1 20 07:57 04.11.2020
5937 Clouds 30 1007 70 10000 1 20 07:31 04.11.2020
5938 Clouds 31 1007 70 10000 1.5 340 06:58 04.11.2020
5939 Clouds 31 1007 70 10000 1.5 340 06:38 04.11.2020
5940 Clouds 32 1008 66 10000 3.6 360 04:46 04.11.2020
5941 Clouds 31 1009 70 10000 2.1 50 02:31 04.11.2020
5942 Clouds 31 1010 70 10000 2.6 160 01:32 04.11.2020
5943 Clouds 29 1010 83 10000 2.33 68 23:53 03.11.2020
5944 Clouds 29 1010 83 10000 2.06 79 23:25 03.11.2020
5945 Clouds 25 1010 83 10000 2.1 200 22:54 03.11.2020
5946 Clouds 25 1010 83 10000 2.1 200 22:36 03.11.2020
5947 Clouds 23 1009 94 10000 1 180 22:18 03.11.2020
5948 Clouds 23 1009 94 10000 1 180 21:41 03.11.2020
5949 Rain 23 1009 94 10000 1 180 21:22 03.11.2020
5950 Rain 23 1009 94 10000 1 180 20:46 03.11.2020
5951 Clouds 23 1009 94 10000 1 180 20:26 03.11.2020
5952 Clouds 23 1008 94 10000 2.1 140 19:45 03.11.2020
5953 Clouds 23 1008 94 10000 2.1 140 19:25 03.11.2020
5954 Clouds 23 1008 94 10000 2.1 140 19:25 03.11.2020
5955 Clouds 23 1007 94 10000 1 160 18:56 03.11.2020
5956 Clouds 23 1007 94 10000 1 160 18:38 03.11.2020
5957 Clouds 23 1007 100 10000 2.1 160 18:18 03.11.2020
5958 Clouds 23 1007 100 10000 2.1 160 17:42 03.11.2020
5959 Clouds 23 1008 100 10000 2.1 160 17:23 03.11.2020
5960 Rain 23 1008 100 10000 2.1 160 16:45 03.11.2020
5961 Clouds 23 1008 100 10000 2.1 160 16:24 03.11.2020
5962 Rain 23 1009 100 10000 1 160 15:46 03.11.2020
5963 Rain 23 1010 100 10000 1 180 15:25 03.11.2020
5964 Rain 23 1010 100 10000 1 180 14:53 03.11.2020
5965 Rain 23 1010 100 10000 1 180 14:33 03.11.2020
5966 Rain 23 1011 100 10000 1.5 110 13:47 03.11.2020
5967 Rain 23 1011 100 10000 1.5 110 13:23 03.11.2020
5968 Rain 24 1011 100 10000 1.5 140 12:59 03.11.2020
5969 Rain 24 1011 100 10000 1.5 140 12:38 03.11.2020
5970 Rain 24 1011 100 10000 1.5 160 12:19 03.11.2020
5971 Clouds 24 1011 100 10000 1.5 160 11:41 03.11.2020
5972 Rain 24 1010 100 10000 1 140 11:20 03.11.2020
5973 Rain 24 1010 100 10000 1 140 10:39 03.11.2020
5974 Rain 24 1009 100 10000 2.6 200 10:21 03.11.2020
5975 Rain 24 1009 100 10000 2.6 200 09:51 03.11.2020
5976 Rain 24 1009 100 10000 2.6 200 09:33 03.11.2020
5977 Clouds 25 1008 94 10000 0.88 85 08:56 03.11.2020
5978 Rain 25 1008 94 10000 0.88 85 08:35 03.11.2020
5979 Rain 25 1008 94 10000 1.32 24 07:49 03.11.2020
5980 Rain 25 1008 94 10000 1 200 07:22 03.11.2020
5981 Rain 25 1008 94 10000 1 200 06:46 03.11.2020
5982 Rain 25 1008 100 10000 2.1 200 05:38 03.11.2020
5983 Rain 24 1012 100 5063 2.1 140 02:20 03.11.2020
5984 Rain 24 1012 100 10000 3.1 140 00:41 03.11.2020
5985 Rain 24 1012 100 10000 2.6 90 23:52 02.11.2020
5986 Rain 25 1012 100 10000 4.1 90 23:33 02.11.2020
5987 Rain 25 1011 100 10000 2.1 140 22:54 02.11.2020
5988 Rain 25 1011 100 10000 2.1 140 22:35 02.11.2020
5989 Clouds 25 1010 94 10000 2.6 50 21:59 02.11.2020
5990 Rain 25 1010 94 10000 1 200 21:37 02.11.2020
5991 Rain 24 1009 94 10000 2.1 180 21:19 02.11.2020
5992 Rain 24 1009 94 10000 2.1 180 20:39 02.11.2020
5993 Rain 24 1009 94 10000 1.5 180 20:20 02.11.2020
5994 Clouds 24 1009 94 10000 1.5 180 19:45 02.11.2020
5995 Clouds 24 1009 94 10000 1.5 180 19:27 02.11.2020
5996 Clouds 24 1009 94 10000 2.01 107 18:55 02.11.2020
5997 Rain 24 1009 94 10000 2.01 107 18:37 02.11.2020
5998 Clouds 24 1008 94 10000 2.1 132 18:19 02.11.2020
5999 Rain 24 1008 94 10000 2.1 132 17:40 02.11.2020
6000 Clouds 24 1009 100 10000 1.83 138 17:21 02.11.2020
6001 Clouds 24 1009 100 10000 1.83 138 16:49 02.11.2020
6002 Clouds 24 1009 100 10000 2.03 126 16:28 02.11.2020
6003 Clouds 24 1009 100 10000 2.6 160 15:55 02.11.2020
6004 Clouds 24 1009 100 10000 2.6 160 15:36 02.11.2020
6005 Clouds 25 1010 94 10000 2.1 110 15:18 02.11.2020
6006 Clouds 25 1010 94 10000 2.1 110 14:41 02.11.2020
6007 Clouds 26 1010 94 10000 2.1 230 14:19 02.11.2020
6008 Clouds 26 1010 94 10000 2.1 230 13:46 02.11.2020
6009 Clouds 25 1011 100 10000 1 250 13:21 02.11.2020
6010 Clouds 25 1011 100 10000 1 250 12:43 02.11.2020
6011 Rain 26 1011 84 10000 4.15 119 12:21 02.11.2020
6012 Clouds 26 1011 84 10000 4.15 119 11:45 02.11.2020
6013 Clouds 26 1008 94 10000 2.1 200 11:20 02.11.2020
6014 Clouds 26 1008 94 10000 2.1 200 10:45 02.11.2020
6015 Clouds 27 1008 88 10000 1 230 10:24 02.11.2020
6016 Rain 27 1008 88 10000 1 230 09:55 02.11.2020
6017 Clouds 27 1008 88 10000 1 230 09:26 02.11.2020
6018 Clouds 28 1009 83 10000 1.5 110 08:46 02.11.2020
6019 Clouds 28 1009 83 10000 1.5 110 08:28 02.11.2020
6020 Clouds 29 1008 79 10000 3.1 90 07:55 02.11.2020
6021 Clouds 29 1008 79 10000 3.1 90 07:30 02.11.2020
6022 Clouds 29 1008 79 10000 2.6 90 06:37 02.11.2020
6023 Clouds 28 1009 83 10000 4.1 90 04:55 02.11.2020
6024 Clouds 31 1011 70 10000 5.1 50 01:26 02.11.2020
6025 Clouds 31 1011 74 10000 3.1 50 00:36 02.11.2020
6026 Clouds 31 1011 70 10000 2.6 90 23:45 01.11.2020
6027 Rain 31 1011 70 10000 2.6 90 23:25 01.11.2020
6028 Clouds 28 1010 78 10000 1 230 22:48 01.11.2020
6029 Rain 28 1010 78 10000 1 230 22:27 01.11.2020
6030 Rain 28 1010 78 10000 1 230 22:27 01.11.2020
6031 Rain 28 1011 76 10000 2.21 102 21:59 01.11.2020
6032 Clouds 28 1011 76 10000 2.21 102 21:41 01.11.2020
6033 Rain 23 1010 100 10000 1.5 140 21:23 01.11.2020
6034 Clouds 23 1010 100 10000 1.5 140 20:43 01.11.2020
6035 Rain 23 1010 100 10000 1.5 140 20:25 01.11.2020
6036 Clouds 23 1009 100 10000 2.34 119 19:45 01.11.2020
6037 Clouds 23 1009 100 10000 2.45 122 19:26 01.11.2020
6038 Clouds 23 1009 100 10000 1.5 160 18:55 01.11.2020
6039 Clouds 23 1009 100 10000 1.5 160 18:36 01.11.2020
6040 Clouds 23 1009 100 10000 1 200 18:18 01.11.2020
6041 Clouds 23 1009 100 10000 1 200 17:43 01.11.2020
6042 Clouds 23 1010 100 10000 1.5 180 17:24 01.11.2020
6043 Clouds 23 1010 100 10000 1.5 180 17:24 01.11.2020
6044 Clouds 23 1010 100 10000 1.5 180 16:42 01.11.2020
6045 Clouds 24 1011 100 10000 1.5 110 16:21 01.11.2020
6046 Clouds 24 1011 100 10000 1.5 110 15:54 01.11.2020
6047 Clouds 24 1011 100 10000 1.5 110 15:36 01.11.2020
6048 Clouds 24 1012 100 10000 1.5 160 15:18 01.11.2020
6049 Clouds 24 1012 100 10000 1.5 160 14:44 01.11.2020
6050 Rain 25 1012 94 10000 2.49 115 14:21 01.11.2020
6051 Clouds 25 1012 94 10000 2.49 115 13:49 01.11.2020
6052 Clouds 25 1012 94 10000 2.49 115 13:31 01.11.2020
6053 Clouds 25 1012 94 10000 1 200 12:44 01.11.2020
6054 Clouds 25 1012 94 10000 1 200 12:44 01.11.2020
6055 Clouds 25 1012 94 10000 1 200 12:26 01.11.2020
6056 Rain 25 1011 94 10000 2.07 111 11:53 01.11.2020
6057 Clouds 26 1011 88 10000 1 180 11:19 01.11.2020
6058 Clouds 26 1011 88 10000 1 180 10:59 01.11.2020
6059 Clouds 26 1011 88 10000 1 180 10:40 01.11.2020
6060 Clouds 26 1011 88 10000 1 180 10:40 01.11.2020
6061 Clouds 26 1010 88 10000 1.5 200 10:21 01.11.2020
6062 Clouds 26 1010 88 10000 1.5 200 09:46 01.11.2020
6063 Rain 26 1010 88 10000 3.1 200 08:49 01.11.2020
6064 Clouds 26 1010 88 10000 3.1 200 08:24 01.11.2020
6065 Rain 30 1009 70 10000 2.6 110 07:43 01.11.2020
6066 Clouds 32 1009 66 10000 2.6 50 05:23 01.11.2020
6067 Clouds 32 1011 66 10000 2.6 360 01:52 01.11.2020
6068 Clouds 32 1011 66 10000 2.6 360 01:52 01.11.2020
6069 Clouds 31 1011 70 10000 3.1 50 00:53 01.11.2020
6070 Clouds 32 1011 66 10000 1 200 23:28 31.10.2020
6071 Clouds 28 1011 78 10000 1 200 22:58 31.10.2020
6072 Clouds 28 1011 78 10000 1 200 22:40 31.10.2020
6073 Clouds 26 1011 88 10000 1.5 180 22:21 31.10.2020
6074 Clouds 26 1011 88 10000 1.5 180 21:44 31.10.2020
6075 Clear 27 1011 77 10000 1.22 138 21:20 31.10.2020
6076 Clouds 24 1010 94 10000 1.22 138 20:38 31.10.2020
6077 Clouds 24 1010 94 10000 1.26 136 20:18 31.10.2020
6078 Rain 24 1010 94 10000 1.26 136 19:41 31.10.2020
6079 Clouds 24 1010 94 10000 1.18 143 19:22 31.10.2020
6080 Clouds 24 1010 94 10000 1 180 18:47 31.10.2020
6081 Clouds 24 1010 94 10000 1 180 18:24 31.10.2020
6082 Clouds 25 1009 79 10000 1.36 156 17:40 31.10.2020
6083 Clouds 24 1010 100 10000 2.1 180 17:22 31.10.2020
6084 Clouds 24 1010 100 10000 2.1 180 16:44 31.10.2020
6085 Clouds 24 1010 100 10000 2.1 180 16:26 31.10.2020
6086 Clouds 24 1010 100 10000 1.5 160 15:45 31.10.2020
6087 Clouds 24 1010 100 10000 1.5 160 15:25 31.10.2020
6088 Clouds 25 1011 94 10000 1 110 14:52 31.10.2020
6089 Clouds 25 1011 94 10000 1 110 14:31 31.10.2020
6090 Clouds 26 1012 83 10000 1.46 155 13:50 31.10.2020
6091 Clouds 26 1012 83 10000 1.58 141 13:27 31.10.2020
6092 Clouds 26 1012 94 10000 1.5 200 12:43 31.10.2020
6093 Clouds 26 1011 94 10000 1.33 116 12:18 31.10.2020
6094 Clouds 26 1011 94 10000 1.33 116 11:39 31.10.2020
6095 Clouds 27 1011 83 10000 0.9 116 11:20 31.10.2020
6096 Clouds 27 1011 83 10000 0.9 116 10:37 31.10.2020
6097 Clouds 27 1010 83 10000 1 180 09:48 31.10.2020
6098 Clouds 27 1010 83 10000 1 180 09:29 31.10.2020
6099 Clouds 30 1009 66 10000 0.71 64 08:52 31.10.2020
6100 Clouds 30 1009 66 10000 1.5 360 08:18 31.10.2020
6101 Clouds 30 1009 66 10000 1.5 360 07:28 31.10.2020
6102 Clouds 30 1008 70 10000 3.1 360 06:42 31.10.2020
6103 Clouds 31 1008 66 10000 3.1 360 06:20 31.10.2020
6104 Clouds 31 1009 70 10000 4.1 360 03:46 31.10.2020
6105 Clouds 31 1010 70 10000 4.1 20 01:44 31.10.2020
6106 Clouds 31 1011 66 10000 1 110 00:47 31.10.2020
6107 Clouds 29 1011 74 10000 1 160 23:53 30.10.2020
6108 Clouds 29 1011 74 10000 1 160 23:27 30.10.2020
6109 Clouds 27 1011 88 10000 1 160 22:56 30.10.2020
6110 Clouds 27 1011 88 10000 1 160 22:28 30.10.2020
6111 Clouds 24 1009 100 10000 1.13 124 21:59 30.10.2020
6112 Clouds 24 1009 100 10000 1.13 124 21:40 30.10.2020
6113 Clouds 23 1009 100 10000 1.5 160 21:21 30.10.2020
6114 Clouds 23 1009 100 10000 1.5 160 20:42 30.10.2020
6115 Clouds 23 1009 100 10000 1.5 160 20:24 30.10.2020
6116 Clouds 24 1008 94 10000 0.83 94 19:52 30.10.2020
6117 Clouds 25 1009 71 10000 0.59 106 19:19 30.10.2020
6118 Clouds 25 1009 71 10000 0.59 106 18:50 30.10.2020
6119 Clouds 24 1008 100 10000 0.73 152 18:28 30.10.2020
6120 Clouds 24 1008 100 10000 0.73 152 17:54 30.10.2020
6121 Clouds 24 1008 100 10000 0.73 152 17:36 30.10.2020
6122 Clouds 24 1009 100 10000 1 160 17:18 30.10.2020
6123 Clouds 24 1009 100 10000 1 160 16:48 30.10.2020
6124 Clouds 24 1009 100 10000 1 200 16:19 30.10.2020
6125 Clouds 24 1009 100 10000 1 200 15:40 30.10.2020
6126 Clouds 24 1010 100 10000 1.25 142 15:20 30.10.2020
6127 Clouds 24 1010 100 10000 1.25 142 14:45 30.10.2020
6128 Clouds 24 1010 100 10000 1.23 133 14:25 30.10.2020
6129 Clouds 25 1011 94 10000 1.5 200 13:47 30.10.2020
6130 Clouds 25 1011 94 10000 1 200 13:23 30.10.2020
6131 Clouds 25 1011 94 10000 1 200 12:55 30.10.2020
6132 Clouds 25 1011 100 10000 1.5 140 12:23 30.10.2020
6133 Clouds 25 1011 100 10000 1.5 140 11:56 30.10.2020
6134 Clouds 25 1010 94 10000 1.5 160 11:23 30.10.2020
6135 Clouds 25 1010 94 10000 1.5 160 10:56 30.10.2020
6136 Clouds 25 1010 94 10000 1.5 160 10:37 30.10.2020
6137 Clouds 26 1009 94 10000 1.04 59 10:19 30.10.2020
6138 Clouds 26 1009 94 10000 1.04 59 09:43 30.10.2020
6139 Clouds 27 1008 88 10000 1.5 180 09:20 30.10.2020
6140 Clouds 27 1008 88 10000 1.5 180 08:36 30.10.2020
6141 Clouds 28 1007 83 10000 2.6 180 08:18 30.10.2020
6142 Clouds 28 1007 83 10000 2.6 180 08:18 30.10.2020
6143 Clouds 28 1007 83 10000 2.6 180 07:45 30.10.2020
6144 Clouds 28 1007 83 10000 2.6 180 07:26 30.10.2020
6145 Rain 30 1007 70 10000 2.6 290 06:20 30.10.2020
6146 Rain 29 1007 74 10000 3.1 50 04:23 30.10.2020
6147 Clouds 30 1009 74 10000 2.6 360 01:28 30.10.2020
6148 Rain 29 1010 79 10000 1.5 90 00:31 30.10.2020
6149 Rain 28 1010 83 10000 1 70 23:46 29.10.2020
6150 Rain 28 1010 83 10000 1 70 23:28 29.10.2020
6151 Clouds 26 1010 88 10000 1 180 22:48 29.10.2020
6152 Clouds 26 1010 88 10000 1 180 22:27 29.10.2020
6153 Clouds 24 1009 94 10000 2.37 84 21:50 29.10.2020
6154 Clouds 24 1008 94 10000 2.06 117 21:24 29.10.2020
6155 Clouds 24 1008 94 10000 2.06 117 20:43 29.10.2020
6156 Clouds 24 1008 94 10000 2.06 117 20:43 29.10.2020
6157 Clouds 24 1007 94 10000 1 160 20:24 29.10.2020
6158 Clouds 24 1007 94 10000 1 160 19:57 29.10.2020
6159 Clouds 24 1007 94 10000 1 160 19:38 29.10.2020
6160 Clouds 24 1006 100 10000 1 160 19:18 29.10.2020
6161 Clouds 24 1006 100 10000 1 160 18:45 29.10.2020
6162 Clouds 24 1006 100 10000 1 160 18:25 29.10.2020
6163 Clouds 24 1006 100 10000 1 160 17:42 29.10.2020
6164 Clouds 25 1007 94 10000 2.28 109 17:22 29.10.2020
6165 Clouds 25 1007 94 10000 2.28 109 16:53 29.10.2020
6166 Clouds 25 1007 94 10000 1 180 16:23 29.10.2020
6167 Clouds 25 1007 94 10000 1 180 15:58 29.10.2020
6168 Clouds 25 1007 94 10000 1 180 15:40 29.10.2020
6169 Clouds 25 1008 100 10000 1 200 15:22 29.10.2020
6170 Clouds 25 1008 100 10000 1 200 14:47 29.10.2020
6171 Clouds 25 1009 100 10000 1.98 117 14:25 29.10.2020
6172 Clouds 25 1009 100 10000 1.98 117 13:59 29.10.2020
6173 Clouds 25 1009 100 10000 1.98 117 13:40 29.10.2020
6174 Clouds 25 1009 100 10000 1.5 160 13:21 29.10.2020
6175 Clouds 25 1009 100 10000 1.5 160 12:40 29.10.2020
6176 Clouds 26 1009 94 10000 1.5 90 12:19 29.10.2020
6177 Clouds 26 1009 94 10000 1.5 90 11:47 29.10.2020
6178 Rain 27 1008 88 10000 2.26 99 11:24 29.10.2020
6179 Rain 27 1008 88 10000 2.26 99 10:38 29.10.2020
6180 Clouds 27 1008 94 10000 1.5 110 10:19 29.10.2020
6181 Clouds 27 1008 94 10000 1.5 110 10:19 29.10.2020
6182 Clouds 27 1008 94 10000 1.5 110 09:53 29.10.2020
6183 Clouds 27 1008 94 10000 1.5 110 09:28 29.10.2020
6184 Clouds 27 1008 94 10000 1.5 110 09:28 29.10.2020
6185 Rain 28 1006 83 10000 1 110 08:55 29.10.2020
6186 Rain 28 1006 83 10000 1 110 08:33 29.10.2020
6187 Rain 29 1006 83 10000 1 110 07:54 29.10.2020
6188 Rain 29 1006 83 10000 1 110 07:35 29.10.2020
6189 Clouds 29 1006 79 10000 2.6 90 06:56 29.10.2020
6190 Clouds 29 1006 79 10000 3.1 110 04:52 29.10.2020
6191 Clouds 29 1008 79 10000 1.5 50 02:59 29.10.2020
6192 Clouds 29 1009 74 7369 3.58 89 00:57 29.10.2020
6193 Clouds 29 1009 75 5783 3.67 86 00:31 29.10.2020
6194 Clouds 30 1009 73 10000 3.19 92 23:45 28.10.2020
6195 Rain 29 1009 75 10000 3.04 95 23:21 28.10.2020
6196 Clouds 29 1009 75 10000 3.04 95 22:44 28.10.2020
6197 Drizzle 25 1008 100 10000 2.6 160 22:26 28.10.2020
6198 Drizzle 25 1008 100 10000 2.6 160 22:26 28.10.2020
6199 Drizzle 25 1008 100 10000 2.6 160 21:58 28.10.2020
6200 Drizzle 25 1008 100 10000 2.6 160 21:39 28.10.2020
6201 Rain 24 1007 100 10000 2.1 110 21:18 28.10.2020
6202 Rain 24 1007 100 10000 2.1 110 20:41 28.10.2020
6203 Drizzle 24 1007 94 10000 3.1 160 20:20 28.10.2020
6204 Drizzle 24 1007 94 10000 3.1 160 19:49 28.10.2020
6205 Drizzle 24 1007 94 10000 3.1 160 19:28 28.10.2020
6206 Clouds 25 1007 100 10000 6.2 90 18:47 28.10.2020
6207 Clouds 25 1007 100 10000 6.2 90 18:47 28.10.2020
6208 Rain 25 1006 94 10000 1 160 18:21 28.10.2020
6209 Rain 25 1006 94 10000 1 160 17:44 28.10.2020
6210 Rain 24 1007 100 10000 2.1 140 17:25 28.10.2020
6211 Rain 24 1007 100 10000 2.1 140 16:50 28.10.2020
6212 Rain 24 1007 100 10000 2.1 140 16:32 28.10.2020
6213 Clouds 25 1007 94 10000 1 180 15:55 28.10.2020
6214 Clouds 25 1007 94 10000 1 180 15:36 28.10.2020
6215 Rain 26 1008 81 10000 2.74 138 15:18 28.10.2020
6216 Clouds 26 1008 81 10000 2.74 138 14:41 28.10.2020
6217 Rain 26 1009 82 10000 2.69 135 14:20 28.10.2020
6218 Clouds 26 1010 82 10000 2.28 142 12:40 28.10.2020
6219 Rain 27 1010 81 10000 1.98 149 12:21 28.10.2020
6220 Clouds 27 1010 81 10000 1.98 149 11:45 28.10.2020
6221 Rain 27 1010 80 10000 1.46 148 11:24 28.10.2020
6222 Clouds 27 1010 80 10000 1.46 148 11:00 28.10.2020
6223 Clouds 27 1010 80 10000 1.46 148 10:40 28.10.2020
6224 Thunderstorm 27 1008 94 10000 1 230 10:22 28.10.2020
6225 Thunderstorm 27 1008 94 10000 1 230 10:22 28.10.2020
6226 Thunderstorm 27 1008 94 10000 1 230 09:41 28.10.2020
6227 Thunderstorm 28 1007 88 10000 4.1 90 09:21 28.10.2020
6228 Thunderstorm 28 1007 88 10000 4.1 90 08:48 28.10.2020
6229 Thunderstorm 28 1007 88 10000 4.1 90 08:27 28.10.2020
6230 Thunderstorm 30 1006 94 10000 1.77 78 07:48 28.10.2020
6231 Rain 30 1006 94 10000 1.77 78 07:30 28.10.2020
6232 Clouds 31 1006 74 10000 4.6 360 06:41 28.10.2020
6233 Clouds 30 1006 79 10000 2.6 20 05:51 28.10.2020
6234 Thunderstorm 32 1006 70 10000 3.1 50 04:54 28.10.2020
6235 Rain 31 1007 74 10000 5.1 20 04:25 28.10.2020
6236 Clouds 32 1009 66 10000 2.6 20 02:26 28.10.2020
6237 Clouds 30 1009 74 10000 1.5 20 01:50 28.10.2020
6238 Clouds 30 1010 74 10000 2.6 290 00:21 28.10.2020
6239 Clouds 30 1010 74 10000 2.6 290 23:38 27.10.2020
6240 Clouds 30 1010 74 10000 2.6 290 23:38 27.10.2020
6241 Clouds 28 1011 78 10000 1.5 180 23:20 27.10.2020
6242 Clouds 28 1011 78 10000 1.5 180 22:42 27.10.2020
6243 Clouds 25 1010 94 10000 1.5 180 22:19 27.10.2020
6244 Clouds 25 1010 94 10000 1.5 180 21:55 27.10.2020
6245 Clouds 25 1010 94 10000 1.5 180 21:37 27.10.2020
6246 Clouds 25 1010 94 10000 1.5 180 21:37 27.10.2020
6247 Clouds 24 1010 94 10000 1 160 21:18 27.10.2020
6248 Clouds 23 1009 100 10000 1 160 20:43 27.10.2020
6249 Clouds 23 1008 100 10000 2.1 90 20:22 27.10.2020
6250 Clouds 23 1008 100 10000 2.1 90 19:39 27.10.2020
6251 Clouds 23 1008 100 10000 1.24 163 19:21 27.10.2020
6252 Clouds 23 1008 100 10000 1.4 158 18:58 27.10.2020
6253 Clouds 23 1008 100 10000 1.24 163 18:40 27.10.2020
6254 Clouds 23 1008 100 10000 1.5 160 18:19 27.10.2020
6255 Clouds 23 1008 100 10000 1.5 160 17:43 27.10.2020
6256 Clouds 24 1009 94 10000 2.1 160 17:21 27.10.2020
6257 Clouds 24 1009 94 10000 2.1 160 16:48 27.10.2020
6258 Clouds 24 1009 94 10000 2.1 160 16:28 27.10.2020
6259 Clouds 24 1009 94 10000 1.5 140 15:55 27.10.2020
6260 Clouds 24 1009 94 10000 1.5 140 15:37 27.10.2020
6261 Clouds 24 1010 94 10000 1 200 15:18 27.10.2020
6262 Clouds 24 1010 94 10000 1 200 14:41 27.10.2020
6263 Rain 24 1010 94 10000 1 200 14:22 27.10.2020
6264 Clouds 24 1010 94 10000 1 200 13:41 27.10.2020
6265 Clouds 25 1010 94 10000 1 200 13:21 27.10.2020
6266 Clouds 25 1010 94 10000 1 200 12:40 27.10.2020
6267 Clouds 24 1010 100 10000 1 200 12:21 27.10.2020
6268 Rain 24 1010 100 10000 1 200 11:42 27.10.2020
6269 Clouds 25 1010 94 10000 1 180 11:23 27.10.2020
6270 Clouds 25 1010 94 10000 1 180 10:47 27.10.2020
6271 Clouds 25 1010 94 10000 1 180 10:28 27.10.2020
6272 Clouds 25 1009 94 10000 1 180 09:46 27.10.2020
6273 Clouds 25 1009 94 10000 1 180 09:26 27.10.2020
6274 Clouds 26 1008 88 10000 1 160 08:39 27.10.2020
6275 Clouds 26 1007 88 10000 2.1 180 08:20 27.10.2020
6276 Clouds 26 1007 88 10000 2.1 180 07:45 27.10.2020
6277 Clouds 26 1007 88 10000 2.1 180 07:26 27.10.2020
6278 Clouds 24 1008 100 10000 1 160 06:22 27.10.2020
6279 Thunderstorm 24 1007 100 10000 2.1 200 05:52 27.10.2020
6280 Thunderstorm 24 1007 100 10000 2.1 200 05:34 27.10.2020
6281 Clouds 24 1009 100 10000 5.1 110 04:44 27.10.2020
6282 Clouds 31 1009 70 10000 4.6 340 02:30 27.10.2020
6283 Clouds 30 1010 74 10000 2.6 20 00:53 27.10.2020
6284 Clouds 31 1011 74 10000 0.29 21 23:43 26.10.2020
6285 Clouds 28 1010 78 10000 1.5 160 23:19 26.10.2020
6286 Clouds 28 1010 78 10000 1.5 160 22:46 26.10.2020
6287 Clouds 25 1010 88 10000 2.1 180 22:21 26.10.2020
6288 Clouds 25 1010 88 10000 2.1 180 21:43 26.10.2020
6289 Clouds 23 1009 100 10000 1 160 21:20 26.10.2020
6290 Clouds 23 1009 100 10000 1 160 20:57 26.10.2020
6291 Clouds 23 1009 100 10000 1 160 20:38 26.10.2020
6292 Clouds 24 1009 94 10000 1.13 173 20:18 26.10.2020
6293 Clouds 24 1009 94 10000 1.13 173 19:46 26.10.2020
6294 Clouds 24 1009 94 10000 1.41 162 19:22 26.10.2020
6295 Clouds 24 1008 94 10000 1 180 18:44 26.10.2020
6296 Clouds 23 1008 94 10000 1.61 171 18:23 26.10.2020
6297 Clouds 23 1008 94 10000 1.61 171 17:45 26.10.2020
6298 Clouds 23 1008 94 10000 1 180 17:24 26.10.2020
6299 Clouds 23 1008 94 10000 1 180 16:59 26.10.2020
6300 Clouds 23 1008 94 10000 1 180 16:39 26.10.2020
6301 Clouds 24 1009 94 10000 1 140 16:19 26.10.2020
6302 Clouds 24 1009 94 10000 1 140 15:41 26.10.2020
6303 Rain 26 1009 81 10000 1.73 158 15:20 26.10.2020
6304 Rain 26 1009 81 10000 1.73 158 15:20 26.10.2020
6305 Rain 26 1009 81 10000 1.73 158 15:20 26.10.2020
6306 Clouds 26 1009 81 10000 1.73 158 14:46 26.10.2020
6307 Clouds 26 1009 81 10000 1.54 146 14:26 26.10.2020
6308 Clouds 25 1010 88 10000 1 140 13:43 26.10.2020
6309 Clouds 24 1010 94 10000 1 180 13:23 26.10.2020
6310 Clouds 24 1010 94 10000 1 180 12:48 26.10.2020
6311 Clouds 24 1010 94 10000 1 180 12:27 26.10.2020
6312 Clouds 25 1010 94 10000 1 140 11:56 26.10.2020
6313 Clouds 25 1010 94 10000 1 140 11:37 26.10.2020
6314 Clouds 25 1009 94 10000 1.43 130 11:18 26.10.2020
6315 Clouds 25 1009 94 10000 1.43 130 10:42 26.10.2020
6316 Clouds 25 1009 94 10000 1.43 130 10:42 26.10.2020
6317 Clouds 25 1009 94 10000 1.27 113 10:24 26.10.2020
6318 Clouds 26 1008 88 10000 1.27 113 09:48 26.10.2020
6319 Rain 26 1008 94 10000 1 160 09:25 26.10.2020
6320 Rain 26 1008 94 10000 1 160 08:31 26.10.2020
6321 Clouds 27 1007 83 10000 2.1 140 07:56 26.10.2020
6322 Clouds 27 1007 83 10000 2.1 140 07:56 26.10.2020
6323 Clouds 27 1007 83 10000 2.1 140 07:37 26.10.2020
6324 Clouds 28 1008 76 10000 0.38 66 06:38 26.10.2020
6325 Clouds 29 1007 75 10000 0.89 60 04:44 26.10.2020
6326 Clouds 30 1008 74 10000 4.1 360 04:18 26.10.2020
6327 Clouds 30 1010 74 10000 3.1 20 01:52 26.10.2020
6328 Clouds 30 1010 74 10000 2.6 50 01:23 26.10.2020
6329 Clouds 30 1010 74 10000 2.6 50 00:32 26.10.2020
6330 Clouds 29 1010 79 10000 1.5 90 23:41 25.10.2020
6331 Clouds 27 1010 83 10000 2.6 160 23:21 25.10.2020
6332 Clouds 27 1010 83 10000 2.6 160 22:41 25.10.2020
6333 Clouds 24 1009 94 10000 1.13 131 22:21 25.10.2020
6334 Clouds 24 1009 94 10000 1.13 131 22:21 25.10.2020
6335 Clouds 24 1009 94 10000 1.13 131 21:43 25.10.2020
6336 Clouds 24 1009 94 10000 1.39 148 21:24 25.10.2020
6337 Clouds 23 1009 100 10000 1.5 180 20:56 25.10.2020
6338 Clouds 23 1009 100 10000 1.5 180 20:37 25.10.2020
6339 Clouds 23 1008 100 10000 1.36 149 20:18 25.10.2020
6340 Clouds 23 1008 100 10000 1.36 149 19:48 25.10.2020
6341 Clouds 25 1009 78 10000 1.52 154 19:22 25.10.2020
6342 Clouds 25 1008 77 10000 1.8 139 18:55 25.10.2020
6343 Clouds 23 1007 100 10000 1 200 18:36 25.10.2020
6344 Clouds 23 1007 100 10000 1 200 18:18 25.10.2020
6345 Clouds 23 1007 100 10000 1 200 17:39 25.10.2020
6346 Clouds 23 1008 100 10000 2.1 145 17:20 25.10.2020
6347 Clouds 25 1008 79 10000 2.1 145 16:52 25.10.2020
6348 Clouds 24 1008 94 10000 2.1 145 16:32 25.10.2020
6349 Clouds 24 1008 94 10000 1.99 134 15:52 25.10.2020
6350 Clouds 24 1008 94 10000 1.99 134 15:32 25.10.2020
6351 Clouds 24 1009 100 10000 1.95 127 14:59 25.10.2020
6352 Clouds 24 1009 100 10000 1.95 127 14:38 25.10.2020
6353 Clouds 24 1010 100 10000 1.68 125 14:19 25.10.2020
6354 Clouds 24 1010 100 10000 1.68 125 13:42 25.10.2020
6355 Clouds 25 1011 94 10000 1.55 116 13:19 25.10.2020
6356 Clouds 25 1011 94 10000 2.17 105 12:46 25.10.2020
6357 Clouds 25 1011 94 10000 2.19 102 12:26 25.10.2020
6358 Clouds 25 1010 94 10000 1 180 11:44 25.10.2020
6359 Clouds 26 1010 94 10000 1.5 140 11:21 25.10.2020
6360 Clouds 26 1010 94 10000 1.5 140 11:21 25.10.2020
6361 Clouds 26 1010 94 10000 1.5 140 10:57 25.10.2020
6362 Clouds 26 1010 94 10000 1.5 140 10:38 25.10.2020
6363 Clouds 27 1010 88 10000 1 320 10:19 25.10.2020
6364 Clouds 27 1010 88 10000 1 320 09:40 25.10.2020
6365 Clouds 27 1009 88 10000 2.04 104 09:19 25.10.2020
6366 Clouds 27 1009 88 10000 2.04 104 08:41 25.10.2020
6367 Rain 27 1008 88 10000 1 180 08:22 25.10.2020
6368 Rain 27 1008 88 10000 1 180 07:46 25.10.2020
6369 Rain 27 1008 88 10000 1 180 07:24 25.10.2020
6370 Drizzle 27 1008 83 10000 3.1 180 06:36 25.10.2020
6371 Thunderstorm 36 1008 56 10000 4.1 70 05:34 25.10.2020
6372 Thunderstorm 32 1008 89 10000 4.6 50 04:51 25.10.2020
6373 Clouds 31 1010 84 10000 2.6 360 02:42 25.10.2020
6374 Clouds 30 1011 62 10000 1.22 49 00:54 25.10.2020
6375 Clouds 30 1011 62 10000 1.22 49 00:31 25.10.2020
6376 Clouds 27 1010 74 10000 1 180 23:59 24.10.2020
6377 Clouds 27 1010 74 10000 1 180 23:40 24.10.2020
6378 Clouds 24 1010 88 10000 1 180 23:20 24.10.2020
6379 Clouds 24 1010 88 10000 1 180 22:41 24.10.2020
6380 Clouds 23 1009 94 10000 1 180 22:23 24.10.2020
6381 Clouds 23 1009 94 10000 1 180 21:56 24.10.2020
6382 Clouds 23 1009 94 10000 1 180 21:37 24.10.2020
6383 Clouds 23 1008 94 10000 1 180 21:19 24.10.2020
6384 Clouds 23 1008 94 10000 1 180 20:43 24.10.2020
6385 Clouds 22 1008 94 10000 1 140 20:20 24.10.2020
6386 Clouds 22 1008 94 10000 1 140 19:42 24.10.2020
6387 Clouds 22 1007 100 10000 2.1 180 19:23 24.10.2020
6388 Clouds 22 1007 100 10000 2.1 180 18:51 24.10.2020
6389 Clouds 22 1007 100 10000 2.1 180 18:31 24.10.2020
6390 Clouds 25 1008 79 10000 1.66 146 17:46 24.10.2020
6391 Clouds 26 1009 80 10000 1.71 144 17:26 24.10.2020
6392 Clouds 23 1008 94 10000 1.71 144 16:53 24.10.2020
6393 Clouds 23 1008 94 10000 1.71 144 16:35 24.10.2020
6394 Clouds 23 1009 100 10000 1.7 147 15:58 24.10.2020
6395 Clouds 23 1009 100 10000 1.7 147 15:38 24.10.2020
6396 Clouds 24 1010 94 10000 1.5 110 15:18 24.10.2020
6397 Clouds 24 1010 94 10000 1.5 110 14:38 24.10.2020
6398 Clouds 24 1010 94 10000 1.5 140 14:19 24.10.2020
6399 Clouds 24 1010 94 10000 1.5 140 13:44 24.10.2020
6400 Clouds 24 1010 100 10000 1.17 151 13:19 24.10.2020
6401 Clouds 24 1010 100 10000 1.17 151 12:37 24.10.2020
6402 Clouds 25 1010 88 10000 1.5 180 12:19 24.10.2020
6403 Clouds 25 1010 88 10000 1.5 180 11:49 24.10.2020
6404 Clouds 25 1010 88 10000 1.5 180 11:23 24.10.2020
6405 Clouds 25 1009 94 10000 1.5 160 10:44 24.10.2020
6406 Clouds 25 1009 94 10000 1.5 160 10:26 24.10.2020
6407 Clouds 26 1009 88 10000 2.1 180 09:45 24.10.2020
6408 Clouds 26 1009 88 10000 2.1 180 09:45 24.10.2020
6409 Clouds 26 1009 88 10000 2.1 180 09:26 24.10.2020
6410 Clouds 27 1009 83 10000 2.1 230 08:54 24.10.2020
6411 Rain 28 1009 74 10000 0.43 72 08:19 24.10.2020
6412 Clouds 28 1009 74 10000 0.43 72 07:50 24.10.2020
6413 Clouds 27 1009 83 10000 4.1 200 07:20 24.10.2020
6414 Thunderstorm 27 1009 88 10000 4.1 180 06:49 24.10.2020
6415 Thunderstorm 31 1009 74 10000 2.6 20 04:59 24.10.2020
6416 Clouds 31 1012 59 10000 2.11 62 02:20 24.10.2020
6417 Clouds 29 1011 74 10000 4.1 110 00:44 24.10.2020
6418 Clouds 28 1011 78 10000 1.5 180 00:23 24.10.2020
6419 Clouds 28 1011 78 10000 1.5 180 23:59 23.10.2020
6420 Clouds 28 1011 78 10000 1.5 180 23:38 23.10.2020
6421 Clouds 22 1011 100 10000 1 200 23:19 23.10.2020
6422 Clouds 22 1011 100 10000 1 200 22:42 23.10.2020
6423 Clouds 22 1010 100 10000 1 200 22:21 23.10.2020
6424 Clouds 22 1010 100 10000 1 200 21:53 23.10.2020
6425 Clouds 22 1010 100 10000 1 200 21:30 23.10.2020
6426 Clouds 23 1010 94 10000 1 180 20:57 23.10.2020
6427 Clouds 23 1010 94 10000 1 180 20:37 23.10.2020
6428 Clouds 23 1009 94 10000 2.49 124 20:18 23.10.2020
6429 Clouds 23 1009 94 10000 2.7 125 19:42 23.10.2020
6430 Clouds 23 1009 94 10000 2.8 123 19:23 23.10.2020
6431 Clouds 23 1009 94 10000 1.5 180 18:42 23.10.2020
6432 Clouds 23 1009 94 10000 2.52 124 18:22 23.10.2020
6433 Clouds 23 1009 94 10000 2.52 124 17:44 23.10.2020
6434 Clouds 23 1009 94 10000 2.23 129 17:21 23.10.2020
6435 Clouds 23 1009 94 10000 2.23 129 17:21 23.10.2020
6436 Clouds 23 1010 100 10000 2.23 129 16:47 23.10.2020
6437 Clouds 23 1010 100 10000 2.52 119 16:26 23.10.2020
6438 Clouds 24 1010 94 10000 1.5 200 15:47 23.10.2020
6439 Clouds 24 1010 94 10000 1.5 200 15:25 23.10.2020
6440 Clouds 24 1011 94 10000 1 200 14:58 23.10.2020
6441 Clouds 24 1011 94 10000 1 200 14:40 23.10.2020
6442 Clouds 24 1011 94 10000 1 200 14:21 23.10.2020
6443 Clouds 24 1011 94 10000 1 200 13:38 23.10.2020
6444 Clouds 25 1011 94 10000 1 180 13:20 23.10.2020
6445 Clouds 25 1011 94 10000 1 180 12:48 23.10.2020
6446 Clouds 25 1011 94 10000 1 180 12:27 23.10.2020
6447 Clouds 26 1011 80 10000 2.6 124 11:48 23.10.2020
6448 Clouds 25 1010 94 10000 1 250 11:22 23.10.2020
6449 Clouds 25 1010 94 10000 1 250 10:47 23.10.2020
6450 Clouds 25 1010 94 10000 1 250 10:25 23.10.2020
6451 Clouds 25 1010 94 10000 1 250 10:25 23.10.2020
6452 Clouds 26 1009 88 10000 3.1 200 09:46 23.10.2020
6453 Clouds 26 1009 88 10000 3.1 200 09:27 23.10.2020
6454 Clouds 30 1008 74 10000 2.6 50 08:53 23.10.2020
6455 Clouds 30 1008 74 10000 2.6 50 08:33 23.10.2020
6456 Clouds 31 1007 62 10000 3.6 50 07:46 23.10.2020
6457 Thunderstorm 31 1008 58 10000 4.6 70 07:22 23.10.2020
6458 Rain 30 1008 74 10000 3.6 50 06:20 23.10.2020
6459 Rain 30 1008 74 10000 3.6 50 05:36 23.10.2020
6460 Rain 30 1011 70 10000 4.6 70 02:32 23.10.2020
6461 Clouds 28 1012 83 10000 1 140 01:30 23.10.2020
6462 Drizzle 27 1012 88 10000 1.5 140 00:47 23.10.2020
6463 Clouds 25 1012 94 10000 1 140 23:48 22.10.2020
6464 Clouds 25 1012 94 10000 1 140 23:26 22.10.2020
6465 Clouds 25 1011 94 10000 1 140 22:49 22.10.2020
6466 Clouds 25 1011 94 10000 1 140 22:27 22.10.2020
6467 Clouds 24 1011 94 10000 1 160 21:59 22.10.2020
6468 Clouds 24 1011 94 10000 1 160 21:41 22.10.2020
6469 Clouds 24 1010 94 10000 1 180 21:21 22.10.2020
6470 Clouds 24 1010 94 10000 1 180 20:45 22.10.2020
6471 Clouds 24 1010 94 10000 1 180 20:26 22.10.2020
6472 Clouds 26 1010 77 10000 1.19 142 19:58 22.10.2020
6473 Clouds 24 1009 94 10000 1.5 180 19:39 22.10.2020
6474 Clouds 24 1009 94 10000 1.5 180 19:18 22.10.2020
6475 Clouds 24 1009 94 10000 1.5 180 18:42 22.10.2020
6476 Clouds 25 1010 94 10000 1.5 180 18:19 22.10.2020
6477 Clouds 25 1010 94 10000 1.5 180 17:45 22.10.2020
6478 Clouds 26 1009 78 10000 1.47 176 17:22 22.10.2020
6479 Clouds 26 1009 78 10000 1.47 176 16:46 22.10.2020
6480 Clouds 24 1010 94 10000 1.88 166 16:25 22.10.2020
6481 Clouds 24 1010 94 10000 1.88 166 16:25 22.10.2020
6482 Rain 24 1010 94 10000 1.88 166 15:50 22.10.2020
6483 Rain 24 1010 94 10000 1.78 169 15:27 22.10.2020
6484 Clouds 25 1011 94 10000 1 160 14:58 22.10.2020
6485 Rain 25 1011 94 10000 1 160 14:38 22.10.2020
6486 Clouds 25 1011 94 10000 1 140 14:20 22.10.2020
6487 Rain 25 1011 94 10000 1 140 13:43 22.10.2020
6488 Clouds 25 1011 94 10000 1 180 13:22 22.10.2020
6489 Clouds 25 1011 94 10000 1 180 12:43 22.10.2020
6490 Rain 26 1010 83 10000 1 180 12:22 22.10.2020
6491 Clouds 26 1010 83 10000 1 180 11:45 22.10.2020
6492 Clouds 26 1009 88 10000 1.64 215 11:19 22.10.2020
6493 Clouds 26 1009 88 10000 1.64 215 10:49 22.10.2020
6494 Clouds 26 1009 88 10000 1.23 236 10:25 22.10.2020
6495 Clouds 28 1008 78 10000 1 340 09:44 22.10.2020
6496 Clouds 29 1008 70 10000 1 360 09:22 22.10.2020
6497 Rain 29 1008 70 10000 1 360 08:43 22.10.2020
6498 Clouds 29 1008 70 10000 1 360 08:25 22.10.2020
6499 Rain 30 1007 70 10000 1 270 07:43 22.10.2020
6500 Clouds 30 1008 70 10000 1.5 340 07:20 22.10.2020
6501 Clouds 30 1008 70 10000 1.5 340 06:45 22.10.2020
6502 Clouds 29 1008 70 10000 1 230 06:23 22.10.2020
6503 Clouds 29 1008 70 10000 1 230 05:38 22.10.2020
6504 Clouds 28 1010 78 10000 3.1 200 03:25 22.10.2020
6505 Drizzle 25 1012 94 10000 4.1 320 00:55 22.10.2020
6506 Clouds 27 1011 83 10000 5.1 270 00:22 22.10.2020
6507 Clouds 27 1011 83 10000 5.1 270 23:43 21.10.2020
6508 Clouds 25 1009 94 10000 0.95 96 23:19 21.10.2020
6509 Clouds 25 1009 94 10000 0.95 96 22:37 21.10.2020
6510 Clouds 23 1009 100 10000 1 160 22:19 21.10.2020
6511 Clouds 23 1009 100 10000 1 160 21:45 21.10.2020
6512 Clouds 23 1008 100 10000 1 160 21:20 21.10.2020
6513 Clouds 23 1008 100 10000 1 160 20:57 21.10.2020
6514 Clouds 23 1008 100 10000 1 160 20:57 21.10.2020
6515 Clouds 23 1008 100 10000 1 160 20:39 21.10.2020
6516 Clouds 23 1008 100 10000 1 180 20:18 21.10.2020
6517 Clouds 23 1008 100 10000 1 180 19:40 21.10.2020
6518 Clouds 23 1008 100 10000 1 140 19:22 21.10.2020
6519 Clouds 23 1008 100 10000 1 140 18:48 21.10.2020
6520 Clouds 24 1008 94 10000 1 107 18:26 21.10.2020
6521 Clouds 24 1008 94 10000 1 107 17:48 21.10.2020
6522 Clouds 24 1009 94 10000 1 180 17:21 21.10.2020
6523 Clouds 24 1009 94 10000 1 180 16:57 21.10.2020
6524 Clouds 24 1009 94 10000 1 180 16:36 21.10.2020
6525 Clouds 24 1010 94 10000 1 200 16:18 21.10.2020
6526 Clouds 24 1010 94 10000 1 200 15:44 21.10.2020
6527 Clouds 25 1010 88 10000 1 200 15:21 21.10.2020
6528 Clouds 25 1010 88 10000 1 200 14:46 21.10.2020
6529 Clouds 25 1010 88 10000 1 200 14:28 21.10.2020
6530 Clouds 25 1010 94 10000 1 160 13:46 21.10.2020
6531 Clouds 25 1010 94 10000 1 160 13:27 21.10.2020
6532 Clouds 25 1010 94 10000 1 160 13:27 21.10.2020
6533 Clouds 25 1010 94 10000 1 200 12:55 21.10.2020
6534 Clouds 25 1010 94 10000 1 200 12:37 21.10.2020
6535 Rain 26 1010 79 10000 1.6 73 12:18 21.10.2020
6536 Rain 26 1010 79 10000 1.6 73 11:40 21.10.2020
6537 Rain 26 1009 88 10000 1.5 160 11:20 21.10.2020
6538 Rain 26 1009 88 10000 1.5 160 10:46 21.10.2020
6539 Clouds 26 1009 88 10000 1.5 160 10:25 21.10.2020
6540 Rain 27 1008 83 10000 3.1 160 09:53 21.10.2020
6541 Rain 27 1008 83 10000 3.1 160 09:53 21.10.2020
6542 Rain 27 1008 83 10000 3.1 160 09:33 21.10.2020
6543 Drizzle 27 1008 88 10000 5.1 70 08:56 21.10.2020
6544 Drizzle 27 1008 88 10000 5.1 70 08:56 21.10.2020
6545 Drizzle 27 1008 88 10000 5.1 70 08:38 21.10.2020
6546 Clouds 31 1007 66 10000 3.1 50 08:19 21.10.2020
6547 Clouds 31 1007 66 10000 3.1 50 07:31 21.10.2020
6548 Clouds 32 1007 62 10000 3.1 20 06:50 21.10.2020
6549 Clouds 31 1008 66 10000 3.1 70 06:26 21.10.2020
6550 Clouds 31 1009 70 10000 4.1 50 04:46 21.10.2020
6551 Clouds 29 1010 70 10000 3.1 110 00:51 21.10.2020
6552 Clouds 26 1010 78 10000 1 160 23:49 20.10.2020
6553 Clouds 24 1009 94 10000 2.1 160 22:52 20.10.2020
6554 Clouds 24 1009 94 10000 2.1 160 22:28 20.10.2020
6555 Clouds 23 1008 100 10000 1 140 21:49 20.10.2020
6556 Clouds 22 1007 100 10000 3.63 115 21:20 20.10.2020
6557 Clouds 22 1007 100 10000 3.63 115 20:45 20.10.2020
6558 Clouds 22 1007 100 10000 3.37 112 20:25 20.10.2020
6559 Clouds 22 1007 100 10000 3.37 112 20:25 20.10.2020
6560 Clouds 22 1007 100 10000 3.37 112 20:25 20.10.2020
6561 Clouds 25 1007 81 10000 3.05 121 19:57 20.10.2020
6562 Clouds 24 1007 88 10000 1 140 19:39 20.10.2020
6563 Clouds 24 1007 88 10000 1 140 19:21 20.10.2020
6564 Clouds 24 1007 88 10000 1 140 18:46 20.10.2020
6565 Clouds 24 1008 88 10000 3.1 160 18:26 20.10.2020
6566 Clouds 24 1008 88 10000 3.1 160 17:43 20.10.2020
6567 Rain 26 1007 80 10000 2.83 106 17:24 20.10.2020
6568 Clouds 26 1007 80 10000 2.83 106 16:48 20.10.2020
6569 Clouds 26 1007 80 10000 2.83 106 16:48 20.10.2020
6570 Clouds 24 1009 94 10000 4.1 140 16:26 20.10.2020
6571 Clouds 24 1009 94 10000 4.1 140 15:50 20.10.2020
6572 Clouds 24 1009 94 10000 4.1 140 15:31 20.10.2020
6573 Clouds 25 1010 88 10000 6.7 110 14:55 20.10.2020
6574 Clouds 25 1010 88 10000 6.7 110 14:37 20.10.2020
6575 Clouds 25 1010 88 10000 6.7 110 14:37 20.10.2020
6576 Clouds 24 1010 100 10000 3.6 140 14:19 20.10.2020
6577 Clouds 24 1010 100 10000 3.6 140 13:42 20.10.2020
6578 Clouds 25 1010 94 10000 4.1 140 13:21 20.10.2020
6579 Clouds 25 1010 94 10000 4.1 140 12:54 20.10.2020
6580 Clouds 25 1010 94 10000 4.1 140 12:31 20.10.2020
6581 Clouds 25 1009 94 10000 1.5 110 11:49 20.10.2020
6582 Clouds 25 1009 94 10000 1.5 110 11:49 20.10.2020
6583 Clouds 25 1009 94 10000 1.5 110 11:31 20.10.2020
6584 Clouds 25 1009 94 10000 2.6 140 10:58 20.10.2020
6585 Clouds 25 1009 94 10000 2.6 140 10:28 20.10.2020
6586 Clouds 25 1007 94 10000 1.5 110 09:50 20.10.2020
6587 Clouds 25 1007 94 10000 1.5 110 09:20 20.10.2020
6588 Drizzle 25 1007 94 10000 1.34 108 08:53 20.10.2020
6589 Drizzle 25 1007 94 10000 1.36 82 08:27 20.10.2020
6590 Drizzle 24 1007 100 10000 2.1 160 07:49 20.10.2020
6591 Drizzle 24 1007 100 10000 2.1 160 07:24 20.10.2020
6592 Drizzle 26 1007 88 10000 2.1 160 06:24 20.10.2020
6593 Rain 29 1008 74 10000 3.1 160 04:58 20.10.2020
6594 Clouds 31 1008 74 10000 4.1 50 02:33 20.10.2020
6595 Clouds 30 1009 74 10000 2.6 50 01:43 20.10.2020
6596 Clouds 30 1009 74 10000 1.28 78 00:56 20.10.2020
6597 Clouds 30 1009 74 10000 1.28 78 00:37 20.10.2020
6598 Clouds 27 1009 83 10000 1.28 102 00:18 20.10.2020
6599 Clouds 27 1009 83 10000 1.19 139 23:29 19.10.2020
6600 Clouds 25 1009 94 10000 1 160 22:59 19.10.2020
6601 Clouds 25 1009 94 10000 1 160 22:34 19.10.2020
6602 Clouds 25 1008 88 10000 1 110 21:58 19.10.2020
6603 Clouds 25 1008 88 10000 1 110 21:39 19.10.2020
6604 Rain 24 1007 94 10000 1 160 21:19 19.10.2020
6605 Clouds 24 1007 94 10000 1 160 20:44 19.10.2020
6606 Clouds 24 1007 94 10000 1 160 20:26 19.10.2020
6607 Clouds 24 1007 94 10000 1 160 19:46 19.10.2020
6608 Clouds 24 1007 94 10000 1 230 19:20 19.10.2020
6609 Clouds 24 1007 94 10000 1 230 18:51 19.10.2020
6610 Clouds 24 1007 94 10000 1 230 18:31 19.10.2020
6611 Clouds 24 1008 94 10000 1 160 17:49 19.10.2020
6612 Clouds 24 1008 94 10000 1 180 17:28 19.10.2020
6613 Clouds 24 1008 94 10000 1 180 16:54 19.10.2020
6614 Clouds 24 1008 94 10000 1 180 16:30 19.10.2020
6615 Clear 26 1008 78 10000 2.29 128 15:57 19.10.2020
6616 Clear 26 1008 78 10000 2.29 128 15:36 19.10.2020
6617 Clear 26 1009 78 10000 2.39 123 15:18 19.10.2020
6618 Clear 26 1009 78 10000 2.39 123 14:40 19.10.2020
6619 Clouds 26 1009 78 10000 2.45 124 14:21 19.10.2020
6620 Clouds 26 1009 77 10000 2.37 129 13:44 19.10.2020
6621 Rain 26 1010 77 10000 2.26 126 13:26 19.10.2020
6622 Clouds 26 1010 77 10000 2.26 126 12:45 19.10.2020
6623 Clouds 26 1010 78 10000 2.09 128 12:26 19.10.2020
6624 Clouds 26 1010 78 10000 2.09 128 11:51 19.10.2020
6625 Drizzle 25 1008 100 10000 1.84 133 11:24 19.10.2020
6626 Drizzle 25 1008 100 10000 1.84 133 10:45 19.10.2020
6627 Drizzle 25 1008 100 10000 1 180 10:24 19.10.2020
6628 Drizzle 25 1008 100 10000 1 180 09:57 19.10.2020
6629 Drizzle 25 1008 100 10000 1 180 09:36 19.10.2020
6630 Drizzle 24 1007 94 10000 1 230 09:18 19.10.2020
6631 Drizzle 24 1007 94 10000 1 230 08:41 19.10.2020
6632 Clouds 23 1007 100 10000 2.6 140 08:20 19.10.2020
6633 Clouds 24 1007 88 2000 8.2 160 07:21 19.10.2020
6634 Clouds 24 1007 88 2000 8.2 160 06:36 19.10.2020
6635 Clouds 31 1007 70 10000 5.7 50 04:47 19.10.2020
6636 Clouds 31 1008 70 10000 4.6 50 03:45 19.10.2020
6637 Clouds 30 1010 74 10000 2.6 110 01:33 19.10.2020
6638 Clouds 27 1010 88 10000 2.1 180 00:28 19.10.2020
6639 Clouds 26 1010 88 10000 1.5 250 23:56 18.10.2020
6640 Clouds 26 1010 88 1000